<?xml version="1.0" encoding="UTF-8" standalone="no" ?>
<gpx xmlns="http://www.topografix.com/GPX/1/1" xmlns:xsi="http://www.w3.org/2001/XMLSchema-instance" xsi:schemaLocation="http://www.topografix.com/GPX/1/1 http://www.topografix.com/GPX/1/1/gpx.xsd" version="1.1" creator="VisuGPX - https://www.visugpx.com">
  <metadata>
    <name>Monte Viraysse (Cime de la Coste du Col)</name>
    <desc><![CDATA[Saretto di Acceglio - Monte Viraysse (Cime de la Coste du Col)]]></desc>
  </metadata>
  <trk>
    <name><![CDATA[Traccia corrente: 10 APR 2013 07:19]]></name>
    <trkseg>
      <trkpt lat="44.48526" lon="6.92772">
        <ele>1535.84</ele>
        <time>2013-04-10T05:26:28Z</time>
      </trkpt>
      <trkpt lat="44.48526" lon="6.92772">
        <ele>1535.84</ele>
        <time>2013-04-10T05:26:29Z</time>
      </trkpt>
      <trkpt lat="44.48526" lon="6.92772">
        <ele>1538.73</ele>
        <time>2013-04-10T05:26:35Z</time>
      </trkpt>
      <trkpt lat="44.48526" lon="6.92772">
        <ele>1538.73</ele>
        <time>2013-04-10T05:26:36Z</time>
      </trkpt>
      <trkpt lat="44.48526" lon="6.92772">
        <ele>1539.69</ele>
        <time>2013-04-10T05:26:56Z</time>
      </trkpt>
      <trkpt lat="44.48526" lon="6.92772">
        <ele>1540.17</ele>
        <time>2013-04-10T05:27:26Z</time>
      </trkpt>
      <trkpt lat="44.48525" lon="6.92773">
        <ele>1541.61</ele>
        <time>2013-04-10T05:27:33Z</time>
      </trkpt>
      <trkpt lat="44.48526" lon="6.92769">
        <ele>1541.61</ele>
        <time>2013-04-10T05:27:43Z</time>
      </trkpt>
      <trkpt lat="44.48526" lon="6.92768">
        <ele>1541.61</ele>
        <time>2013-04-10T05:27:44Z</time>
      </trkpt>
      <trkpt lat="44.48528" lon="6.92762">
        <ele>1541.61</ele>
        <time>2013-04-10T05:27:58Z</time>
      </trkpt>
      <trkpt lat="44.48534" lon="6.92755">
        <ele>1541.61</ele>
        <time>2013-04-10T05:28:11Z</time>
      </trkpt>
      <trkpt lat="44.48539" lon="6.92748">
        <ele>1541.61</ele>
        <time>2013-04-10T05:28:23Z</time>
      </trkpt>
      <trkpt lat="44.48537" lon="6.92745">
        <ele>1541.61</ele>
        <time>2013-04-10T05:28:35Z</time>
      </trkpt>
      <trkpt lat="44.48537" lon="6.92744">
        <ele>1541.61</ele>
        <time>2013-04-10T05:28:46Z</time>
      </trkpt>
      <trkpt lat="44.48537" lon="6.92744">
        <ele>1541.61</ele>
        <time>2013-04-10T05:28:59Z</time>
      </trkpt>
      <trkpt lat="44.48537" lon="6.92744">
        <ele>1541.61</ele>
        <time>2013-04-10T05:29:07Z</time>
      </trkpt>
      <trkpt lat="44.48537" lon="6.92744">
        <ele>1541.61</ele>
        <time>2013-04-10T05:29:23Z</time>
      </trkpt>
      <trkpt lat="44.48537" lon="6.92744">
        <ele>1543.05</ele>
        <time>2013-04-10T05:29:26Z</time>
      </trkpt>
      <trkpt lat="44.48531" lon="6.9274">
        <ele>1540.65</ele>
        <time>2013-04-10T05:29:38Z</time>
      </trkpt>
      <trkpt lat="44.48531" lon="6.9274">
        <ele>1540.65</ele>
        <time>2013-04-10T05:29:55Z</time>
      </trkpt>
      <trkpt lat="44.48529" lon="6.92736">
        <ele>1540.65</ele>
        <time>2013-04-10T05:30:09Z</time>
      </trkpt>
      <trkpt lat="44.48525" lon="6.92729">
        <ele>1540.65</ele>
        <time>2013-04-10T05:30:22Z</time>
      </trkpt>
      <trkpt lat="44.48518" lon="6.92722">
        <ele>1540.65</ele>
        <time>2013-04-10T05:30:32Z</time>
      </trkpt>
      <trkpt lat="44.48513" lon="6.92713">
        <ele>1540.65</ele>
        <time>2013-04-10T05:30:45Z</time>
      </trkpt>
      <trkpt lat="44.48508" lon="6.92702">
        <ele>1539.69</ele>
        <time>2013-04-10T05:30:58Z</time>
      </trkpt>
      <trkpt lat="44.48502" lon="6.92697">
        <ele>1539.69</ele>
        <time>2013-04-10T05:31:12Z</time>
      </trkpt>
      <trkpt lat="44.48497" lon="6.9269">
        <ele>1538.25</ele>
        <time>2013-04-10T05:31:25Z</time>
      </trkpt>
      <trkpt lat="44.48497" lon="6.92689">
        <ele>1540.17</ele>
        <time>2013-04-10T05:31:27Z</time>
      </trkpt>
      <trkpt lat="44.48491" lon="6.9268">
        <ele>1539.69</ele>
        <time>2013-04-10T05:31:38Z</time>
      </trkpt>
      <trkpt lat="44.48489" lon="6.92675">
        <ele>1539.69</ele>
        <time>2013-04-10T05:31:44Z</time>
      </trkpt>
      <trkpt lat="44.48482" lon="6.92665">
        <ele>1539.21</ele>
        <time>2013-04-10T05:31:59Z</time>
      </trkpt>
      <trkpt lat="44.4848" lon="6.92661">
        <ele>1539.21</ele>
        <time>2013-04-10T05:32:07Z</time>
      </trkpt>
      <trkpt lat="44.48475" lon="6.92643">
        <ele>1538.73</ele>
        <time>2013-04-10T05:32:23Z</time>
      </trkpt>
      <trkpt lat="44.48474" lon="6.92642">
        <ele>1538.73</ele>
        <time>2013-04-10T05:32:24Z</time>
      </trkpt>
      <trkpt lat="44.4847" lon="6.92626">
        <ele>1538.73</ele>
        <time>2013-04-10T05:32:38Z</time>
      </trkpt>
      <trkpt lat="44.48469" lon="6.92624">
        <ele>1538.73</ele>
        <time>2013-04-10T05:32:40Z</time>
      </trkpt>
      <trkpt lat="44.48466" lon="6.92612">
        <ele>1538.73</ele>
        <time>2013-04-10T05:32:52Z</time>
      </trkpt>
      <trkpt lat="44.48462" lon="6.92602">
        <ele>1538.73</ele>
        <time>2013-04-10T05:33:10Z</time>
      </trkpt>
      <trkpt lat="44.48456" lon="6.92594">
        <ele>1538.25</ele>
        <time>2013-04-10T05:33:24Z</time>
      </trkpt>
      <trkpt lat="44.48444" lon="6.92583">
        <ele>1537.77</ele>
        <time>2013-04-10T05:33:40Z</time>
      </trkpt>
      <trkpt lat="44.48434" lon="6.92573">
        <ele>1537.77</ele>
        <time>2013-04-10T05:33:54Z</time>
      </trkpt>
      <trkpt lat="44.48425" lon="6.92566">
        <ele>1539.21</ele>
        <time>2013-04-10T05:34:08Z</time>
      </trkpt>
      <trkpt lat="44.48419" lon="6.92563">
        <ele>1541.13</ele>
        <time>2013-04-10T05:34:22Z</time>
      </trkpt>
      <trkpt lat="44.48416" lon="6.92563">
        <ele>1542.09</ele>
        <time>2013-04-10T05:34:35Z</time>
      </trkpt>
      <trkpt lat="44.4841" lon="6.92558">
        <ele>1543.53</ele>
        <time>2013-04-10T05:34:46Z</time>
      </trkpt>
      <trkpt lat="44.48402" lon="6.9255">
        <ele>1544.5</ele>
        <time>2013-04-10T05:34:58Z</time>
      </trkpt>
      <trkpt lat="44.48398" lon="6.92542">
        <ele>1546.42</ele>
        <time>2013-04-10T05:35:13Z</time>
      </trkpt>
      <trkpt lat="44.48398" lon="6.92539">
        <ele>1547.86</ele>
        <time>2013-04-10T05:35:27Z</time>
      </trkpt>
      <trkpt lat="44.48398" lon="6.92532">
        <ele>1549.78</ele>
        <time>2013-04-10T05:35:38Z</time>
      </trkpt>
      <trkpt lat="44.48388" lon="6.92533">
        <ele>1551.22</ele>
        <time>2013-04-10T05:35:52Z</time>
      </trkpt>
      <trkpt lat="44.48378" lon="6.92534">
        <ele>1552.19</ele>
        <time>2013-04-10T05:36:07Z</time>
      </trkpt>
      <trkpt lat="44.48371" lon="6.92536">
        <ele>1554.11</ele>
        <time>2013-04-10T05:36:20Z</time>
      </trkpt>
      <trkpt lat="44.48363" lon="6.9254">
        <ele>1555.07</ele>
        <time>2013-04-10T05:36:33Z</time>
      </trkpt>
      <trkpt lat="44.48358" lon="6.92548">
        <ele>1556.51</ele>
        <time>2013-04-10T05:36:48Z</time>
      </trkpt>
      <trkpt lat="44.4835" lon="6.92553">
        <ele>1558.43</ele>
        <time>2013-04-10T05:37:02Z</time>
      </trkpt>
      <trkpt lat="44.48345" lon="6.92546">
        <ele>1560.84</ele>
        <time>2013-04-10T05:37:18Z</time>
      </trkpt>
      <trkpt lat="44.48346" lon="6.92539">
        <ele>1564.2</ele>
        <time>2013-04-10T05:37:29Z</time>
      </trkpt>
      <trkpt lat="44.48349" lon="6.92533">
        <ele>1564.2</ele>
        <time>2013-04-10T05:37:46Z</time>
      </trkpt>
      <trkpt lat="44.48341" lon="6.9253">
        <ele>1566.12</ele>
        <time>2013-04-10T05:37:59Z</time>
      </trkpt>
      <trkpt lat="44.48334" lon="6.92533">
        <ele>1569.01</ele>
        <time>2013-04-10T05:38:18Z</time>
      </trkpt>
      <trkpt lat="44.48322" lon="6.92538">
        <ele>1569.97</ele>
        <time>2013-04-10T05:38:35Z</time>
      </trkpt>
      <trkpt lat="44.48319" lon="6.92542">
        <ele>1570.45</ele>
        <time>2013-04-10T05:38:40Z</time>
      </trkpt>
      <trkpt lat="44.48312" lon="6.92555">
        <ele>1571.41</ele>
        <time>2013-04-10T05:38:54Z</time>
      </trkpt>
      <trkpt lat="44.48307" lon="6.92564">
        <ele>1572.85</ele>
        <time>2013-04-10T05:39:09Z</time>
      </trkpt>
      <trkpt lat="44.48299" lon="6.92561">
        <ele>1574.78</ele>
        <time>2013-04-10T05:39:23Z</time>
      </trkpt>
      <trkpt lat="44.48294" lon="6.92562">
        <ele>1577.66</ele>
        <time>2013-04-10T05:39:31Z</time>
      </trkpt>
      <trkpt lat="44.48294" lon="6.92563">
        <ele>1576.22</ele>
        <time>2013-04-10T05:39:33Z</time>
      </trkpt>
      <trkpt lat="44.48286" lon="6.92561">
        <ele>1578.62</ele>
        <time>2013-04-10T05:39:50Z</time>
      </trkpt>
      <trkpt lat="44.48278" lon="6.92554">
        <ele>1581.03</ele>
        <time>2013-04-10T05:40:05Z</time>
      </trkpt>
      <trkpt lat="44.48276" lon="6.92548">
        <ele>1581.51</ele>
        <time>2013-04-10T05:40:20Z</time>
      </trkpt>
      <trkpt lat="44.48271" lon="6.9254">
        <ele>1582.47</ele>
        <time>2013-04-10T05:40:35Z</time>
      </trkpt>
      <trkpt lat="44.48267" lon="6.92529">
        <ele>1583.43</ele>
        <time>2013-04-10T05:40:49Z</time>
      </trkpt>
      <trkpt lat="44.48262" lon="6.92523">
        <ele>1585.35</ele>
        <time>2013-04-10T05:41:01Z</time>
      </trkpt>
      <trkpt lat="44.48258" lon="6.92518">
        <ele>1586.31</ele>
        <time>2013-04-10T05:41:16Z</time>
      </trkpt>
      <trkpt lat="44.48253" lon="6.92513">
        <ele>1588.24</ele>
        <time>2013-04-10T05:41:29Z</time>
      </trkpt>
      <trkpt lat="44.48248" lon="6.9251">
        <ele>1589.68</ele>
        <time>2013-04-10T05:41:43Z</time>
      </trkpt>
      <trkpt lat="44.48242" lon="6.92505">
        <ele>1591.6</ele>
        <time>2013-04-10T05:41:55Z</time>
      </trkpt>
      <trkpt lat="44.48235" lon="6.92499">
        <ele>1592.56</ele>
        <time>2013-04-10T05:42:09Z</time>
      </trkpt>
      <trkpt lat="44.48232" lon="6.92492">
        <ele>1594.48</ele>
        <time>2013-04-10T05:42:22Z</time>
      </trkpt>
      <trkpt lat="44.48227" lon="6.92483">
        <ele>1595.93</ele>
        <time>2013-04-10T05:42:37Z</time>
      </trkpt>
      <trkpt lat="44.4822" lon="6.92474">
        <ele>1597.85</ele>
        <time>2013-04-10T05:42:52Z</time>
      </trkpt>
      <trkpt lat="44.48217" lon="6.92472">
        <ele>1598.81</ele>
        <time>2013-04-10T05:43:03Z</time>
      </trkpt>
      <trkpt lat="44.4821" lon="6.92464">
        <ele>1600.73</ele>
        <time>2013-04-10T05:43:18Z</time>
      </trkpt>
      <trkpt lat="44.48204" lon="6.92458">
        <ele>1604.58</ele>
        <time>2013-04-10T05:43:32Z</time>
      </trkpt>
      <trkpt lat="44.48198" lon="6.92454">
        <ele>1604.58</ele>
        <time>2013-04-10T05:43:43Z</time>
      </trkpt>
      <trkpt lat="44.48193" lon="6.9245">
        <ele>1606.02</ele>
        <time>2013-04-10T05:43:56Z</time>
      </trkpt>
      <trkpt lat="44.48191" lon="6.92449">
        <ele>1606.98</ele>
        <time>2013-04-10T05:44:05Z</time>
      </trkpt>
      <trkpt lat="44.48187" lon="6.92448">
        <ele>1608.42</ele>
        <time>2013-04-10T05:44:16Z</time>
      </trkpt>
      <trkpt lat="44.48183" lon="6.92444">
        <ele>1609.86</ele>
        <time>2013-04-10T05:44:30Z</time>
      </trkpt>
      <trkpt lat="44.48179" lon="6.92445">
        <ele>1612.27</ele>
        <time>2013-04-10T05:44:44Z</time>
      </trkpt>
      <trkpt lat="44.48173" lon="6.92444">
        <ele>1613.71</ele>
        <time>2013-04-10T05:44:58Z</time>
      </trkpt>
      <trkpt lat="44.4817" lon="6.92444">
        <ele>1614.67</ele>
        <time>2013-04-10T05:45:13Z</time>
      </trkpt>
      <trkpt lat="44.48164" lon="6.92444">
        <ele>1616.59</ele>
        <time>2013-04-10T05:45:30Z</time>
      </trkpt>
      <trkpt lat="44.48155" lon="6.92444">
        <ele>1618.52</ele>
        <time>2013-04-10T05:45:44Z</time>
      </trkpt>
      <trkpt lat="44.48155" lon="6.92444">
        <ele>1618.52</ele>
        <time>2013-04-10T05:45:45Z</time>
      </trkpt>
      <trkpt lat="44.48147" lon="6.92443">
        <ele>1620.92</ele>
        <time>2013-04-10T05:46:00Z</time>
      </trkpt>
      <trkpt lat="44.48145" lon="6.92437">
        <ele>1624.28</ele>
        <time>2013-04-10T05:46:16Z</time>
      </trkpt>
      <trkpt lat="44.48148" lon="6.92431">
        <ele>1625.25</ele>
        <time>2013-04-10T05:46:31Z</time>
      </trkpt>
      <trkpt lat="44.48153" lon="6.92424">
        <ele>1627.17</ele>
        <time>2013-04-10T05:46:46Z</time>
      </trkpt>
      <trkpt lat="44.48146" lon="6.92421">
        <ele>1628.61</ele>
        <time>2013-04-10T05:46:58Z</time>
      </trkpt>
      <trkpt lat="44.4814" lon="6.92421">
        <ele>1630.53</ele>
        <time>2013-04-10T05:47:12Z</time>
      </trkpt>
      <trkpt lat="44.48139" lon="6.92418">
        <ele>1632.46</ele>
        <time>2013-04-10T05:47:27Z</time>
      </trkpt>
      <trkpt lat="44.48141" lon="6.92413">
        <ele>1633.9</ele>
        <time>2013-04-10T05:47:42Z</time>
      </trkpt>
      <trkpt lat="44.4814" lon="6.9241">
        <ele>1635.34</ele>
        <time>2013-04-10T05:47:47Z</time>
      </trkpt>
      <trkpt lat="44.48141" lon="6.92403">
        <ele>1637.26</ele>
        <time>2013-04-10T05:48:00Z</time>
      </trkpt>
      <trkpt lat="44.48134" lon="6.924">
        <ele>1640.15</ele>
        <time>2013-04-10T05:48:13Z</time>
      </trkpt>
      <trkpt lat="44.48132" lon="6.92399">
        <ele>1641.59</ele>
        <time>2013-04-10T05:48:27Z</time>
      </trkpt>
      <trkpt lat="44.48133" lon="6.92393">
        <ele>1643.03</ele>
        <time>2013-04-10T05:48:40Z</time>
      </trkpt>
      <trkpt lat="44.48133" lon="6.92389">
        <ele>1644.47</ele>
        <time>2013-04-10T05:48:53Z</time>
      </trkpt>
      <trkpt lat="44.48136" lon="6.92384">
        <ele>1646.4</ele>
        <time>2013-04-10T05:49:10Z</time>
      </trkpt>
      <trkpt lat="44.48141" lon="6.9238">
        <ele>1647.84</ele>
        <time>2013-04-10T05:49:27Z</time>
      </trkpt>
      <trkpt lat="44.48144" lon="6.92379">
        <ele>1649.28</ele>
        <time>2013-04-10T05:49:41Z</time>
      </trkpt>
      <trkpt lat="44.48149" lon="6.92375">
        <ele>1649.28</ele>
        <time>2013-04-10T05:49:57Z</time>
      </trkpt>
      <trkpt lat="44.48143" lon="6.92369">
        <ele>1651.68</ele>
        <time>2013-04-10T05:50:10Z</time>
      </trkpt>
      <trkpt lat="44.48142" lon="6.92367">
        <ele>1653.12</ele>
        <time>2013-04-10T05:50:24Z</time>
      </trkpt>
      <trkpt lat="44.48138" lon="6.92363">
        <ele>1655.05</ele>
        <time>2013-04-10T05:50:36Z</time>
      </trkpt>
      <trkpt lat="44.48134" lon="6.9236">
        <ele>1656.01</ele>
        <time>2013-04-10T05:50:48Z</time>
      </trkpt>
      <trkpt lat="44.48129" lon="6.92356">
        <ele>1657.93</ele>
        <time>2013-04-10T05:51:05Z</time>
      </trkpt>
      <trkpt lat="44.48122" lon="6.92355">
        <ele>1660.81</ele>
        <time>2013-04-10T05:51:21Z</time>
      </trkpt>
      <trkpt lat="44.48116" lon="6.9235">
        <ele>1665.14</ele>
        <time>2013-04-10T05:51:35Z</time>
      </trkpt>
      <trkpt lat="44.48116" lon="6.92349">
        <ele>1664.18</ele>
        <time>2013-04-10T05:51:36Z</time>
      </trkpt>
      <trkpt lat="44.48116" lon="6.92346">
        <ele>1665.14</ele>
        <time>2013-04-10T05:51:47Z</time>
      </trkpt>
      <trkpt lat="44.48116" lon="6.92338">
        <ele>1667.06</ele>
        <time>2013-04-10T05:52:05Z</time>
      </trkpt>
      <trkpt lat="44.48115" lon="6.92329">
        <ele>1669.47</ele>
        <time>2013-04-10T05:52:20Z</time>
      </trkpt>
      <trkpt lat="44.48111" lon="6.92324">
        <ele>1671.39</ele>
        <time>2013-04-10T05:52:33Z</time>
      </trkpt>
      <trkpt lat="44.48107" lon="6.92322">
        <ele>1672.83</ele>
        <time>2013-04-10T05:52:46Z</time>
      </trkpt>
      <trkpt lat="44.48101" lon="6.92319">
        <ele>1673.79</ele>
        <time>2013-04-10T05:52:58Z</time>
      </trkpt>
      <trkpt lat="44.48095" lon="6.92315">
        <ele>1675.72</ele>
        <time>2013-04-10T05:53:13Z</time>
      </trkpt>
      <trkpt lat="44.48092" lon="6.9231">
        <ele>1676.68</ele>
        <time>2013-04-10T05:53:26Z</time>
      </trkpt>
      <trkpt lat="44.48089" lon="6.92305">
        <ele>1677.16</ele>
        <time>2013-04-10T05:53:40Z</time>
      </trkpt>
      <trkpt lat="44.48088" lon="6.92297">
        <ele>1678.6</ele>
        <time>2013-04-10T05:53:55Z</time>
      </trkpt>
      <trkpt lat="44.48088" lon="6.92296">
        <ele>1677.16</ele>
        <time>2013-04-10T05:54:12Z</time>
      </trkpt>
      <trkpt lat="44.48086" lon="6.92295">
        <ele>1677.16</ele>
        <time>2013-04-10T05:54:47Z</time>
      </trkpt>
      <trkpt lat="44.48086" lon="6.92297">
        <ele>1676.2</ele>
        <time>2013-04-10T05:55:21Z</time>
      </trkpt>
      <trkpt lat="44.48086" lon="6.92297">
        <ele>1677.64</ele>
        <time>2013-04-10T05:55:24Z</time>
      </trkpt>
      <trkpt lat="44.48086" lon="6.92297">
        <ele>1677.16</ele>
        <time>2013-04-10T05:55:51Z</time>
      </trkpt>
      <trkpt lat="44.48086" lon="6.92297">
        <ele>1677.16</ele>
        <time>2013-04-10T05:56:13Z</time>
      </trkpt>
      <trkpt lat="44.48086" lon="6.92297">
        <ele>1676.68</ele>
        <time>2013-04-10T05:56:41Z</time>
      </trkpt>
      <trkpt lat="44.48086" lon="6.92297">
        <ele>1676.68</ele>
        <time>2013-04-10T05:57:17Z</time>
      </trkpt>
      <trkpt lat="44.48085" lon="6.92297">
        <ele>1677.16</ele>
        <time>2013-04-10T05:57:43Z</time>
      </trkpt>
      <trkpt lat="44.48085" lon="6.92297">
        <ele>1677.16</ele>
        <time>2013-04-10T05:58:12Z</time>
      </trkpt>
      <trkpt lat="44.48085" lon="6.92297">
        <ele>1677.16</ele>
        <time>2013-04-10T05:58:40Z</time>
      </trkpt>
      <trkpt lat="44.48085" lon="6.92297">
        <ele>1677.16</ele>
        <time>2013-04-10T05:59:08Z</time>
      </trkpt>
      <trkpt lat="44.48085" lon="6.92297">
        <ele>1677.64</ele>
        <time>2013-04-10T05:59:39Z</time>
      </trkpt>
      <trkpt lat="44.48085" lon="6.92297">
        <ele>1676.68</ele>
        <time>2013-04-10T06:00:15Z</time>
      </trkpt>
      <trkpt lat="44.48084" lon="6.92297">
        <ele>1676.2</ele>
        <time>2013-04-10T06:00:52Z</time>
      </trkpt>
      <trkpt lat="44.48084" lon="6.92295">
        <ele>1678.12</ele>
        <time>2013-04-10T06:01:20Z</time>
      </trkpt>
      <trkpt lat="44.48084" lon="6.92295">
        <ele>1677.16</ele>
        <time>2013-04-10T06:01:23Z</time>
      </trkpt>
      <trkpt lat="44.48084" lon="6.92296">
        <ele>1677.16</ele>
        <time>2013-04-10T06:01:56Z</time>
      </trkpt>
      <trkpt lat="44.48084" lon="6.92296">
        <ele>1677.16</ele>
        <time>2013-04-10T06:02:29Z</time>
      </trkpt>
      <trkpt lat="44.48084" lon="6.92294">
        <ele>1676.68</ele>
        <time>2013-04-10T06:03:07Z</time>
      </trkpt>
      <trkpt lat="44.48083" lon="6.92295">
        <ele>1676.2</ele>
        <time>2013-04-10T06:03:43Z</time>
      </trkpt>
      <trkpt lat="44.48083" lon="6.92295">
        <ele>1676.2</ele>
        <time>2013-04-10T06:04:14Z</time>
      </trkpt>
      <trkpt lat="44.48084" lon="6.92295">
        <ele>1676.2</ele>
        <time>2013-04-10T06:04:45Z</time>
      </trkpt>
      <trkpt lat="44.48084" lon="6.92294">
        <ele>1676.2</ele>
        <time>2013-04-10T06:05:16Z</time>
      </trkpt>
      <trkpt lat="44.48084" lon="6.92294">
        <ele>1676.2</ele>
        <time>2013-04-10T06:05:53Z</time>
      </trkpt>
      <trkpt lat="44.48084" lon="6.92294">
        <ele>1675.72</ele>
        <time>2013-04-10T06:06:30Z</time>
      </trkpt>
      <trkpt lat="44.48083" lon="6.92294">
        <ele>1675.23</ele>
        <time>2013-04-10T06:07:08Z</time>
      </trkpt>
      <trkpt lat="44.48083" lon="6.92293">
        <ele>1675.23</ele>
        <time>2013-04-10T06:07:45Z</time>
      </trkpt>
      <trkpt lat="44.48083" lon="6.92294">
        <ele>1675.23</ele>
        <time>2013-04-10T06:08:18Z</time>
      </trkpt>
      <trkpt lat="44.48084" lon="6.92294">
        <ele>1676.68</ele>
        <time>2013-04-10T06:08:40Z</time>
      </trkpt>
      <trkpt lat="44.48089" lon="6.92287">
        <ele>1677.64</ele>
        <time>2013-04-10T06:08:51Z</time>
      </trkpt>
      <trkpt lat="44.48093" lon="6.92277">
        <ele>1679.56</ele>
        <time>2013-04-10T06:09:05Z</time>
      </trkpt>
      <trkpt lat="44.48097" lon="6.92268">
        <ele>1681</ele>
        <time>2013-04-10T06:09:19Z</time>
      </trkpt>
      <trkpt lat="44.48097" lon="6.92259">
        <ele>1682.93</ele>
        <time>2013-04-10T06:09:32Z</time>
      </trkpt>
      <trkpt lat="44.481" lon="6.9225">
        <ele>1684.85</ele>
        <time>2013-04-10T06:09:45Z</time>
      </trkpt>
      <trkpt lat="44.48106" lon="6.92238">
        <ele>1686.77</ele>
        <time>2013-04-10T06:10:01Z</time>
      </trkpt>
      <trkpt lat="44.48108" lon="6.92226">
        <ele>1689.17</ele>
        <time>2013-04-10T06:10:16Z</time>
      </trkpt>
      <trkpt lat="44.48108" lon="6.92224">
        <ele>1690.14</ele>
        <time>2013-04-10T06:10:25Z</time>
      </trkpt>
      <trkpt lat="44.4811" lon="6.92213">
        <ele>1691.58</ele>
        <time>2013-04-10T06:10:39Z</time>
      </trkpt>
      <trkpt lat="44.48111" lon="6.92203">
        <ele>1693.5</ele>
        <time>2013-04-10T06:10:54Z</time>
      </trkpt>
      <trkpt lat="44.48114" lon="6.9219">
        <ele>1695.42</ele>
        <time>2013-04-10T06:11:11Z</time>
      </trkpt>
      <trkpt lat="44.48117" lon="6.92176">
        <ele>1697.83</ele>
        <time>2013-04-10T06:11:29Z</time>
      </trkpt>
      <trkpt lat="44.48123" lon="6.92167">
        <ele>1699.75</ele>
        <time>2013-04-10T06:11:46Z</time>
      </trkpt>
      <trkpt lat="44.48126" lon="6.9215">
        <ele>1702.63</ele>
        <time>2013-04-10T06:12:06Z</time>
      </trkpt>
      <trkpt lat="44.48133" lon="6.92141">
        <ele>1704.55</ele>
        <time>2013-04-10T06:12:22Z</time>
      </trkpt>
      <trkpt lat="44.48137" lon="6.92119">
        <ele>1707.44</ele>
        <time>2013-04-10T06:12:43Z</time>
      </trkpt>
      <trkpt lat="44.4813" lon="6.92115">
        <ele>1709.36</ele>
        <time>2013-04-10T06:12:57Z</time>
      </trkpt>
      <trkpt lat="44.48125" lon="6.92114">
        <ele>1710.32</ele>
        <time>2013-04-10T06:13:05Z</time>
      </trkpt>
      <trkpt lat="44.48116" lon="6.92111">
        <ele>1711.76</ele>
        <time>2013-04-10T06:13:17Z</time>
      </trkpt>
      <trkpt lat="44.48112" lon="6.9211">
        <ele>1713.21</ele>
        <time>2013-04-10T06:13:31Z</time>
      </trkpt>
      <trkpt lat="44.481" lon="6.92099">
        <ele>1715.61</ele>
        <time>2013-04-10T06:13:49Z</time>
      </trkpt>
      <trkpt lat="44.48094" lon="6.92092">
        <ele>1717.05</ele>
        <time>2013-04-10T06:14:02Z</time>
      </trkpt>
      <trkpt lat="44.48091" lon="6.9209">
        <ele>1718.49</ele>
        <time>2013-04-10T06:14:14Z</time>
      </trkpt>
      <trkpt lat="44.48089" lon="6.92087">
        <ele>1720.42</ele>
        <time>2013-04-10T06:14:26Z</time>
      </trkpt>
      <trkpt lat="44.48084" lon="6.92081">
        <ele>1723.3</ele>
        <time>2013-04-10T06:14:44Z</time>
      </trkpt>
      <trkpt lat="44.48077" lon="6.92073">
        <ele>1725.7</ele>
        <time>2013-04-10T06:15:01Z</time>
      </trkpt>
      <trkpt lat="44.48073" lon="6.92071">
        <ele>1727.15</ele>
        <time>2013-04-10T06:15:15Z</time>
      </trkpt>
      <trkpt lat="44.48068" lon="6.92064">
        <ele>1728.59</ele>
        <time>2013-04-10T06:15:27Z</time>
      </trkpt>
      <trkpt lat="44.48061" lon="6.92061">
        <ele>1730.99</ele>
        <time>2013-04-10T06:15:45Z</time>
      </trkpt>
      <trkpt lat="44.48057" lon="6.92056">
        <ele>1732.91</ele>
        <time>2013-04-10T06:15:59Z</time>
      </trkpt>
      <trkpt lat="44.48058" lon="6.92045">
        <ele>1734.36</ele>
        <time>2013-04-10T06:16:14Z</time>
      </trkpt>
      <trkpt lat="44.48061" lon="6.92036">
        <ele>1736.76</ele>
        <time>2013-04-10T06:16:31Z</time>
      </trkpt>
      <trkpt lat="44.48065" lon="6.92026">
        <ele>1738.2</ele>
        <time>2013-04-10T06:16:49Z</time>
      </trkpt>
      <trkpt lat="44.48068" lon="6.9202">
        <ele>1740.12</ele>
        <time>2013-04-10T06:17:05Z</time>
      </trkpt>
      <trkpt lat="44.48073" lon="6.92012">
        <ele>1741.57</ele>
        <time>2013-04-10T06:17:20Z</time>
      </trkpt>
      <trkpt lat="44.48069" lon="6.92005">
        <ele>1743.49</ele>
        <time>2013-04-10T06:17:34Z</time>
      </trkpt>
      <trkpt lat="44.48063" lon="6.92005">
        <ele>1744.93</ele>
        <time>2013-04-10T06:17:48Z</time>
      </trkpt>
      <trkpt lat="44.48056" lon="6.91999">
        <ele>1745.89</ele>
        <time>2013-04-10T06:18:00Z</time>
      </trkpt>
      <trkpt lat="44.48054" lon="6.91993">
        <ele>1748.29</ele>
        <time>2013-04-10T06:18:15Z</time>
      </trkpt>
      <trkpt lat="44.48056" lon="6.91988">
        <ele>1750.22</ele>
        <time>2013-04-10T06:18:33Z</time>
      </trkpt>
      <trkpt lat="44.48056" lon="6.91977">
        <ele>1752.62</ele>
        <time>2013-04-10T06:18:49Z</time>
      </trkpt>
      <trkpt lat="44.48063" lon="6.91972">
        <ele>1753.58</ele>
        <time>2013-04-10T06:19:04Z</time>
      </trkpt>
      <trkpt lat="44.48065" lon="6.91968">
        <ele>1755.5</ele>
        <time>2013-04-10T06:19:19Z</time>
      </trkpt>
      <trkpt lat="44.48061" lon="6.91957">
        <ele>1757.91</ele>
        <time>2013-04-10T06:19:33Z</time>
      </trkpt>
      <trkpt lat="44.48063" lon="6.91952">
        <ele>1758.87</ele>
        <time>2013-04-10T06:19:47Z</time>
      </trkpt>
      <trkpt lat="44.48071" lon="6.91954">
        <ele>1760.31</ele>
        <time>2013-04-10T06:20:01Z</time>
      </trkpt>
      <trkpt lat="44.48078" lon="6.91955">
        <ele>1763.68</ele>
        <time>2013-04-10T06:20:16Z</time>
      </trkpt>
      <trkpt lat="44.48079" lon="6.91956">
        <ele>1763.68</ele>
        <time>2013-04-10T06:20:17Z</time>
      </trkpt>
      <trkpt lat="44.4808" lon="6.91956">
        <ele>1762.23</ele>
        <time>2013-04-10T06:20:19Z</time>
      </trkpt>
      <trkpt lat="44.48084" lon="6.91959">
        <ele>1762.23</ele>
        <time>2013-04-10T06:20:31Z</time>
      </trkpt>
      <trkpt lat="44.48086" lon="6.91958">
        <ele>1763.2</ele>
        <time>2013-04-10T06:20:34Z</time>
      </trkpt>
      <trkpt lat="44.48086" lon="6.91954">
        <ele>1765.12</ele>
        <time>2013-04-10T06:20:50Z</time>
      </trkpt>
      <trkpt lat="44.48078" lon="6.9194">
        <ele>1766.08</ele>
        <time>2013-04-10T06:21:06Z</time>
      </trkpt>
      <trkpt lat="44.48069" lon="6.9193">
        <ele>1767.04</ele>
        <time>2013-04-10T06:21:21Z</time>
      </trkpt>
      <trkpt lat="44.48061" lon="6.91925">
        <ele>1767.52</ele>
        <time>2013-04-10T06:21:34Z</time>
      </trkpt>
      <trkpt lat="44.48056" lon="6.91918">
        <ele>1768.48</ele>
        <time>2013-04-10T06:21:46Z</time>
      </trkpt>
      <trkpt lat="44.48049" lon="6.91915">
        <ele>1770.41</ele>
        <time>2013-04-10T06:21:59Z</time>
      </trkpt>
      <trkpt lat="44.48041" lon="6.9191">
        <ele>1771.85</ele>
        <time>2013-04-10T06:22:12Z</time>
      </trkpt>
      <trkpt lat="44.48037" lon="6.91908">
        <ele>1773.29</ele>
        <time>2013-04-10T06:22:22Z</time>
      </trkpt>
      <trkpt lat="44.48034" lon="6.91902">
        <ele>1775.21</ele>
        <time>2013-04-10T06:22:35Z</time>
      </trkpt>
      <trkpt lat="44.48028" lon="6.91897">
        <ele>1777.13</ele>
        <time>2013-04-10T06:22:51Z</time>
      </trkpt>
      <trkpt lat="44.48027" lon="6.91896">
        <ele>1778.58</ele>
        <time>2013-04-10T06:23:00Z</time>
      </trkpt>
      <trkpt lat="44.48019" lon="6.9189">
        <ele>1780.98</ele>
        <time>2013-04-10T06:23:14Z</time>
      </trkpt>
      <trkpt lat="44.48018" lon="6.91887">
        <ele>1783.38</ele>
        <time>2013-04-10T06:23:30Z</time>
      </trkpt>
      <trkpt lat="44.48015" lon="6.91882">
        <ele>1785.79</ele>
        <time>2013-04-10T06:23:39Z</time>
      </trkpt>
      <trkpt lat="44.48015" lon="6.91873">
        <ele>1786.27</ele>
        <time>2013-04-10T06:23:55Z</time>
      </trkpt>
      <trkpt lat="44.48017" lon="6.91865">
        <ele>1788.19</ele>
        <time>2013-04-10T06:24:13Z</time>
      </trkpt>
      <trkpt lat="44.48014" lon="6.91858">
        <ele>1789.63</ele>
        <time>2013-04-10T06:24:29Z</time>
      </trkpt>
      <trkpt lat="44.48007" lon="6.9185">
        <ele>1791.07</ele>
        <time>2013-04-10T06:24:45Z</time>
      </trkpt>
      <trkpt lat="44.48001" lon="6.91842">
        <ele>1792.52</ele>
        <time>2013-04-10T06:24:59Z</time>
      </trkpt>
      <trkpt lat="44.47998" lon="6.91839">
        <ele>1795.4</ele>
        <time>2013-04-10T06:25:16Z</time>
      </trkpt>
      <trkpt lat="44.47999" lon="6.91835">
        <ele>1797.8</ele>
        <time>2013-04-10T06:25:32Z</time>
      </trkpt>
      <trkpt lat="44.48004" lon="6.91829">
        <ele>1799.24</ele>
        <time>2013-04-10T06:25:46Z</time>
      </trkpt>
      <trkpt lat="44.48009" lon="6.91826">
        <ele>1800.21</ele>
        <time>2013-04-10T06:25:58Z</time>
      </trkpt>
      <trkpt lat="44.48014" lon="6.91824">
        <ele>1801.17</ele>
        <time>2013-04-10T06:26:16Z</time>
      </trkpt>
      <trkpt lat="44.48023" lon="6.91819">
        <ele>1803.57</ele>
        <time>2013-04-10T06:26:33Z</time>
      </trkpt>
      <trkpt lat="44.4803" lon="6.91815">
        <ele>1804.53</ele>
        <time>2013-04-10T06:26:46Z</time>
      </trkpt>
      <trkpt lat="44.48039" lon="6.91812">
        <ele>1805.97</ele>
        <time>2013-04-10T06:27:02Z</time>
      </trkpt>
      <trkpt lat="44.48043" lon="6.9181">
        <ele>1807.9</ele>
        <time>2013-04-10T06:27:16Z</time>
      </trkpt>
      <trkpt lat="44.4804" lon="6.91804">
        <ele>1809.82</ele>
        <time>2013-04-10T06:27:31Z</time>
      </trkpt>
      <trkpt lat="44.48039" lon="6.91799">
        <ele>1812.22</ele>
        <time>2013-04-10T06:27:46Z</time>
      </trkpt>
      <trkpt lat="44.48032" lon="6.91794">
        <ele>1813.18</ele>
        <time>2013-04-10T06:28:00Z</time>
      </trkpt>
      <trkpt lat="44.48031" lon="6.91792">
        <ele>1815.11</ele>
        <time>2013-04-10T06:28:13Z</time>
      </trkpt>
      <trkpt lat="44.48038" lon="6.91788">
        <ele>1816.07</ele>
        <time>2013-04-10T06:28:27Z</time>
      </trkpt>
      <trkpt lat="44.48043" lon="6.91784">
        <ele>1817.99</ele>
        <time>2013-04-10T06:28:45Z</time>
      </trkpt>
      <trkpt lat="44.48048" lon="6.91782">
        <ele>1819.91</ele>
        <time>2013-04-10T06:28:59Z</time>
      </trkpt>
      <trkpt lat="44.48052" lon="6.91776">
        <ele>1821.84</ele>
        <time>2013-04-10T06:29:12Z</time>
      </trkpt>
      <trkpt lat="44.48053" lon="6.91772">
        <ele>1824.24</ele>
        <time>2013-04-10T06:29:25Z</time>
      </trkpt>
      <trkpt lat="44.48053" lon="6.91771">
        <ele>1824.24</ele>
        <time>2013-04-10T06:29:42Z</time>
      </trkpt>
      <trkpt lat="44.48053" lon="6.91771">
        <ele>1824.72</ele>
        <time>2013-04-10T06:30:01Z</time>
      </trkpt>
      <trkpt lat="44.48053" lon="6.9177">
        <ele>1825.2</ele>
        <time>2013-04-10T06:30:24Z</time>
      </trkpt>
      <trkpt lat="44.4805" lon="6.91764">
        <ele>1826.64</ele>
        <time>2013-04-10T06:30:38Z</time>
      </trkpt>
      <trkpt lat="44.48048" lon="6.91763">
        <ele>1828.08</ele>
        <time>2013-04-10T06:30:54Z</time>
      </trkpt>
      <trkpt lat="44.48047" lon="6.91762">
        <ele>1829.05</ele>
        <time>2013-04-10T06:31:05Z</time>
      </trkpt>
      <trkpt lat="44.48037" lon="6.91752">
        <ele>1830.01</ele>
        <time>2013-04-10T06:31:16Z</time>
      </trkpt>
      <trkpt lat="44.48025" lon="6.91745">
        <ele>1830.97</ele>
        <time>2013-04-10T06:31:28Z</time>
      </trkpt>
      <trkpt lat="44.48019" lon="6.91742">
        <ele>1832.89</ele>
        <time>2013-04-10T06:31:43Z</time>
      </trkpt>
      <trkpt lat="44.48012" lon="6.9174">
        <ele>1833.85</ele>
        <time>2013-04-10T06:31:54Z</time>
      </trkpt>
      <trkpt lat="44.48007" lon="6.9174">
        <ele>1835.29</ele>
        <time>2013-04-10T06:32:08Z</time>
      </trkpt>
      <trkpt lat="44.48012" lon="6.91735">
        <ele>1836.26</ele>
        <time>2013-04-10T06:32:22Z</time>
      </trkpt>
      <trkpt lat="44.48015" lon="6.91733">
        <ele>1836.74</ele>
        <time>2013-04-10T06:32:37Z</time>
      </trkpt>
      <trkpt lat="44.48021" lon="6.91728">
        <ele>1838.66</ele>
        <time>2013-04-10T06:32:54Z</time>
      </trkpt>
      <trkpt lat="44.48031" lon="6.91721">
        <ele>1839.62</ele>
        <time>2013-04-10T06:33:09Z</time>
      </trkpt>
      <trkpt lat="44.48038" lon="6.91717">
        <ele>1841.54</ele>
        <time>2013-04-10T06:33:23Z</time>
      </trkpt>
      <trkpt lat="44.48045" lon="6.91715">
        <ele>1843.95</ele>
        <time>2013-04-10T06:33:42Z</time>
      </trkpt>
      <trkpt lat="44.48046" lon="6.91713">
        <ele>1844.91</ele>
        <time>2013-04-10T06:33:57Z</time>
      </trkpt>
      <trkpt lat="44.48046" lon="6.91713">
        <ele>1846.83</ele>
        <time>2013-04-10T06:34:12Z</time>
      </trkpt>
      <trkpt lat="44.48047" lon="6.91713">
        <ele>1848.27</ele>
        <time>2013-04-10T06:34:27Z</time>
      </trkpt>
      <trkpt lat="44.48055" lon="6.91713">
        <ele>1850.19</ele>
        <time>2013-04-10T06:34:41Z</time>
      </trkpt>
      <trkpt lat="44.48056" lon="6.91712">
        <ele>1852.12</ele>
        <time>2013-04-10T06:34:56Z</time>
      </trkpt>
      <trkpt lat="44.48056" lon="6.91712">
        <ele>1853.08</ele>
        <time>2013-04-10T06:35:11Z</time>
      </trkpt>
      <trkpt lat="44.48058" lon="6.91713">
        <ele>1855</ele>
        <time>2013-04-10T06:35:24Z</time>
      </trkpt>
      <trkpt lat="44.48064" lon="6.9171">
        <ele>1855.96</ele>
        <time>2013-04-10T06:35:36Z</time>
      </trkpt>
      <trkpt lat="44.48064" lon="6.9171">
        <ele>1857.89</ele>
        <time>2013-04-10T06:35:52Z</time>
      </trkpt>
      <trkpt lat="44.48068" lon="6.91691">
        <ele>1858.37</ele>
        <time>2013-04-10T06:36:07Z</time>
      </trkpt>
      <trkpt lat="44.48066" lon="6.91685">
        <ele>1859.33</ele>
        <time>2013-04-10T06:36:21Z</time>
      </trkpt>
      <trkpt lat="44.48059" lon="6.91679">
        <ele>1861.25</ele>
        <time>2013-04-10T06:36:37Z</time>
      </trkpt>
      <trkpt lat="44.48051" lon="6.91675">
        <ele>1862.21</ele>
        <time>2013-04-10T06:36:51Z</time>
      </trkpt>
      <trkpt lat="44.48044" lon="6.91672">
        <ele>1862.21</ele>
        <time>2013-04-10T06:37:05Z</time>
      </trkpt>
      <trkpt lat="44.48038" lon="6.91669">
        <ele>1864.61</ele>
        <time>2013-04-10T06:37:19Z</time>
      </trkpt>
      <trkpt lat="44.4803" lon="6.91667">
        <ele>1865.58</ele>
        <time>2013-04-10T06:37:32Z</time>
      </trkpt>
      <trkpt lat="44.48026" lon="6.91667">
        <ele>1867.02</ele>
        <time>2013-04-10T06:37:44Z</time>
      </trkpt>
      <trkpt lat="44.48025" lon="6.91668">
        <ele>1868.46</ele>
        <time>2013-04-10T06:37:58Z</time>
      </trkpt>
      <trkpt lat="44.48026" lon="6.91664">
        <ele>1868.94</ele>
        <time>2013-04-10T06:38:12Z</time>
      </trkpt>
      <trkpt lat="44.4803" lon="6.91657">
        <ele>1870.38</ele>
        <time>2013-04-10T06:38:27Z</time>
      </trkpt>
      <trkpt lat="44.48036" lon="6.91652">
        <ele>1871.34</ele>
        <time>2013-04-10T06:38:40Z</time>
      </trkpt>
      <trkpt lat="44.48043" lon="6.91647">
        <ele>1872.79</ele>
        <time>2013-04-10T06:38:55Z</time>
      </trkpt>
      <trkpt lat="44.48044" lon="6.91648">
        <ele>1874.71</ele>
        <time>2013-04-10T06:39:11Z</time>
      </trkpt>
      <trkpt lat="44.48049" lon="6.91648">
        <ele>1874.23</ele>
        <time>2013-04-10T06:39:24Z</time>
      </trkpt>
      <trkpt lat="44.48056" lon="6.91646">
        <ele>1875.67</ele>
        <time>2013-04-10T06:39:34Z</time>
      </trkpt>
      <trkpt lat="44.48059" lon="6.91643">
        <ele>1876.63</ele>
        <time>2013-04-10T06:39:44Z</time>
      </trkpt>
      <trkpt lat="44.48053" lon="6.91641">
        <ele>1877.59</ele>
        <time>2013-04-10T06:39:55Z</time>
      </trkpt>
      <trkpt lat="44.4805" lon="6.91634">
        <ele>1879.03</ele>
        <time>2013-04-10T06:40:09Z</time>
      </trkpt>
      <trkpt lat="44.48052" lon="6.91628">
        <ele>1881.44</ele>
        <time>2013-04-10T06:40:24Z</time>
      </trkpt>
      <trkpt lat="44.48054" lon="6.91625">
        <ele>1882.4</ele>
        <time>2013-04-10T06:40:38Z</time>
      </trkpt>
      <trkpt lat="44.48052" lon="6.91615">
        <ele>1884.32</ele>
        <time>2013-04-10T06:40:52Z</time>
      </trkpt>
      <trkpt lat="44.48053" lon="6.91612">
        <ele>1886.24</ele>
        <time>2013-04-10T06:41:08Z</time>
      </trkpt>
      <trkpt lat="44.48059" lon="6.91611">
        <ele>1887.21</ele>
        <time>2013-04-10T06:41:22Z</time>
      </trkpt>
      <trkpt lat="44.48062" lon="6.91608">
        <ele>1889.13</ele>
        <time>2013-04-10T06:41:35Z</time>
      </trkpt>
      <trkpt lat="44.48058" lon="6.91601">
        <ele>1890.09</ele>
        <time>2013-04-10T06:41:47Z</time>
      </trkpt>
      <trkpt lat="44.48049" lon="6.91596">
        <ele>1892.01</ele>
        <time>2013-04-10T06:42:06Z</time>
      </trkpt>
      <trkpt lat="44.48044" lon="6.91594">
        <ele>1892.97</ele>
        <time>2013-04-10T06:42:18Z</time>
      </trkpt>
      <trkpt lat="44.48038" lon="6.91595">
        <ele>1894.42</ele>
        <time>2013-04-10T06:42:33Z</time>
      </trkpt>
      <trkpt lat="44.48035" lon="6.91594">
        <ele>1895.38</ele>
        <time>2013-04-10T06:42:44Z</time>
      </trkpt>
      <trkpt lat="44.48032" lon="6.91597">
        <ele>1896.82</ele>
        <time>2013-04-10T06:42:58Z</time>
      </trkpt>
      <trkpt lat="44.48028" lon="6.91598">
        <ele>1897.78</ele>
        <time>2013-04-10T06:43:14Z</time>
      </trkpt>
      <trkpt lat="44.48033" lon="6.91592">
        <ele>1899.22</ele>
        <time>2013-04-10T06:43:31Z</time>
      </trkpt>
      <trkpt lat="44.48042" lon="6.91581">
        <ele>1900.18</ele>
        <time>2013-04-10T06:43:47Z</time>
      </trkpt>
      <trkpt lat="44.4805" lon="6.91575">
        <ele>1901.63</ele>
        <time>2013-04-10T06:44:05Z</time>
      </trkpt>
      <trkpt lat="44.48052" lon="6.91575">
        <ele>1902.59</ele>
        <time>2013-04-10T06:44:19Z</time>
      </trkpt>
      <trkpt lat="44.48052" lon="6.91575">
        <ele>1903.55</ele>
        <time>2013-04-10T06:44:33Z</time>
      </trkpt>
      <trkpt lat="44.48056" lon="6.91572">
        <ele>1904.03</ele>
        <time>2013-04-10T06:44:49Z</time>
      </trkpt>
      <trkpt lat="44.48074" lon="6.91562">
        <ele>1904.99</ele>
        <time>2013-04-10T06:45:04Z</time>
      </trkpt>
      <trkpt lat="44.48075" lon="6.91561">
        <ele>1906.91</ele>
        <time>2013-04-10T06:45:17Z</time>
      </trkpt>
      <trkpt lat="44.48075" lon="6.91561">
        <ele>1908.35</ele>
        <time>2013-04-10T06:45:32Z</time>
      </trkpt>
      <trkpt lat="44.48081" lon="6.91549">
        <ele>1910.28</ele>
        <time>2013-04-10T06:45:48Z</time>
      </trkpt>
      <trkpt lat="44.48084" lon="6.91544">
        <ele>1912.2</ele>
        <time>2013-04-10T06:46:00Z</time>
      </trkpt>
      <trkpt lat="44.48079" lon="6.91537">
        <ele>1913.16</ele>
        <time>2013-04-10T06:46:14Z</time>
      </trkpt>
      <trkpt lat="44.48078" lon="6.91532">
        <ele>1915.08</ele>
        <time>2013-04-10T06:46:28Z</time>
      </trkpt>
      <trkpt lat="44.48079" lon="6.91525">
        <ele>1916.53</ele>
        <time>2013-04-10T06:46:43Z</time>
      </trkpt>
      <trkpt lat="44.48077" lon="6.91524">
        <ele>1918.45</ele>
        <time>2013-04-10T06:46:59Z</time>
      </trkpt>
      <trkpt lat="44.48075" lon="6.91518">
        <ele>1920.37</ele>
        <time>2013-04-10T06:47:14Z</time>
      </trkpt>
      <trkpt lat="44.48074" lon="6.91514">
        <ele>1922.29</ele>
        <time>2013-04-10T06:47:28Z</time>
      </trkpt>
      <trkpt lat="44.48073" lon="6.91509">
        <ele>1924.22</ele>
        <time>2013-04-10T06:47:42Z</time>
      </trkpt>
      <trkpt lat="44.48073" lon="6.91508">
        <ele>1925.66</ele>
        <time>2013-04-10T06:47:57Z</time>
      </trkpt>
      <trkpt lat="44.48072" lon="6.91507">
        <ele>1927.1</ele>
        <time>2013-04-10T06:48:12Z</time>
      </trkpt>
      <trkpt lat="44.4807" lon="6.91506">
        <ele>1928.06</ele>
        <time>2013-04-10T06:48:25Z</time>
      </trkpt>
      <trkpt lat="44.48065" lon="6.91507">
        <ele>1929.5</ele>
        <time>2013-04-10T06:48:39Z</time>
      </trkpt>
      <trkpt lat="44.48055" lon="6.91507">
        <ele>1930.46</ele>
        <time>2013-04-10T06:48:52Z</time>
      </trkpt>
      <trkpt lat="44.48048" lon="6.91508">
        <ele>1931.43</ele>
        <time>2013-04-10T06:49:04Z</time>
      </trkpt>
      <trkpt lat="44.48042" lon="6.91507">
        <ele>1932.39</ele>
        <time>2013-04-10T06:49:16Z</time>
      </trkpt>
      <trkpt lat="44.48035" lon="6.91507">
        <ele>1933.83</ele>
        <time>2013-04-10T06:49:31Z</time>
      </trkpt>
      <trkpt lat="44.48031" lon="6.91507">
        <ele>1934.79</ele>
        <time>2013-04-10T06:49:43Z</time>
      </trkpt>
      <trkpt lat="44.48026" lon="6.91507">
        <ele>1936.71</ele>
        <time>2013-04-10T06:49:58Z</time>
      </trkpt>
      <trkpt lat="44.48023" lon="6.91504">
        <ele>1937.67</ele>
        <time>2013-04-10T06:50:11Z</time>
      </trkpt>
      <trkpt lat="44.48019" lon="6.91505">
        <ele>1939.12</ele>
        <time>2013-04-10T06:50:25Z</time>
      </trkpt>
      <trkpt lat="44.48012" lon="6.91506">
        <ele>1940.08</ele>
        <time>2013-04-10T06:50:39Z</time>
      </trkpt>
      <trkpt lat="44.48004" lon="6.91502">
        <ele>1941.52</ele>
        <time>2013-04-10T06:50:57Z</time>
      </trkpt>
      <trkpt lat="44.48003" lon="6.91503">
        <ele>1942.96</ele>
        <time>2013-04-10T06:51:13Z</time>
      </trkpt>
      <trkpt lat="44.48002" lon="6.91503">
        <ele>1944.4</ele>
        <time>2013-04-10T06:51:29Z</time>
      </trkpt>
      <trkpt lat="44.47991" lon="6.91497">
        <ele>1945.85</ele>
        <time>2013-04-10T06:51:46Z</time>
      </trkpt>
      <trkpt lat="44.4799" lon="6.91496">
        <ele>1946.33</ele>
        <time>2013-04-10T06:52:00Z</time>
      </trkpt>
      <trkpt lat="44.47995" lon="6.91496">
        <ele>1947.77</ele>
        <time>2013-04-10T06:52:16Z</time>
      </trkpt>
      <trkpt lat="44.48006" lon="6.91491">
        <ele>1949.21</ele>
        <time>2013-04-10T06:52:33Z</time>
      </trkpt>
      <trkpt lat="44.48007" lon="6.91491">
        <ele>1950.65</ele>
        <time>2013-04-10T06:52:46Z</time>
      </trkpt>
      <trkpt lat="44.48011" lon="6.91486">
        <ele>1950.65</ele>
        <time>2013-04-10T06:52:59Z</time>
      </trkpt>
      <trkpt lat="44.48011" lon="6.91486">
        <ele>1951.61</ele>
        <time>2013-04-10T06:53:13Z</time>
      </trkpt>
      <trkpt lat="44.48011" lon="6.91486">
        <ele>1953.06</ele>
        <time>2013-04-10T06:53:29Z</time>
      </trkpt>
      <trkpt lat="44.48011" lon="6.91485">
        <ele>1953.06</ele>
        <time>2013-04-10T06:53:40Z</time>
      </trkpt>
      <trkpt lat="44.48016" lon="6.91478">
        <ele>1952.57</ele>
        <time>2013-04-10T06:53:54Z</time>
      </trkpt>
      <trkpt lat="44.48025" lon="6.9147">
        <ele>1953.06</ele>
        <time>2013-04-10T06:54:06Z</time>
      </trkpt>
      <trkpt lat="44.48032" lon="6.91462">
        <ele>1954.02</ele>
        <time>2013-04-10T06:54:17Z</time>
      </trkpt>
      <trkpt lat="44.48053" lon="6.91451">
        <ele>1954.5</ele>
        <time>2013-04-10T06:54:30Z</time>
      </trkpt>
      <trkpt lat="44.48061" lon="6.91448">
        <ele>1954.98</ele>
        <time>2013-04-10T06:54:39Z</time>
      </trkpt>
      <trkpt lat="44.48067" lon="6.91444">
        <ele>1956.42</ele>
        <time>2013-04-10T06:54:54Z</time>
      </trkpt>
      <trkpt lat="44.48068" lon="6.91443">
        <ele>1958.34</ele>
        <time>2013-04-10T06:55:07Z</time>
      </trkpt>
      <trkpt lat="44.48067" lon="6.91444">
        <ele>1961.23</ele>
        <time>2013-04-10T06:55:24Z</time>
      </trkpt>
      <trkpt lat="44.48076" lon="6.91435">
        <ele>1962.19</ele>
        <time>2013-04-10T06:55:38Z</time>
      </trkpt>
      <trkpt lat="44.4808" lon="6.91433">
        <ele>1963.63</ele>
        <time>2013-04-10T06:55:52Z</time>
      </trkpt>
      <trkpt lat="44.4808" lon="6.91433">
        <ele>1965.07</ele>
        <time>2013-04-10T06:56:06Z</time>
      </trkpt>
      <trkpt lat="44.4808" lon="6.91433">
        <ele>1966.03</ele>
        <time>2013-04-10T06:56:19Z</time>
      </trkpt>
      <trkpt lat="44.4808" lon="6.91432">
        <ele>1967.48</ele>
        <time>2013-04-10T06:56:35Z</time>
      </trkpt>
      <trkpt lat="44.48087" lon="6.91419">
        <ele>1968.92</ele>
        <time>2013-04-10T06:56:52Z</time>
      </trkpt>
      <trkpt lat="44.48085" lon="6.91414">
        <ele>1969.4</ele>
        <time>2013-04-10T06:57:09Z</time>
      </trkpt>
      <trkpt lat="44.48079" lon="6.91408">
        <ele>1970.84</ele>
        <time>2013-04-10T06:57:23Z</time>
      </trkpt>
      <trkpt lat="44.48076" lon="6.91405">
        <ele>1971.8</ele>
        <time>2013-04-10T06:57:36Z</time>
      </trkpt>
      <trkpt lat="44.4807" lon="6.91399">
        <ele>1973.24</ele>
        <time>2013-04-10T06:57:47Z</time>
      </trkpt>
      <trkpt lat="44.48068" lon="6.91397">
        <ele>1974.69</ele>
        <time>2013-04-10T06:58:01Z</time>
      </trkpt>
      <trkpt lat="44.48072" lon="6.91397">
        <ele>1976.61</ele>
        <time>2013-04-10T06:58:14Z</time>
      </trkpt>
      <trkpt lat="44.48076" lon="6.91395">
        <ele>1977.09</ele>
        <time>2013-04-10T06:58:27Z</time>
      </trkpt>
      <trkpt lat="44.48082" lon="6.91392">
        <ele>1978.05</ele>
        <time>2013-04-10T06:58:41Z</time>
      </trkpt>
      <trkpt lat="44.48086" lon="6.9139">
        <ele>1979.49</ele>
        <time>2013-04-10T06:58:55Z</time>
      </trkpt>
      <trkpt lat="44.48089" lon="6.91388">
        <ele>1980.93</ele>
        <time>2013-04-10T06:59:08Z</time>
      </trkpt>
      <trkpt lat="44.4809" lon="6.91385">
        <ele>1982.38</ele>
        <time>2013-04-10T06:59:24Z</time>
      </trkpt>
      <trkpt lat="44.48088" lon="6.9138">
        <ele>1984.3</ele>
        <time>2013-04-10T06:59:38Z</time>
      </trkpt>
      <trkpt lat="44.48085" lon="6.91376">
        <ele>1985.74</ele>
        <time>2013-04-10T06:59:52Z</time>
      </trkpt>
      <trkpt lat="44.48087" lon="6.91375">
        <ele>1986.7</ele>
        <time>2013-04-10T07:00:09Z</time>
      </trkpt>
      <trkpt lat="44.48093" lon="6.91372">
        <ele>1988.62</ele>
        <time>2013-04-10T07:00:25Z</time>
      </trkpt>
      <trkpt lat="44.48096" lon="6.91371">
        <ele>1989.59</ele>
        <time>2013-04-10T07:00:38Z</time>
      </trkpt>
      <trkpt lat="44.481" lon="6.91374">
        <ele>1991.03</ele>
        <time>2013-04-10T07:00:51Z</time>
      </trkpt>
      <trkpt lat="44.48105" lon="6.91373">
        <ele>1992.95</ele>
        <time>2013-04-10T07:01:06Z</time>
      </trkpt>
      <trkpt lat="44.48109" lon="6.91368">
        <ele>1994.39</ele>
        <time>2013-04-10T07:01:20Z</time>
      </trkpt>
      <trkpt lat="44.48109" lon="6.91361">
        <ele>1996.32</ele>
        <time>2013-04-10T07:01:32Z</time>
      </trkpt>
      <trkpt lat="44.4811" lon="6.91358">
        <ele>1997.28</ele>
        <time>2013-04-10T07:01:46Z</time>
      </trkpt>
      <trkpt lat="44.48115" lon="6.91352">
        <ele>1997.28</ele>
        <time>2013-04-10T07:01:58Z</time>
      </trkpt>
      <trkpt lat="44.48118" lon="6.91346">
        <ele>1998.24</ele>
        <time>2013-04-10T07:02:14Z</time>
      </trkpt>
      <trkpt lat="44.48124" lon="6.91337">
        <ele>1999.2</ele>
        <time>2013-04-10T07:02:25Z</time>
      </trkpt>
      <trkpt lat="44.48127" lon="6.91331">
        <ele>1999.68</ele>
        <time>2013-04-10T07:02:37Z</time>
      </trkpt>
      <trkpt lat="44.48127" lon="6.91328">
        <ele>2000.64</ele>
        <time>2013-04-10T07:02:50Z</time>
      </trkpt>
      <trkpt lat="44.48131" lon="6.91319">
        <ele>2001.6</ele>
        <time>2013-04-10T07:03:01Z</time>
      </trkpt>
      <trkpt lat="44.48136" lon="6.91311">
        <ele>2002.56</ele>
        <time>2013-04-10T07:03:13Z</time>
      </trkpt>
      <trkpt lat="44.48139" lon="6.91305">
        <ele>2003.52</ele>
        <time>2013-04-10T07:03:24Z</time>
      </trkpt>
      <trkpt lat="44.48144" lon="6.91296">
        <ele>2004.01</ele>
        <time>2013-04-10T07:03:37Z</time>
      </trkpt>
      <trkpt lat="44.48148" lon="6.91288">
        <ele>2004.97</ele>
        <time>2013-04-10T07:03:55Z</time>
      </trkpt>
      <trkpt lat="44.48154" lon="6.91283">
        <ele>2005.45</ele>
        <time>2013-04-10T07:04:09Z</time>
      </trkpt>
      <trkpt lat="44.4816" lon="6.91272">
        <ele>2007.37</ele>
        <time>2013-04-10T07:04:26Z</time>
      </trkpt>
      <trkpt lat="44.48164" lon="6.91267">
        <ele>2007.85</ele>
        <time>2013-04-10T07:04:39Z</time>
      </trkpt>
      <trkpt lat="44.48167" lon="6.91263">
        <ele>2010.25</ele>
        <time>2013-04-10T07:04:54Z</time>
      </trkpt>
      <trkpt lat="44.4817" lon="6.91258">
        <ele>2011.7</ele>
        <time>2013-04-10T07:05:07Z</time>
      </trkpt>
      <trkpt lat="44.48172" lon="6.91251">
        <ele>2013.14</ele>
        <time>2013-04-10T07:05:21Z</time>
      </trkpt>
      <trkpt lat="44.48175" lon="6.91245">
        <ele>2014.1</ele>
        <time>2013-04-10T07:05:35Z</time>
      </trkpt>
      <trkpt lat="44.48178" lon="6.91239">
        <ele>2015.54</ele>
        <time>2013-04-10T07:05:49Z</time>
      </trkpt>
      <trkpt lat="44.4818" lon="6.91229">
        <ele>2017.46</ele>
        <time>2013-04-10T07:06:06Z</time>
      </trkpt>
      <trkpt lat="44.48183" lon="6.91223">
        <ele>2017.94</ele>
        <time>2013-04-10T07:06:17Z</time>
      </trkpt>
      <trkpt lat="44.48184" lon="6.91218">
        <ele>2018.91</ele>
        <time>2013-04-10T07:06:32Z</time>
      </trkpt>
      <trkpt lat="44.48185" lon="6.91214">
        <ele>2019.39</ele>
        <time>2013-04-10T07:06:51Z</time>
      </trkpt>
      <trkpt lat="44.4819" lon="6.91206">
        <ele>2021.31</ele>
        <time>2013-04-10T07:07:03Z</time>
      </trkpt>
      <trkpt lat="44.48191" lon="6.91197">
        <ele>2023.71</ele>
        <time>2013-04-10T07:07:20Z</time>
      </trkpt>
      <trkpt lat="44.48195" lon="6.91193">
        <ele>2025.15</ele>
        <time>2013-04-10T07:07:32Z</time>
      </trkpt>
      <trkpt lat="44.48196" lon="6.91193">
        <ele>2025.15</ele>
        <time>2013-04-10T07:07:48Z</time>
      </trkpt>
      <trkpt lat="44.48196" lon="6.91193">
        <ele>2025.15</ele>
        <time>2013-04-10T07:08:04Z</time>
      </trkpt>
      <trkpt lat="44.48195" lon="6.91192">
        <ele>2025.15</ele>
        <time>2013-04-10T07:08:21Z</time>
      </trkpt>
      <trkpt lat="44.48196" lon="6.91192">
        <ele>2025.15</ele>
        <time>2013-04-10T07:08:39Z</time>
      </trkpt>
      <trkpt lat="44.48196" lon="6.91191">
        <ele>2025.15</ele>
        <time>2013-04-10T07:08:52Z</time>
      </trkpt>
      <trkpt lat="44.48196" lon="6.9119">
        <ele>2026.6</ele>
        <time>2013-04-10T07:08:54Z</time>
      </trkpt>
      <trkpt lat="44.48196" lon="6.9119">
        <ele>2026.6</ele>
        <time>2013-04-10T07:09:19Z</time>
      </trkpt>
      <trkpt lat="44.48196" lon="6.9119">
        <ele>2025.15</ele>
        <time>2013-04-10T07:09:40Z</time>
      </trkpt>
      <trkpt lat="44.48196" lon="6.9119">
        <ele>2025.15</ele>
        <time>2013-04-10T07:10:16Z</time>
      </trkpt>
      <trkpt lat="44.48196" lon="6.9119">
        <ele>2025.15</ele>
        <time>2013-04-10T07:10:51Z</time>
      </trkpt>
      <trkpt lat="44.48197" lon="6.9119">
        <ele>2024.67</ele>
        <time>2013-04-10T07:11:25Z</time>
      </trkpt>
      <trkpt lat="44.48197" lon="6.9119">
        <ele>2024.67</ele>
        <time>2013-04-10T07:11:50Z</time>
      </trkpt>
      <trkpt lat="44.48198" lon="6.91188">
        <ele>2024.67</ele>
        <time>2013-04-10T07:12:19Z</time>
      </trkpt>
      <trkpt lat="44.48198" lon="6.91188">
        <ele>2024.67</ele>
        <time>2013-04-10T07:12:49Z</time>
      </trkpt>
      <trkpt lat="44.48198" lon="6.91188">
        <ele>2024.67</ele>
        <time>2013-04-10T07:13:20Z</time>
      </trkpt>
      <trkpt lat="44.48197" lon="6.91188">
        <ele>2024.19</ele>
        <time>2013-04-10T07:13:53Z</time>
      </trkpt>
      <trkpt lat="44.48197" lon="6.91188">
        <ele>2025.15</ele>
        <time>2013-04-10T07:14:08Z</time>
      </trkpt>
      <trkpt lat="44.48197" lon="6.91188">
        <ele>2025.15</ele>
        <time>2013-04-10T07:14:40Z</time>
      </trkpt>
      <trkpt lat="44.48196" lon="6.91188">
        <ele>2025.15</ele>
        <time>2013-04-10T07:15:07Z</time>
      </trkpt>
      <trkpt lat="44.48196" lon="6.91188">
        <ele>2025.64</ele>
        <time>2013-04-10T07:15:27Z</time>
      </trkpt>
      <trkpt lat="44.48195" lon="6.91188">
        <ele>2026.12</ele>
        <time>2013-04-10T07:15:41Z</time>
      </trkpt>
      <trkpt lat="44.48195" lon="6.91188">
        <ele>2026.12</ele>
        <time>2013-04-10T07:16:00Z</time>
      </trkpt>
      <trkpt lat="44.48195" lon="6.91188">
        <ele>2025.15</ele>
        <time>2013-04-10T07:16:19Z</time>
      </trkpt>
      <trkpt lat="44.48195" lon="6.91186">
        <ele>2025.15</ele>
        <time>2013-04-10T07:16:24Z</time>
      </trkpt>
      <trkpt lat="44.48194" lon="6.91176">
        <ele>2025.15</ele>
        <time>2013-04-10T07:16:36Z</time>
      </trkpt>
      <trkpt lat="44.48193" lon="6.91171">
        <ele>2025.15</ele>
        <time>2013-04-10T07:16:48Z</time>
      </trkpt>
      <trkpt lat="44.48192" lon="6.9116">
        <ele>2026.6</ele>
        <time>2013-04-10T07:17:01Z</time>
      </trkpt>
      <trkpt lat="44.48192" lon="6.91153">
        <ele>2027.56</ele>
        <time>2013-04-10T07:17:07Z</time>
      </trkpt>
      <trkpt lat="44.48185" lon="6.91145">
        <ele>2027.56</ele>
        <time>2013-04-10T07:17:17Z</time>
      </trkpt>
      <trkpt lat="44.48178" lon="6.91136">
        <ele>2028.04</ele>
        <time>2013-04-10T07:17:32Z</time>
      </trkpt>
      <trkpt lat="44.48175" lon="6.91131">
        <ele>2028.04</ele>
        <time>2013-04-10T07:17:42Z</time>
      </trkpt>
      <trkpt lat="44.4817" lon="6.91124">
        <ele>2029</ele>
        <time>2013-04-10T07:17:54Z</time>
      </trkpt>
      <trkpt lat="44.48166" lon="6.91115">
        <ele>2030.44</ele>
        <time>2013-04-10T07:18:07Z</time>
      </trkpt>
      <trkpt lat="44.48166" lon="6.91115">
        <ele>2030.44</ele>
        <time>2013-04-10T07:18:13Z</time>
      </trkpt>
      <trkpt lat="44.48165" lon="6.91113">
        <ele>2030.92</ele>
        <time>2013-04-10T07:18:16Z</time>
      </trkpt>
      <trkpt lat="44.48161" lon="6.91109">
        <ele>2031.4</ele>
        <time>2013-04-10T07:18:26Z</time>
      </trkpt>
      <trkpt lat="44.48157" lon="6.91104">
        <ele>2031.88</ele>
        <time>2013-04-10T07:18:36Z</time>
      </trkpt>
      <trkpt lat="44.48157" lon="6.911">
        <ele>2033.81</ele>
        <time>2013-04-10T07:18:49Z</time>
      </trkpt>
      <trkpt lat="44.48154" lon="6.91092">
        <ele>2035.73</ele>
        <time>2013-04-10T07:19:07Z</time>
      </trkpt>
      <trkpt lat="44.48153" lon="6.91087">
        <ele>2036.69</ele>
        <time>2013-04-10T07:19:15Z</time>
      </trkpt>
      <trkpt lat="44.48149" lon="6.9108">
        <ele>2037.17</ele>
        <time>2013-04-10T07:19:27Z</time>
      </trkpt>
      <trkpt lat="44.48148" lon="6.91078">
        <ele>2038.13</ele>
        <time>2013-04-10T07:19:30Z</time>
      </trkpt>
      <trkpt lat="44.48145" lon="6.91073">
        <ele>2039.09</ele>
        <time>2013-04-10T07:19:41Z</time>
      </trkpt>
      <trkpt lat="44.48145" lon="6.91069">
        <ele>2038.13</ele>
        <time>2013-04-10T07:19:54Z</time>
      </trkpt>
      <trkpt lat="44.48142" lon="6.9106">
        <ele>2038.13</ele>
        <time>2013-04-10T07:20:05Z</time>
      </trkpt>
      <trkpt lat="44.48141" lon="6.91058">
        <ele>2039.57</ele>
        <time>2013-04-10T07:20:07Z</time>
      </trkpt>
      <trkpt lat="44.48141" lon="6.91056">
        <ele>2039.57</ele>
        <time>2013-04-10T07:20:24Z</time>
      </trkpt>
      <trkpt lat="44.48141" lon="6.91055">
        <ele>2039.57</ele>
        <time>2013-04-10T07:20:34Z</time>
      </trkpt>
      <trkpt lat="44.48138" lon="6.91045">
        <ele>2040.05</ele>
        <time>2013-04-10T07:20:48Z</time>
      </trkpt>
      <trkpt lat="44.48136" lon="6.91036">
        <ele>2041.02</ele>
        <time>2013-04-10T07:21:02Z</time>
      </trkpt>
      <trkpt lat="44.48136" lon="6.91031">
        <ele>2043.42</ele>
        <time>2013-04-10T07:21:16Z</time>
      </trkpt>
      <trkpt lat="44.48133" lon="6.91014">
        <ele>2044.38</ele>
        <time>2013-04-10T07:21:29Z</time>
      </trkpt>
      <trkpt lat="44.48134" lon="6.91009">
        <ele>2045.82</ele>
        <time>2013-04-10T07:21:42Z</time>
      </trkpt>
      <trkpt lat="44.48133" lon="6.90997">
        <ele>2045.82</ele>
        <time>2013-04-10T07:21:57Z</time>
      </trkpt>
      <trkpt lat="44.48132" lon="6.90992">
        <ele>2047.75</ele>
        <time>2013-04-10T07:22:12Z</time>
      </trkpt>
      <trkpt lat="44.48132" lon="6.90981">
        <ele>2049.19</ele>
        <time>2013-04-10T07:22:25Z</time>
      </trkpt>
      <trkpt lat="44.48132" lon="6.90975">
        <ele>2050.15</ele>
        <time>2013-04-10T07:22:38Z</time>
      </trkpt>
      <trkpt lat="44.48132" lon="6.90963">
        <ele>2052.55</ele>
        <time>2013-04-10T07:22:52Z</time>
      </trkpt>
      <trkpt lat="44.48132" lon="6.90956">
        <ele>2053.03</ele>
        <time>2013-04-10T07:23:05Z</time>
      </trkpt>
      <trkpt lat="44.48133" lon="6.9094">
        <ele>2054.96</ele>
        <time>2013-04-10T07:23:21Z</time>
      </trkpt>
      <trkpt lat="44.48132" lon="6.90935">
        <ele>2057.84</ele>
        <time>2013-04-10T07:23:29Z</time>
      </trkpt>
      <trkpt lat="44.48132" lon="6.90935">
        <ele>2057.84</ele>
        <time>2013-04-10T07:23:30Z</time>
      </trkpt>
      <trkpt lat="44.48133" lon="6.90931">
        <ele>2056.88</ele>
        <time>2013-04-10T07:23:35Z</time>
      </trkpt>
      <trkpt lat="44.48133" lon="6.90928">
        <ele>2059.28</ele>
        <time>2013-04-10T07:23:41Z</time>
      </trkpt>
      <trkpt lat="44.48132" lon="6.90922">
        <ele>2059.76</ele>
        <time>2013-04-10T07:23:50Z</time>
      </trkpt>
      <trkpt lat="44.48132" lon="6.90913">
        <ele>2061.2</ele>
        <time>2013-04-10T07:24:02Z</time>
      </trkpt>
      <trkpt lat="44.4813" lon="6.90902">
        <ele>2062.17</ele>
        <time>2013-04-10T07:24:14Z</time>
      </trkpt>
      <trkpt lat="44.48129" lon="6.90897">
        <ele>2060.72</ele>
        <time>2013-04-10T07:24:19Z</time>
      </trkpt>
      <trkpt lat="44.48128" lon="6.90892">
        <ele>2061.68</ele>
        <time>2013-04-10T07:24:26Z</time>
      </trkpt>
      <trkpt lat="44.48124" lon="6.90884">
        <ele>2060.72</ele>
        <time>2013-04-10T07:24:38Z</time>
      </trkpt>
      <trkpt lat="44.48123" lon="6.9088">
        <ele>2061.68</ele>
        <time>2013-04-10T07:24:46Z</time>
      </trkpt>
      <trkpt lat="44.48119" lon="6.90872">
        <ele>2062.65</ele>
        <time>2013-04-10T07:24:55Z</time>
      </trkpt>
      <trkpt lat="44.48118" lon="6.90868">
        <ele>2062.65</ele>
        <time>2013-04-10T07:24:58Z</time>
      </trkpt>
      <trkpt lat="44.48115" lon="6.90861">
        <ele>2064.57</ele>
        <time>2013-04-10T07:25:11Z</time>
      </trkpt>
      <trkpt lat="44.48115" lon="6.90859">
        <ele>2064.57</ele>
        <time>2013-04-10T07:25:12Z</time>
      </trkpt>
      <trkpt lat="44.48113" lon="6.90853">
        <ele>2064.57</ele>
        <time>2013-04-10T07:25:23Z</time>
      </trkpt>
      <trkpt lat="44.4811" lon="6.90844">
        <ele>2065.05</ele>
        <time>2013-04-10T07:25:35Z</time>
      </trkpt>
      <trkpt lat="44.48104" lon="6.90834">
        <ele>2065.53</ele>
        <time>2013-04-10T07:25:50Z</time>
      </trkpt>
      <trkpt lat="44.48102" lon="6.90827">
        <ele>2066.97</ele>
        <time>2013-04-10T07:26:03Z</time>
      </trkpt>
      <trkpt lat="44.48099" lon="6.90817">
        <ele>2068.41</ele>
        <time>2013-04-10T07:26:16Z</time>
      </trkpt>
      <trkpt lat="44.48099" lon="6.90813">
        <ele>2069.86</ele>
        <time>2013-04-10T07:26:29Z</time>
      </trkpt>
      <trkpt lat="44.48095" lon="6.908">
        <ele>2071.78</ele>
        <time>2013-04-10T07:26:41Z</time>
      </trkpt>
      <trkpt lat="44.48093" lon="6.90794">
        <ele>2072.74</ele>
        <time>2013-04-10T07:26:55Z</time>
      </trkpt>
      <trkpt lat="44.48093" lon="6.90794">
        <ele>2072.74</ele>
        <time>2013-04-10T07:26:56Z</time>
      </trkpt>
      <trkpt lat="44.48092" lon="6.90789">
        <ele>2074.66</ele>
        <time>2013-04-10T07:27:10Z</time>
      </trkpt>
      <trkpt lat="44.4809" lon="6.90781">
        <ele>2075.14</ele>
        <time>2013-04-10T07:27:22Z</time>
      </trkpt>
      <trkpt lat="44.48087" lon="6.90773">
        <ele>2077.07</ele>
        <time>2013-04-10T07:27:34Z</time>
      </trkpt>
      <trkpt lat="44.48085" lon="6.90766">
        <ele>2080.43</ele>
        <time>2013-04-10T07:27:43Z</time>
      </trkpt>
      <trkpt lat="44.48083" lon="6.90763">
        <ele>2080.91</ele>
        <time>2013-04-10T07:27:55Z</time>
      </trkpt>
      <trkpt lat="44.48077" lon="6.90756">
        <ele>2080.91</ele>
        <time>2013-04-10T07:28:12Z</time>
      </trkpt>
      <trkpt lat="44.48071" lon="6.90747">
        <ele>2081.39</ele>
        <time>2013-04-10T07:28:24Z</time>
      </trkpt>
      <trkpt lat="44.4807" lon="6.90743">
        <ele>2082.35</ele>
        <time>2013-04-10T07:28:37Z</time>
      </trkpt>
      <trkpt lat="44.48069" lon="6.90737">
        <ele>2083.79</ele>
        <time>2013-04-10T07:28:48Z</time>
      </trkpt>
      <trkpt lat="44.48066" lon="6.90731">
        <ele>2085.24</ele>
        <time>2013-04-10T07:29:01Z</time>
      </trkpt>
      <trkpt lat="44.48063" lon="6.90724">
        <ele>2088.12</ele>
        <time>2013-04-10T07:29:14Z</time>
      </trkpt>
      <trkpt lat="44.48061" lon="6.90722">
        <ele>2088.6</ele>
        <time>2013-04-10T07:29:26Z</time>
      </trkpt>
      <trkpt lat="44.48061" lon="6.90721">
        <ele>2090.52</ele>
        <time>2013-04-10T07:29:32Z</time>
      </trkpt>
      <trkpt lat="44.48058" lon="6.90718">
        <ele>2094.37</ele>
        <time>2013-04-10T07:29:44Z</time>
      </trkpt>
      <trkpt lat="44.48057" lon="6.90717">
        <ele>2094.37</ele>
        <time>2013-04-10T07:29:45Z</time>
      </trkpt>
      <trkpt lat="44.48056" lon="6.90716">
        <ele>2092.93</ele>
        <time>2013-04-10T07:29:47Z</time>
      </trkpt>
      <trkpt lat="44.48056" lon="6.90711">
        <ele>2094.37</ele>
        <time>2013-04-10T07:29:55Z</time>
      </trkpt>
      <trkpt lat="44.48054" lon="6.90707">
        <ele>2095.81</ele>
        <time>2013-04-10T07:30:07Z</time>
      </trkpt>
      <trkpt lat="44.48052" lon="6.90704">
        <ele>2097.25</ele>
        <time>2013-04-10T07:30:13Z</time>
      </trkpt>
      <trkpt lat="44.48052" lon="6.90701">
        <ele>2095.33</ele>
        <time>2013-04-10T07:30:18Z</time>
      </trkpt>
      <trkpt lat="44.48051" lon="6.90696">
        <ele>2099.18</ele>
        <time>2013-04-10T07:30:31Z</time>
      </trkpt>
      <trkpt lat="44.48051" lon="6.90695">
        <ele>2099.18</ele>
        <time>2013-04-10T07:30:32Z</time>
      </trkpt>
      <trkpt lat="44.48052" lon="6.90694">
        <ele>2097.73</ele>
        <time>2013-04-10T07:30:34Z</time>
      </trkpt>
      <trkpt lat="44.48051" lon="6.90691">
        <ele>2098.7</ele>
        <time>2013-04-10T07:30:39Z</time>
      </trkpt>
      <trkpt lat="44.48051" lon="6.90682">
        <ele>2100.14</ele>
        <time>2013-04-10T07:30:54Z</time>
      </trkpt>
      <trkpt lat="44.48051" lon="6.90681">
        <ele>2101.1</ele>
        <time>2013-04-10T07:30:59Z</time>
      </trkpt>
      <trkpt lat="44.48051" lon="6.9067">
        <ele>2100.62</ele>
        <time>2013-04-10T07:31:09Z</time>
      </trkpt>
      <trkpt lat="44.4805" lon="6.90665">
        <ele>2102.54</ele>
        <time>2013-04-10T07:31:16Z</time>
      </trkpt>
      <trkpt lat="44.4805" lon="6.9066">
        <ele>2104.94</ele>
        <time>2013-04-10T07:31:31Z</time>
      </trkpt>
      <trkpt lat="44.4805" lon="6.90659">
        <ele>2104.94</ele>
        <time>2013-04-10T07:31:32Z</time>
      </trkpt>
      <trkpt lat="44.4805" lon="6.90658">
        <ele>2103.5</ele>
        <time>2013-04-10T07:31:35Z</time>
      </trkpt>
      <trkpt lat="44.4805" lon="6.90653">
        <ele>2104.46</ele>
        <time>2013-04-10T07:31:39Z</time>
      </trkpt>
      <trkpt lat="44.4805" lon="6.90645">
        <ele>2104.46</ele>
        <time>2013-04-10T07:31:50Z</time>
      </trkpt>
      <trkpt lat="44.48052" lon="6.90633">
        <ele>2104.46</ele>
        <time>2013-04-10T07:32:02Z</time>
      </trkpt>
      <trkpt lat="44.48053" lon="6.90622">
        <ele>2106.87</ele>
        <time>2013-04-10T07:32:18Z</time>
      </trkpt>
      <trkpt lat="44.48052" lon="6.90613">
        <ele>2108.31</ele>
        <time>2013-04-10T07:32:31Z</time>
      </trkpt>
      <trkpt lat="44.48053" lon="6.90605">
        <ele>2108.31</ele>
        <time>2013-04-10T07:32:44Z</time>
      </trkpt>
      <trkpt lat="44.48053" lon="6.90603">
        <ele>2110.23</ele>
        <time>2013-04-10T07:32:51Z</time>
      </trkpt>
      <trkpt lat="44.48052" lon="6.90603">
        <ele>2106.39</ele>
        <time>2013-04-10T07:32:54Z</time>
      </trkpt>
      <trkpt lat="44.48052" lon="6.90602">
        <ele>2106.39</ele>
        <time>2013-04-10T07:32:55Z</time>
      </trkpt>
      <trkpt lat="44.48052" lon="6.90602">
        <ele>2104.94</ele>
        <time>2013-04-10T07:33:05Z</time>
      </trkpt>
      <trkpt lat="44.48052" lon="6.90602">
        <ele>2106.39</ele>
        <time>2013-04-10T07:33:15Z</time>
      </trkpt>
      <trkpt lat="44.48052" lon="6.90602">
        <ele>2104.94</ele>
        <time>2013-04-10T07:33:36Z</time>
      </trkpt>
      <trkpt lat="44.48052" lon="6.90602">
        <ele>2104.94</ele>
        <time>2013-04-10T07:33:37Z</time>
      </trkpt>
      <trkpt lat="44.48052" lon="6.90602">
        <ele>2105.91</ele>
        <time>2013-04-10T07:34:03Z</time>
      </trkpt>
      <trkpt lat="44.48052" lon="6.90603">
        <ele>2105.91</ele>
        <time>2013-04-10T07:34:29Z</time>
      </trkpt>
      <trkpt lat="44.48052" lon="6.90603">
        <ele>2105.91</ele>
        <time>2013-04-10T07:34:54Z</time>
      </trkpt>
      <trkpt lat="44.48052" lon="6.90602">
        <ele>2104.94</ele>
        <time>2013-04-10T07:35:25Z</time>
      </trkpt>
      <trkpt lat="44.48052" lon="6.90602">
        <ele>2106.39</ele>
        <time>2013-04-10T07:35:57Z</time>
      </trkpt>
      <trkpt lat="44.48052" lon="6.90602">
        <ele>2106.87</ele>
        <time>2013-04-10T07:36:23Z</time>
      </trkpt>
      <trkpt lat="44.48052" lon="6.90602">
        <ele>2105.42</ele>
        <time>2013-04-10T07:36:28Z</time>
      </trkpt>
      <trkpt lat="44.48052" lon="6.90601">
        <ele>2103.98</ele>
        <time>2013-04-10T07:36:53Z</time>
      </trkpt>
      <trkpt lat="44.48052" lon="6.90601">
        <ele>2105.42</ele>
        <time>2013-04-10T07:37:21Z</time>
      </trkpt>
      <trkpt lat="44.48052" lon="6.90601">
        <ele>2107.83</ele>
        <time>2013-04-10T07:37:30Z</time>
      </trkpt>
      <trkpt lat="44.48052" lon="6.90601">
        <ele>2107.83</ele>
        <time>2013-04-10T07:37:52Z</time>
      </trkpt>
      <trkpt lat="44.48051" lon="6.90601">
        <ele>2105.91</ele>
        <time>2013-04-10T07:37:56Z</time>
      </trkpt>
      <trkpt lat="44.48052" lon="6.906">
        <ele>2107.83</ele>
        <time>2013-04-10T07:38:00Z</time>
      </trkpt>
      <trkpt lat="44.48052" lon="6.90591">
        <ele>2109.75</ele>
        <time>2013-04-10T07:38:12Z</time>
      </trkpt>
      <trkpt lat="44.48052" lon="6.90583">
        <ele>2109.75</ele>
        <time>2013-04-10T07:38:24Z</time>
      </trkpt>
      <trkpt lat="44.48046" lon="6.90577">
        <ele>2110.23</ele>
        <time>2013-04-10T07:38:35Z</time>
      </trkpt>
      <trkpt lat="44.48046" lon="6.90577">
        <ele>2108.79</ele>
        <time>2013-04-10T07:38:37Z</time>
      </trkpt>
      <trkpt lat="44.48046" lon="6.90577">
        <ele>2110.23</ele>
        <time>2013-04-10T07:38:39Z</time>
      </trkpt>
      <trkpt lat="44.48043" lon="6.90576">
        <ele>2110.71</ele>
        <time>2013-04-10T07:38:51Z</time>
      </trkpt>
      <trkpt lat="44.4804" lon="6.90574">
        <ele>2111.67</ele>
        <time>2013-04-10T07:39:00Z</time>
      </trkpt>
      <trkpt lat="44.48039" lon="6.90573">
        <ele>2113.12</ele>
        <time>2013-04-10T07:39:03Z</time>
      </trkpt>
      <trkpt lat="44.48038" lon="6.90573">
        <ele>2114.56</ele>
        <time>2013-04-10T07:39:06Z</time>
      </trkpt>
      <trkpt lat="44.48038" lon="6.90572">
        <ele>2113.6</ele>
        <time>2013-04-10T07:39:09Z</time>
      </trkpt>
      <trkpt lat="44.48036" lon="6.90571">
        <ele>2115.52</ele>
        <time>2013-04-10T07:39:13Z</time>
      </trkpt>
      <trkpt lat="44.48032" lon="6.90569">
        <ele>2116</ele>
        <time>2013-04-10T07:39:27Z</time>
      </trkpt>
      <trkpt lat="44.48025" lon="6.90565">
        <ele>2118.88</ele>
        <time>2013-04-10T07:39:41Z</time>
      </trkpt>
      <trkpt lat="44.48025" lon="6.90564">
        <ele>2120.32</ele>
        <time>2013-04-10T07:39:45Z</time>
      </trkpt>
      <trkpt lat="44.48024" lon="6.9056">
        <ele>2122.25</ele>
        <time>2013-04-10T07:39:59Z</time>
      </trkpt>
      <trkpt lat="44.48022" lon="6.90557">
        <ele>2125.61</ele>
        <time>2013-04-10T07:40:06Z</time>
      </trkpt>
      <trkpt lat="44.48022" lon="6.90556">
        <ele>2122.25</ele>
        <time>2013-04-10T07:40:11Z</time>
      </trkpt>
      <trkpt lat="44.48022" lon="6.90557">
        <ele>2125.61</ele>
        <time>2013-04-10T07:40:12Z</time>
      </trkpt>
      <trkpt lat="44.48022" lon="6.90556">
        <ele>2124.17</ele>
        <time>2013-04-10T07:40:13Z</time>
      </trkpt>
      <trkpt lat="44.4802" lon="6.90552">
        <ele>2127.53</ele>
        <time>2013-04-10T07:40:21Z</time>
      </trkpt>
      <trkpt lat="44.48018" lon="6.90551">
        <ele>2124.17</ele>
        <time>2013-04-10T07:40:25Z</time>
      </trkpt>
      <trkpt lat="44.48018" lon="6.9055">
        <ele>2126.57</ele>
        <time>2013-04-10T07:40:26Z</time>
      </trkpt>
      <trkpt lat="44.48015" lon="6.90544">
        <ele>2124.65</ele>
        <time>2013-04-10T07:40:36Z</time>
      </trkpt>
      <trkpt lat="44.48015" lon="6.90545">
        <ele>2127.05</ele>
        <time>2013-04-10T07:40:40Z</time>
      </trkpt>
      <trkpt lat="44.48011" lon="6.90544">
        <ele>2125.61</ele>
        <time>2013-04-10T07:40:46Z</time>
      </trkpt>
      <trkpt lat="44.48009" lon="6.90543">
        <ele>2127.05</ele>
        <time>2013-04-10T07:40:49Z</time>
      </trkpt>
      <trkpt lat="44.48007" lon="6.90543">
        <ele>2126.09</ele>
        <time>2013-04-10T07:40:54Z</time>
      </trkpt>
      <trkpt lat="44.48005" lon="6.90544">
        <ele>2127.53</ele>
        <time>2013-04-10T07:40:59Z</time>
      </trkpt>
      <trkpt lat="44.48003" lon="6.90544">
        <ele>2129.46</ele>
        <time>2013-04-10T07:41:05Z</time>
      </trkpt>
      <trkpt lat="44.48002" lon="6.90544">
        <ele>2128.02</ele>
        <time>2013-04-10T07:41:07Z</time>
      </trkpt>
      <trkpt lat="44.47998" lon="6.90543">
        <ele>2129.46</ele>
        <time>2013-04-10T07:41:16Z</time>
      </trkpt>
      <trkpt lat="44.47993" lon="6.90541">
        <ele>2129.94</ele>
        <time>2013-04-10T07:41:27Z</time>
      </trkpt>
      <trkpt lat="44.47991" lon="6.90541">
        <ele>2129.46</ele>
        <time>2013-04-10T07:41:38Z</time>
      </trkpt>
      <trkpt lat="44.47987" lon="6.9054">
        <ele>2133.3</ele>
        <time>2013-04-10T07:41:48Z</time>
      </trkpt>
      <trkpt lat="44.47981" lon="6.90541">
        <ele>2136.19</ele>
        <time>2013-04-10T07:42:01Z</time>
      </trkpt>
      <trkpt lat="44.47981" lon="6.90542">
        <ele>2135.71</ele>
        <time>2013-04-10T07:42:02Z</time>
      </trkpt>
      <trkpt lat="44.47981" lon="6.90544">
        <ele>2133.78</ele>
        <time>2013-04-10T07:42:05Z</time>
      </trkpt>
      <trkpt lat="44.47981" lon="6.90544">
        <ele>2134.26</ele>
        <time>2013-04-10T07:42:13Z</time>
      </trkpt>
      <trkpt lat="44.47981" lon="6.90544">
        <ele>2137.15</ele>
        <time>2013-04-10T07:42:19Z</time>
      </trkpt>
      <trkpt lat="44.47981" lon="6.90544">
        <ele>2139.55</ele>
        <time>2013-04-10T07:42:21Z</time>
      </trkpt>
      <trkpt lat="44.47981" lon="6.90544">
        <ele>2135.23</ele>
        <time>2013-04-10T07:42:22Z</time>
      </trkpt>
      <trkpt lat="44.4798" lon="6.90544">
        <ele>2132.82</ele>
        <time>2013-04-10T07:42:24Z</time>
      </trkpt>
      <trkpt lat="44.47975" lon="6.90544">
        <ele>2136.19</ele>
        <time>2013-04-10T07:42:32Z</time>
      </trkpt>
      <trkpt lat="44.47974" lon="6.90544">
        <ele>2137.15</ele>
        <time>2013-04-10T07:42:34Z</time>
      </trkpt>
      <trkpt lat="44.47973" lon="6.90545">
        <ele>2134.26</ele>
        <time>2013-04-10T07:42:36Z</time>
      </trkpt>
      <trkpt lat="44.47967" lon="6.90545">
        <ele>2136.67</ele>
        <time>2013-04-10T07:42:47Z</time>
      </trkpt>
      <trkpt lat="44.47966" lon="6.90544">
        <ele>2138.11</ele>
        <time>2013-04-10T07:42:49Z</time>
      </trkpt>
      <trkpt lat="44.47965" lon="6.90545">
        <ele>2133.78</ele>
        <time>2013-04-10T07:42:51Z</time>
      </trkpt>
      <trkpt lat="44.47965" lon="6.90546">
        <ele>2134.26</ele>
        <time>2013-04-10T07:42:52Z</time>
      </trkpt>
      <trkpt lat="44.47957" lon="6.90547">
        <ele>2135.23</ele>
        <time>2013-04-10T07:43:06Z</time>
      </trkpt>
      <trkpt lat="44.47949" lon="6.90546">
        <ele>2137.63</ele>
        <time>2013-04-10T07:43:17Z</time>
      </trkpt>
      <trkpt lat="44.47938" lon="6.90546">
        <ele>2137.63</ele>
        <time>2013-04-10T07:43:32Z</time>
      </trkpt>
      <trkpt lat="44.47934" lon="6.90548">
        <ele>2139.07</ele>
        <time>2013-04-10T07:43:44Z</time>
      </trkpt>
      <trkpt lat="44.47933" lon="6.90548">
        <ele>2140.51</ele>
        <time>2013-04-10T07:43:48Z</time>
      </trkpt>
      <trkpt lat="44.47932" lon="6.90548">
        <ele>2141.95</ele>
        <time>2013-04-10T07:43:58Z</time>
      </trkpt>
      <trkpt lat="44.47924" lon="6.90545">
        <ele>2144.36</ele>
        <time>2013-04-10T07:44:09Z</time>
      </trkpt>
      <trkpt lat="44.47917" lon="6.90543">
        <ele>2144.36</ele>
        <time>2013-04-10T07:44:22Z</time>
      </trkpt>
      <trkpt lat="44.47911" lon="6.90542">
        <ele>2145.8</ele>
        <time>2013-04-10T07:44:36Z</time>
      </trkpt>
      <trkpt lat="44.47909" lon="6.9054">
        <ele>2147.24</ele>
        <time>2013-04-10T07:44:41Z</time>
      </trkpt>
      <trkpt lat="44.47906" lon="6.90539">
        <ele>2146.76</ele>
        <time>2013-04-10T07:44:49Z</time>
      </trkpt>
      <trkpt lat="44.47905" lon="6.90539">
        <ele>2148.68</ele>
        <time>2013-04-10T07:44:52Z</time>
      </trkpt>
      <trkpt lat="44.47902" lon="6.90538">
        <ele>2150.13</ele>
        <time>2013-04-10T07:45:01Z</time>
      </trkpt>
      <trkpt lat="44.47899" lon="6.90535">
        <ele>2152.05</ele>
        <time>2013-04-10T07:45:15Z</time>
      </trkpt>
      <trkpt lat="44.47895" lon="6.90533">
        <ele>2151.09</ele>
        <time>2013-04-10T07:45:27Z</time>
      </trkpt>
      <trkpt lat="44.47894" lon="6.90532">
        <ele>2153.49</ele>
        <time>2013-04-10T07:45:30Z</time>
      </trkpt>
      <trkpt lat="44.47893" lon="6.90531">
        <ele>2151.57</ele>
        <time>2013-04-10T07:45:34Z</time>
      </trkpt>
      <trkpt lat="44.47891" lon="6.9053">
        <ele>2154.45</ele>
        <time>2013-04-10T07:45:42Z</time>
      </trkpt>
      <trkpt lat="44.47886" lon="6.90528">
        <ele>2154.45</ele>
        <time>2013-04-10T07:45:54Z</time>
      </trkpt>
      <trkpt lat="44.47885" lon="6.90526">
        <ele>2154.93</ele>
        <time>2013-04-10T07:46:06Z</time>
      </trkpt>
      <trkpt lat="44.47883" lon="6.90526">
        <ele>2156.86</ele>
        <time>2013-04-10T07:46:19Z</time>
      </trkpt>
      <trkpt lat="44.47879" lon="6.90522">
        <ele>2158.78</ele>
        <time>2013-04-10T07:46:32Z</time>
      </trkpt>
      <trkpt lat="44.47879" lon="6.90522">
        <ele>2159.26</ele>
        <time>2013-04-10T07:46:41Z</time>
      </trkpt>
      <trkpt lat="44.4787" lon="6.90513">
        <ele>2161.18</ele>
        <time>2013-04-10T07:46:53Z</time>
      </trkpt>
      <trkpt lat="44.4787" lon="6.90513">
        <ele>2163.1</ele>
        <time>2013-04-10T07:47:06Z</time>
      </trkpt>
      <trkpt lat="44.4787" lon="6.90513">
        <ele>2164.55</ele>
        <time>2013-04-10T07:47:21Z</time>
      </trkpt>
      <trkpt lat="44.47866" lon="6.90508">
        <ele>2166.47</ele>
        <time>2013-04-10T07:47:33Z</time>
      </trkpt>
      <trkpt lat="44.47866" lon="6.90508">
        <ele>2166.47</ele>
        <time>2013-04-10T07:47:34Z</time>
      </trkpt>
      <trkpt lat="44.47866" lon="6.90508">
        <ele>2164.55</ele>
        <time>2013-04-10T07:47:50Z</time>
      </trkpt>
      <trkpt lat="44.47866" lon="6.90508">
        <ele>2167.91</ele>
        <time>2013-04-10T07:48:03Z</time>
      </trkpt>
      <trkpt lat="44.47866" lon="6.90505">
        <ele>2171.27</ele>
        <time>2013-04-10T07:48:16Z</time>
      </trkpt>
      <trkpt lat="44.47866" lon="6.90505">
        <ele>2172.24</ele>
        <time>2013-04-10T07:48:30Z</time>
      </trkpt>
      <trkpt lat="44.47862" lon="6.90496">
        <ele>2173.2</ele>
        <time>2013-04-10T07:48:45Z</time>
      </trkpt>
      <trkpt lat="44.47862" lon="6.90496">
        <ele>2169.83</ele>
        <time>2013-04-10T07:48:51Z</time>
      </trkpt>
      <trkpt lat="44.47862" lon="6.90496">
        <ele>2173.2</ele>
        <time>2013-04-10T07:48:57Z</time>
      </trkpt>
      <trkpt lat="44.47862" lon="6.90496">
        <ele>2173.2</ele>
        <time>2013-04-10T07:48:58Z</time>
      </trkpt>
      <trkpt lat="44.47855" lon="6.90483">
        <ele>2175.12</ele>
        <time>2013-04-10T07:49:14Z</time>
      </trkpt>
      <trkpt lat="44.47855" lon="6.90483">
        <ele>2175.6</ele>
        <time>2013-04-10T07:49:26Z</time>
      </trkpt>
      <trkpt lat="44.47855" lon="6.90483">
        <ele>2178</ele>
        <time>2013-04-10T07:49:39Z</time>
      </trkpt>
      <trkpt lat="44.47855" lon="6.90483">
        <ele>2179.45</ele>
        <time>2013-04-10T07:49:50Z</time>
      </trkpt>
      <trkpt lat="44.47853" lon="6.90479">
        <ele>2182.81</ele>
        <time>2013-04-10T07:49:54Z</time>
      </trkpt>
      <trkpt lat="44.47853" lon="6.90479">
        <ele>2182.81</ele>
        <time>2013-04-10T07:50:05Z</time>
      </trkpt>
      <trkpt lat="44.47848" lon="6.9047">
        <ele>2183.77</ele>
        <time>2013-04-10T07:50:18Z</time>
      </trkpt>
      <trkpt lat="44.47847" lon="6.90468">
        <ele>2183.77</ele>
        <time>2013-04-10T07:50:19Z</time>
      </trkpt>
      <trkpt lat="44.47843" lon="6.90463">
        <ele>2185.21</ele>
        <time>2013-04-10T07:50:33Z</time>
      </trkpt>
      <trkpt lat="44.47832" lon="6.90449">
        <ele>2185.21</ele>
        <time>2013-04-10T07:50:46Z</time>
      </trkpt>
      <trkpt lat="44.47832" lon="6.90449">
        <ele>2186.18</ele>
        <time>2013-04-10T07:50:55Z</time>
      </trkpt>
      <trkpt lat="44.47831" lon="6.90449">
        <ele>2187.62</ele>
        <time>2013-04-10T07:51:05Z</time>
      </trkpt>
      <trkpt lat="44.4782" lon="6.9044">
        <ele>2188.58</ele>
        <time>2013-04-10T07:51:16Z</time>
      </trkpt>
      <trkpt lat="44.47809" lon="6.90431">
        <ele>2192.42</ele>
        <time>2013-04-10T07:51:31Z</time>
      </trkpt>
      <trkpt lat="44.47798" lon="6.9042">
        <ele>2194.35</ele>
        <time>2013-04-10T07:51:43Z</time>
      </trkpt>
      <trkpt lat="44.47797" lon="6.90419">
        <ele>2193.39</ele>
        <time>2013-04-10T07:51:45Z</time>
      </trkpt>
      <trkpt lat="44.47792" lon="6.90414">
        <ele>2198.19</ele>
        <time>2013-04-10T07:51:55Z</time>
      </trkpt>
      <trkpt lat="44.47792" lon="6.90414">
        <ele>2198.19</ele>
        <time>2013-04-10T07:51:56Z</time>
      </trkpt>
      <trkpt lat="44.47792" lon="6.90414">
        <ele>2199.15</ele>
        <time>2013-04-10T07:51:58Z</time>
      </trkpt>
      <trkpt lat="44.47791" lon="6.90413">
        <ele>2201.08</ele>
        <time>2013-04-10T07:52:00Z</time>
      </trkpt>
      <trkpt lat="44.4778" lon="6.90397">
        <ele>2196.75</ele>
        <time>2013-04-10T07:52:07Z</time>
      </trkpt>
      <trkpt lat="44.47779" lon="6.90396">
        <ele>2196.27</ele>
        <time>2013-04-10T07:52:08Z</time>
      </trkpt>
      <trkpt lat="44.47774" lon="6.90386">
        <ele>2195.31</ele>
        <time>2013-04-10T07:52:20Z</time>
      </trkpt>
      <trkpt lat="44.47769" lon="6.90378">
        <ele>2194.35</ele>
        <time>2013-04-10T07:52:31Z</time>
      </trkpt>
      <trkpt lat="44.4776" lon="6.90369">
        <ele>2194.83</ele>
        <time>2013-04-10T07:52:44Z</time>
      </trkpt>
      <trkpt lat="44.47753" lon="6.90363">
        <ele>2193.87</ele>
        <time>2013-04-10T07:52:58Z</time>
      </trkpt>
      <trkpt lat="44.47747" lon="6.90357">
        <ele>2193.87</ele>
        <time>2013-04-10T07:53:10Z</time>
      </trkpt>
      <trkpt lat="44.47745" lon="6.90351">
        <ele>2195.31</ele>
        <time>2013-04-10T07:53:17Z</time>
      </trkpt>
      <trkpt lat="44.47744" lon="6.90346">
        <ele>2196.75</ele>
        <time>2013-04-10T07:53:29Z</time>
      </trkpt>
      <trkpt lat="44.47742" lon="6.90343">
        <ele>2197.71</ele>
        <time>2013-04-10T07:53:44Z</time>
      </trkpt>
      <trkpt lat="44.4774" lon="6.90336">
        <ele>2198.67</ele>
        <time>2013-04-10T07:53:52Z</time>
      </trkpt>
      <trkpt lat="44.47738" lon="6.90327">
        <ele>2201.08</ele>
        <time>2013-04-10T07:54:06Z</time>
      </trkpt>
      <trkpt lat="44.47738" lon="6.90322">
        <ele>2203.96</ele>
        <time>2013-04-10T07:54:21Z</time>
      </trkpt>
      <trkpt lat="44.47736" lon="6.90315">
        <ele>2204.44</ele>
        <time>2013-04-10T07:54:35Z</time>
      </trkpt>
      <trkpt lat="44.47734" lon="6.90308">
        <ele>2204.92</ele>
        <time>2013-04-10T07:54:48Z</time>
      </trkpt>
      <trkpt lat="44.47735" lon="6.903">
        <ele>2206.36</ele>
        <time>2013-04-10T07:55:06Z</time>
      </trkpt>
      <trkpt lat="44.47732" lon="6.90293">
        <ele>2207.81</ele>
        <time>2013-04-10T07:55:20Z</time>
      </trkpt>
      <trkpt lat="44.4773" lon="6.90287">
        <ele>2210.21</ele>
        <time>2013-04-10T07:55:34Z</time>
      </trkpt>
      <trkpt lat="44.47729" lon="6.90282">
        <ele>2211.17</ele>
        <time>2013-04-10T07:55:48Z</time>
      </trkpt>
      <trkpt lat="44.47728" lon="6.9028">
        <ele>2213.09</ele>
        <time>2013-04-10T07:55:57Z</time>
      </trkpt>
      <trkpt lat="44.47726" lon="6.9027">
        <ele>2213.09</ele>
        <time>2013-04-10T07:56:12Z</time>
      </trkpt>
      <trkpt lat="44.47727" lon="6.90263">
        <ele>2215.01</ele>
        <time>2013-04-10T07:56:24Z</time>
      </trkpt>
      <trkpt lat="44.47727" lon="6.90256">
        <ele>2215.98</ele>
        <time>2013-04-10T07:56:37Z</time>
      </trkpt>
      <trkpt lat="44.47727" lon="6.90255">
        <ele>2217.42</ele>
        <time>2013-04-10T07:56:40Z</time>
      </trkpt>
      <trkpt lat="44.47728" lon="6.90249">
        <ele>2217.42</ele>
        <time>2013-04-10T07:56:55Z</time>
      </trkpt>
      <trkpt lat="44.47729" lon="6.90246">
        <ele>2218.86</ele>
        <time>2013-04-10T07:57:00Z</time>
      </trkpt>
      <trkpt lat="44.4773" lon="6.9024">
        <ele>2220.78</ele>
        <time>2013-04-10T07:57:11Z</time>
      </trkpt>
      <trkpt lat="44.47731" lon="6.90231">
        <ele>2221.74</ele>
        <time>2013-04-10T07:57:26Z</time>
      </trkpt>
      <trkpt lat="44.47731" lon="6.90229">
        <ele>2222.22</ele>
        <time>2013-04-10T07:57:32Z</time>
      </trkpt>
      <trkpt lat="44.47733" lon="6.90224">
        <ele>2222.22</ele>
        <time>2013-04-10T07:57:39Z</time>
      </trkpt>
      <trkpt lat="44.47733" lon="6.90214">
        <ele>2222.22</ele>
        <time>2013-04-10T07:57:54Z</time>
      </trkpt>
      <trkpt lat="44.47734" lon="6.90213">
        <ele>2222.22</ele>
        <time>2013-04-10T07:57:55Z</time>
      </trkpt>
      <trkpt lat="44.47735" lon="6.90205">
        <ele>2222.22</ele>
        <time>2013-04-10T07:58:08Z</time>
      </trkpt>
      <trkpt lat="44.47735" lon="6.90198">
        <ele>2222.22</ele>
        <time>2013-04-10T07:58:22Z</time>
      </trkpt>
      <trkpt lat="44.47735" lon="6.90191">
        <ele>2222.71</ele>
        <time>2013-04-10T07:58:36Z</time>
      </trkpt>
      <trkpt lat="44.47734" lon="6.90184">
        <ele>2224.15</ele>
        <time>2013-04-10T07:58:48Z</time>
      </trkpt>
      <trkpt lat="44.4773" lon="6.90176">
        <ele>2225.59</ele>
        <time>2013-04-10T07:59:02Z</time>
      </trkpt>
      <trkpt lat="44.4773" lon="6.90168">
        <ele>2225.59</ele>
        <time>2013-04-10T07:59:15Z</time>
      </trkpt>
      <trkpt lat="44.4773" lon="6.90161">
        <ele>2227.99</ele>
        <time>2013-04-10T07:59:28Z</time>
      </trkpt>
      <trkpt lat="44.4773" lon="6.90158">
        <ele>2228.95</ele>
        <time>2013-04-10T07:59:38Z</time>
      </trkpt>
      <trkpt lat="44.4773" lon="6.90153">
        <ele>2229.43</ele>
        <time>2013-04-10T07:59:49Z</time>
      </trkpt>
      <trkpt lat="44.47731" lon="6.90152">
        <ele>2230.88</ele>
        <time>2013-04-10T07:59:52Z</time>
      </trkpt>
      <trkpt lat="44.47732" lon="6.9015">
        <ele>2232.32</ele>
        <time>2013-04-10T07:59:59Z</time>
      </trkpt>
      <trkpt lat="44.47732" lon="6.90149">
        <ele>2231.36</ele>
        <time>2013-04-10T08:00:01Z</time>
      </trkpt>
      <trkpt lat="44.47735" lon="6.90145">
        <ele>2233.76</ele>
        <time>2013-04-10T08:00:14Z</time>
      </trkpt>
      <trkpt lat="44.47737" lon="6.90139">
        <ele>2234.72</ele>
        <time>2013-04-10T08:00:26Z</time>
      </trkpt>
      <trkpt lat="44.47736" lon="6.90134">
        <ele>2234.72</ele>
        <time>2013-04-10T08:00:41Z</time>
      </trkpt>
      <trkpt lat="44.47734" lon="6.90129">
        <ele>2235.68</ele>
        <time>2013-04-10T08:00:53Z</time>
      </trkpt>
      <trkpt lat="44.47728" lon="6.90118">
        <ele>2236.64</ele>
        <time>2013-04-10T08:01:07Z</time>
      </trkpt>
      <trkpt lat="44.47725" lon="6.90112">
        <ele>2237.13</ele>
        <time>2013-04-10T08:01:17Z</time>
      </trkpt>
      <trkpt lat="44.47725" lon="6.90102">
        <ele>2239.05</ele>
        <time>2013-04-10T08:01:33Z</time>
      </trkpt>
      <trkpt lat="44.47726" lon="6.90097">
        <ele>2240.97</ele>
        <time>2013-04-10T08:01:48Z</time>
      </trkpt>
      <trkpt lat="44.47724" lon="6.90094">
        <ele>2240.49</ele>
        <time>2013-04-10T08:01:53Z</time>
      </trkpt>
      <trkpt lat="44.47724" lon="6.90093">
        <ele>2240.01</ele>
        <time>2013-04-10T08:02:02Z</time>
      </trkpt>
      <trkpt lat="44.47721" lon="6.90082">
        <ele>2242.41</ele>
        <time>2013-04-10T08:02:18Z</time>
      </trkpt>
      <trkpt lat="44.47718" lon="6.90072">
        <ele>2242.89</ele>
        <time>2013-04-10T08:02:33Z</time>
      </trkpt>
      <trkpt lat="44.47714" lon="6.90064">
        <ele>2243.37</ele>
        <time>2013-04-10T08:02:50Z</time>
      </trkpt>
      <trkpt lat="44.47711" lon="6.90055">
        <ele>2243.85</ele>
        <time>2013-04-10T08:03:05Z</time>
      </trkpt>
      <trkpt lat="44.47711" lon="6.90048">
        <ele>2244.33</ele>
        <time>2013-04-10T08:03:21Z</time>
      </trkpt>
      <trkpt lat="44.4771" lon="6.90043">
        <ele>2246.26</ele>
        <time>2013-04-10T08:03:36Z</time>
      </trkpt>
      <trkpt lat="44.4771" lon="6.9004">
        <ele>2248.66</ele>
        <time>2013-04-10T08:03:46Z</time>
      </trkpt>
      <trkpt lat="44.47712" lon="6.90035">
        <ele>2250.58</ele>
        <time>2013-04-10T08:04:01Z</time>
      </trkpt>
      <trkpt lat="44.47712" lon="6.90033">
        <ele>2249.14</ele>
        <time>2013-04-10T08:04:04Z</time>
      </trkpt>
      <trkpt lat="44.47712" lon="6.90033">
        <ele>2250.58</ele>
        <time>2013-04-10T08:04:06Z</time>
      </trkpt>
      <trkpt lat="44.47712" lon="6.9003">
        <ele>2251.54</ele>
        <time>2013-04-10T08:04:20Z</time>
      </trkpt>
      <trkpt lat="44.47712" lon="6.90027">
        <ele>2251.54</ele>
        <time>2013-04-10T08:04:25Z</time>
      </trkpt>
      <trkpt lat="44.47712" lon="6.90025">
        <ele>2251.06</ele>
        <time>2013-04-10T08:04:31Z</time>
      </trkpt>
      <trkpt lat="44.4771" lon="6.90019">
        <ele>2253.47</ele>
        <time>2013-04-10T08:04:45Z</time>
      </trkpt>
      <trkpt lat="44.4771" lon="6.90019">
        <ele>2255.39</ele>
        <time>2013-04-10T08:04:48Z</time>
      </trkpt>
      <trkpt lat="44.4771" lon="6.90018">
        <ele>2253.95</ele>
        <time>2013-04-10T08:04:51Z</time>
      </trkpt>
      <trkpt lat="44.47711" lon="6.90016">
        <ele>2255.87</ele>
        <time>2013-04-10T08:04:57Z</time>
      </trkpt>
      <trkpt lat="44.4771" lon="6.9001">
        <ele>2258.27</ele>
        <time>2013-04-10T08:05:05Z</time>
      </trkpt>
      <trkpt lat="44.47707" lon="6.90003">
        <ele>2259.24</ele>
        <time>2013-04-10T08:05:22Z</time>
      </trkpt>
      <trkpt lat="44.47706" lon="6.89998">
        <ele>2260.68</ele>
        <time>2013-04-10T08:05:36Z</time>
      </trkpt>
      <trkpt lat="44.47704" lon="6.89993">
        <ele>2261.16</ele>
        <time>2013-04-10T08:05:44Z</time>
      </trkpt>
      <trkpt lat="44.47705" lon="6.89989">
        <ele>2264.52</ele>
        <time>2013-04-10T08:05:54Z</time>
      </trkpt>
      <trkpt lat="44.47705" lon="6.89989">
        <ele>2264.04</ele>
        <time>2013-04-10T08:05:55Z</time>
      </trkpt>
      <trkpt lat="44.47703" lon="6.89982">
        <ele>2263.56</ele>
        <time>2013-04-10T08:06:08Z</time>
      </trkpt>
      <trkpt lat="44.47702" lon="6.89978">
        <ele>2264.04</ele>
        <time>2013-04-10T08:06:16Z</time>
      </trkpt>
      <trkpt lat="44.47703" lon="6.89976">
        <ele>2264.52</ele>
        <time>2013-04-10T08:06:30Z</time>
      </trkpt>
      <trkpt lat="44.47702" lon="6.89971">
        <ele>2263.56</ele>
        <time>2013-04-10T08:06:44Z</time>
      </trkpt>
      <trkpt lat="44.47702" lon="6.89969">
        <ele>2265.48</ele>
        <time>2013-04-10T08:06:47Z</time>
      </trkpt>
      <trkpt lat="44.47702" lon="6.89967">
        <ele>2264.04</ele>
        <time>2013-04-10T08:06:51Z</time>
      </trkpt>
      <trkpt lat="44.47702" lon="6.89967">
        <ele>2265.48</ele>
        <time>2013-04-10T08:06:53Z</time>
      </trkpt>
      <trkpt lat="44.47705" lon="6.89961">
        <ele>2265.96</ele>
        <time>2013-04-10T08:07:07Z</time>
      </trkpt>
      <trkpt lat="44.47707" lon="6.89956">
        <ele>2266.93</ele>
        <time>2013-04-10T08:07:18Z</time>
      </trkpt>
      <trkpt lat="44.47708" lon="6.89952">
        <ele>2268.37</ele>
        <time>2013-04-10T08:07:31Z</time>
      </trkpt>
      <trkpt lat="44.47707" lon="6.89942">
        <ele>2269.33</ele>
        <time>2013-04-10T08:07:45Z</time>
      </trkpt>
      <trkpt lat="44.47703" lon="6.89927">
        <ele>2267.89</ele>
        <time>2013-04-10T08:07:59Z</time>
      </trkpt>
      <trkpt lat="44.47704" lon="6.89923">
        <ele>2269.81</ele>
        <time>2013-04-10T08:08:03Z</time>
      </trkpt>
      <trkpt lat="44.47704" lon="6.89923">
        <ele>2268.37</ele>
        <time>2013-04-10T08:08:05Z</time>
      </trkpt>
      <trkpt lat="44.47706" lon="6.89914">
        <ele>2267.89</ele>
        <time>2013-04-10T08:08:15Z</time>
      </trkpt>
      <trkpt lat="44.47706" lon="6.89912">
        <ele>2269.33</ele>
        <time>2013-04-10T08:08:18Z</time>
      </trkpt>
      <trkpt lat="44.47707" lon="6.89906">
        <ele>2267.89</ele>
        <time>2013-04-10T08:08:25Z</time>
      </trkpt>
      <trkpt lat="44.47706" lon="6.89904">
        <ele>2269.33</ele>
        <time>2013-04-10T08:08:27Z</time>
      </trkpt>
      <trkpt lat="44.47706" lon="6.89897">
        <ele>2267.89</ele>
        <time>2013-04-10T08:08:36Z</time>
      </trkpt>
      <trkpt lat="44.47708" lon="6.89884">
        <ele>2267.41</ele>
        <time>2013-04-10T08:08:51Z</time>
      </trkpt>
      <trkpt lat="44.47712" lon="6.89873">
        <ele>2267.41</ele>
        <time>2013-04-10T08:09:05Z</time>
      </trkpt>
      <trkpt lat="44.4771" lon="6.89867">
        <ele>2267.41</ele>
        <time>2013-04-10T08:09:11Z</time>
      </trkpt>
      <trkpt lat="44.47706" lon="6.89852">
        <ele>2267.41</ele>
        <time>2013-04-10T08:09:27Z</time>
      </trkpt>
      <trkpt lat="44.47706" lon="6.89838">
        <ele>2269.33</ele>
        <time>2013-04-10T08:09:44Z</time>
      </trkpt>
      <trkpt lat="44.47712" lon="6.89827">
        <ele>2269.81</ele>
        <time>2013-04-10T08:09:59Z</time>
      </trkpt>
      <trkpt lat="44.47715" lon="6.89819">
        <ele>2271.25</ele>
        <time>2013-04-10T08:10:14Z</time>
      </trkpt>
      <trkpt lat="44.47713" lon="6.89807">
        <ele>2271.73</ele>
        <time>2013-04-10T08:10:29Z</time>
      </trkpt>
      <trkpt lat="44.47713" lon="6.89795">
        <ele>2273.66</ele>
        <time>2013-04-10T08:10:42Z</time>
      </trkpt>
      <trkpt lat="44.47715" lon="6.89784">
        <ele>2274.62</ele>
        <time>2013-04-10T08:11:00Z</time>
      </trkpt>
      <trkpt lat="44.47716" lon="6.89774">
        <ele>2276.54</ele>
        <time>2013-04-10T08:11:16Z</time>
      </trkpt>
      <trkpt lat="44.47721" lon="6.89769">
        <ele>2277.98</ele>
        <time>2013-04-10T08:11:29Z</time>
      </trkpt>
      <trkpt lat="44.47721" lon="6.89763">
        <ele>2279.42</ele>
        <time>2013-04-10T08:11:42Z</time>
      </trkpt>
      <trkpt lat="44.47725" lon="6.89755">
        <ele>2280.87</ele>
        <time>2013-04-10T08:11:55Z</time>
      </trkpt>
      <trkpt lat="44.47726" lon="6.89749">
        <ele>2281.83</ele>
        <time>2013-04-10T08:12:09Z</time>
      </trkpt>
      <trkpt lat="44.47725" lon="6.89744">
        <ele>2281.83</ele>
        <time>2013-04-10T08:12:21Z</time>
      </trkpt>
      <trkpt lat="44.47726" lon="6.89738">
        <ele>2284.23</ele>
        <time>2013-04-10T08:12:30Z</time>
      </trkpt>
      <trkpt lat="44.47729" lon="6.89729">
        <ele>2284.71</ele>
        <time>2013-04-10T08:12:43Z</time>
      </trkpt>
      <trkpt lat="44.47729" lon="6.8972">
        <ele>2285.67</ele>
        <time>2013-04-10T08:12:57Z</time>
      </trkpt>
      <trkpt lat="44.47732" lon="6.89713">
        <ele>2286.63</ele>
        <time>2013-04-10T08:13:12Z</time>
      </trkpt>
      <trkpt lat="44.47734" lon="6.89701">
        <ele>2288.56</ele>
        <time>2013-04-10T08:13:29Z</time>
      </trkpt>
      <trkpt lat="44.47734" lon="6.89698">
        <ele>2289.04</ele>
        <time>2013-04-10T08:13:43Z</time>
      </trkpt>
      <trkpt lat="44.47735" lon="6.89698">
        <ele>2288.08</ele>
        <time>2013-04-10T08:13:58Z</time>
      </trkpt>
      <trkpt lat="44.47735" lon="6.89698">
        <ele>2288.56</ele>
        <time>2013-04-10T08:14:19Z</time>
      </trkpt>
      <trkpt lat="44.47734" lon="6.89698">
        <ele>2288.08</ele>
        <time>2013-04-10T08:14:47Z</time>
      </trkpt>
      <trkpt lat="44.47733" lon="6.89698">
        <ele>2287.59</ele>
        <time>2013-04-10T08:15:13Z</time>
      </trkpt>
      <trkpt lat="44.47733" lon="6.89698">
        <ele>2287.59</ele>
        <time>2013-04-10T08:15:39Z</time>
      </trkpt>
      <trkpt lat="44.47733" lon="6.89697">
        <ele>2290</ele>
        <time>2013-04-10T08:16:06Z</time>
      </trkpt>
      <trkpt lat="44.47734" lon="6.89697">
        <ele>2288.08</ele>
        <time>2013-04-10T08:16:32Z</time>
      </trkpt>
      <trkpt lat="44.47734" lon="6.89697">
        <ele>2287.59</ele>
        <time>2013-04-10T08:17:01Z</time>
      </trkpt>
      <trkpt lat="44.47734" lon="6.89697">
        <ele>2287.59</ele>
        <time>2013-04-10T08:17:28Z</time>
      </trkpt>
      <trkpt lat="44.47734" lon="6.89697">
        <ele>2287.59</ele>
        <time>2013-04-10T08:17:58Z</time>
      </trkpt>
      <trkpt lat="44.47734" lon="6.89697">
        <ele>2288.08</ele>
        <time>2013-04-10T08:18:24Z</time>
      </trkpt>
      <trkpt lat="44.47734" lon="6.89697">
        <ele>2288.08</ele>
        <time>2013-04-10T08:18:43Z</time>
      </trkpt>
      <trkpt lat="44.47734" lon="6.89697">
        <ele>2288.08</ele>
        <time>2013-04-10T08:19:06Z</time>
      </trkpt>
      <trkpt lat="44.47732" lon="6.89694">
        <ele>2287.11</ele>
        <time>2013-04-10T08:19:31Z</time>
      </trkpt>
      <trkpt lat="44.47731" lon="6.89694">
        <ele>2288.08</ele>
        <time>2013-04-10T08:19:51Z</time>
      </trkpt>
      <trkpt lat="44.47731" lon="6.89694">
        <ele>2287.59</ele>
        <time>2013-04-10T08:20:21Z</time>
      </trkpt>
      <trkpt lat="44.47731" lon="6.89694">
        <ele>2287.11</ele>
        <time>2013-04-10T08:20:54Z</time>
      </trkpt>
      <trkpt lat="44.47731" lon="6.89694">
        <ele>2286.63</ele>
        <time>2013-04-10T08:21:24Z</time>
      </trkpt>
      <trkpt lat="44.47731" lon="6.89694">
        <ele>2286.63</ele>
        <time>2013-04-10T08:21:25Z</time>
      </trkpt>
      <trkpt lat="44.47728" lon="6.89694">
        <ele>2288.08</ele>
        <time>2013-04-10T08:21:29Z</time>
      </trkpt>
      <trkpt lat="44.47727" lon="6.89694">
        <ele>2288.08</ele>
        <time>2013-04-10T08:21:41Z</time>
      </trkpt>
      <trkpt lat="44.47728" lon="6.89692">
        <ele>2288.56</ele>
        <time>2013-04-10T08:21:55Z</time>
      </trkpt>
      <trkpt lat="44.47729" lon="6.89685">
        <ele>2290.48</ele>
        <time>2013-04-10T08:22:06Z</time>
      </trkpt>
      <trkpt lat="44.47731" lon="6.89679">
        <ele>2290.96</ele>
        <time>2013-04-10T08:22:18Z</time>
      </trkpt>
      <trkpt lat="44.47729" lon="6.89668">
        <ele>2292.88</ele>
        <time>2013-04-10T08:22:32Z</time>
      </trkpt>
      <trkpt lat="44.47732" lon="6.89663">
        <ele>2293.84</ele>
        <time>2013-04-10T08:22:43Z</time>
      </trkpt>
      <trkpt lat="44.47732" lon="6.89655">
        <ele>2295.28</ele>
        <time>2013-04-10T08:22:56Z</time>
      </trkpt>
      <trkpt lat="44.47733" lon="6.89646">
        <ele>2295.77</ele>
        <time>2013-04-10T08:23:08Z</time>
      </trkpt>
      <trkpt lat="44.47736" lon="6.89641">
        <ele>2296.73</ele>
        <time>2013-04-10T08:23:19Z</time>
      </trkpt>
      <trkpt lat="44.47739" lon="6.89637">
        <ele>2297.69</ele>
        <time>2013-04-10T08:23:30Z</time>
      </trkpt>
      <trkpt lat="44.47741" lon="6.89633">
        <ele>2298.65</ele>
        <time>2013-04-10T08:23:39Z</time>
      </trkpt>
      <trkpt lat="44.47744" lon="6.89628">
        <ele>2299.61</ele>
        <time>2013-04-10T08:23:52Z</time>
      </trkpt>
      <trkpt lat="44.47745" lon="6.8962">
        <ele>2301.05</ele>
        <time>2013-04-10T08:24:04Z</time>
      </trkpt>
      <trkpt lat="44.47744" lon="6.89613">
        <ele>2302.01</ele>
        <time>2013-04-10T08:24:16Z</time>
      </trkpt>
      <trkpt lat="44.47742" lon="6.89607">
        <ele>2302.98</ele>
        <time>2013-04-10T08:24:26Z</time>
      </trkpt>
      <trkpt lat="44.47741" lon="6.89601">
        <ele>2304.42</ele>
        <time>2013-04-10T08:24:40Z</time>
      </trkpt>
      <trkpt lat="44.4774" lon="6.89594">
        <ele>2304.9</ele>
        <time>2013-04-10T08:24:51Z</time>
      </trkpt>
      <trkpt lat="44.47738" lon="6.89585">
        <ele>2305.86</ele>
        <time>2013-04-10T08:25:04Z</time>
      </trkpt>
      <trkpt lat="44.47738" lon="6.89579">
        <ele>2306.82</ele>
        <time>2013-04-10T08:25:17Z</time>
      </trkpt>
      <trkpt lat="44.47738" lon="6.89573">
        <ele>2307.78</ele>
        <time>2013-04-10T08:25:30Z</time>
      </trkpt>
      <trkpt lat="44.47737" lon="6.89567">
        <ele>2309.7</ele>
        <time>2013-04-10T08:25:44Z</time>
      </trkpt>
      <trkpt lat="44.47738" lon="6.8956">
        <ele>2310.67</ele>
        <time>2013-04-10T08:25:58Z</time>
      </trkpt>
      <trkpt lat="44.4774" lon="6.89555">
        <ele>2311.63</ele>
        <time>2013-04-10T08:26:10Z</time>
      </trkpt>
      <trkpt lat="44.4774" lon="6.89554">
        <ele>2313.55</ele>
        <time>2013-04-10T08:26:12Z</time>
      </trkpt>
      <trkpt lat="44.4774" lon="6.89553">
        <ele>2312.59</ele>
        <time>2013-04-10T08:26:14Z</time>
      </trkpt>
      <trkpt lat="44.47741" lon="6.89547">
        <ele>2312.11</ele>
        <time>2013-04-10T08:26:27Z</time>
      </trkpt>
      <trkpt lat="44.47741" lon="6.89545">
        <ele>2313.55</ele>
        <time>2013-04-10T08:26:30Z</time>
      </trkpt>
      <trkpt lat="44.47742" lon="6.89539">
        <ele>2314.51</ele>
        <time>2013-04-10T08:26:43Z</time>
      </trkpt>
      <trkpt lat="44.47742" lon="6.89533">
        <ele>2315.95</ele>
        <time>2013-04-10T08:26:57Z</time>
      </trkpt>
      <trkpt lat="44.47743" lon="6.8953">
        <ele>2316.91</ele>
        <time>2013-04-10T08:27:10Z</time>
      </trkpt>
      <trkpt lat="44.47746" lon="6.89524">
        <ele>2317.88</ele>
        <time>2013-04-10T08:27:24Z</time>
      </trkpt>
      <trkpt lat="44.47747" lon="6.89516">
        <ele>2319.32</ele>
        <time>2013-04-10T08:27:36Z</time>
      </trkpt>
      <trkpt lat="44.47747" lon="6.89511">
        <ele>2320.28</ele>
        <time>2013-04-10T08:27:47Z</time>
      </trkpt>
      <trkpt lat="44.47748" lon="6.89507">
        <ele>2321.72</ele>
        <time>2013-04-10T08:28:00Z</time>
      </trkpt>
      <trkpt lat="44.4775" lon="6.89502">
        <ele>2322.68</ele>
        <time>2013-04-10T08:28:10Z</time>
      </trkpt>
      <trkpt lat="44.4775" lon="6.89497">
        <ele>2323.64</ele>
        <time>2013-04-10T08:28:24Z</time>
      </trkpt>
      <trkpt lat="44.4775" lon="6.89489">
        <ele>2325.09</ele>
        <time>2013-04-10T08:28:37Z</time>
      </trkpt>
      <trkpt lat="44.47749" lon="6.89487">
        <ele>2327.97</ele>
        <time>2013-04-10T08:28:47Z</time>
      </trkpt>
      <trkpt lat="44.4775" lon="6.89486">
        <ele>2326.53</ele>
        <time>2013-04-10T08:28:49Z</time>
      </trkpt>
      <trkpt lat="44.47749" lon="6.89484">
        <ele>2327.97</ele>
        <time>2013-04-10T08:29:01Z</time>
      </trkpt>
      <trkpt lat="44.4775" lon="6.89477">
        <ele>2328.93</ele>
        <time>2013-04-10T08:29:15Z</time>
      </trkpt>
      <trkpt lat="44.47749" lon="6.8947">
        <ele>2330.85</ele>
        <time>2013-04-10T08:29:30Z</time>
      </trkpt>
      <trkpt lat="44.4775" lon="6.89465">
        <ele>2330.85</ele>
        <time>2013-04-10T08:29:41Z</time>
      </trkpt>
      <trkpt lat="44.47751" lon="6.89462">
        <ele>2332.3</ele>
        <time>2013-04-10T08:29:52Z</time>
      </trkpt>
      <trkpt lat="44.47751" lon="6.89459">
        <ele>2332.78</ele>
        <time>2013-04-10T08:30:06Z</time>
      </trkpt>
      <trkpt lat="44.47751" lon="6.89456">
        <ele>2335.66</ele>
        <time>2013-04-10T08:30:13Z</time>
      </trkpt>
      <trkpt lat="44.4775" lon="6.8945">
        <ele>2334.22</ele>
        <time>2013-04-10T08:30:25Z</time>
      </trkpt>
      <trkpt lat="44.4775" lon="6.89448">
        <ele>2335.66</ele>
        <time>2013-04-10T08:30:31Z</time>
      </trkpt>
      <trkpt lat="44.47753" lon="6.89445">
        <ele>2336.62</ele>
        <time>2013-04-10T08:30:45Z</time>
      </trkpt>
      <trkpt lat="44.47754" lon="6.8944">
        <ele>2337.1</ele>
        <time>2013-04-10T08:30:57Z</time>
      </trkpt>
      <trkpt lat="44.47754" lon="6.89436">
        <ele>2338.54</ele>
        <time>2013-04-10T08:31:10Z</time>
      </trkpt>
      <trkpt lat="44.47756" lon="6.8943">
        <ele>2339.51</ele>
        <time>2013-04-10T08:31:24Z</time>
      </trkpt>
      <trkpt lat="44.47757" lon="6.89425">
        <ele>2340.47</ele>
        <time>2013-04-10T08:31:36Z</time>
      </trkpt>
      <trkpt lat="44.47759" lon="6.89419">
        <ele>2341.91</ele>
        <time>2013-04-10T08:31:49Z</time>
      </trkpt>
      <trkpt lat="44.47758" lon="6.89413">
        <ele>2342.87</ele>
        <time>2013-04-10T08:32:02Z</time>
      </trkpt>
      <trkpt lat="44.47758" lon="6.8941">
        <ele>2344.79</ele>
        <time>2013-04-10T08:32:17Z</time>
      </trkpt>
      <trkpt lat="44.47759" lon="6.89404">
        <ele>2346.23</ele>
        <time>2013-04-10T08:32:30Z</time>
      </trkpt>
      <trkpt lat="44.47759" lon="6.89404">
        <ele>2346.23</ele>
        <time>2013-04-10T08:32:31Z</time>
      </trkpt>
      <trkpt lat="44.47764" lon="6.894">
        <ele>2347.2</ele>
        <time>2013-04-10T08:32:45Z</time>
      </trkpt>
      <trkpt lat="44.47766" lon="6.89397">
        <ele>2348.64</ele>
        <time>2013-04-10T08:32:58Z</time>
      </trkpt>
      <trkpt lat="44.47768" lon="6.89393">
        <ele>2350.08</ele>
        <time>2013-04-10T08:33:09Z</time>
      </trkpt>
      <trkpt lat="44.47765" lon="6.89386">
        <ele>2351.52</ele>
        <time>2013-04-10T08:33:21Z</time>
      </trkpt>
      <trkpt lat="44.47767" lon="6.89381">
        <ele>2352.48</ele>
        <time>2013-04-10T08:33:34Z</time>
      </trkpt>
      <trkpt lat="44.47766" lon="6.89376">
        <ele>2353.44</ele>
        <time>2013-04-10T08:33:45Z</time>
      </trkpt>
      <trkpt lat="44.47764" lon="6.8937">
        <ele>2354.41</ele>
        <time>2013-04-10T08:33:58Z</time>
      </trkpt>
      <trkpt lat="44.47769" lon="6.89366">
        <ele>2355.37</ele>
        <time>2013-04-10T08:34:12Z</time>
      </trkpt>
      <trkpt lat="44.4777" lon="6.89362">
        <ele>2356.33</ele>
        <time>2013-04-10T08:34:23Z</time>
      </trkpt>
      <trkpt lat="44.47772" lon="6.8936">
        <ele>2357.77</ele>
        <time>2013-04-10T08:34:35Z</time>
      </trkpt>
      <trkpt lat="44.47774" lon="6.89357">
        <ele>2358.73</ele>
        <time>2013-04-10T08:34:48Z</time>
      </trkpt>
      <trkpt lat="44.47773" lon="6.89355">
        <ele>2359.69</ele>
        <time>2013-04-10T08:35:01Z</time>
      </trkpt>
      <trkpt lat="44.47773" lon="6.8935">
        <ele>2361.14</ele>
        <time>2013-04-10T08:35:14Z</time>
      </trkpt>
      <trkpt lat="44.47773" lon="6.89344">
        <ele>2361.62</ele>
        <time>2013-04-10T08:35:30Z</time>
      </trkpt>
      <trkpt lat="44.47773" lon="6.89344">
        <ele>2361.62</ele>
        <time>2013-04-10T08:35:49Z</time>
      </trkpt>
      <trkpt lat="44.47768" lon="6.89332">
        <ele>2364.02</ele>
        <time>2013-04-10T08:36:03Z</time>
      </trkpt>
      <trkpt lat="44.47767" lon="6.89325">
        <ele>2364.5</ele>
        <time>2013-04-10T08:36:14Z</time>
      </trkpt>
      <trkpt lat="44.47765" lon="6.89321">
        <ele>2365.46</ele>
        <time>2013-04-10T08:36:28Z</time>
      </trkpt>
      <trkpt lat="44.47763" lon="6.89317">
        <ele>2366.42</ele>
        <time>2013-04-10T08:36:38Z</time>
      </trkpt>
      <trkpt lat="44.47762" lon="6.89313">
        <ele>2367.38</ele>
        <time>2013-04-10T08:36:50Z</time>
      </trkpt>
      <trkpt lat="44.47759" lon="6.89309">
        <ele>2367.86</ele>
        <time>2013-04-10T08:37:03Z</time>
      </trkpt>
      <trkpt lat="44.47758" lon="6.89307">
        <ele>2367.86</ele>
        <time>2013-04-10T08:37:18Z</time>
      </trkpt>
      <trkpt lat="44.47757" lon="6.89302">
        <ele>2368.83</ele>
        <time>2013-04-10T08:37:29Z</time>
      </trkpt>
      <trkpt lat="44.47759" lon="6.89299">
        <ele>2371.23</ele>
        <time>2013-04-10T08:37:37Z</time>
      </trkpt>
      <trkpt lat="44.47763" lon="6.89297">
        <ele>2372.67</ele>
        <time>2013-04-10T08:37:49Z</time>
      </trkpt>
      <trkpt lat="44.47764" lon="6.89293">
        <ele>2372.19</ele>
        <time>2013-04-10T08:38:03Z</time>
      </trkpt>
      <trkpt lat="44.47765" lon="6.89293">
        <ele>2373.63</ele>
        <time>2013-04-10T08:38:09Z</time>
      </trkpt>
      <trkpt lat="44.47766" lon="6.89291">
        <ele>2375.07</ele>
        <time>2013-04-10T08:38:19Z</time>
      </trkpt>
      <trkpt lat="44.47766" lon="6.89291">
        <ele>2373.63</ele>
        <time>2013-04-10T08:38:21Z</time>
      </trkpt>
      <trkpt lat="44.4776" lon="6.89282">
        <ele>2375.07</ele>
        <time>2013-04-10T08:38:34Z</time>
      </trkpt>
      <trkpt lat="44.47757" lon="6.89279">
        <ele>2377</ele>
        <time>2013-04-10T08:38:46Z</time>
      </trkpt>
      <trkpt lat="44.47755" lon="6.89276">
        <ele>2378.44</ele>
        <time>2013-04-10T08:39:00Z</time>
      </trkpt>
      <trkpt lat="44.47754" lon="6.89272">
        <ele>2379.88</ele>
        <time>2013-04-10T08:39:14Z</time>
      </trkpt>
      <trkpt lat="44.47755" lon="6.89269">
        <ele>2381.32</ele>
        <time>2013-04-10T08:39:25Z</time>
      </trkpt>
      <trkpt lat="44.47758" lon="6.89266">
        <ele>2382.28</ele>
        <time>2013-04-10T08:39:37Z</time>
      </trkpt>
      <trkpt lat="44.47757" lon="6.89261">
        <ele>2384.21</ele>
        <time>2013-04-10T08:39:50Z</time>
      </trkpt>
      <trkpt lat="44.47753" lon="6.89256">
        <ele>2385.65</ele>
        <time>2013-04-10T08:40:04Z</time>
      </trkpt>
      <trkpt lat="44.47751" lon="6.89255">
        <ele>2387.57</ele>
        <time>2013-04-10T08:40:17Z</time>
      </trkpt>
      <trkpt lat="44.47748" lon="6.89252">
        <ele>2388.53</ele>
        <time>2013-04-10T08:40:35Z</time>
      </trkpt>
      <trkpt lat="44.47746" lon="6.89248">
        <ele>2389.49</ele>
        <time>2013-04-10T08:40:49Z</time>
      </trkpt>
      <trkpt lat="44.47748" lon="6.89245">
        <ele>2390.46</ele>
        <time>2013-04-10T08:41:02Z</time>
      </trkpt>
      <trkpt lat="44.4775" lon="6.89243">
        <ele>2390.94</ele>
        <time>2013-04-10T08:41:13Z</time>
      </trkpt>
      <trkpt lat="44.4775" lon="6.89239">
        <ele>2392.38</ele>
        <time>2013-04-10T08:41:26Z</time>
      </trkpt>
      <trkpt lat="44.47749" lon="6.89235">
        <ele>2392.86</ele>
        <time>2013-04-10T08:41:36Z</time>
      </trkpt>
      <trkpt lat="44.47745" lon="6.89232">
        <ele>2393.82</ele>
        <time>2013-04-10T08:41:49Z</time>
      </trkpt>
      <trkpt lat="44.47742" lon="6.89228">
        <ele>2396.22</ele>
        <time>2013-04-10T08:42:01Z</time>
      </trkpt>
      <trkpt lat="44.47741" lon="6.89226">
        <ele>2397.67</ele>
        <time>2013-04-10T08:42:16Z</time>
      </trkpt>
      <trkpt lat="44.4774" lon="6.89226">
        <ele>2399.59</ele>
        <time>2013-04-10T08:42:21Z</time>
      </trkpt>
      <trkpt lat="44.4774" lon="6.89225">
        <ele>2398.15</ele>
        <time>2013-04-10T08:42:23Z</time>
      </trkpt>
      <trkpt lat="44.47738" lon="6.89221">
        <ele>2399.59</ele>
        <time>2013-04-10T08:42:34Z</time>
      </trkpt>
      <trkpt lat="44.47738" lon="6.89217">
        <ele>2401.03</ele>
        <time>2013-04-10T08:42:49Z</time>
      </trkpt>
      <trkpt lat="44.4774" lon="6.89214">
        <ele>2401.99</ele>
        <time>2013-04-10T08:43:00Z</time>
      </trkpt>
      <trkpt lat="44.4774" lon="6.89214">
        <ele>2401.99</ele>
        <time>2013-04-10T08:43:02Z</time>
      </trkpt>
      <trkpt lat="44.47741" lon="6.89211">
        <ele>2402.95</ele>
        <time>2013-04-10T08:43:13Z</time>
      </trkpt>
      <trkpt lat="44.47742" lon="6.89209">
        <ele>2404.39</ele>
        <time>2013-04-10T08:43:25Z</time>
      </trkpt>
      <trkpt lat="44.47745" lon="6.89206">
        <ele>2406.8</ele>
        <time>2013-04-10T08:43:38Z</time>
      </trkpt>
      <trkpt lat="44.47746" lon="6.89203">
        <ele>2405.84</ele>
        <time>2013-04-10T08:43:44Z</time>
      </trkpt>
      <trkpt lat="44.47745" lon="6.89201">
        <ele>2408.24</ele>
        <time>2013-04-10T08:43:57Z</time>
      </trkpt>
      <trkpt lat="44.47743" lon="6.89196">
        <ele>2409.2</ele>
        <time>2013-04-10T08:44:11Z</time>
      </trkpt>
      <trkpt lat="44.47743" lon="6.89192">
        <ele>2411.6</ele>
        <time>2013-04-10T08:44:22Z</time>
      </trkpt>
      <trkpt lat="44.47744" lon="6.89192">
        <ele>2410.16</ele>
        <time>2013-04-10T08:44:24Z</time>
      </trkpt>
      <trkpt lat="44.47747" lon="6.89187">
        <ele>2411.6</ele>
        <time>2013-04-10T08:44:39Z</time>
      </trkpt>
      <trkpt lat="44.47749" lon="6.89185">
        <ele>2413.05</ele>
        <time>2013-04-10T08:44:49Z</time>
      </trkpt>
      <trkpt lat="44.47752" lon="6.89184">
        <ele>2414.01</ele>
        <time>2013-04-10T08:45:00Z</time>
      </trkpt>
      <trkpt lat="44.47755" lon="6.89181">
        <ele>2415.45</ele>
        <time>2013-04-10T08:45:12Z</time>
      </trkpt>
      <trkpt lat="44.47758" lon="6.89179">
        <ele>2415.93</ele>
        <time>2013-04-10T08:45:24Z</time>
      </trkpt>
      <trkpt lat="44.47761" lon="6.89177">
        <ele>2417.37</ele>
        <time>2013-04-10T08:45:40Z</time>
      </trkpt>
      <trkpt lat="44.47765" lon="6.89175">
        <ele>2418.81</ele>
        <time>2013-04-10T08:45:55Z</time>
      </trkpt>
      <trkpt lat="44.47772" lon="6.89173">
        <ele>2420.26</ele>
        <time>2013-04-10T08:46:11Z</time>
      </trkpt>
      <trkpt lat="44.47774" lon="6.89173">
        <ele>2421.7</ele>
        <time>2013-04-10T08:46:25Z</time>
      </trkpt>
      <trkpt lat="44.47777" lon="6.89171">
        <ele>2423.14</ele>
        <time>2013-04-10T08:46:39Z</time>
      </trkpt>
      <trkpt lat="44.47782" lon="6.8917">
        <ele>2424.1</ele>
        <time>2013-04-10T08:46:53Z</time>
      </trkpt>
      <trkpt lat="44.47784" lon="6.89169">
        <ele>2425.06</ele>
        <time>2013-04-10T08:47:05Z</time>
      </trkpt>
      <trkpt lat="44.47784" lon="6.89169">
        <ele>2424.1</ele>
        <time>2013-04-10T08:47:29Z</time>
      </trkpt>
      <trkpt lat="44.47785" lon="6.8917">
        <ele>2424.1</ele>
        <time>2013-04-10T08:47:50Z</time>
      </trkpt>
      <trkpt lat="44.47785" lon="6.89169">
        <ele>2425.06</ele>
        <time>2013-04-10T08:47:59Z</time>
      </trkpt>
      <trkpt lat="44.47788" lon="6.89165">
        <ele>2426.02</ele>
        <time>2013-04-10T08:48:14Z</time>
      </trkpt>
      <trkpt lat="44.47791" lon="6.89161">
        <ele>2426.99</ele>
        <time>2013-04-10T08:48:25Z</time>
      </trkpt>
      <trkpt lat="44.47798" lon="6.89157">
        <ele>2428.43</ele>
        <time>2013-04-10T08:48:37Z</time>
      </trkpt>
      <trkpt lat="44.47801" lon="6.89154">
        <ele>2430.35</ele>
        <time>2013-04-10T08:48:50Z</time>
      </trkpt>
      <trkpt lat="44.47806" lon="6.89148">
        <ele>2431.79</ele>
        <time>2013-04-10T08:49:06Z</time>
      </trkpt>
      <trkpt lat="44.47809" lon="6.89146">
        <ele>2432.75</ele>
        <time>2013-04-10T08:49:17Z</time>
      </trkpt>
      <trkpt lat="44.47811" lon="6.89138">
        <ele>2434.68</ele>
        <time>2013-04-10T08:49:30Z</time>
      </trkpt>
      <trkpt lat="44.47813" lon="6.89135">
        <ele>2437.08</ele>
        <time>2013-04-10T08:49:41Z</time>
      </trkpt>
      <trkpt lat="44.47814" lon="6.89131">
        <ele>2437.56</ele>
        <time>2013-04-10T08:49:53Z</time>
      </trkpt>
      <trkpt lat="44.47816" lon="6.89126">
        <ele>2438.04</ele>
        <time>2013-04-10T08:50:05Z</time>
      </trkpt>
      <trkpt lat="44.47817" lon="6.89122">
        <ele>2438.04</ele>
        <time>2013-04-10T08:50:15Z</time>
      </trkpt>
      <trkpt lat="44.47819" lon="6.89118">
        <ele>2439.48</ele>
        <time>2013-04-10T08:50:26Z</time>
      </trkpt>
      <trkpt lat="44.47818" lon="6.89115">
        <ele>2439</ele>
        <time>2013-04-10T08:50:42Z</time>
      </trkpt>
      <trkpt lat="44.4782" lon="6.89111">
        <ele>2440.44</ele>
        <time>2013-04-10T08:50:54Z</time>
      </trkpt>
      <trkpt lat="44.47826" lon="6.89108">
        <ele>2443.33</ele>
        <time>2013-04-10T08:51:09Z</time>
      </trkpt>
      <trkpt lat="44.47832" lon="6.89105">
        <ele>2443.81</ele>
        <time>2013-04-10T08:51:22Z</time>
      </trkpt>
      <trkpt lat="44.4784" lon="6.89102">
        <ele>2444.77</ele>
        <time>2013-04-10T08:51:34Z</time>
      </trkpt>
      <trkpt lat="44.47847" lon="6.89099">
        <ele>2444.77</ele>
        <time>2013-04-10T08:51:50Z</time>
      </trkpt>
      <trkpt lat="44.47855" lon="6.89095">
        <ele>2444.77</ele>
        <time>2013-04-10T08:52:04Z</time>
      </trkpt>
      <trkpt lat="44.47861" lon="6.8909">
        <ele>2447.17</ele>
        <time>2013-04-10T08:52:20Z</time>
      </trkpt>
      <trkpt lat="44.47868" lon="6.89086">
        <ele>2447.65</ele>
        <time>2013-04-10T08:52:34Z</time>
      </trkpt>
      <trkpt lat="44.47874" lon="6.89083">
        <ele>2447.65</ele>
        <time>2013-04-10T08:52:50Z</time>
      </trkpt>
      <trkpt lat="44.4788" lon="6.89078">
        <ele>2447.65</ele>
        <time>2013-04-10T08:53:02Z</time>
      </trkpt>
      <trkpt lat="44.47884" lon="6.89074">
        <ele>2448.62</ele>
        <time>2013-04-10T08:53:14Z</time>
      </trkpt>
      <trkpt lat="44.47887" lon="6.89071">
        <ele>2449.58</ele>
        <time>2013-04-10T08:53:28Z</time>
      </trkpt>
      <trkpt lat="44.47888" lon="6.89071">
        <ele>2449.1</ele>
        <time>2013-04-10T08:53:40Z</time>
      </trkpt>
      <trkpt lat="44.47893" lon="6.89068">
        <ele>2451.02</ele>
        <time>2013-04-10T08:53:54Z</time>
      </trkpt>
      <trkpt lat="44.47897" lon="6.89062">
        <ele>2451.5</ele>
        <time>2013-04-10T08:54:07Z</time>
      </trkpt>
      <trkpt lat="44.47899" lon="6.8906">
        <ele>2452.46</ele>
        <time>2013-04-10T08:54:12Z</time>
      </trkpt>
      <trkpt lat="44.479" lon="6.89059">
        <ele>2451.02</ele>
        <time>2013-04-10T08:54:16Z</time>
      </trkpt>
      <trkpt lat="44.47901" lon="6.89057">
        <ele>2452.46</ele>
        <time>2013-04-10T08:54:22Z</time>
      </trkpt>
      <trkpt lat="44.47903" lon="6.89051">
        <ele>2453.42</ele>
        <time>2013-04-10T08:54:34Z</time>
      </trkpt>
      <trkpt lat="44.47906" lon="6.89048">
        <ele>2454.38</ele>
        <time>2013-04-10T08:54:45Z</time>
      </trkpt>
      <trkpt lat="44.47909" lon="6.89047">
        <ele>2456.79</ele>
        <time>2013-04-10T08:54:56Z</time>
      </trkpt>
      <trkpt lat="44.47909" lon="6.89047">
        <ele>2457.75</ele>
        <time>2013-04-10T08:54:58Z</time>
      </trkpt>
      <trkpt lat="44.47911" lon="6.89043">
        <ele>2457.75</ele>
        <time>2013-04-10T08:55:11Z</time>
      </trkpt>
      <trkpt lat="44.47913" lon="6.89037">
        <ele>2458.71</ele>
        <time>2013-04-10T08:55:24Z</time>
      </trkpt>
      <trkpt lat="44.47916" lon="6.89034">
        <ele>2460.15</ele>
        <time>2013-04-10T08:55:39Z</time>
      </trkpt>
      <trkpt lat="44.47918" lon="6.89033">
        <ele>2461.11</ele>
        <time>2013-04-10T08:55:51Z</time>
      </trkpt>
      <trkpt lat="44.47922" lon="6.89033">
        <ele>2462.07</ele>
        <time>2013-04-10T08:56:04Z</time>
      </trkpt>
      <trkpt lat="44.47926" lon="6.89032">
        <ele>2463.52</ele>
        <time>2013-04-10T08:56:19Z</time>
      </trkpt>
      <trkpt lat="44.47929" lon="6.8903">
        <ele>2464.96</ele>
        <time>2013-04-10T08:56:31Z</time>
      </trkpt>
      <trkpt lat="44.47932" lon="6.89029">
        <ele>2465.92</ele>
        <time>2013-04-10T08:56:45Z</time>
      </trkpt>
      <trkpt lat="44.47934" lon="6.89026">
        <ele>2467.36</ele>
        <time>2013-04-10T08:56:56Z</time>
      </trkpt>
      <trkpt lat="44.47936" lon="6.89022">
        <ele>2468.8</ele>
        <time>2013-04-10T08:57:09Z</time>
      </trkpt>
      <trkpt lat="44.47938" lon="6.89019">
        <ele>2469.28</ele>
        <time>2013-04-10T08:57:21Z</time>
      </trkpt>
      <trkpt lat="44.47939" lon="6.89015">
        <ele>2469.28</ele>
        <time>2013-04-10T08:57:33Z</time>
      </trkpt>
      <trkpt lat="44.47941" lon="6.89014">
        <ele>2469.76</ele>
        <time>2013-04-10T08:57:47Z</time>
      </trkpt>
      <trkpt lat="44.47943" lon="6.8901">
        <ele>2470.24</ele>
        <time>2013-04-10T08:57:58Z</time>
      </trkpt>
      <trkpt lat="44.47944" lon="6.89008">
        <ele>2472.65</ele>
        <time>2013-04-10T08:58:14Z</time>
      </trkpt>
      <trkpt lat="44.47946" lon="6.89005">
        <ele>2474.09</ele>
        <time>2013-04-10T08:58:26Z</time>
      </trkpt>
      <trkpt lat="44.47946" lon="6.89001">
        <ele>2475.53</ele>
        <time>2013-04-10T08:58:38Z</time>
      </trkpt>
      <trkpt lat="44.47946" lon="6.89001">
        <ele>2474.57</ele>
        <time>2013-04-10T08:58:40Z</time>
      </trkpt>
      <trkpt lat="44.47947" lon="6.88999">
        <ele>2476.01</ele>
        <time>2013-04-10T08:58:52Z</time>
      </trkpt>
      <trkpt lat="44.47947" lon="6.88999">
        <ele>2477.45</ele>
        <time>2013-04-10T08:58:56Z</time>
      </trkpt>
      <trkpt lat="44.47948" lon="6.88995">
        <ele>2477.94</ele>
        <time>2013-04-10T08:59:07Z</time>
      </trkpt>
      <trkpt lat="44.47948" lon="6.88996">
        <ele>2477.94</ele>
        <time>2013-04-10T08:59:08Z</time>
      </trkpt>
      <trkpt lat="44.47949" lon="6.88993">
        <ele>2479.38</ele>
        <time>2013-04-10T08:59:18Z</time>
      </trkpt>
      <trkpt lat="44.47949" lon="6.88991">
        <ele>2477.45</ele>
        <time>2013-04-10T08:59:23Z</time>
      </trkpt>
      <trkpt lat="44.4795" lon="6.8899">
        <ele>2480.82</ele>
        <time>2013-04-10T08:59:28Z</time>
      </trkpt>
      <trkpt lat="44.4795" lon="6.8899">
        <ele>2480.82</ele>
        <time>2013-04-10T08:59:29Z</time>
      </trkpt>
      <trkpt lat="44.4795" lon="6.88988">
        <ele>2480.34</ele>
        <time>2013-04-10T08:59:34Z</time>
      </trkpt>
      <trkpt lat="44.47951" lon="6.88987">
        <ele>2481.78</ele>
        <time>2013-04-10T08:59:41Z</time>
      </trkpt>
      <trkpt lat="44.47954" lon="6.88983">
        <ele>2482.74</ele>
        <time>2013-04-10T08:59:54Z</time>
      </trkpt>
      <trkpt lat="44.47955" lon="6.88981">
        <ele>2484.18</ele>
        <time>2013-04-10T09:00:06Z</time>
      </trkpt>
      <trkpt lat="44.47956" lon="6.8898">
        <ele>2483.7</ele>
        <time>2013-04-10T09:00:18Z</time>
      </trkpt>
      <trkpt lat="44.47956" lon="6.8898">
        <ele>2483.7</ele>
        <time>2013-04-10T09:00:22Z</time>
      </trkpt>
      <trkpt lat="44.47955" lon="6.8898">
        <ele>2485.63</ele>
        <time>2013-04-10T09:00:34Z</time>
      </trkpt>
      <trkpt lat="44.47959" lon="6.88979">
        <ele>2485.63</ele>
        <time>2013-04-10T09:00:35Z</time>
      </trkpt>
      <trkpt lat="44.47959" lon="6.88979">
        <ele>2486.11</ele>
        <time>2013-04-10T09:00:54Z</time>
      </trkpt>
      <trkpt lat="44.47958" lon="6.88979">
        <ele>2486.11</ele>
        <time>2013-04-10T09:01:08Z</time>
      </trkpt>
      <trkpt lat="44.47959" lon="6.88979">
        <ele>2489.95</ele>
        <time>2013-04-10T09:01:12Z</time>
      </trkpt>
      <trkpt lat="44.47958" lon="6.88978">
        <ele>2487.55</ele>
        <time>2013-04-10T09:01:15Z</time>
      </trkpt>
      <trkpt lat="44.47958" lon="6.88978">
        <ele>2488.99</ele>
        <time>2013-04-10T09:01:18Z</time>
      </trkpt>
      <trkpt lat="44.47958" lon="6.88978">
        <ele>2488.99</ele>
        <time>2013-04-10T09:01:30Z</time>
      </trkpt>
      <trkpt lat="44.47958" lon="6.88978">
        <ele>2487.55</ele>
        <time>2013-04-10T09:01:34Z</time>
      </trkpt>
      <trkpt lat="44.47958" lon="6.88978">
        <ele>2490.91</ele>
        <time>2013-04-10T09:01:46Z</time>
      </trkpt>
      <trkpt lat="44.47958" lon="6.88978">
        <ele>2491.87</ele>
        <time>2013-04-10T09:01:48Z</time>
      </trkpt>
      <trkpt lat="44.4796" lon="6.88974">
        <ele>2496.2</ele>
        <time>2013-04-10T09:02:00Z</time>
      </trkpt>
      <trkpt lat="44.47961" lon="6.88972">
        <ele>2494.28</ele>
        <time>2013-04-10T09:02:15Z</time>
      </trkpt>
      <trkpt lat="44.47961" lon="6.88972">
        <ele>2493.8</ele>
        <time>2013-04-10T09:02:23Z</time>
      </trkpt>
      <trkpt lat="44.47961" lon="6.88972">
        <ele>2495.24</ele>
        <time>2013-04-10T09:02:31Z</time>
      </trkpt>
      <trkpt lat="44.47961" lon="6.88972">
        <ele>2496.68</ele>
        <time>2013-04-10T09:02:34Z</time>
      </trkpt>
      <trkpt lat="44.47961" lon="6.88971">
        <ele>2498.12</ele>
        <time>2013-04-10T09:02:48Z</time>
      </trkpt>
      <trkpt lat="44.47961" lon="6.88971">
        <ele>2501.01</ele>
        <time>2013-04-10T09:02:57Z</time>
      </trkpt>
      <trkpt lat="44.47961" lon="6.88971">
        <ele>2501.01</ele>
        <time>2013-04-10T09:02:58Z</time>
      </trkpt>
      <trkpt lat="44.47961" lon="6.88971">
        <ele>2499.08</ele>
        <time>2013-04-10T09:03:02Z</time>
      </trkpt>
      <trkpt lat="44.47961" lon="6.88971">
        <ele>2497.64</ele>
        <time>2013-04-10T09:03:07Z</time>
      </trkpt>
      <trkpt lat="44.47961" lon="6.88971">
        <ele>2503.41</ele>
        <time>2013-04-10T09:03:18Z</time>
      </trkpt>
      <trkpt lat="44.47961" lon="6.88971">
        <ele>2500.53</ele>
        <time>2013-04-10T09:03:19Z</time>
      </trkpt>
      <trkpt lat="44.47961" lon="6.88971">
        <ele>2500.05</ele>
        <time>2013-04-10T09:03:21Z</time>
      </trkpt>
      <trkpt lat="44.47961" lon="6.88969">
        <ele>2498.6</ele>
        <time>2013-04-10T09:03:24Z</time>
      </trkpt>
      <trkpt lat="44.47961" lon="6.88969">
        <ele>2501.49</ele>
        <time>2013-04-10T09:03:35Z</time>
      </trkpt>
      <trkpt lat="44.47961" lon="6.88969">
        <ele>2499.57</ele>
        <time>2013-04-10T09:03:39Z</time>
      </trkpt>
      <trkpt lat="44.47961" lon="6.88969">
        <ele>2501.49</ele>
        <time>2013-04-10T09:03:42Z</time>
      </trkpt>
      <trkpt lat="44.47959" lon="6.88942">
        <ele>2502.45</ele>
        <time>2013-04-10T09:03:55Z</time>
      </trkpt>
      <trkpt lat="44.47955" lon="6.88925">
        <ele>2504.37</ele>
        <time>2013-04-10T09:04:05Z</time>
      </trkpt>
      <trkpt lat="44.47951" lon="6.88916">
        <ele>2503.41</ele>
        <time>2013-04-10T09:04:19Z</time>
      </trkpt>
      <trkpt lat="44.47951" lon="6.88916">
        <ele>2504.37</ele>
        <time>2013-04-10T09:04:25Z</time>
      </trkpt>
      <trkpt lat="44.47951" lon="6.88915">
        <ele>2504.85</ele>
        <time>2013-04-10T09:04:39Z</time>
      </trkpt>
      <trkpt lat="44.47951" lon="6.88912">
        <ele>2506.29</ele>
        <time>2013-04-10T09:04:52Z</time>
      </trkpt>
      <trkpt lat="44.47953" lon="6.88905">
        <ele>2508.22</ele>
        <time>2013-04-10T09:05:05Z</time>
      </trkpt>
      <trkpt lat="44.47953" lon="6.88904">
        <ele>2509.18</ele>
        <time>2013-04-10T09:05:09Z</time>
      </trkpt>
      <trkpt lat="44.47953" lon="6.88904">
        <ele>2511.1</ele>
        <time>2013-04-10T09:05:12Z</time>
      </trkpt>
      <trkpt lat="44.47953" lon="6.88902">
        <ele>2514.95</ele>
        <time>2013-04-10T09:05:15Z</time>
      </trkpt>
      <trkpt lat="44.47954" lon="6.88902">
        <ele>2514.95</ele>
        <time>2013-04-10T09:05:16Z</time>
      </trkpt>
      <trkpt lat="44.47954" lon="6.88898">
        <ele>2518.31</ele>
        <time>2013-04-10T09:05:23Z</time>
      </trkpt>
      <trkpt lat="44.47954" lon="6.88899">
        <ele>2513.5</ele>
        <time>2013-04-10T09:05:24Z</time>
      </trkpt>
      <trkpt lat="44.47955" lon="6.88898">
        <ele>2510.14</ele>
        <time>2013-04-10T09:05:27Z</time>
      </trkpt>
      <trkpt lat="44.47955" lon="6.88897">
        <ele>2510.14</ele>
        <time>2013-04-10T09:05:34Z</time>
      </trkpt>
      <trkpt lat="44.47955" lon="6.88897">
        <ele>2513.02</ele>
        <time>2013-04-10T09:05:42Z</time>
      </trkpt>
      <trkpt lat="44.47955" lon="6.88897">
        <ele>2509.66</ele>
        <time>2013-04-10T09:05:47Z</time>
      </trkpt>
      <trkpt lat="44.47955" lon="6.88888">
        <ele>2511.1</ele>
        <time>2013-04-10T09:06:00Z</time>
      </trkpt>
      <trkpt lat="44.47954" lon="6.88884">
        <ele>2514.47</ele>
        <time>2013-04-10T09:06:05Z</time>
      </trkpt>
      <trkpt lat="44.47954" lon="6.88883">
        <ele>2514.47</ele>
        <time>2013-04-10T09:06:06Z</time>
      </trkpt>
      <trkpt lat="44.47954" lon="6.88881">
        <ele>2511.58</ele>
        <time>2013-04-10T09:06:09Z</time>
      </trkpt>
      <trkpt lat="44.47952" lon="6.88875">
        <ele>2513.98</ele>
        <time>2013-04-10T09:06:19Z</time>
      </trkpt>
      <trkpt lat="44.47952" lon="6.88868">
        <ele>2512.06</ele>
        <time>2013-04-10T09:06:25Z</time>
      </trkpt>
      <trkpt lat="44.47952" lon="6.88865">
        <ele>2512.54</ele>
        <time>2013-04-10T09:06:32Z</time>
      </trkpt>
      <trkpt lat="44.47951" lon="6.88864">
        <ele>2514.47</ele>
        <time>2013-04-10T09:06:35Z</time>
      </trkpt>
      <trkpt lat="44.4795" lon="6.88863">
        <ele>2512.54</ele>
        <time>2013-04-10T09:06:37Z</time>
      </trkpt>
      <trkpt lat="44.47948" lon="6.88854">
        <ele>2513.98</ele>
        <time>2013-04-10T09:06:53Z</time>
      </trkpt>
      <trkpt lat="44.47947" lon="6.88851">
        <ele>2515.43</ele>
        <time>2013-04-10T09:06:56Z</time>
      </trkpt>
      <trkpt lat="44.47947" lon="6.88849">
        <ele>2513.5</ele>
        <time>2013-04-10T09:06:59Z</time>
      </trkpt>
      <trkpt lat="44.47948" lon="6.88834">
        <ele>2512.54</ele>
        <time>2013-04-10T09:07:13Z</time>
      </trkpt>
      <trkpt lat="44.47949" lon="6.88831">
        <ele>2512.54</ele>
        <time>2013-04-10T09:07:16Z</time>
      </trkpt>
      <trkpt lat="44.47948" lon="6.88817">
        <ele>2513.5</ele>
        <time>2013-04-10T09:07:31Z</time>
      </trkpt>
      <trkpt lat="44.47948" lon="6.88816">
        <ele>2513.5</ele>
        <time>2013-04-10T09:07:32Z</time>
      </trkpt>
      <trkpt lat="44.4795" lon="6.88807">
        <ele>2514.47</ele>
        <time>2013-04-10T09:07:44Z</time>
      </trkpt>
      <trkpt lat="44.4795" lon="6.88804">
        <ele>2515.43</ele>
        <time>2013-04-10T09:07:51Z</time>
      </trkpt>
      <trkpt lat="44.47951" lon="6.88795">
        <ele>2513.98</ele>
        <time>2013-04-10T09:07:59Z</time>
      </trkpt>
      <trkpt lat="44.47951" lon="6.8879">
        <ele>2515.91</ele>
        <time>2013-04-10T09:08:07Z</time>
      </trkpt>
      <trkpt lat="44.47949" lon="6.88786">
        <ele>2515.43</ele>
        <time>2013-04-10T09:08:21Z</time>
      </trkpt>
      <trkpt lat="44.47947" lon="6.88778">
        <ele>2515.91</ele>
        <time>2013-04-10T09:08:34Z</time>
      </trkpt>
      <trkpt lat="44.47944" lon="6.88769">
        <ele>2515.91</ele>
        <time>2013-04-10T09:08:45Z</time>
      </trkpt>
      <trkpt lat="44.47942" lon="6.88764">
        <ele>2516.87</ele>
        <time>2013-04-10T09:08:50Z</time>
      </trkpt>
      <trkpt lat="44.47942" lon="6.88762">
        <ele>2518.79</ele>
        <time>2013-04-10T09:08:56Z</time>
      </trkpt>
      <trkpt lat="44.47939" lon="6.88752">
        <ele>2518.79</ele>
        <time>2013-04-10T09:09:09Z</time>
      </trkpt>
      <trkpt lat="44.47939" lon="6.88751">
        <ele>2518.79</ele>
        <time>2013-04-10T09:09:10Z</time>
      </trkpt>
      <trkpt lat="44.47939" lon="6.88749">
        <ele>2516.87</ele>
        <time>2013-04-10T09:09:12Z</time>
      </trkpt>
      <trkpt lat="44.47938" lon="6.88748">
        <ele>2518.31</ele>
        <time>2013-04-10T09:09:14Z</time>
      </trkpt>
      <trkpt lat="44.47938" lon="6.88746">
        <ele>2520.23</ele>
        <time>2013-04-10T09:09:18Z</time>
      </trkpt>
      <trkpt lat="44.47938" lon="6.88745">
        <ele>2518.79</ele>
        <time>2013-04-10T09:09:20Z</time>
      </trkpt>
      <trkpt lat="44.47938" lon="6.88746">
        <ele>2520.23</ele>
        <time>2013-04-10T09:09:23Z</time>
      </trkpt>
      <trkpt lat="44.47938" lon="6.88745">
        <ele>2518.79</ele>
        <time>2013-04-10T09:09:42Z</time>
      </trkpt>
      <trkpt lat="44.47938" lon="6.88745">
        <ele>2517.35</ele>
        <time>2013-04-10T09:09:47Z</time>
      </trkpt>
      <trkpt lat="44.47938" lon="6.88745">
        <ele>2519.27</ele>
        <time>2013-04-10T09:09:57Z</time>
      </trkpt>
      <trkpt lat="44.47939" lon="6.88745">
        <ele>2521.19</ele>
        <time>2013-04-10T09:10:15Z</time>
      </trkpt>
      <trkpt lat="44.47939" lon="6.88745">
        <ele>2519.75</ele>
        <time>2013-04-10T09:10:20Z</time>
      </trkpt>
      <trkpt lat="44.47939" lon="6.88745">
        <ele>2521.68</ele>
        <time>2013-04-10T09:10:25Z</time>
      </trkpt>
      <trkpt lat="44.47938" lon="6.88745">
        <ele>2520.23</ele>
        <time>2013-04-10T09:10:35Z</time>
      </trkpt>
      <trkpt lat="44.47936" lon="6.88744">
        <ele>2518.31</ele>
        <time>2013-04-10T09:10:48Z</time>
      </trkpt>
      <trkpt lat="44.47936" lon="6.88744">
        <ele>2518.31</ele>
        <time>2013-04-10T09:11:07Z</time>
      </trkpt>
      <trkpt lat="44.47936" lon="6.88744">
        <ele>2519.75</ele>
        <time>2013-04-10T09:11:10Z</time>
      </trkpt>
      <trkpt lat="44.47935" lon="6.88743">
        <ele>2519.75</ele>
        <time>2013-04-10T09:11:29Z</time>
      </trkpt>
      <trkpt lat="44.47934" lon="6.88743">
        <ele>2520.23</ele>
        <time>2013-04-10T09:11:45Z</time>
      </trkpt>
      <trkpt lat="44.47934" lon="6.88743">
        <ele>2523.6</ele>
        <time>2013-04-10T09:12:05Z</time>
      </trkpt>
      <trkpt lat="44.47934" lon="6.88743">
        <ele>2527.92</ele>
        <time>2013-04-10T09:12:17Z</time>
      </trkpt>
      <trkpt lat="44.47934" lon="6.88743">
        <ele>2526.48</ele>
        <time>2013-04-10T09:12:18Z</time>
      </trkpt>
      <trkpt lat="44.47934" lon="6.88743">
        <ele>2522.64</ele>
        <time>2013-04-10T09:12:21Z</time>
      </trkpt>
      <trkpt lat="44.47934" lon="6.88743">
        <ele>2522.16</ele>
        <time>2013-04-10T09:12:23Z</time>
      </trkpt>
      <trkpt lat="44.47934" lon="6.88743">
        <ele>2520.23</ele>
        <time>2013-04-10T09:12:53Z</time>
      </trkpt>
      <trkpt lat="44.47934" lon="6.88743">
        <ele>2520.23</ele>
        <time>2013-04-10T09:13:20Z</time>
      </trkpt>
      <trkpt lat="44.47934" lon="6.88743">
        <ele>2519.75</ele>
        <time>2013-04-10T09:13:48Z</time>
      </trkpt>
      <trkpt lat="44.47934" lon="6.88742">
        <ele>2521.19</ele>
        <time>2013-04-10T09:14:11Z</time>
      </trkpt>
      <trkpt lat="44.47934" lon="6.88742">
        <ele>2521.19</ele>
        <time>2013-04-10T09:14:37Z</time>
      </trkpt>
      <trkpt lat="44.47934" lon="6.88742">
        <ele>2520.71</ele>
        <time>2013-04-10T09:14:49Z</time>
      </trkpt>
      <trkpt lat="44.47935" lon="6.88742">
        <ele>2520.23</ele>
        <time>2013-04-10T09:15:11Z</time>
      </trkpt>
      <trkpt lat="44.47935" lon="6.88742">
        <ele>2518.79</ele>
        <time>2013-04-10T09:15:36Z</time>
      </trkpt>
      <trkpt lat="44.47935" lon="6.88742">
        <ele>2521.19</ele>
        <time>2013-04-10T09:16:02Z</time>
      </trkpt>
      <trkpt lat="44.47934" lon="6.88743">
        <ele>2519.75</ele>
        <time>2013-04-10T09:16:24Z</time>
      </trkpt>
      <trkpt lat="44.47934" lon="6.88743">
        <ele>2521.19</ele>
        <time>2013-04-10T09:16:28Z</time>
      </trkpt>
      <trkpt lat="44.47935" lon="6.88743">
        <ele>2521.68</ele>
        <time>2013-04-10T09:16:58Z</time>
      </trkpt>
      <trkpt lat="44.47935" lon="6.88743">
        <ele>2520.23</ele>
        <time>2013-04-10T09:17:25Z</time>
      </trkpt>
      <trkpt lat="44.47935" lon="6.88741">
        <ele>2520.23</ele>
        <time>2013-04-10T09:17:50Z</time>
      </trkpt>
      <trkpt lat="44.47935" lon="6.88742">
        <ele>2519.75</ele>
        <time>2013-04-10T09:18:15Z</time>
      </trkpt>
      <trkpt lat="44.47935" lon="6.88742">
        <ele>2522.16</ele>
        <time>2013-04-10T09:18:38Z</time>
      </trkpt>
      <trkpt lat="44.47935" lon="6.88742">
        <ele>2520.71</ele>
        <time>2013-04-10T09:19:03Z</time>
      </trkpt>
      <trkpt lat="44.47934" lon="6.88742">
        <ele>2520.71</ele>
        <time>2013-04-10T09:19:31Z</time>
      </trkpt>
      <trkpt lat="44.47935" lon="6.88743">
        <ele>2519.75</ele>
        <time>2013-04-10T09:19:54Z</time>
      </trkpt>
      <trkpt lat="44.47935" lon="6.88742">
        <ele>2521.19</ele>
        <time>2013-04-10T09:20:11Z</time>
      </trkpt>
      <trkpt lat="44.47935" lon="6.88743">
        <ele>2519.75</ele>
        <time>2013-04-10T09:20:15Z</time>
      </trkpt>
      <trkpt lat="44.47935" lon="6.88743">
        <ele>2519.75</ele>
        <time>2013-04-10T09:20:33Z</time>
      </trkpt>
      <trkpt lat="44.47937" lon="6.88744">
        <ele>2521.19</ele>
        <time>2013-04-10T09:20:36Z</time>
      </trkpt>
      <trkpt lat="44.47936" lon="6.88743">
        <ele>2520.23</ele>
        <time>2013-04-10T09:20:38Z</time>
      </trkpt>
      <trkpt lat="44.47936" lon="6.88743">
        <ele>2518.79</ele>
        <time>2013-04-10T09:20:50Z</time>
      </trkpt>
      <trkpt lat="44.47937" lon="6.88743">
        <ele>2520.23</ele>
        <time>2013-04-10T09:20:52Z</time>
      </trkpt>
      <trkpt lat="44.47937" lon="6.88743">
        <ele>2518.79</ele>
        <time>2013-04-10T09:21:01Z</time>
      </trkpt>
      <trkpt lat="44.47937" lon="6.88743">
        <ele>2520.71</ele>
        <time>2013-04-10T09:21:03Z</time>
      </trkpt>
      <trkpt lat="44.47937" lon="6.88743">
        <ele>2520.71</ele>
        <time>2013-04-10T09:21:18Z</time>
      </trkpt>
      <trkpt lat="44.47937" lon="6.88743">
        <ele>2521.68</ele>
        <time>2013-04-10T09:21:26Z</time>
      </trkpt>
      <trkpt lat="44.47938" lon="6.88741">
        <ele>2520.71</ele>
        <time>2013-04-10T09:21:41Z</time>
      </trkpt>
      <trkpt lat="44.47938" lon="6.88741">
        <ele>2523.6</ele>
        <time>2013-04-10T09:21:45Z</time>
      </trkpt>
      <trkpt lat="44.47938" lon="6.88741">
        <ele>2522.16</ele>
        <time>2013-04-10T09:21:52Z</time>
      </trkpt>
      <trkpt lat="44.47938" lon="6.88742">
        <ele>2518.31</ele>
        <time>2013-04-10T09:21:53Z</time>
      </trkpt>
      <trkpt lat="44.47938" lon="6.88741">
        <ele>2518.31</ele>
        <time>2013-04-10T09:21:54Z</time>
      </trkpt>
      <trkpt lat="44.47938" lon="6.88741">
        <ele>2525.52</ele>
        <time>2013-04-10T09:21:57Z</time>
      </trkpt>
      <trkpt lat="44.47938" lon="6.88741">
        <ele>2523.6</ele>
        <time>2013-04-10T09:21:58Z</time>
      </trkpt>
      <trkpt lat="44.47938" lon="6.88741">
        <ele>2518.31</ele>
        <time>2013-04-10T09:21:59Z</time>
      </trkpt>
      <trkpt lat="44.47938" lon="6.88741">
        <ele>2519.75</ele>
        <time>2013-04-10T09:22:00Z</time>
      </trkpt>
      <trkpt lat="44.47938" lon="6.88741">
        <ele>2515.91</ele>
        <time>2013-04-10T09:22:04Z</time>
      </trkpt>
      <trkpt lat="44.47938" lon="6.88741">
        <ele>2515.91</ele>
        <time>2013-04-10T09:22:05Z</time>
      </trkpt>
      <trkpt lat="44.47938" lon="6.88741">
        <ele>2517.83</ele>
        <time>2013-04-10T09:22:07Z</time>
      </trkpt>
      <trkpt lat="44.47938" lon="6.88741">
        <ele>2519.75</ele>
        <time>2013-04-10T09:22:10Z</time>
      </trkpt>
      <trkpt lat="44.47938" lon="6.88741">
        <ele>2522.64</ele>
        <time>2013-04-10T09:22:16Z</time>
      </trkpt>
      <trkpt lat="44.47938" lon="6.88741">
        <ele>2522.64</ele>
        <time>2013-04-10T09:22:17Z</time>
      </trkpt>
      <trkpt lat="44.47938" lon="6.88741">
        <ele>2519.75</ele>
        <time>2013-04-10T09:22:20Z</time>
      </trkpt>
      <trkpt lat="44.47938" lon="6.88741">
        <ele>2517.35</ele>
        <time>2013-04-10T09:22:24Z</time>
      </trkpt>
      <trkpt lat="44.47938" lon="6.88741">
        <ele>2519.75</ele>
        <time>2013-04-10T09:22:27Z</time>
      </trkpt>
      <trkpt lat="44.47938" lon="6.88741">
        <ele>2519.27</ele>
        <time>2013-04-10T09:22:32Z</time>
      </trkpt>
      <trkpt lat="44.47938" lon="6.88741">
        <ele>2520.23</ele>
        <time>2013-04-10T09:22:39Z</time>
      </trkpt>
      <trkpt lat="44.47937" lon="6.8874">
        <ele>2520.71</ele>
        <time>2013-04-10T09:22:55Z</time>
      </trkpt>
      <trkpt lat="44.47935" lon="6.88736">
        <ele>2525.04</ele>
        <time>2013-04-10T09:23:00Z</time>
      </trkpt>
      <trkpt lat="44.47934" lon="6.88735">
        <ele>2529.85</ele>
        <time>2013-04-10T09:23:02Z</time>
      </trkpt>
      <trkpt lat="44.47934" lon="6.88732">
        <ele>2533.69</ele>
        <time>2013-04-10T09:23:04Z</time>
      </trkpt>
      <trkpt lat="44.47933" lon="6.88732">
        <ele>2533.69</ele>
        <time>2013-04-10T09:23:05Z</time>
      </trkpt>
      <trkpt lat="44.47933" lon="6.88731">
        <ele>2535.13</ele>
        <time>2013-04-10T09:23:07Z</time>
      </trkpt>
      <trkpt lat="44.47933" lon="6.88731">
        <ele>2531.29</ele>
        <time>2013-04-10T09:23:09Z</time>
      </trkpt>
      <trkpt lat="44.47933" lon="6.8873">
        <ele>2527.92</ele>
        <time>2013-04-10T09:23:13Z</time>
      </trkpt>
      <trkpt lat="44.47933" lon="6.88728">
        <ele>2524.56</ele>
        <time>2013-04-10T09:23:16Z</time>
      </trkpt>
      <trkpt lat="44.47933" lon="6.88727">
        <ele>2522.64</ele>
        <time>2013-04-10T09:23:18Z</time>
      </trkpt>
      <trkpt lat="44.47932" lon="6.8872">
        <ele>2525.04</ele>
        <time>2013-04-10T09:23:27Z</time>
      </trkpt>
      <trkpt lat="44.47931" lon="6.88715">
        <ele>2522.16</ele>
        <time>2013-04-10T09:23:41Z</time>
      </trkpt>
      <trkpt lat="44.4793" lon="6.88714">
        <ele>2522.16</ele>
        <time>2013-04-10T09:23:42Z</time>
      </trkpt>
      <trkpt lat="44.4793" lon="6.88713">
        <ele>2523.6</ele>
        <time>2013-04-10T09:23:44Z</time>
      </trkpt>
      <trkpt lat="44.47931" lon="6.88705">
        <ele>2526.48</ele>
        <time>2013-04-10T09:23:59Z</time>
      </trkpt>
      <trkpt lat="44.4793" lon="6.88696">
        <ele>2529.85</ele>
        <time>2013-04-10T09:24:12Z</time>
      </trkpt>
      <trkpt lat="44.47931" lon="6.88689">
        <ele>2530.33</ele>
        <time>2013-04-10T09:24:26Z</time>
      </trkpt>
      <trkpt lat="44.47931" lon="6.88689">
        <ele>2530.33</ele>
        <time>2013-04-10T09:24:27Z</time>
      </trkpt>
      <trkpt lat="44.47931" lon="6.88687">
        <ele>2529.85</ele>
        <time>2013-04-10T09:24:38Z</time>
      </trkpt>
      <trkpt lat="44.4793" lon="6.88682">
        <ele>2532.73</ele>
        <time>2013-04-10T09:24:49Z</time>
      </trkpt>
      <trkpt lat="44.4793" lon="6.88681">
        <ele>2529.85</ele>
        <time>2013-04-10T09:24:50Z</time>
      </trkpt>
      <trkpt lat="44.47931" lon="6.8868">
        <ele>2529.85</ele>
        <time>2013-04-10T09:24:51Z</time>
      </trkpt>
      <trkpt lat="44.47932" lon="6.88674">
        <ele>2533.21</ele>
        <time>2013-04-10T09:25:00Z</time>
      </trkpt>
      <trkpt lat="44.47932" lon="6.88673">
        <ele>2530.33</ele>
        <time>2013-04-10T09:25:01Z</time>
      </trkpt>
      <trkpt lat="44.47932" lon="6.88673">
        <ele>2534.65</ele>
        <time>2013-04-10T09:25:02Z</time>
      </trkpt>
      <trkpt lat="44.47932" lon="6.88672">
        <ele>2530.81</ele>
        <time>2013-04-10T09:25:04Z</time>
      </trkpt>
      <trkpt lat="44.47932" lon="6.88671">
        <ele>2535.13</ele>
        <time>2013-04-10T09:25:06Z</time>
      </trkpt>
      <trkpt lat="44.47932" lon="6.88671">
        <ele>2528.89</ele>
        <time>2013-04-10T09:25:07Z</time>
      </trkpt>
      <trkpt lat="44.47932" lon="6.88671">
        <ele>2531.77</ele>
        <time>2013-04-10T09:25:08Z</time>
      </trkpt>
      <trkpt lat="44.47932" lon="6.88665">
        <ele>2530.33</ele>
        <time>2013-04-10T09:25:21Z</time>
      </trkpt>
      <trkpt lat="44.47933" lon="6.88662">
        <ele>2531.77</ele>
        <time>2013-04-10T09:25:29Z</time>
      </trkpt>
      <trkpt lat="44.47933" lon="6.88659">
        <ele>2532.73</ele>
        <time>2013-04-10T09:25:32Z</time>
      </trkpt>
      <trkpt lat="44.47933" lon="6.88656">
        <ele>2531.77</ele>
        <time>2013-04-10T09:25:35Z</time>
      </trkpt>
      <trkpt lat="44.47933" lon="6.88655">
        <ele>2533.21</ele>
        <time>2013-04-10T09:25:39Z</time>
      </trkpt>
      <trkpt lat="44.47934" lon="6.88652">
        <ele>2534.65</ele>
        <time>2013-04-10T09:25:45Z</time>
      </trkpt>
      <trkpt lat="44.47934" lon="6.88652">
        <ele>2538.5</ele>
        <time>2013-04-10T09:25:48Z</time>
      </trkpt>
      <trkpt lat="44.47934" lon="6.88651">
        <ele>2533.21</ele>
        <time>2013-04-10T09:25:49Z</time>
      </trkpt>
      <trkpt lat="44.47934" lon="6.88651">
        <ele>2538.98</ele>
        <time>2013-04-10T09:25:51Z</time>
      </trkpt>
      <trkpt lat="44.47934" lon="6.8865">
        <ele>2537.06</ele>
        <time>2013-04-10T09:25:52Z</time>
      </trkpt>
      <trkpt lat="44.47934" lon="6.88649">
        <ele>2536.1</ele>
        <time>2013-04-10T09:25:54Z</time>
      </trkpt>
      <trkpt lat="44.47935" lon="6.88645">
        <ele>2532.25</ele>
        <time>2013-04-10T09:26:03Z</time>
      </trkpt>
      <trkpt lat="44.47935" lon="6.88643">
        <ele>2534.17</ele>
        <time>2013-04-10T09:26:06Z</time>
      </trkpt>
      <trkpt lat="44.47935" lon="6.8864">
        <ele>2536.1</ele>
        <time>2013-04-10T09:26:17Z</time>
      </trkpt>
      <trkpt lat="44.47936" lon="6.88637">
        <ele>2535.13</ele>
        <time>2013-04-10T09:26:19Z</time>
      </trkpt>
      <trkpt lat="44.47937" lon="6.88631">
        <ele>2536.1</ele>
        <time>2013-04-10T09:26:31Z</time>
      </trkpt>
      <trkpt lat="44.47937" lon="6.88626">
        <ele>2539.94</ele>
        <time>2013-04-10T09:26:41Z</time>
      </trkpt>
      <trkpt lat="44.47938" lon="6.88626">
        <ele>2538.98</ele>
        <time>2013-04-10T09:26:47Z</time>
      </trkpt>
      <trkpt lat="44.47937" lon="6.88624">
        <ele>2542.34</ele>
        <time>2013-04-10T09:26:56Z</time>
      </trkpt>
      <trkpt lat="44.47937" lon="6.88624">
        <ele>2542.34</ele>
        <time>2013-04-10T09:26:57Z</time>
      </trkpt>
      <trkpt lat="44.47938" lon="6.88621">
        <ele>2538.98</ele>
        <time>2013-04-10T09:26:59Z</time>
      </trkpt>
      <trkpt lat="44.47938" lon="6.88621">
        <ele>2538.98</ele>
        <time>2013-04-10T09:27:00Z</time>
      </trkpt>
      <trkpt lat="44.47939" lon="6.88616">
        <ele>2541.38</ele>
        <time>2013-04-10T09:27:13Z</time>
      </trkpt>
      <trkpt lat="44.47939" lon="6.8861">
        <ele>2542.34</ele>
        <time>2013-04-10T09:27:25Z</time>
      </trkpt>
      <trkpt lat="44.4794" lon="6.88607">
        <ele>2545.23</ele>
        <time>2013-04-10T09:27:33Z</time>
      </trkpt>
      <trkpt lat="44.4794" lon="6.88605">
        <ele>2541.38</ele>
        <time>2013-04-10T09:27:40Z</time>
      </trkpt>
      <trkpt lat="44.4794" lon="6.88605">
        <ele>2541.38</ele>
        <time>2013-04-10T09:27:41Z</time>
      </trkpt>
      <trkpt lat="44.4794" lon="6.88604">
        <ele>2542.34</ele>
        <time>2013-04-10T09:27:43Z</time>
      </trkpt>
      <trkpt lat="44.4794" lon="6.88604">
        <ele>2543.79</ele>
        <time>2013-04-10T09:27:50Z</time>
      </trkpt>
      <trkpt lat="44.47941" lon="6.88603">
        <ele>2542.82</ele>
        <time>2013-04-10T09:27:54Z</time>
      </trkpt>
      <trkpt lat="44.4794" lon="6.886">
        <ele>2546.19</ele>
        <time>2013-04-10T09:28:01Z</time>
      </trkpt>
      <trkpt lat="44.4794" lon="6.886">
        <ele>2542.82</ele>
        <time>2013-04-10T09:28:02Z</time>
      </trkpt>
      <trkpt lat="44.4794" lon="6.886">
        <ele>2544.27</ele>
        <time>2013-04-10T09:28:03Z</time>
      </trkpt>
      <trkpt lat="44.47941" lon="6.88593">
        <ele>2548.11</ele>
        <time>2013-04-10T09:28:13Z</time>
      </trkpt>
      <trkpt lat="44.47941" lon="6.88592">
        <ele>2551</ele>
        <time>2013-04-10T09:28:16Z</time>
      </trkpt>
      <trkpt lat="44.47941" lon="6.88592">
        <ele>2546.67</ele>
        <time>2013-04-10T09:28:17Z</time>
      </trkpt>
      <trkpt lat="44.47941" lon="6.88592">
        <ele>2551.48</ele>
        <time>2013-04-10T09:28:18Z</time>
      </trkpt>
      <trkpt lat="44.47941" lon="6.88592">
        <ele>2548.11</ele>
        <time>2013-04-10T09:28:19Z</time>
      </trkpt>
      <trkpt lat="44.47941" lon="6.88589">
        <ele>2544.75</ele>
        <time>2013-04-10T09:28:33Z</time>
      </trkpt>
      <trkpt lat="44.47941" lon="6.88588">
        <ele>2544.75</ele>
        <time>2013-04-10T09:28:34Z</time>
      </trkpt>
      <trkpt lat="44.47942" lon="6.88588">
        <ele>2546.67</ele>
        <time>2013-04-10T09:28:36Z</time>
      </trkpt>
      <trkpt lat="44.47942" lon="6.88588">
        <ele>2548.59</ele>
        <time>2013-04-10T09:28:40Z</time>
      </trkpt>
      <trkpt lat="44.4794" lon="6.88582">
        <ele>2548.59</ele>
        <time>2013-04-10T09:28:52Z</time>
      </trkpt>
      <trkpt lat="44.47941" lon="6.88576">
        <ele>2550.03</ele>
        <time>2013-04-10T09:29:02Z</time>
      </trkpt>
      <trkpt lat="44.4794" lon="6.88577">
        <ele>2553.4</ele>
        <time>2013-04-10T09:29:06Z</time>
      </trkpt>
      <trkpt lat="44.47939" lon="6.88577">
        <ele>2548.11</ele>
        <time>2013-04-10T09:29:11Z</time>
      </trkpt>
      <trkpt lat="44.4794" lon="6.88576">
        <ele>2550.03</ele>
        <time>2013-04-10T09:29:12Z</time>
      </trkpt>
      <trkpt lat="44.47939" lon="6.88572">
        <ele>2551</ele>
        <time>2013-04-10T09:29:23Z</time>
      </trkpt>
      <trkpt lat="44.4794" lon="6.88564">
        <ele>2553.4</ele>
        <time>2013-04-10T09:29:36Z</time>
      </trkpt>
      <trkpt lat="44.4794" lon="6.88562">
        <ele>2551.48</ele>
        <time>2013-04-10T09:29:42Z</time>
      </trkpt>
      <trkpt lat="44.4794" lon="6.88561">
        <ele>2553.4</ele>
        <time>2013-04-10T09:29:44Z</time>
      </trkpt>
      <trkpt lat="44.47939" lon="6.8856">
        <ele>2551.96</ele>
        <time>2013-04-10T09:29:51Z</time>
      </trkpt>
      <trkpt lat="44.47939" lon="6.88556">
        <ele>2557.24</ele>
        <time>2013-04-10T09:29:56Z</time>
      </trkpt>
      <trkpt lat="44.47939" lon="6.88555">
        <ele>2557.24</ele>
        <time>2013-04-10T09:29:57Z</time>
      </trkpt>
      <trkpt lat="44.47939" lon="6.88555">
        <ele>2560.13</ele>
        <time>2013-04-10T09:30:02Z</time>
      </trkpt>
      <trkpt lat="44.47939" lon="6.88554">
        <ele>2558.21</ele>
        <time>2013-04-10T09:30:03Z</time>
      </trkpt>
      <trkpt lat="44.47939" lon="6.88555">
        <ele>2554.36</ele>
        <time>2013-04-10T09:30:04Z</time>
      </trkpt>
      <trkpt lat="44.47939" lon="6.88555">
        <ele>2557.73</ele>
        <time>2013-04-10T09:30:05Z</time>
      </trkpt>
      <trkpt lat="44.47939" lon="6.88554">
        <ele>2554.36</ele>
        <time>2013-04-10T09:30:10Z</time>
      </trkpt>
      <trkpt lat="44.47939" lon="6.88555">
        <ele>2554.84</ele>
        <time>2013-04-10T09:30:11Z</time>
      </trkpt>
      <trkpt lat="44.47939" lon="6.88555">
        <ele>2552.44</ele>
        <time>2013-04-10T09:30:14Z</time>
      </trkpt>
      <trkpt lat="44.47939" lon="6.88554">
        <ele>2553.88</ele>
        <time>2013-04-10T09:30:16Z</time>
      </trkpt>
      <trkpt lat="44.47939" lon="6.88555">
        <ele>2556.28</ele>
        <time>2013-04-10T09:30:20Z</time>
      </trkpt>
      <trkpt lat="44.47939" lon="6.88554">
        <ele>2555.32</ele>
        <time>2013-04-10T09:30:33Z</time>
      </trkpt>
      <trkpt lat="44.47939" lon="6.88555">
        <ele>2559.65</ele>
        <time>2013-04-10T09:30:38Z</time>
      </trkpt>
      <trkpt lat="44.47939" lon="6.88555">
        <ele>2556.28</ele>
        <time>2013-04-10T09:30:39Z</time>
      </trkpt>
      <trkpt lat="44.4794" lon="6.88552">
        <ele>2557.73</ele>
        <time>2013-04-10T09:30:52Z</time>
      </trkpt>
      <trkpt lat="44.4794" lon="6.88552">
        <ele>2555.8</ele>
        <time>2013-04-10T09:30:55Z</time>
      </trkpt>
      <trkpt lat="44.47939" lon="6.88552">
        <ele>2560.13</ele>
        <time>2013-04-10T09:30:59Z</time>
      </trkpt>
      <trkpt lat="44.4794" lon="6.88552">
        <ele>2556.76</ele>
        <time>2013-04-10T09:31:00Z</time>
      </trkpt>
      <trkpt lat="44.47939" lon="6.88552">
        <ele>2560.13</ele>
        <time>2013-04-10T09:31:03Z</time>
      </trkpt>
      <trkpt lat="44.4794" lon="6.88552">
        <ele>2558.21</ele>
        <time>2013-04-10T09:31:05Z</time>
      </trkpt>
      <trkpt lat="44.4794" lon="6.88552">
        <ele>2562.05</ele>
        <time>2013-04-10T09:31:09Z</time>
      </trkpt>
      <trkpt lat="44.4794" lon="6.88552">
        <ele>2560.13</ele>
        <time>2013-04-10T09:31:10Z</time>
      </trkpt>
      <trkpt lat="44.4794" lon="6.88552">
        <ele>2559.17</ele>
        <time>2013-04-10T09:31:14Z</time>
      </trkpt>
      <trkpt lat="44.4794" lon="6.88552">
        <ele>2557.73</ele>
        <time>2013-04-10T09:31:16Z</time>
      </trkpt>
      <trkpt lat="44.47939" lon="6.88551">
        <ele>2561.57</ele>
        <time>2013-04-10T09:31:20Z</time>
      </trkpt>
      <trkpt lat="44.47939" lon="6.88551">
        <ele>2559.65</ele>
        <time>2013-04-10T09:31:26Z</time>
      </trkpt>
      <trkpt lat="44.47939" lon="6.88551">
        <ele>2561.09</ele>
        <time>2013-04-10T09:31:34Z</time>
      </trkpt>
      <trkpt lat="44.47939" lon="6.88551">
        <ele>2563.49</ele>
        <time>2013-04-10T09:31:39Z</time>
      </trkpt>
      <trkpt lat="44.47939" lon="6.88551">
        <ele>2560.13</ele>
        <time>2013-04-10T09:31:41Z</time>
      </trkpt>
      <trkpt lat="44.47939" lon="6.88551">
        <ele>2560.13</ele>
        <time>2013-04-10T09:31:42Z</time>
      </trkpt>
      <trkpt lat="44.47939" lon="6.88551">
        <ele>2562.05</ele>
        <time>2013-04-10T09:31:47Z</time>
      </trkpt>
      <trkpt lat="44.47939" lon="6.8855">
        <ele>2562.53</ele>
        <time>2013-04-10T09:32:01Z</time>
      </trkpt>
      <trkpt lat="44.47938" lon="6.88533">
        <ele>2562.53</ele>
        <time>2013-04-10T09:32:16Z</time>
      </trkpt>
      <trkpt lat="44.47937" lon="6.88525">
        <ele>2564.93</ele>
        <time>2013-04-10T09:32:21Z</time>
      </trkpt>
      <trkpt lat="44.47935" lon="6.88518">
        <ele>2564.93</ele>
        <time>2013-04-10T09:32:36Z</time>
      </trkpt>
      <trkpt lat="44.47936" lon="6.88518">
        <ele>2563.97</ele>
        <time>2013-04-10T09:32:40Z</time>
      </trkpt>
      <trkpt lat="44.47936" lon="6.88519">
        <ele>2564.93</ele>
        <time>2013-04-10T09:32:42Z</time>
      </trkpt>
      <trkpt lat="44.47935" lon="6.88516">
        <ele>2567.82</ele>
        <time>2013-04-10T09:32:49Z</time>
      </trkpt>
      <trkpt lat="44.47935" lon="6.88516">
        <ele>2565.9</ele>
        <time>2013-04-10T09:32:51Z</time>
      </trkpt>
      <trkpt lat="44.47933" lon="6.88511">
        <ele>2567.82</ele>
        <time>2013-04-10T09:33:03Z</time>
      </trkpt>
      <trkpt lat="44.47932" lon="6.88509">
        <ele>2566.38</ele>
        <time>2013-04-10T09:33:05Z</time>
      </trkpt>
      <trkpt lat="44.47931" lon="6.88504">
        <ele>2570.22</ele>
        <time>2013-04-10T09:33:13Z</time>
      </trkpt>
      <trkpt lat="44.4793" lon="6.88502">
        <ele>2571.18</ele>
        <time>2013-04-10T09:33:15Z</time>
      </trkpt>
      <trkpt lat="44.4793" lon="6.88502">
        <ele>2569.26</ele>
        <time>2013-04-10T09:33:20Z</time>
      </trkpt>
      <trkpt lat="44.47927" lon="6.88493">
        <ele>2570.22</ele>
        <time>2013-04-10T09:33:34Z</time>
      </trkpt>
      <trkpt lat="44.47924" lon="6.88483">
        <ele>2572.63</ele>
        <time>2013-04-10T09:33:47Z</time>
      </trkpt>
      <trkpt lat="44.47924" lon="6.88481">
        <ele>2576.95</ele>
        <time>2013-04-10T09:33:55Z</time>
      </trkpt>
      <trkpt lat="44.47923" lon="6.8848">
        <ele>2577.43</ele>
        <time>2013-04-10T09:33:56Z</time>
      </trkpt>
      <trkpt lat="44.47922" lon="6.88477">
        <ele>2578.87</ele>
        <time>2013-04-10T09:33:58Z</time>
      </trkpt>
      <trkpt lat="44.47922" lon="6.88477">
        <ele>2577.43</ele>
        <time>2013-04-10T09:34:00Z</time>
      </trkpt>
      <trkpt lat="44.47922" lon="6.88477">
        <ele>2580.8</ele>
        <time>2013-04-10T09:34:03Z</time>
      </trkpt>
      <trkpt lat="44.47922" lon="6.88476">
        <ele>2576.95</ele>
        <time>2013-04-10T09:34:05Z</time>
      </trkpt>
      <trkpt lat="44.47922" lon="6.88476">
        <ele>2575.99</ele>
        <time>2013-04-10T09:34:07Z</time>
      </trkpt>
      <trkpt lat="44.47922" lon="6.88476">
        <ele>2577.43</ele>
        <time>2013-04-10T09:34:09Z</time>
      </trkpt>
      <trkpt lat="44.47922" lon="6.88476">
        <ele>2579.35</ele>
        <time>2013-04-10T09:34:11Z</time>
      </trkpt>
      <trkpt lat="44.47922" lon="6.88475">
        <ele>2575.99</ele>
        <time>2013-04-10T09:34:12Z</time>
      </trkpt>
      <trkpt lat="44.47922" lon="6.88475">
        <ele>2571.66</ele>
        <time>2013-04-10T09:34:13Z</time>
      </trkpt>
      <trkpt lat="44.47922" lon="6.88475">
        <ele>2574.55</ele>
        <time>2013-04-10T09:34:14Z</time>
      </trkpt>
      <trkpt lat="44.47921" lon="6.88473">
        <ele>2577.91</ele>
        <time>2013-04-10T09:34:16Z</time>
      </trkpt>
      <trkpt lat="44.4792" lon="6.88472">
        <ele>2574.55</ele>
        <time>2013-04-10T09:34:18Z</time>
      </trkpt>
      <trkpt lat="44.4792" lon="6.88472">
        <ele>2575.51</ele>
        <time>2013-04-10T09:34:19Z</time>
      </trkpt>
      <trkpt lat="44.4792" lon="6.8847">
        <ele>2578.87</ele>
        <time>2013-04-10T09:34:25Z</time>
      </trkpt>
      <trkpt lat="44.47919" lon="6.88469">
        <ele>2577.91</ele>
        <time>2013-04-10T09:34:26Z</time>
      </trkpt>
      <trkpt lat="44.47919" lon="6.88468">
        <ele>2574.07</ele>
        <time>2013-04-10T09:34:28Z</time>
      </trkpt>
      <trkpt lat="44.47919" lon="6.88469">
        <ele>2579.35</ele>
        <time>2013-04-10T09:34:30Z</time>
      </trkpt>
      <trkpt lat="44.47919" lon="6.88469">
        <ele>2576.95</ele>
        <time>2013-04-10T09:34:31Z</time>
      </trkpt>
      <trkpt lat="44.47919" lon="6.88468">
        <ele>2577.91</ele>
        <time>2013-04-10T09:34:34Z</time>
      </trkpt>
      <trkpt lat="44.47919" lon="6.88468">
        <ele>2581.28</ele>
        <time>2013-04-10T09:34:36Z</time>
      </trkpt>
      <trkpt lat="44.47919" lon="6.88468">
        <ele>2581.28</ele>
        <time>2013-04-10T09:34:37Z</time>
      </trkpt>
      <trkpt lat="44.47919" lon="6.88468">
        <ele>2579.35</ele>
        <time>2013-04-10T09:34:39Z</time>
      </trkpt>
      <trkpt lat="44.47919" lon="6.88468">
        <ele>2583.2</ele>
        <time>2013-04-10T09:34:40Z</time>
      </trkpt>
      <trkpt lat="44.47919" lon="6.88468">
        <ele>2577.43</ele>
        <time>2013-04-10T09:34:41Z</time>
      </trkpt>
      <trkpt lat="44.47919" lon="6.88468">
        <ele>2580.8</ele>
        <time>2013-04-10T09:34:42Z</time>
      </trkpt>
      <trkpt lat="44.47919" lon="6.88467">
        <ele>2576.95</ele>
        <time>2013-04-10T09:34:44Z</time>
      </trkpt>
      <trkpt lat="44.47919" lon="6.88468">
        <ele>2579.84</ele>
        <time>2013-04-10T09:34:46Z</time>
      </trkpt>
      <trkpt lat="44.47919" lon="6.88468">
        <ele>2579.35</ele>
        <time>2013-04-10T09:34:47Z</time>
      </trkpt>
      <trkpt lat="44.47919" lon="6.88467">
        <ele>2583.68</ele>
        <time>2013-04-10T09:34:49Z</time>
      </trkpt>
      <trkpt lat="44.47919" lon="6.88468">
        <ele>2581.76</ele>
        <time>2013-04-10T09:34:50Z</time>
      </trkpt>
      <trkpt lat="44.47919" lon="6.88466">
        <ele>2578.87</ele>
        <time>2013-04-10T09:34:57Z</time>
      </trkpt>
      <trkpt lat="44.47918" lon="6.88463">
        <ele>2582.24</ele>
        <time>2013-04-10T09:35:03Z</time>
      </trkpt>
      <trkpt lat="44.47918" lon="6.88463">
        <ele>2582.72</ele>
        <time>2013-04-10T09:35:05Z</time>
      </trkpt>
      <trkpt lat="44.47918" lon="6.88463">
        <ele>2580.32</ele>
        <time>2013-04-10T09:35:10Z</time>
      </trkpt>
      <trkpt lat="44.47918" lon="6.88463">
        <ele>2578.87</ele>
        <time>2013-04-10T09:35:19Z</time>
      </trkpt>
      <trkpt lat="44.47918" lon="6.88463">
        <ele>2577.43</ele>
        <time>2013-04-10T09:35:21Z</time>
      </trkpt>
      <trkpt lat="44.47918" lon="6.88463">
        <ele>2579.35</ele>
        <time>2013-04-10T09:35:30Z</time>
      </trkpt>
      <trkpt lat="44.47918" lon="6.88462">
        <ele>2578.87</ele>
        <time>2013-04-10T09:35:45Z</time>
      </trkpt>
      <trkpt lat="44.47918" lon="6.88462">
        <ele>2582.24</ele>
        <time>2013-04-10T09:36:03Z</time>
      </trkpt>
      <trkpt lat="44.47918" lon="6.88462">
        <ele>2583.2</ele>
        <time>2013-04-10T09:36:05Z</time>
      </trkpt>
      <trkpt lat="44.47918" lon="6.88462">
        <ele>2580.8</ele>
        <time>2013-04-10T09:36:14Z</time>
      </trkpt>
      <trkpt lat="44.47918" lon="6.88462">
        <ele>2578.87</ele>
        <time>2013-04-10T09:36:25Z</time>
      </trkpt>
      <trkpt lat="44.47918" lon="6.88462">
        <ele>2580.8</ele>
        <time>2013-04-10T09:36:28Z</time>
      </trkpt>
      <trkpt lat="44.47918" lon="6.88462">
        <ele>2581.76</ele>
        <time>2013-04-10T09:36:30Z</time>
      </trkpt>
      <trkpt lat="44.47918" lon="6.88462">
        <ele>2576.95</ele>
        <time>2013-04-10T09:36:32Z</time>
      </trkpt>
      <trkpt lat="44.47918" lon="6.88462">
        <ele>2581.76</ele>
        <time>2013-04-10T09:36:35Z</time>
      </trkpt>
      <trkpt lat="44.47918" lon="6.88462">
        <ele>2585.12</ele>
        <time>2013-04-10T09:36:36Z</time>
      </trkpt>
      <trkpt lat="44.47918" lon="6.88462">
        <ele>2580.8</ele>
        <time>2013-04-10T09:36:39Z</time>
      </trkpt>
      <trkpt lat="44.47918" lon="6.88462">
        <ele>2577.43</ele>
        <time>2013-04-10T09:36:42Z</time>
      </trkpt>
      <trkpt lat="44.47918" lon="6.88462">
        <ele>2574.07</ele>
        <time>2013-04-10T09:36:43Z</time>
      </trkpt>
      <trkpt lat="44.47918" lon="6.88462">
        <ele>2574.07</ele>
        <time>2013-04-10T09:36:44Z</time>
      </trkpt>
      <trkpt lat="44.47918" lon="6.88462">
        <ele>2578.39</ele>
        <time>2013-04-10T09:36:46Z</time>
      </trkpt>
      <trkpt lat="44.47918" lon="6.88462">
        <ele>2582.24</ele>
        <time>2013-04-10T09:36:48Z</time>
      </trkpt>
      <trkpt lat="44.47918" lon="6.88462">
        <ele>2587.04</ele>
        <time>2013-04-10T09:36:52Z</time>
      </trkpt>
      <trkpt lat="44.47918" lon="6.88462">
        <ele>2586.08</ele>
        <time>2013-04-10T09:36:53Z</time>
      </trkpt>
      <trkpt lat="44.47917" lon="6.88458">
        <ele>2580.8</ele>
        <time>2013-04-10T09:36:59Z</time>
      </trkpt>
      <trkpt lat="44.47914" lon="6.8845">
        <ele>2576.95</ele>
        <time>2013-04-10T09:37:09Z</time>
      </trkpt>
      <trkpt lat="44.47914" lon="6.88449">
        <ele>2582.72</ele>
        <time>2013-04-10T09:37:10Z</time>
      </trkpt>
      <trkpt lat="44.47913" lon="6.88446">
        <ele>2578.87</ele>
        <time>2013-04-10T09:37:12Z</time>
      </trkpt>
      <trkpt lat="44.47911" lon="6.88444">
        <ele>2583.68</ele>
        <time>2013-04-10T09:37:16Z</time>
      </trkpt>
      <trkpt lat="44.47911" lon="6.88443">
        <ele>2583.68</ele>
        <time>2013-04-10T09:37:17Z</time>
      </trkpt>
      <trkpt lat="44.47911" lon="6.88442">
        <ele>2580.32</ele>
        <time>2013-04-10T09:37:18Z</time>
      </trkpt>
      <trkpt lat="44.47911" lon="6.88441">
        <ele>2583.68</ele>
        <time>2013-04-10T09:37:19Z</time>
      </trkpt>
      <trkpt lat="44.47911" lon="6.8844">
        <ele>2579.35</ele>
        <time>2013-04-10T09:37:20Z</time>
      </trkpt>
      <trkpt lat="44.4791" lon="6.88437">
        <ele>2582.72</ele>
        <time>2013-04-10T09:37:23Z</time>
      </trkpt>
      <trkpt lat="44.4791" lon="6.88433">
        <ele>2579.35</ele>
        <time>2013-04-10T09:37:32Z</time>
      </trkpt>
      <trkpt lat="44.4791" lon="6.88433">
        <ele>2575.99</ele>
        <time>2013-04-10T09:37:34Z</time>
      </trkpt>
      <trkpt lat="44.4791" lon="6.88433">
        <ele>2580.8</ele>
        <time>2013-04-10T09:37:35Z</time>
      </trkpt>
      <trkpt lat="44.47909" lon="6.88426">
        <ele>2584.64</ele>
        <time>2013-04-10T09:37:42Z</time>
      </trkpt>
      <trkpt lat="44.4791" lon="6.88426">
        <ele>2581.28</ele>
        <time>2013-04-10T09:37:43Z</time>
      </trkpt>
      <trkpt lat="44.4791" lon="6.88425">
        <ele>2582.24</ele>
        <time>2013-04-10T09:37:49Z</time>
      </trkpt>
      <trkpt lat="44.47908" lon="6.88419">
        <ele>2586.08</ele>
        <time>2013-04-10T09:37:57Z</time>
      </trkpt>
      <trkpt lat="44.47908" lon="6.88419">
        <ele>2580.32</ele>
        <time>2013-04-10T09:37:58Z</time>
      </trkpt>
      <trkpt lat="44.47907" lon="6.88418">
        <ele>2588.49</ele>
        <time>2013-04-10T09:37:59Z</time>
      </trkpt>
      <trkpt lat="44.47907" lon="6.88417">
        <ele>2579.35</ele>
        <time>2013-04-10T09:38:00Z</time>
      </trkpt>
      <trkpt lat="44.47907" lon="6.88416">
        <ele>2584.64</ele>
        <time>2013-04-10T09:38:01Z</time>
      </trkpt>
      <trkpt lat="44.47907" lon="6.88415">
        <ele>2577.91</ele>
        <time>2013-04-10T09:38:02Z</time>
      </trkpt>
      <trkpt lat="44.47907" lon="6.88414">
        <ele>2581.28</ele>
        <time>2013-04-10T09:38:04Z</time>
      </trkpt>
      <trkpt lat="44.47906" lon="6.88413">
        <ele>2582.72</ele>
        <time>2013-04-10T09:38:06Z</time>
      </trkpt>
      <trkpt lat="44.47906" lon="6.8841">
        <ele>2583.2</ele>
        <time>2013-04-10T09:38:12Z</time>
      </trkpt>
      <trkpt lat="44.47906" lon="6.88409">
        <ele>2580.8</ele>
        <time>2013-04-10T09:38:14Z</time>
      </trkpt>
      <trkpt lat="44.47906" lon="6.88406">
        <ele>2583.68</ele>
        <time>2013-04-10T09:38:21Z</time>
      </trkpt>
      <trkpt lat="44.47904" lon="6.884">
        <ele>2582.24</ele>
        <time>2013-04-10T09:38:29Z</time>
      </trkpt>
      <trkpt lat="44.47902" lon="6.88396">
        <ele>2587.04</ele>
        <time>2013-04-10T09:38:39Z</time>
      </trkpt>
      <trkpt lat="44.47902" lon="6.88395">
        <ele>2582.72</ele>
        <time>2013-04-10T09:38:40Z</time>
      </trkpt>
      <trkpt lat="44.47902" lon="6.88394">
        <ele>2582.72</ele>
        <time>2013-04-10T09:38:41Z</time>
      </trkpt>
      <trkpt lat="44.47902" lon="6.88389">
        <ele>2584.16</ele>
        <time>2013-04-10T09:38:51Z</time>
      </trkpt>
      <trkpt lat="44.47902" lon="6.88388">
        <ele>2588.49</ele>
        <time>2013-04-10T09:38:54Z</time>
      </trkpt>
      <trkpt lat="44.47902" lon="6.88386">
        <ele>2585.12</ele>
        <time>2013-04-10T09:38:58Z</time>
      </trkpt>
      <trkpt lat="44.47902" lon="6.88385">
        <ele>2585.12</ele>
        <time>2013-04-10T09:38:59Z</time>
      </trkpt>
      <trkpt lat="44.47899" lon="6.88378">
        <ele>2587.53</ele>
        <time>2013-04-10T09:39:13Z</time>
      </trkpt>
      <trkpt lat="44.47899" lon="6.88377">
        <ele>2591.37</ele>
        <time>2013-04-10T09:39:19Z</time>
      </trkpt>
      <trkpt lat="44.47898" lon="6.88375">
        <ele>2587.53</ele>
        <time>2013-04-10T09:39:21Z</time>
      </trkpt>
      <trkpt lat="44.47898" lon="6.88374">
        <ele>2589.45</ele>
        <time>2013-04-10T09:39:22Z</time>
      </trkpt>
      <trkpt lat="44.47898" lon="6.88371">
        <ele>2584.64</ele>
        <time>2013-04-10T09:39:30Z</time>
      </trkpt>
      <trkpt lat="44.47898" lon="6.88372">
        <ele>2588.49</ele>
        <time>2013-04-10T09:39:31Z</time>
      </trkpt>
      <trkpt lat="44.47898" lon="6.88369">
        <ele>2585.6</ele>
        <time>2013-04-10T09:39:34Z</time>
      </trkpt>
      <trkpt lat="44.47895" lon="6.8836">
        <ele>2588.49</ele>
        <time>2013-04-10T09:39:50Z</time>
      </trkpt>
      <trkpt lat="44.47894" lon="6.88358">
        <ele>2590.41</ele>
        <time>2013-04-10T09:39:54Z</time>
      </trkpt>
      <trkpt lat="44.47894" lon="6.88356">
        <ele>2595.7</ele>
        <time>2013-04-10T09:40:01Z</time>
      </trkpt>
      <trkpt lat="44.47894" lon="6.88355">
        <ele>2599.54</ele>
        <time>2013-04-10T09:40:02Z</time>
      </trkpt>
      <trkpt lat="44.47894" lon="6.88355">
        <ele>2599.54</ele>
        <time>2013-04-10T09:40:03Z</time>
      </trkpt>
      <trkpt lat="44.47893" lon="6.88355">
        <ele>2607.23</ele>
        <time>2013-04-10T09:40:04Z</time>
      </trkpt>
      <trkpt lat="44.47894" lon="6.88354">
        <ele>2603.39</ele>
        <time>2013-04-10T09:40:05Z</time>
      </trkpt>
      <trkpt lat="44.47894" lon="6.88354">
        <ele>2600.02</ele>
        <time>2013-04-10T09:40:06Z</time>
      </trkpt>
      <trkpt lat="44.47894" lon="6.88353">
        <ele>2599.54</ele>
        <time>2013-04-10T09:40:07Z</time>
      </trkpt>
      <trkpt lat="44.47894" lon="6.88353">
        <ele>2592.81</ele>
        <time>2013-04-10T09:40:09Z</time>
      </trkpt>
      <trkpt lat="44.47894" lon="6.88352">
        <ele>2590.89</ele>
        <time>2013-04-10T09:40:12Z</time>
      </trkpt>
      <trkpt lat="44.47894" lon="6.88352">
        <ele>2594.74</ele>
        <time>2013-04-10T09:40:15Z</time>
      </trkpt>
      <trkpt lat="44.47894" lon="6.88351">
        <ele>2594.25</ele>
        <time>2013-04-10T09:40:16Z</time>
      </trkpt>
      <trkpt lat="44.47894" lon="6.8835">
        <ele>2587.53</ele>
        <time>2013-04-10T09:40:17Z</time>
      </trkpt>
      <trkpt lat="44.47894" lon="6.88349">
        <ele>2594.25</ele>
        <time>2013-04-10T09:40:18Z</time>
      </trkpt>
      <trkpt lat="44.47894" lon="6.88349">
        <ele>2590.89</ele>
        <time>2013-04-10T09:40:19Z</time>
      </trkpt>
      <trkpt lat="44.47893" lon="6.88346">
        <ele>2587.04</ele>
        <time>2013-04-10T09:40:22Z</time>
      </trkpt>
      <trkpt lat="44.47892" lon="6.88345">
        <ele>2590.41</ele>
        <time>2013-04-10T09:40:24Z</time>
      </trkpt>
      <trkpt lat="44.47892" lon="6.88344">
        <ele>2588.97</ele>
        <time>2013-04-10T09:40:27Z</time>
      </trkpt>
      <trkpt lat="44.47893" lon="6.88341">
        <ele>2592.81</ele>
        <time>2013-04-10T09:40:31Z</time>
      </trkpt>
      <trkpt lat="44.47894" lon="6.8834">
        <ele>2594.25</ele>
        <time>2013-04-10T09:40:34Z</time>
      </trkpt>
      <trkpt lat="44.47894" lon="6.88338">
        <ele>2599.54</ele>
        <time>2013-04-10T09:40:36Z</time>
      </trkpt>
      <trkpt lat="44.47894" lon="6.88338">
        <ele>2597.14</ele>
        <time>2013-04-10T09:40:37Z</time>
      </trkpt>
      <trkpt lat="44.47894" lon="6.88338">
        <ele>2600.98</ele>
        <time>2013-04-10T09:40:40Z</time>
      </trkpt>
      <trkpt lat="44.47894" lon="6.88335">
        <ele>2598.1</ele>
        <time>2013-04-10T09:40:43Z</time>
      </trkpt>
      <trkpt lat="44.47894" lon="6.88335">
        <ele>2595.7</ele>
        <time>2013-04-10T09:40:46Z</time>
      </trkpt>
      <trkpt lat="44.47893" lon="6.88332">
        <ele>2593.29</ele>
        <time>2013-04-10T09:40:49Z</time>
      </trkpt>
      <trkpt lat="44.47893" lon="6.8833">
        <ele>2596.66</ele>
        <time>2013-04-10T09:40:55Z</time>
      </trkpt>
      <trkpt lat="44.47891" lon="6.88328">
        <ele>2593.29</ele>
        <time>2013-04-10T09:40:59Z</time>
      </trkpt>
      <trkpt lat="44.47892" lon="6.88328">
        <ele>2593.29</ele>
        <time>2013-04-10T09:41:00Z</time>
      </trkpt>
      <trkpt lat="44.47891" lon="6.88326">
        <ele>2598.1</ele>
        <time>2013-04-10T09:41:07Z</time>
      </trkpt>
      <trkpt lat="44.47891" lon="6.88326">
        <ele>2601.95</ele>
        <time>2013-04-10T09:41:08Z</time>
      </trkpt>
      <trkpt lat="44.47891" lon="6.88326">
        <ele>2594.25</ele>
        <time>2013-04-10T09:41:09Z</time>
      </trkpt>
      <trkpt lat="44.47891" lon="6.88325">
        <ele>2594.25</ele>
        <time>2013-04-10T09:41:10Z</time>
      </trkpt>
      <trkpt lat="44.47891" lon="6.88322">
        <ele>2596.66</ele>
        <time>2013-04-10T09:41:23Z</time>
      </trkpt>
      <trkpt lat="44.47891" lon="6.88321">
        <ele>2600.98</ele>
        <time>2013-04-10T09:41:28Z</time>
      </trkpt>
      <trkpt lat="44.47891" lon="6.8832">
        <ele>2605.31</ele>
        <time>2013-04-10T09:41:30Z</time>
      </trkpt>
      <trkpt lat="44.47891" lon="6.8832">
        <ele>2612.52</ele>
        <time>2013-04-10T09:41:31Z</time>
      </trkpt>
      <trkpt lat="44.47891" lon="6.8832">
        <ele>2609.16</ele>
        <time>2013-04-10T09:41:32Z</time>
      </trkpt>
      <trkpt lat="44.47891" lon="6.8832">
        <ele>2600.5</ele>
        <time>2013-04-10T09:41:34Z</time>
      </trkpt>
      <trkpt lat="44.47891" lon="6.8832">
        <ele>2597.62</ele>
        <time>2013-04-10T09:41:35Z</time>
      </trkpt>
      <trkpt lat="44.47891" lon="6.8832">
        <ele>2597.14</ele>
        <time>2013-04-10T09:41:37Z</time>
      </trkpt>
      <trkpt lat="44.47891" lon="6.88318">
        <ele>2600.02</ele>
        <time>2013-04-10T09:41:40Z</time>
      </trkpt>
      <trkpt lat="44.47891" lon="6.88316">
        <ele>2601.95</ele>
        <time>2013-04-10T09:41:43Z</time>
      </trkpt>
      <trkpt lat="44.47891" lon="6.88315">
        <ele>2606.75</ele>
        <time>2013-04-10T09:41:47Z</time>
      </trkpt>
      <trkpt lat="44.47891" lon="6.88315">
        <ele>2599.54</ele>
        <time>2013-04-10T09:41:48Z</time>
      </trkpt>
      <trkpt lat="44.47891" lon="6.88315">
        <ele>2596.66</ele>
        <time>2013-04-10T09:41:50Z</time>
      </trkpt>
      <trkpt lat="44.47891" lon="6.88315">
        <ele>2598.58</ele>
        <time>2013-04-10T09:41:53Z</time>
      </trkpt>
      <trkpt lat="44.4789" lon="6.88314">
        <ele>2596.18</ele>
        <time>2013-04-10T09:41:59Z</time>
      </trkpt>
      <trkpt lat="44.4789" lon="6.88314">
        <ele>2597.62</ele>
        <time>2013-04-10T09:42:01Z</time>
      </trkpt>
      <trkpt lat="44.47891" lon="6.88312">
        <ele>2599.06</ele>
        <time>2013-04-10T09:42:05Z</time>
      </trkpt>
      <trkpt lat="44.4789" lon="6.88311">
        <ele>2602.43</ele>
        <time>2013-04-10T09:42:08Z</time>
      </trkpt>
      <trkpt lat="44.4789" lon="6.88311">
        <ele>2601.95</ele>
        <time>2013-04-10T09:42:09Z</time>
      </trkpt>
      <trkpt lat="44.47891" lon="6.88309">
        <ele>2602.43</ele>
        <time>2013-04-10T09:42:15Z</time>
      </trkpt>
      <trkpt lat="44.47891" lon="6.88308">
        <ele>2605.79</ele>
        <time>2013-04-10T09:42:19Z</time>
      </trkpt>
      <trkpt lat="44.47892" lon="6.88307">
        <ele>2603.87</ele>
        <time>2013-04-10T09:42:23Z</time>
      </trkpt>
      <trkpt lat="44.47892" lon="6.88306">
        <ele>2602.91</ele>
        <time>2013-04-10T09:42:28Z</time>
      </trkpt>
      <trkpt lat="44.47892" lon="6.88306">
        <ele>2604.83</ele>
        <time>2013-04-10T09:42:30Z</time>
      </trkpt>
      <trkpt lat="44.47893" lon="6.88305">
        <ele>2603.39</ele>
        <time>2013-04-10T09:42:34Z</time>
      </trkpt>
      <trkpt lat="44.47893" lon="6.88304">
        <ele>2603.87</ele>
        <time>2013-04-10T09:42:40Z</time>
      </trkpt>
      <trkpt lat="44.47894" lon="6.88302">
        <ele>2601.95</ele>
        <time>2013-04-10T09:42:54Z</time>
      </trkpt>
      <trkpt lat="44.47894" lon="6.88298">
        <ele>2604.83</ele>
        <time>2013-04-10T09:43:05Z</time>
      </trkpt>
      <trkpt lat="44.47894" lon="6.88298">
        <ele>2605.79</ele>
        <time>2013-04-10T09:43:07Z</time>
      </trkpt>
      <trkpt lat="44.47895" lon="6.88296">
        <ele>2604.83</ele>
        <time>2013-04-10T09:43:24Z</time>
      </trkpt>
      <trkpt lat="44.47895" lon="6.88296">
        <ele>2605.79</ele>
        <time>2013-04-10T09:43:28Z</time>
      </trkpt>
      <trkpt lat="44.47895" lon="6.88291">
        <ele>2608.19</ele>
        <time>2013-04-10T09:43:37Z</time>
      </trkpt>
      <trkpt lat="44.47893" lon="6.88287">
        <ele>2606.27</ele>
        <time>2013-04-10T09:43:46Z</time>
      </trkpt>
      <trkpt lat="44.47893" lon="6.88283">
        <ele>2609.16</ele>
        <time>2013-04-10T09:43:55Z</time>
      </trkpt>
      <trkpt lat="44.47893" lon="6.88283">
        <ele>2610.12</ele>
        <time>2013-04-10T09:43:57Z</time>
      </trkpt>
      <trkpt lat="44.47892" lon="6.88279">
        <ele>2612.52</ele>
        <time>2013-04-10T09:44:07Z</time>
      </trkpt>
      <trkpt lat="44.47892" lon="6.88278">
        <ele>2609.64</ele>
        <time>2013-04-10T09:44:12Z</time>
      </trkpt>
      <trkpt lat="44.47891" lon="6.88275">
        <ele>2608.67</ele>
        <time>2013-04-10T09:44:25Z</time>
      </trkpt>
      <trkpt lat="44.4789" lon="6.88275">
        <ele>2611.08</ele>
        <time>2013-04-10T09:44:28Z</time>
      </trkpt>
      <trkpt lat="44.4789" lon="6.88274">
        <ele>2608.19</ele>
        <time>2013-04-10T09:44:32Z</time>
      </trkpt>
      <trkpt lat="44.47889" lon="6.88272">
        <ele>2611.56</ele>
        <time>2013-04-10T09:44:37Z</time>
      </trkpt>
      <trkpt lat="44.47889" lon="6.88272">
        <ele>2611.08</ele>
        <time>2013-04-10T09:44:38Z</time>
      </trkpt>
      <trkpt lat="44.47888" lon="6.8827">
        <ele>2615.88</ele>
        <time>2013-04-10T09:44:46Z</time>
      </trkpt>
      <trkpt lat="44.47887" lon="6.88268">
        <ele>2612.52</ele>
        <time>2013-04-10T09:44:53Z</time>
      </trkpt>
      <trkpt lat="44.47887" lon="6.88267">
        <ele>2613.96</ele>
        <time>2013-04-10T09:45:06Z</time>
      </trkpt>
      <trkpt lat="44.47887" lon="6.88267">
        <ele>2613.96</ele>
        <time>2013-04-10T09:45:07Z</time>
      </trkpt>
      <trkpt lat="44.47887" lon="6.88267">
        <ele>2613.96</ele>
        <time>2013-04-10T09:45:16Z</time>
      </trkpt>
      <trkpt lat="44.47888" lon="6.88266">
        <ele>2612.52</ele>
        <time>2013-04-10T09:45:35Z</time>
      </trkpt>
      <trkpt lat="44.4789" lon="6.88263">
        <ele>2615.4</ele>
        <time>2013-04-10T09:45:46Z</time>
      </trkpt>
      <trkpt lat="44.47891" lon="6.88262">
        <ele>2617.81</ele>
        <time>2013-04-10T09:45:51Z</time>
      </trkpt>
      <trkpt lat="44.47891" lon="6.88262">
        <ele>2616.37</ele>
        <time>2013-04-10T09:45:53Z</time>
      </trkpt>
      <trkpt lat="44.47892" lon="6.88261">
        <ele>2619.73</ele>
        <time>2013-04-10T09:46:03Z</time>
      </trkpt>
      <trkpt lat="44.47892" lon="6.88261">
        <ele>2619.73</ele>
        <time>2013-04-10T09:46:04Z</time>
      </trkpt>
      <trkpt lat="44.47892" lon="6.88261">
        <ele>2618.29</ele>
        <time>2013-04-10T09:46:06Z</time>
      </trkpt>
      <trkpt lat="44.47892" lon="6.8826">
        <ele>2618.29</ele>
        <time>2013-04-10T09:46:14Z</time>
      </trkpt>
      <trkpt lat="44.47892" lon="6.8826">
        <ele>2618.77</ele>
        <time>2013-04-10T09:46:21Z</time>
      </trkpt>
      <trkpt lat="44.47893" lon="6.88259">
        <ele>2620.21</ele>
        <time>2013-04-10T09:46:24Z</time>
      </trkpt>
      <trkpt lat="44.47893" lon="6.88259">
        <ele>2619.25</ele>
        <time>2013-04-10T09:46:25Z</time>
      </trkpt>
      <trkpt lat="44.47893" lon="6.88259">
        <ele>2622.13</ele>
        <time>2013-04-10T09:46:29Z</time>
      </trkpt>
      <trkpt lat="44.47894" lon="6.88258">
        <ele>2620.69</ele>
        <time>2013-04-10T09:46:32Z</time>
      </trkpt>
      <trkpt lat="44.47897" lon="6.88255">
        <ele>2622.61</ele>
        <time>2013-04-10T09:46:45Z</time>
      </trkpt>
      <trkpt lat="44.47897" lon="6.88255">
        <ele>2621.65</ele>
        <time>2013-04-10T09:46:50Z</time>
      </trkpt>
      <trkpt lat="44.47898" lon="6.88254">
        <ele>2623.09</ele>
        <time>2013-04-10T09:47:01Z</time>
      </trkpt>
      <trkpt lat="44.47897" lon="6.8825">
        <ele>2619.73</ele>
        <time>2013-04-10T09:47:12Z</time>
      </trkpt>
      <trkpt lat="44.47897" lon="6.8825">
        <ele>2619.73</ele>
        <time>2013-04-10T09:47:13Z</time>
      </trkpt>
      <trkpt lat="44.47896" lon="6.88247">
        <ele>2621.65</ele>
        <time>2013-04-10T09:47:18Z</time>
      </trkpt>
      <trkpt lat="44.47896" lon="6.88245">
        <ele>2625.02</ele>
        <time>2013-04-10T09:47:27Z</time>
      </trkpt>
      <trkpt lat="44.47895" lon="6.88244">
        <ele>2625.98</ele>
        <time>2013-04-10T09:47:32Z</time>
      </trkpt>
      <trkpt lat="44.47893" lon="6.8824">
        <ele>2625.02</ele>
        <time>2013-04-10T09:47:47Z</time>
      </trkpt>
      <trkpt lat="44.47893" lon="6.88238">
        <ele>2625.02</ele>
        <time>2013-04-10T09:48:00Z</time>
      </trkpt>
      <trkpt lat="44.47893" lon="6.88238">
        <ele>2626.46</ele>
        <time>2013-04-10T09:48:13Z</time>
      </trkpt>
      <trkpt lat="44.47893" lon="6.88238">
        <ele>2625.02</ele>
        <time>2013-04-10T09:48:17Z</time>
      </trkpt>
      <trkpt lat="44.47893" lon="6.88239">
        <ele>2626.46</ele>
        <time>2013-04-10T09:48:19Z</time>
      </trkpt>
      <trkpt lat="44.47893" lon="6.88239">
        <ele>2626.46</ele>
        <time>2013-04-10T09:48:25Z</time>
      </trkpt>
      <trkpt lat="44.47894" lon="6.88238">
        <ele>2630.79</ele>
        <time>2013-04-10T09:48:29Z</time>
      </trkpt>
      <trkpt lat="44.47894" lon="6.88237">
        <ele>2628.86</ele>
        <time>2013-04-10T09:48:30Z</time>
      </trkpt>
      <trkpt lat="44.47896" lon="6.88236">
        <ele>2628.86</ele>
        <time>2013-04-10T09:48:47Z</time>
      </trkpt>
      <trkpt lat="44.47898" lon="6.88236">
        <ele>2631.75</ele>
        <time>2013-04-10T09:48:55Z</time>
      </trkpt>
      <trkpt lat="44.479" lon="6.88235">
        <ele>2633.19</ele>
        <time>2013-04-10T09:49:01Z</time>
      </trkpt>
      <trkpt lat="44.47903" lon="6.88233">
        <ele>2632.71</ele>
        <time>2013-04-10T09:49:12Z</time>
      </trkpt>
      <trkpt lat="44.47905" lon="6.88233">
        <ele>2631.27</ele>
        <time>2013-04-10T09:49:19Z</time>
      </trkpt>
      <trkpt lat="44.47906" lon="6.88232">
        <ele>2633.19</ele>
        <time>2013-04-10T09:49:23Z</time>
      </trkpt>
      <trkpt lat="44.47908" lon="6.8823">
        <ele>2636.07</ele>
        <time>2013-04-10T09:49:29Z</time>
      </trkpt>
      <trkpt lat="44.47909" lon="6.8823">
        <ele>2634.15</ele>
        <time>2013-04-10T09:49:32Z</time>
      </trkpt>
      <trkpt lat="44.4791" lon="6.88229">
        <ele>2635.11</ele>
        <time>2013-04-10T09:49:36Z</time>
      </trkpt>
      <trkpt lat="44.47911" lon="6.88229">
        <ele>2633.19</ele>
        <time>2013-04-10T09:49:43Z</time>
      </trkpt>
      <trkpt lat="44.47911" lon="6.88229">
        <ele>2636.07</ele>
        <time>2013-04-10T09:49:50Z</time>
      </trkpt>
      <trkpt lat="44.47911" lon="6.88229">
        <ele>2632.71</ele>
        <time>2013-04-10T09:49:53Z</time>
      </trkpt>
      <trkpt lat="44.47911" lon="6.88229">
        <ele>2631.27</ele>
        <time>2013-04-10T09:49:59Z</time>
      </trkpt>
      <trkpt lat="44.4791" lon="6.88228">
        <ele>2626.46</ele>
        <time>2013-04-10T09:50:03Z</time>
      </trkpt>
      <trkpt lat="44.47909" lon="6.88227">
        <ele>2627.42</ele>
        <time>2013-04-10T09:50:04Z</time>
      </trkpt>
      <trkpt lat="44.47907" lon="6.88225">
        <ele>2630.79</ele>
        <time>2013-04-10T09:50:11Z</time>
      </trkpt>
      <trkpt lat="44.47908" lon="6.88223">
        <ele>2632.23</ele>
        <time>2013-04-10T09:50:13Z</time>
      </trkpt>
      <trkpt lat="44.47906" lon="6.88222">
        <ele>2636.07</ele>
        <time>2013-04-10T09:50:20Z</time>
      </trkpt>
      <trkpt lat="44.47905" lon="6.88221">
        <ele>2640.4</ele>
        <time>2013-04-10T09:50:22Z</time>
      </trkpt>
      <trkpt lat="44.47905" lon="6.88221">
        <ele>2641.36</ele>
        <time>2013-04-10T09:50:24Z</time>
      </trkpt>
      <trkpt lat="44.47904" lon="6.88219">
        <ele>2637.99</ele>
        <time>2013-04-10T09:50:31Z</time>
      </trkpt>
      <trkpt lat="44.47904" lon="6.88219">
        <ele>2637.99</ele>
        <time>2013-04-10T09:50:32Z</time>
      </trkpt>
      <trkpt lat="44.479" lon="6.88215">
        <ele>2637.99</ele>
        <time>2013-04-10T09:50:44Z</time>
      </trkpt>
      <trkpt lat="44.479" lon="6.88214">
        <ele>2641.36</ele>
        <time>2013-04-10T09:50:48Z</time>
      </trkpt>
      <trkpt lat="44.479" lon="6.88214">
        <ele>2637.51</ele>
        <time>2013-04-10T09:50:50Z</time>
      </trkpt>
      <trkpt lat="44.479" lon="6.88214">
        <ele>2637.51</ele>
        <time>2013-04-10T09:50:51Z</time>
      </trkpt>
      <trkpt lat="44.47898" lon="6.88212">
        <ele>2640.88</ele>
        <time>2013-04-10T09:51:00Z</time>
      </trkpt>
      <trkpt lat="44.47898" lon="6.88211">
        <ele>2641.36</ele>
        <time>2013-04-10T09:51:02Z</time>
      </trkpt>
      <trkpt lat="44.47898" lon="6.88211">
        <ele>2644.72</ele>
        <time>2013-04-10T09:51:08Z</time>
      </trkpt>
      <trkpt lat="44.47898" lon="6.88211">
        <ele>2645.69</ele>
        <time>2013-04-10T09:51:10Z</time>
      </trkpt>
      <trkpt lat="44.47899" lon="6.88211">
        <ele>2639.44</ele>
        <time>2013-04-10T09:51:14Z</time>
      </trkpt>
      <trkpt lat="44.47899" lon="6.88211">
        <ele>2641.36</ele>
        <time>2013-04-10T09:51:15Z</time>
      </trkpt>
      <trkpt lat="44.47899" lon="6.88211">
        <ele>2637.99</ele>
        <time>2013-04-10T09:51:19Z</time>
      </trkpt>
      <trkpt lat="44.47899" lon="6.88211">
        <ele>2641.36</ele>
        <time>2013-04-10T09:51:25Z</time>
      </trkpt>
      <trkpt lat="44.47899" lon="6.88211">
        <ele>2641.36</ele>
        <time>2013-04-10T09:51:31Z</time>
      </trkpt>
      <trkpt lat="44.479" lon="6.88211">
        <ele>2641.84</ele>
        <time>2013-04-10T09:51:44Z</time>
      </trkpt>
      <trkpt lat="44.47901" lon="6.8821">
        <ele>2641.84</ele>
        <time>2013-04-10T09:51:45Z</time>
      </trkpt>
      <trkpt lat="44.47904" lon="6.88209">
        <ele>2639.92</ele>
        <time>2013-04-10T09:51:57Z</time>
      </trkpt>
      <trkpt lat="44.47907" lon="6.88207">
        <ele>2639.44</ele>
        <time>2013-04-10T09:52:10Z</time>
      </trkpt>
      <trkpt lat="44.47907" lon="6.88206">
        <ele>2640.88</ele>
        <time>2013-04-10T09:52:17Z</time>
      </trkpt>
      <trkpt lat="44.47907" lon="6.88207">
        <ele>2642.32</ele>
        <time>2013-04-10T09:52:20Z</time>
      </trkpt>
      <trkpt lat="44.47908" lon="6.88204">
        <ele>2643.76</ele>
        <time>2013-04-10T09:52:26Z</time>
      </trkpt>
      <trkpt lat="44.47909" lon="6.88204">
        <ele>2642.32</ele>
        <time>2013-04-10T09:52:37Z</time>
      </trkpt>
      <trkpt lat="44.47909" lon="6.88204">
        <ele>2643.76</ele>
        <time>2013-04-10T09:52:51Z</time>
      </trkpt>
      <trkpt lat="44.47909" lon="6.88204">
        <ele>2647.13</ele>
        <time>2013-04-10T09:53:00Z</time>
      </trkpt>
      <trkpt lat="44.47909" lon="6.88204">
        <ele>2650.49</ele>
        <time>2013-04-10T09:53:04Z</time>
      </trkpt>
      <trkpt lat="44.47909" lon="6.88204">
        <ele>2647.13</ele>
        <time>2013-04-10T09:53:06Z</time>
      </trkpt>
      <trkpt lat="44.47909" lon="6.88204">
        <ele>2646.17</ele>
        <time>2013-04-10T09:53:08Z</time>
      </trkpt>
      <trkpt lat="44.47909" lon="6.88203">
        <ele>2648.09</ele>
        <time>2013-04-10T09:53:11Z</time>
      </trkpt>
      <trkpt lat="44.47908" lon="6.88201">
        <ele>2650.01</ele>
        <time>2013-04-10T09:53:17Z</time>
      </trkpt>
      <trkpt lat="44.47906" lon="6.88198">
        <ele>2649.05</ele>
        <time>2013-04-10T09:53:22Z</time>
      </trkpt>
      <trkpt lat="44.47904" lon="6.88195">
        <ele>2646.65</ele>
        <time>2013-04-10T09:53:28Z</time>
      </trkpt>
      <trkpt lat="44.47902" lon="6.88192">
        <ele>2646.65</ele>
        <time>2013-04-10T09:53:41Z</time>
      </trkpt>
      <trkpt lat="44.47899" lon="6.88189">
        <ele>2648.57</ele>
        <time>2013-04-10T09:53:53Z</time>
      </trkpt>
      <trkpt lat="44.47898" lon="6.88188">
        <ele>2651.93</ele>
        <time>2013-04-10T09:53:57Z</time>
      </trkpt>
      <trkpt lat="44.47897" lon="6.88186">
        <ele>2648.57</ele>
        <time>2013-04-10T09:54:07Z</time>
      </trkpt>
      <trkpt lat="44.47897" lon="6.88186">
        <ele>2648.57</ele>
        <time>2013-04-10T09:54:08Z</time>
      </trkpt>
      <trkpt lat="44.47897" lon="6.88185">
        <ele>2652.42</ele>
        <time>2013-04-10T09:54:11Z</time>
      </trkpt>
      <trkpt lat="44.47897" lon="6.88185">
        <ele>2654.34</ele>
        <time>2013-04-10T09:54:14Z</time>
      </trkpt>
      <trkpt lat="44.47897" lon="6.88185">
        <ele>2651.93</ele>
        <time>2013-04-10T09:54:16Z</time>
      </trkpt>
      <trkpt lat="44.47897" lon="6.88185">
        <ele>2652.42</ele>
        <time>2013-04-10T09:54:26Z</time>
      </trkpt>
      <trkpt lat="44.47897" lon="6.88185">
        <ele>2651.93</ele>
        <time>2013-04-10T09:54:33Z</time>
      </trkpt>
      <trkpt lat="44.47897" lon="6.88185">
        <ele>2653.86</ele>
        <time>2013-04-10T09:54:41Z</time>
      </trkpt>
      <trkpt lat="44.47898" lon="6.88185">
        <ele>2650.97</ele>
        <time>2013-04-10T09:54:45Z</time>
      </trkpt>
      <trkpt lat="44.479" lon="6.88186">
        <ele>2654.34</ele>
        <time>2013-04-10T09:54:51Z</time>
      </trkpt>
      <trkpt lat="44.47901" lon="6.88186">
        <ele>2654.82</ele>
        <time>2013-04-10T09:54:59Z</time>
      </trkpt>
      <trkpt lat="44.47903" lon="6.88185">
        <ele>2652.9</ele>
        <time>2013-04-10T09:55:02Z</time>
      </trkpt>
      <trkpt lat="44.47905" lon="6.88185">
        <ele>2655.78</ele>
        <time>2013-04-10T09:55:08Z</time>
      </trkpt>
      <trkpt lat="44.47905" lon="6.88185">
        <ele>2653.86</ele>
        <time>2013-04-10T09:55:11Z</time>
      </trkpt>
      <trkpt lat="44.47905" lon="6.88185">
        <ele>2655.3</ele>
        <time>2013-04-10T09:55:13Z</time>
      </trkpt>
      <trkpt lat="44.47909" lon="6.88184">
        <ele>2653.38</ele>
        <time>2013-04-10T09:55:28Z</time>
      </trkpt>
      <trkpt lat="44.47912" lon="6.88182">
        <ele>2655.3</ele>
        <time>2013-04-10T09:55:36Z</time>
      </trkpt>
      <trkpt lat="44.47911" lon="6.88179">
        <ele>2658.66</ele>
        <time>2013-04-10T09:55:48Z</time>
      </trkpt>
      <trkpt lat="44.4791" lon="6.88177">
        <ele>2660.11</ele>
        <time>2013-04-10T09:55:53Z</time>
      </trkpt>
      <trkpt lat="44.47909" lon="6.88176">
        <ele>2662.99</ele>
        <time>2013-04-10T09:55:56Z</time>
      </trkpt>
      <trkpt lat="44.47909" lon="6.88176">
        <ele>2661.07</ele>
        <time>2013-04-10T09:55:58Z</time>
      </trkpt>
      <trkpt lat="44.47908" lon="6.88174">
        <ele>2662.03</ele>
        <time>2013-04-10T09:56:05Z</time>
      </trkpt>
      <trkpt lat="44.47908" lon="6.88174">
        <ele>2660.11</ele>
        <time>2013-04-10T09:56:09Z</time>
      </trkpt>
      <trkpt lat="44.47907" lon="6.88173">
        <ele>2661.55</ele>
        <time>2013-04-10T09:56:17Z</time>
      </trkpt>
      <trkpt lat="44.47908" lon="6.88172">
        <ele>2659.14</ele>
        <time>2013-04-10T09:56:21Z</time>
      </trkpt>
      <trkpt lat="44.47908" lon="6.88172">
        <ele>2660.11</ele>
        <time>2013-04-10T09:56:30Z</time>
      </trkpt>
      <trkpt lat="44.47908" lon="6.88172">
        <ele>2658.66</ele>
        <time>2013-04-10T09:56:35Z</time>
      </trkpt>
      <trkpt lat="44.47908" lon="6.88172">
        <ele>2661.07</ele>
        <time>2013-04-10T09:56:51Z</time>
      </trkpt>
      <trkpt lat="44.4791" lon="6.88171">
        <ele>2657.7</ele>
        <time>2013-04-10T09:56:58Z</time>
      </trkpt>
      <trkpt lat="44.47913" lon="6.88171">
        <ele>2659.62</ele>
        <time>2013-04-10T09:57:13Z</time>
      </trkpt>
      <trkpt lat="44.47914" lon="6.8817">
        <ele>2661.55</ele>
        <time>2013-04-10T09:57:21Z</time>
      </trkpt>
      <trkpt lat="44.47914" lon="6.88169">
        <ele>2662.99</ele>
        <time>2013-04-10T09:57:25Z</time>
      </trkpt>
      <trkpt lat="44.47914" lon="6.88169">
        <ele>2663.95</ele>
        <time>2013-04-10T09:57:41Z</time>
      </trkpt>
      <trkpt lat="44.47914" lon="6.88169">
        <ele>2660.11</ele>
        <time>2013-04-10T09:57:51Z</time>
      </trkpt>
      <trkpt lat="44.47912" lon="6.88167">
        <ele>2663.47</ele>
        <time>2013-04-10T09:57:58Z</time>
      </trkpt>
      <trkpt lat="44.4791" lon="6.88162">
        <ele>2666.35</ele>
        <time>2013-04-10T09:58:07Z</time>
      </trkpt>
      <trkpt lat="44.4791" lon="6.88162">
        <ele>2662.51</ele>
        <time>2013-04-10T09:58:09Z</time>
      </trkpt>
      <trkpt lat="44.47909" lon="6.88161">
        <ele>2661.55</ele>
        <time>2013-04-10T09:58:11Z</time>
      </trkpt>
      <trkpt lat="44.47906" lon="6.88159">
        <ele>2662.51</ele>
        <time>2013-04-10T09:58:17Z</time>
      </trkpt>
      <trkpt lat="44.47905" lon="6.88158">
        <ele>2667.8</ele>
        <time>2013-04-10T09:58:20Z</time>
      </trkpt>
      <trkpt lat="44.47904" lon="6.88158">
        <ele>2665.87</ele>
        <time>2013-04-10T09:58:23Z</time>
      </trkpt>
      <trkpt lat="44.47902" lon="6.88154">
        <ele>2669.24</ele>
        <time>2013-04-10T09:58:35Z</time>
      </trkpt>
      <trkpt lat="44.47902" lon="6.88154">
        <ele>2665.87</ele>
        <time>2013-04-10T09:58:36Z</time>
      </trkpt>
      <trkpt lat="44.47901" lon="6.88153">
        <ele>2664.43</ele>
        <time>2013-04-10T09:58:41Z</time>
      </trkpt>
      <trkpt lat="44.479" lon="6.88153">
        <ele>2669.72</ele>
        <time>2013-04-10T09:58:44Z</time>
      </trkpt>
      <trkpt lat="44.479" lon="6.88152">
        <ele>2669.72</ele>
        <time>2013-04-10T09:58:45Z</time>
      </trkpt>
      <trkpt lat="44.47899" lon="6.88151">
        <ele>2664.91</ele>
        <time>2013-04-10T09:58:48Z</time>
      </trkpt>
      <trkpt lat="44.47899" lon="6.88151">
        <ele>2666.35</ele>
        <time>2013-04-10T09:58:49Z</time>
      </trkpt>
      <trkpt lat="44.47899" lon="6.88151">
        <ele>2670.2</ele>
        <time>2013-04-10T09:58:51Z</time>
      </trkpt>
      <trkpt lat="44.47898" lon="6.88151">
        <ele>2666.83</ele>
        <time>2013-04-10T09:58:52Z</time>
      </trkpt>
      <trkpt lat="44.47898" lon="6.88151">
        <ele>2667.8</ele>
        <time>2013-04-10T09:58:55Z</time>
      </trkpt>
      <trkpt lat="44.47897" lon="6.88149">
        <ele>2671.64</ele>
        <time>2013-04-10T09:59:01Z</time>
      </trkpt>
      <trkpt lat="44.47897" lon="6.88149">
        <ele>2671.64</ele>
        <time>2013-04-10T09:59:02Z</time>
      </trkpt>
      <trkpt lat="44.47897" lon="6.88149">
        <ele>2668.76</ele>
        <time>2013-04-10T09:59:04Z</time>
      </trkpt>
      <trkpt lat="44.47895" lon="6.88147">
        <ele>2670.68</ele>
        <time>2013-04-10T09:59:09Z</time>
      </trkpt>
      <trkpt lat="44.47895" lon="6.88147">
        <ele>2668.28</ele>
        <time>2013-04-10T09:59:11Z</time>
      </trkpt>
      <trkpt lat="44.47893" lon="6.88146">
        <ele>2670.2</ele>
        <time>2013-04-10T09:59:18Z</time>
      </trkpt>
      <trkpt lat="44.47889" lon="6.88143">
        <ele>2673.08</ele>
        <time>2013-04-10T09:59:33Z</time>
      </trkpt>
      <trkpt lat="44.47886" lon="6.88142">
        <ele>2670.2</ele>
        <time>2013-04-10T09:59:39Z</time>
      </trkpt>
      <trkpt lat="44.47883" lon="6.8814">
        <ele>2672.12</ele>
        <time>2013-04-10T09:59:54Z</time>
      </trkpt>
      <trkpt lat="44.47883" lon="6.8814">
        <ele>2670.2</ele>
        <time>2013-04-10T09:59:57Z</time>
      </trkpt>
      <trkpt lat="44.47883" lon="6.8814">
        <ele>2671.64</ele>
        <time>2013-04-10T10:00:03Z</time>
      </trkpt>
      <trkpt lat="44.47882" lon="6.88139">
        <ele>2671.16</ele>
        <time>2013-04-10T10:00:10Z</time>
      </trkpt>
      <trkpt lat="44.47882" lon="6.88139">
        <ele>2673.56</ele>
        <time>2013-04-10T10:00:12Z</time>
      </trkpt>
      <trkpt lat="44.47881" lon="6.88138">
        <ele>2670.2</ele>
        <time>2013-04-10T10:00:14Z</time>
      </trkpt>
      <trkpt lat="44.47877" lon="6.88133">
        <ele>2672.12</ele>
        <time>2013-04-10T10:00:26Z</time>
      </trkpt>
      <trkpt lat="44.47873" lon="6.8813">
        <ele>2676.45</ele>
        <time>2013-04-10T10:00:36Z</time>
      </trkpt>
      <trkpt lat="44.47873" lon="6.88129">
        <ele>2675.49</ele>
        <time>2013-04-10T10:00:37Z</time>
      </trkpt>
      <trkpt lat="44.47872" lon="6.88128">
        <ele>2673.08</ele>
        <time>2013-04-10T10:00:40Z</time>
      </trkpt>
      <trkpt lat="44.47871" lon="6.88128">
        <ele>2674.52</ele>
        <time>2013-04-10T10:00:42Z</time>
      </trkpt>
      <trkpt lat="44.4787" lon="6.88128">
        <ele>2676.45</ele>
        <time>2013-04-10T10:00:45Z</time>
      </trkpt>
      <trkpt lat="44.47868" lon="6.88128">
        <ele>2679.33</ele>
        <time>2013-04-10T10:00:56Z</time>
      </trkpt>
      <trkpt lat="44.47868" lon="6.88128">
        <ele>2683.18</ele>
        <time>2013-04-10T10:00:58Z</time>
      </trkpt>
      <trkpt lat="44.47866" lon="6.88127">
        <ele>2674.04</ele>
        <time>2013-04-10T10:01:01Z</time>
      </trkpt>
      <trkpt lat="44.47865" lon="6.88127">
        <ele>2681.25</ele>
        <time>2013-04-10T10:01:03Z</time>
      </trkpt>
      <trkpt lat="44.47864" lon="6.88127">
        <ele>2679.81</ele>
        <time>2013-04-10T10:01:04Z</time>
      </trkpt>
      <trkpt lat="44.47862" lon="6.88128">
        <ele>2675.97</ele>
        <time>2013-04-10T10:01:06Z</time>
      </trkpt>
      <trkpt lat="44.4786" lon="6.88128">
        <ele>2673.08</ele>
        <time>2013-04-10T10:01:09Z</time>
      </trkpt>
      <trkpt lat="44.47859" lon="6.88128">
        <ele>2673.08</ele>
        <time>2013-04-10T10:01:10Z</time>
      </trkpt>
      <trkpt lat="44.47856" lon="6.88129">
        <ele>2669.24</ele>
        <time>2013-04-10T10:01:22Z</time>
      </trkpt>
      <trkpt lat="44.47856" lon="6.88129">
        <ele>2672.6</ele>
        <time>2013-04-10T10:01:24Z</time>
      </trkpt>
      <trkpt lat="44.47856" lon="6.88129">
        <ele>2677.41</ele>
        <time>2013-04-10T10:01:25Z</time>
      </trkpt>
      <trkpt lat="44.47856" lon="6.88129">
        <ele>2676.45</ele>
        <time>2013-04-10T10:01:26Z</time>
      </trkpt>
      <trkpt lat="44.47856" lon="6.88129">
        <ele>2673.56</ele>
        <time>2013-04-10T10:01:29Z</time>
      </trkpt>
      <trkpt lat="44.47856" lon="6.88129">
        <ele>2676.93</ele>
        <time>2013-04-10T10:01:30Z</time>
      </trkpt>
      <trkpt lat="44.47856" lon="6.88129">
        <ele>2681.25</ele>
        <time>2013-04-10T10:01:32Z</time>
      </trkpt>
      <trkpt lat="44.47856" lon="6.88129">
        <ele>2679.81</ele>
        <time>2013-04-10T10:01:33Z</time>
      </trkpt>
      <trkpt lat="44.47856" lon="6.88129">
        <ele>2675.01</ele>
        <time>2013-04-10T10:01:34Z</time>
      </trkpt>
      <trkpt lat="44.47855" lon="6.88128">
        <ele>2677.89</ele>
        <time>2013-04-10T10:01:38Z</time>
      </trkpt>
      <trkpt lat="44.47855" lon="6.88128">
        <ele>2672.6</ele>
        <time>2013-04-10T10:01:40Z</time>
      </trkpt>
      <trkpt lat="44.47855" lon="6.88128">
        <ele>2674.04</ele>
        <time>2013-04-10T10:01:43Z</time>
      </trkpt>
      <trkpt lat="44.47855" lon="6.88128">
        <ele>2684.14</ele>
        <time>2013-04-10T10:01:48Z</time>
      </trkpt>
      <trkpt lat="44.47855" lon="6.88128">
        <ele>2673.56</ele>
        <time>2013-04-10T10:01:49Z</time>
      </trkpt>
      <trkpt lat="44.47854" lon="6.88128">
        <ele>2668.76</ele>
        <time>2013-04-10T10:01:51Z</time>
      </trkpt>
      <trkpt lat="44.47854" lon="6.88127">
        <ele>2668.76</ele>
        <time>2013-04-10T10:01:52Z</time>
      </trkpt>
      <trkpt lat="44.47854" lon="6.88127">
        <ele>2675.01</ele>
        <time>2013-04-10T10:01:56Z</time>
      </trkpt>
      <trkpt lat="44.47853" lon="6.88127">
        <ele>2681.73</ele>
        <time>2013-04-10T10:01:58Z</time>
      </trkpt>
      <trkpt lat="44.47853" lon="6.88127">
        <ele>2685.1</ele>
        <time>2013-04-10T10:01:59Z</time>
      </trkpt>
      <trkpt lat="44.47853" lon="6.88127">
        <ele>2685.1</ele>
        <time>2013-04-10T10:02:00Z</time>
      </trkpt>
      <trkpt lat="44.47853" lon="6.88127">
        <ele>2675.49</ele>
        <time>2013-04-10T10:02:03Z</time>
      </trkpt>
      <trkpt lat="44.47853" lon="6.88127">
        <ele>2670.68</ele>
        <time>2013-04-10T10:02:05Z</time>
      </trkpt>
      <trkpt lat="44.47853" lon="6.88127">
        <ele>2679.81</ele>
        <time>2013-04-10T10:02:08Z</time>
      </trkpt>
      <trkpt lat="44.47853" lon="6.88125">
        <ele>2677.41</ele>
        <time>2013-04-10T10:02:12Z</time>
      </trkpt>
      <trkpt lat="44.47853" lon="6.88126">
        <ele>2675.01</ele>
        <time>2013-04-10T10:02:16Z</time>
      </trkpt>
      <trkpt lat="44.47852" lon="6.88126">
        <ele>2669.72</ele>
        <time>2013-04-10T10:02:19Z</time>
      </trkpt>
      <trkpt lat="44.47851" lon="6.88126">
        <ele>2673.08</ele>
        <time>2013-04-10T10:02:20Z</time>
      </trkpt>
      <trkpt lat="44.47851" lon="6.88126">
        <ele>2678.37</ele>
        <time>2013-04-10T10:02:21Z</time>
      </trkpt>
      <trkpt lat="44.47851" lon="6.88126">
        <ele>2681.73</ele>
        <time>2013-04-10T10:02:23Z</time>
      </trkpt>
      <trkpt lat="44.47851" lon="6.88126">
        <ele>2681.25</ele>
        <time>2013-04-10T10:02:24Z</time>
      </trkpt>
      <trkpt lat="44.4785" lon="6.88126">
        <ele>2678.37</ele>
        <time>2013-04-10T10:02:28Z</time>
      </trkpt>
      <trkpt lat="44.4785" lon="6.88125">
        <ele>2678.37</ele>
        <time>2013-04-10T10:02:29Z</time>
      </trkpt>
      <trkpt lat="44.47849" lon="6.88126">
        <ele>2676.93</ele>
        <time>2013-04-10T10:02:32Z</time>
      </trkpt>
      <trkpt lat="44.47849" lon="6.88126">
        <ele>2674.52</ele>
        <time>2013-04-10T10:02:35Z</time>
      </trkpt>
      <trkpt lat="44.47849" lon="6.88126">
        <ele>2670.68</ele>
        <time>2013-04-10T10:02:36Z</time>
      </trkpt>
      <trkpt lat="44.47849" lon="6.88126">
        <ele>2670.68</ele>
        <time>2013-04-10T10:02:37Z</time>
      </trkpt>
      <trkpt lat="44.47849" lon="6.88125">
        <ele>2675.01</ele>
        <time>2013-04-10T10:02:39Z</time>
      </trkpt>
      <trkpt lat="44.47849" lon="6.88126">
        <ele>2668.76</ele>
        <time>2013-04-10T10:02:40Z</time>
      </trkpt>
      <trkpt lat="44.47849" lon="6.88126">
        <ele>2669.24</ele>
        <time>2013-04-10T10:02:41Z</time>
      </trkpt>
      <trkpt lat="44.47849" lon="6.88126">
        <ele>2672.12</ele>
        <time>2013-04-10T10:02:42Z</time>
      </trkpt>
      <trkpt lat="44.47847" lon="6.88126">
        <ele>2667.8</ele>
        <time>2013-04-10T10:02:44Z</time>
      </trkpt>
      <trkpt lat="44.47845" lon="6.88128">
        <ele>2674.04</ele>
        <time>2013-04-10T10:02:50Z</time>
      </trkpt>
      <trkpt lat="44.47843" lon="6.88128">
        <ele>2677.89</ele>
        <time>2013-04-10T10:02:52Z</time>
      </trkpt>
      <trkpt lat="44.47843" lon="6.88128">
        <ele>2667.8</ele>
        <time>2013-04-10T10:02:53Z</time>
      </trkpt>
      <trkpt lat="44.47843" lon="6.88128">
        <ele>2672.12</ele>
        <time>2013-04-10T10:02:56Z</time>
      </trkpt>
      <trkpt lat="44.47842" lon="6.88128">
        <ele>2670.2</ele>
        <time>2013-04-10T10:02:57Z</time>
      </trkpt>
      <trkpt lat="44.47841" lon="6.88129">
        <ele>2667.31</ele>
        <time>2013-04-10T10:02:59Z</time>
      </trkpt>
      <trkpt lat="44.47838" lon="6.8813">
        <ele>2670.68</ele>
        <time>2013-04-10T10:03:04Z</time>
      </trkpt>
      <trkpt lat="44.47837" lon="6.88129">
        <ele>2670.68</ele>
        <time>2013-04-10T10:03:05Z</time>
      </trkpt>
      <trkpt lat="44.47835" lon="6.88129">
        <ele>2667.31</ele>
        <time>2013-04-10T10:03:07Z</time>
      </trkpt>
      <trkpt lat="44.47833" lon="6.88129">
        <ele>2670.68</ele>
        <time>2013-04-10T10:03:10Z</time>
      </trkpt>
      <trkpt lat="44.47832" lon="6.88129">
        <ele>2670.68</ele>
        <time>2013-04-10T10:03:11Z</time>
      </trkpt>
      <trkpt lat="44.47831" lon="6.88128">
        <ele>2666.35</ele>
        <time>2013-04-10T10:03:13Z</time>
      </trkpt>
      <trkpt lat="44.47828" lon="6.88129">
        <ele>2662.51</ele>
        <time>2013-04-10T10:03:17Z</time>
      </trkpt>
      <trkpt lat="44.47827" lon="6.88129">
        <ele>2662.51</ele>
        <time>2013-04-10T10:03:18Z</time>
      </trkpt>
      <trkpt lat="44.47824" lon="6.88129">
        <ele>2659.62</ele>
        <time>2013-04-10T10:03:22Z</time>
      </trkpt>
      <trkpt lat="44.4782" lon="6.8813">
        <ele>2660.11</ele>
        <time>2013-04-10T10:03:28Z</time>
      </trkpt>
      <trkpt lat="44.47818" lon="6.88131">
        <ele>2662.99</ele>
        <time>2013-04-10T10:03:31Z</time>
      </trkpt>
      <trkpt lat="44.47815" lon="6.88133">
        <ele>2663.95</ele>
        <time>2013-04-10T10:03:38Z</time>
      </trkpt>
      <trkpt lat="44.47814" lon="6.88133">
        <ele>2661.07</ele>
        <time>2013-04-10T10:03:40Z</time>
      </trkpt>
      <trkpt lat="44.47811" lon="6.88132">
        <ele>2663.95</ele>
        <time>2013-04-10T10:03:43Z</time>
      </trkpt>
      <trkpt lat="44.4781" lon="6.88133">
        <ele>2660.11</ele>
        <time>2013-04-10T10:03:45Z</time>
      </trkpt>
      <trkpt lat="44.47809" lon="6.88133">
        <ele>2659.14</ele>
        <time>2013-04-10T10:03:47Z</time>
      </trkpt>
      <trkpt lat="44.47807" lon="6.88133">
        <ele>2662.03</ele>
        <time>2013-04-10T10:03:50Z</time>
      </trkpt>
      <trkpt lat="44.47806" lon="6.88133">
        <ele>2660.11</ele>
        <time>2013-04-10T10:03:52Z</time>
      </trkpt>
      <trkpt lat="44.47806" lon="6.88134">
        <ele>2655.3</ele>
        <time>2013-04-10T10:03:54Z</time>
      </trkpt>
      <trkpt lat="44.47806" lon="6.88134">
        <ele>2655.3</ele>
        <time>2013-04-10T10:03:55Z</time>
      </trkpt>
      <trkpt lat="44.47804" lon="6.88133">
        <ele>2657.7</ele>
        <time>2013-04-10T10:03:58Z</time>
      </trkpt>
      <trkpt lat="44.47801" lon="6.88135">
        <ele>2660.11</ele>
        <time>2013-04-10T10:04:02Z</time>
      </trkpt>
      <trkpt lat="44.47798" lon="6.88136">
        <ele>2659.62</ele>
        <time>2013-04-10T10:04:06Z</time>
      </trkpt>
      <trkpt lat="44.47792" lon="6.88139">
        <ele>2663.95</ele>
        <time>2013-04-10T10:04:15Z</time>
      </trkpt>
      <trkpt lat="44.47791" lon="6.8814">
        <ele>2660.59</ele>
        <time>2013-04-10T10:04:19Z</time>
      </trkpt>
      <trkpt lat="44.47791" lon="6.8814">
        <ele>2659.62</ele>
        <time>2013-04-10T10:04:21Z</time>
      </trkpt>
      <trkpt lat="44.47789" lon="6.8814">
        <ele>2663.95</ele>
        <time>2013-04-10T10:04:27Z</time>
      </trkpt>
      <trkpt lat="44.47789" lon="6.8814">
        <ele>2663.95</ele>
        <time>2013-04-10T10:04:28Z</time>
      </trkpt>
      <trkpt lat="44.47786" lon="6.88141">
        <ele>2664.91</ele>
        <time>2013-04-10T10:04:39Z</time>
      </trkpt>
      <trkpt lat="44.47785" lon="6.88142">
        <ele>2663.95</ele>
        <time>2013-04-10T10:04:41Z</time>
      </trkpt>
      <trkpt lat="44.47784" lon="6.88142">
        <ele>2664.91</ele>
        <time>2013-04-10T10:04:43Z</time>
      </trkpt>
      <trkpt lat="44.4778" lon="6.88143">
        <ele>2668.28</ele>
        <time>2013-04-10T10:04:50Z</time>
      </trkpt>
      <trkpt lat="44.47778" lon="6.88144">
        <ele>2669.24</ele>
        <time>2013-04-10T10:04:52Z</time>
      </trkpt>
      <trkpt lat="44.47771" lon="6.88149">
        <ele>2669.72</ele>
        <time>2013-04-10T10:05:05Z</time>
      </trkpt>
      <trkpt lat="44.47769" lon="6.8815">
        <ele>2673.56</ele>
        <time>2013-04-10T10:05:08Z</time>
      </trkpt>
      <trkpt lat="44.47768" lon="6.8815">
        <ele>2665.39</ele>
        <time>2013-04-10T10:05:10Z</time>
      </trkpt>
      <trkpt lat="44.47768" lon="6.88151">
        <ele>2661.55</ele>
        <time>2013-04-10T10:05:11Z</time>
      </trkpt>
      <trkpt lat="44.47768" lon="6.88151">
        <ele>2669.72</ele>
        <time>2013-04-10T10:05:12Z</time>
      </trkpt>
      <trkpt lat="44.47767" lon="6.88152">
        <ele>2667.8</ele>
        <time>2013-04-10T10:05:13Z</time>
      </trkpt>
      <trkpt lat="44.47767" lon="6.88152">
        <ele>2666.35</ele>
        <time>2013-04-10T10:05:16Z</time>
      </trkpt>
      <trkpt lat="44.47767" lon="6.88152">
        <ele>2658.18</ele>
        <time>2013-04-10T10:05:18Z</time>
      </trkpt>
      <trkpt lat="44.47766" lon="6.88152">
        <ele>2659.62</ele>
        <time>2013-04-10T10:05:19Z</time>
      </trkpt>
      <trkpt lat="44.47766" lon="6.88153">
        <ele>2662.99</ele>
        <time>2013-04-10T10:05:21Z</time>
      </trkpt>
      <trkpt lat="44.47765" lon="6.88153">
        <ele>2662.99</ele>
        <time>2013-04-10T10:05:22Z</time>
      </trkpt>
      <trkpt lat="44.47761" lon="6.88155">
        <ele>2667.31</ele>
        <time>2013-04-10T10:05:29Z</time>
      </trkpt>
      <trkpt lat="44.47759" lon="6.88156">
        <ele>2664.43</ele>
        <time>2013-04-10T10:05:33Z</time>
      </trkpt>
      <trkpt lat="44.47758" lon="6.88156">
        <ele>2665.39</ele>
        <time>2013-04-10T10:05:38Z</time>
      </trkpt>
      <trkpt lat="44.47757" lon="6.88157">
        <ele>2666.83</ele>
        <time>2013-04-10T10:05:41Z</time>
      </trkpt>
      <trkpt lat="44.47755" lon="6.88158">
        <ele>2663.47</ele>
        <time>2013-04-10T10:05:48Z</time>
      </trkpt>
      <trkpt lat="44.47755" lon="6.88158">
        <ele>2670.2</ele>
        <time>2013-04-10T10:05:50Z</time>
      </trkpt>
      <trkpt lat="44.47754" lon="6.88159">
        <ele>2675.49</ele>
        <time>2013-04-10T10:06:00Z</time>
      </trkpt>
      <trkpt lat="44.47754" lon="6.88159">
        <ele>2670.68</ele>
        <time>2013-04-10T10:06:01Z</time>
      </trkpt>
      <trkpt lat="44.47752" lon="6.88161">
        <ele>2668.76</ele>
        <time>2013-04-10T10:06:13Z</time>
      </trkpt>
      <trkpt lat="44.47749" lon="6.88162">
        <ele>2669.72</ele>
        <time>2013-04-10T10:06:25Z</time>
      </trkpt>
      <trkpt lat="44.47749" lon="6.88162">
        <ele>2669.72</ele>
        <time>2013-04-10T10:06:26Z</time>
      </trkpt>
      <trkpt lat="44.47746" lon="6.88163">
        <ele>2666.35</ele>
        <time>2013-04-10T10:06:35Z</time>
      </trkpt>
      <trkpt lat="44.47746" lon="6.88164">
        <ele>2669.24</ele>
        <time>2013-04-10T10:06:39Z</time>
      </trkpt>
      <trkpt lat="44.47743" lon="6.88165">
        <ele>2669.24</ele>
        <time>2013-04-10T10:06:53Z</time>
      </trkpt>
      <trkpt lat="44.47741" lon="6.88165">
        <ele>2670.68</ele>
        <time>2013-04-10T10:06:55Z</time>
      </trkpt>
      <trkpt lat="44.47741" lon="6.88166">
        <ele>2676.93</ele>
        <time>2013-04-10T10:06:59Z</time>
      </trkpt>
      <trkpt lat="44.4774" lon="6.88166">
        <ele>2670.2</ele>
        <time>2013-04-10T10:07:00Z</time>
      </trkpt>
      <trkpt lat="44.4774" lon="6.88166">
        <ele>2667.31</ele>
        <time>2013-04-10T10:07:03Z</time>
      </trkpt>
      <trkpt lat="44.4774" lon="6.88167">
        <ele>2667.31</ele>
        <time>2013-04-10T10:07:04Z</time>
      </trkpt>
      <trkpt lat="44.4774" lon="6.88166">
        <ele>2667.31</ele>
        <time>2013-04-10T10:07:10Z</time>
      </trkpt>
      <trkpt lat="44.47739" lon="6.88167">
        <ele>2669.72</ele>
        <time>2013-04-10T10:07:12Z</time>
      </trkpt>
      <trkpt lat="44.47738" lon="6.88167">
        <ele>2675.97</ele>
        <time>2013-04-10T10:07:15Z</time>
      </trkpt>
      <trkpt lat="44.47738" lon="6.88168">
        <ele>2675.97</ele>
        <time>2013-04-10T10:07:16Z</time>
      </trkpt>
      <trkpt lat="44.47737" lon="6.88168">
        <ele>2679.33</ele>
        <time>2013-04-10T10:07:19Z</time>
      </trkpt>
      <trkpt lat="44.47737" lon="6.88169">
        <ele>2677.41</ele>
        <time>2013-04-10T10:07:24Z</time>
      </trkpt>
      <trkpt lat="44.47736" lon="6.8817">
        <ele>2678.37</ele>
        <time>2013-04-10T10:07:28Z</time>
      </trkpt>
      <trkpt lat="44.47735" lon="6.8817">
        <ele>2673.08</ele>
        <time>2013-04-10T10:07:29Z</time>
      </trkpt>
      <trkpt lat="44.47735" lon="6.8817">
        <ele>2673.08</ele>
        <time>2013-04-10T10:07:30Z</time>
      </trkpt>
      <trkpt lat="44.47732" lon="6.88171">
        <ele>2677.89</ele>
        <time>2013-04-10T10:07:41Z</time>
      </trkpt>
      <trkpt lat="44.47732" lon="6.88171">
        <ele>2673.56</ele>
        <time>2013-04-10T10:07:44Z</time>
      </trkpt>
      <trkpt lat="44.47732" lon="6.88172">
        <ele>2676.93</ele>
        <time>2013-04-10T10:07:47Z</time>
      </trkpt>
      <trkpt lat="44.47732" lon="6.88171">
        <ele>2680.77</ele>
        <time>2013-04-10T10:07:48Z</time>
      </trkpt>
      <trkpt lat="44.47732" lon="6.88171">
        <ele>2675.49</ele>
        <time>2013-04-10T10:07:49Z</time>
      </trkpt>
      <trkpt lat="44.47732" lon="6.88171">
        <ele>2673.08</ele>
        <time>2013-04-10T10:07:51Z</time>
      </trkpt>
      <trkpt lat="44.47732" lon="6.88171">
        <ele>2679.33</ele>
        <time>2013-04-10T10:07:53Z</time>
      </trkpt>
      <trkpt lat="44.47732" lon="6.88171">
        <ele>2686.06</ele>
        <time>2013-04-10T10:07:54Z</time>
      </trkpt>
      <trkpt lat="44.47732" lon="6.88171">
        <ele>2676.45</ele>
        <time>2013-04-10T10:07:55Z</time>
      </trkpt>
      <trkpt lat="44.47732" lon="6.88171">
        <ele>2669.24</ele>
        <time>2013-04-10T10:07:57Z</time>
      </trkpt>
      <trkpt lat="44.47732" lon="6.88171">
        <ele>2670.2</ele>
        <time>2013-04-10T10:07:58Z</time>
      </trkpt>
      <trkpt lat="44.47732" lon="6.88171">
        <ele>2674.52</ele>
        <time>2013-04-10T10:07:59Z</time>
      </trkpt>
      <trkpt lat="44.47732" lon="6.88171">
        <ele>2674.52</ele>
        <time>2013-04-10T10:08:00Z</time>
      </trkpt>
      <trkpt lat="44.47732" lon="6.88171">
        <ele>2672.6</ele>
        <time>2013-04-10T10:08:02Z</time>
      </trkpt>
      <trkpt lat="44.47732" lon="6.88171">
        <ele>2675.49</ele>
        <time>2013-04-10T10:08:05Z</time>
      </trkpt>
      <trkpt lat="44.47732" lon="6.88171">
        <ele>2679.81</ele>
        <time>2013-04-10T10:08:08Z</time>
      </trkpt>
      <trkpt lat="44.47732" lon="6.88171">
        <ele>2673.56</ele>
        <time>2013-04-10T10:08:10Z</time>
      </trkpt>
      <trkpt lat="44.47732" lon="6.88171">
        <ele>2674.52</ele>
        <time>2013-04-10T10:08:11Z</time>
      </trkpt>
      <trkpt lat="44.47732" lon="6.88171">
        <ele>2676.45</ele>
        <time>2013-04-10T10:08:15Z</time>
      </trkpt>
      <trkpt lat="44.47732" lon="6.88172">
        <ele>2680.77</ele>
        <time>2013-04-10T10:08:17Z</time>
      </trkpt>
      <trkpt lat="44.47732" lon="6.88171">
        <ele>2676.93</ele>
        <time>2013-04-10T10:08:18Z</time>
      </trkpt>
      <trkpt lat="44.47732" lon="6.88171">
        <ele>2682.22</ele>
        <time>2013-04-10T10:08:20Z</time>
      </trkpt>
      <trkpt lat="44.47731" lon="6.88172">
        <ele>2676.93</ele>
        <time>2013-04-10T10:08:21Z</time>
      </trkpt>
      <trkpt lat="44.47731" lon="6.88172">
        <ele>2681.25</ele>
        <time>2013-04-10T10:08:23Z</time>
      </trkpt>
      <trkpt lat="44.47731" lon="6.88172">
        <ele>2677.89</ele>
        <time>2013-04-10T10:08:24Z</time>
      </trkpt>
      <trkpt lat="44.47731" lon="6.88172">
        <ele>2683.66</ele>
        <time>2013-04-10T10:08:30Z</time>
      </trkpt>
      <trkpt lat="44.47731" lon="6.88172">
        <ele>2679.33</ele>
        <time>2013-04-10T10:08:31Z</time>
      </trkpt>
      <trkpt lat="44.47731" lon="6.88172">
        <ele>2675.97</ele>
        <time>2013-04-10T10:08:33Z</time>
      </trkpt>
      <trkpt lat="44.47731" lon="6.88172">
        <ele>2679.33</ele>
        <time>2013-04-10T10:08:36Z</time>
      </trkpt>
      <trkpt lat="44.47731" lon="6.88172">
        <ele>2676.45</ele>
        <time>2013-04-10T10:08:38Z</time>
      </trkpt>
      <trkpt lat="44.47731" lon="6.88172">
        <ele>2679.81</ele>
        <time>2013-04-10T10:08:40Z</time>
      </trkpt>
      <trkpt lat="44.47731" lon="6.88172">
        <ele>2680.29</ele>
        <time>2013-04-10T10:08:41Z</time>
      </trkpt>
      <trkpt lat="44.47731" lon="6.88172">
        <ele>2677.89</ele>
        <time>2013-04-10T10:08:43Z</time>
      </trkpt>
      <trkpt lat="44.47731" lon="6.88172">
        <ele>2681.73</ele>
        <time>2013-04-10T10:08:45Z</time>
      </trkpt>
      <trkpt lat="44.47731" lon="6.88172">
        <ele>2677.89</ele>
        <time>2013-04-10T10:08:46Z</time>
      </trkpt>
      <trkpt lat="44.47731" lon="6.88172">
        <ele>2678.85</ele>
        <time>2013-04-10T10:08:50Z</time>
      </trkpt>
      <trkpt lat="44.47731" lon="6.88172">
        <ele>2675.01</ele>
        <time>2013-04-10T10:08:54Z</time>
      </trkpt>
      <trkpt lat="44.47731" lon="6.88172">
        <ele>2675.97</ele>
        <time>2013-04-10T10:08:55Z</time>
      </trkpt>
      <trkpt lat="44.47731" lon="6.88172">
        <ele>2677.89</ele>
        <time>2013-04-10T10:08:57Z</time>
      </trkpt>
      <trkpt lat="44.4773" lon="6.88173">
        <ele>2679.81</ele>
        <time>2013-04-10T10:09:04Z</time>
      </trkpt>
      <trkpt lat="44.4773" lon="6.88172">
        <ele>2683.66</ele>
        <time>2013-04-10T10:09:08Z</time>
      </trkpt>
      <trkpt lat="44.4773" lon="6.88172">
        <ele>2682.7</ele>
        <time>2013-04-10T10:09:09Z</time>
      </trkpt>
      <trkpt lat="44.4773" lon="6.88172">
        <ele>2678.85</ele>
        <time>2013-04-10T10:09:10Z</time>
      </trkpt>
      <trkpt lat="44.4773" lon="6.88172">
        <ele>2679.33</ele>
        <time>2013-04-10T10:09:11Z</time>
      </trkpt>
      <trkpt lat="44.4773" lon="6.88172">
        <ele>2681.73</ele>
        <time>2013-04-10T10:09:13Z</time>
      </trkpt>
      <trkpt lat="44.4773" lon="6.88172">
        <ele>2682.22</ele>
        <time>2013-04-10T10:09:26Z</time>
      </trkpt>
      <trkpt lat="44.4773" lon="6.88172">
        <ele>2682.22</ele>
        <time>2013-04-10T10:09:35Z</time>
      </trkpt>
      <trkpt lat="44.4773" lon="6.88172">
        <ele>2680.77</ele>
        <time>2013-04-10T10:09:37Z</time>
      </trkpt>
      <trkpt lat="44.4773" lon="6.88172">
        <ele>2683.66</ele>
        <time>2013-04-10T10:09:40Z</time>
      </trkpt>
      <trkpt lat="44.4773" lon="6.88172">
        <ele>2684.14</ele>
        <time>2013-04-10T10:09:41Z</time>
      </trkpt>
      <trkpt lat="44.47729" lon="6.88173">
        <ele>2686.54</ele>
        <time>2013-04-10T10:09:57Z</time>
      </trkpt>
      <trkpt lat="44.47729" lon="6.88173">
        <ele>2690.39</ele>
        <time>2013-04-10T10:10:01Z</time>
      </trkpt>
      <trkpt lat="44.4773" lon="6.88172">
        <ele>2687.02</ele>
        <time>2013-04-10T10:10:03Z</time>
      </trkpt>
      <trkpt lat="44.4773" lon="6.88172">
        <ele>2687.98</ele>
        <time>2013-04-10T10:10:08Z</time>
      </trkpt>
      <trkpt lat="44.4773" lon="6.88172">
        <ele>2685.1</ele>
        <time>2013-04-10T10:10:18Z</time>
      </trkpt>
      <trkpt lat="44.47727" lon="6.88172">
        <ele>2684.14</ele>
        <time>2013-04-10T10:10:25Z</time>
      </trkpt>
      <trkpt lat="44.47727" lon="6.88172">
        <ele>2681.25</ele>
        <time>2013-04-10T10:10:28Z</time>
      </trkpt>
      <trkpt lat="44.47727" lon="6.88172">
        <ele>2681.25</ele>
        <time>2013-04-10T10:10:29Z</time>
      </trkpt>
      <trkpt lat="44.47727" lon="6.88172">
        <ele>2684.14</ele>
        <time>2013-04-10T10:10:31Z</time>
      </trkpt>
      <trkpt lat="44.47727" lon="6.88172">
        <ele>2686.06</ele>
        <time>2013-04-10T10:10:35Z</time>
      </trkpt>
      <trkpt lat="44.47727" lon="6.88172">
        <ele>2685.1</ele>
        <time>2013-04-10T10:10:47Z</time>
      </trkpt>
      <trkpt lat="44.47727" lon="6.88172">
        <ele>2687.02</ele>
        <time>2013-04-10T10:10:49Z</time>
      </trkpt>
      <trkpt lat="44.47727" lon="6.88172">
        <ele>2691.35</ele>
        <time>2013-04-10T10:10:56Z</time>
      </trkpt>
      <trkpt lat="44.47727" lon="6.88172">
        <ele>2693.27</ele>
        <time>2013-04-10T10:10:58Z</time>
      </trkpt>
      <trkpt lat="44.47726" lon="6.88173">
        <ele>2693.27</ele>
        <time>2013-04-10T10:11:08Z</time>
      </trkpt>
      <trkpt lat="44.47726" lon="6.88173">
        <ele>2696.64</ele>
        <time>2013-04-10T10:11:10Z</time>
      </trkpt>
      <trkpt lat="44.47726" lon="6.88173">
        <ele>2696.64</ele>
        <time>2013-04-10T10:11:11Z</time>
      </trkpt>
      <trkpt lat="44.47726" lon="6.88173">
        <ele>2691.35</ele>
        <time>2013-04-10T10:11:12Z</time>
      </trkpt>
      <trkpt lat="44.47726" lon="6.88173">
        <ele>2694.71</ele>
        <time>2013-04-10T10:11:13Z</time>
      </trkpt>
      <trkpt lat="44.47726" lon="6.88173">
        <ele>2693.75</ele>
        <time>2013-04-10T10:11:17Z</time>
      </trkpt>
      <trkpt lat="44.47726" lon="6.88173">
        <ele>2689.91</ele>
        <time>2013-04-10T10:11:28Z</time>
      </trkpt>
      <trkpt lat="44.47726" lon="6.88173">
        <ele>2691.35</ele>
        <time>2013-04-10T10:11:34Z</time>
      </trkpt>
      <trkpt lat="44.47726" lon="6.88173">
        <ele>2693.75</ele>
        <time>2013-04-10T10:11:39Z</time>
      </trkpt>
      <trkpt lat="44.47724" lon="6.88173">
        <ele>2695.67</ele>
        <time>2013-04-10T10:11:44Z</time>
      </trkpt>
      <trkpt lat="44.47724" lon="6.88173">
        <ele>2693.27</ele>
        <time>2013-04-10T10:11:46Z</time>
      </trkpt>
      <trkpt lat="44.47723" lon="6.88173">
        <ele>2689.91</ele>
        <time>2013-04-10T10:11:52Z</time>
      </trkpt>
      <trkpt lat="44.47724" lon="6.88173">
        <ele>2687.5</ele>
        <time>2013-04-10T10:11:54Z</time>
      </trkpt>
      <trkpt lat="44.47724" lon="6.88173">
        <ele>2689.43</ele>
        <time>2013-04-10T10:11:56Z</time>
      </trkpt>
      <trkpt lat="44.47723" lon="6.88173">
        <ele>2691.83</ele>
        <time>2013-04-10T10:12:00Z</time>
      </trkpt>
      <trkpt lat="44.4772" lon="6.88175">
        <ele>2691.83</ele>
        <time>2013-04-10T10:12:09Z</time>
      </trkpt>
      <trkpt lat="44.47718" lon="6.88176">
        <ele>2690.87</ele>
        <time>2013-04-10T10:12:11Z</time>
      </trkpt>
      <trkpt lat="44.47717" lon="6.88178">
        <ele>2697.12</ele>
        <time>2013-04-10T10:12:12Z</time>
      </trkpt>
      <trkpt lat="44.47716" lon="6.88179">
        <ele>2694.71</ele>
        <time>2013-04-10T10:12:13Z</time>
      </trkpt>
      <trkpt lat="44.47714" lon="6.8818">
        <ele>2692.79</ele>
        <time>2013-04-10T10:12:15Z</time>
      </trkpt>
      <trkpt lat="44.47713" lon="6.88181">
        <ele>2695.67</ele>
        <time>2013-04-10T10:12:17Z</time>
      </trkpt>
      <trkpt lat="44.47713" lon="6.88181">
        <ele>2696.64</ele>
        <time>2013-04-10T10:12:32Z</time>
      </trkpt>
      <trkpt lat="44.47713" lon="6.88181">
        <ele>2697.6</ele>
        <time>2013-04-10T10:12:43Z</time>
      </trkpt>
      <trkpt lat="44.47713" lon="6.88181">
        <ele>2695.19</ele>
        <time>2013-04-10T10:12:49Z</time>
      </trkpt>
      <trkpt lat="44.47713" lon="6.88181">
        <ele>2697.12</ele>
        <time>2013-04-10T10:12:53Z</time>
      </trkpt>
      <trkpt lat="44.47711" lon="6.88182">
        <ele>2697.6</ele>
        <time>2013-04-10T10:13:07Z</time>
      </trkpt>
      <trkpt lat="44.47711" lon="6.88181">
        <ele>2699.04</ele>
        <time>2013-04-10T10:13:10Z</time>
      </trkpt>
      <trkpt lat="44.47707" lon="6.88187">
        <ele>2699.52</ele>
        <time>2013-04-10T10:13:22Z</time>
      </trkpt>
      <trkpt lat="44.47707" lon="6.88187">
        <ele>2700.48</ele>
        <time>2013-04-10T10:13:30Z</time>
      </trkpt>
      <trkpt lat="44.47707" lon="6.88187">
        <ele>2702.88</ele>
        <time>2013-04-10T10:13:45Z</time>
      </trkpt>
      <trkpt lat="44.47707" lon="6.88187">
        <ele>2704.33</ele>
        <time>2013-04-10T10:13:53Z</time>
      </trkpt>
      <trkpt lat="44.47704" lon="6.88189">
        <ele>2707.69</ele>
        <time>2013-04-10T10:14:04Z</time>
      </trkpt>
      <trkpt lat="44.47704" lon="6.88189">
        <ele>2708.65</ele>
        <time>2013-04-10T10:14:15Z</time>
      </trkpt>
      <trkpt lat="44.47704" lon="6.88189">
        <ele>2711.54</ele>
        <time>2013-04-10T10:14:19Z</time>
      </trkpt>
      <trkpt lat="44.47704" lon="6.88189">
        <ele>2711.06</ele>
        <time>2013-04-10T10:14:23Z</time>
      </trkpt>
      <trkpt lat="44.47704" lon="6.88189">
        <ele>2712.5</ele>
        <time>2013-04-10T10:14:29Z</time>
      </trkpt>
      <trkpt lat="44.47704" lon="6.88189">
        <ele>2711.06</ele>
        <time>2013-04-10T10:14:34Z</time>
      </trkpt>
      <trkpt lat="44.47704" lon="6.88189">
        <ele>2706.73</ele>
        <time>2013-04-10T10:14:35Z</time>
      </trkpt>
      <trkpt lat="44.47704" lon="6.88189">
        <ele>2709.13</ele>
        <time>2013-04-10T10:14:36Z</time>
      </trkpt>
      <trkpt lat="44.47702" lon="6.88191">
        <ele>2702.88</ele>
        <time>2013-04-10T10:14:44Z</time>
      </trkpt>
      <trkpt lat="44.47702" lon="6.88191">
        <ele>2704.81</ele>
        <time>2013-04-10T10:14:45Z</time>
      </trkpt>
      <trkpt lat="44.47702" lon="6.88191">
        <ele>2702.88</ele>
        <time>2013-04-10T10:14:48Z</time>
      </trkpt>
      <trkpt lat="44.47702" lon="6.88191">
        <ele>2703.85</ele>
        <time>2013-04-10T10:14:52Z</time>
      </trkpt>
      <trkpt lat="44.47702" lon="6.88191">
        <ele>2706.73</ele>
        <time>2013-04-10T10:14:59Z</time>
      </trkpt>
      <trkpt lat="44.47702" lon="6.88191">
        <ele>2710.57</ele>
        <time>2013-04-10T10:15:05Z</time>
      </trkpt>
      <trkpt lat="44.47702" lon="6.88191">
        <ele>2709.13</ele>
        <time>2013-04-10T10:15:06Z</time>
      </trkpt>
      <trkpt lat="44.47702" lon="6.88191">
        <ele>2707.21</ele>
        <time>2013-04-10T10:15:08Z</time>
      </trkpt>
      <trkpt lat="44.47701" lon="6.88191">
        <ele>2709.61</ele>
        <time>2013-04-10T10:15:20Z</time>
      </trkpt>
      <trkpt lat="44.47701" lon="6.88191">
        <ele>2708.17</ele>
        <time>2013-04-10T10:15:24Z</time>
      </trkpt>
      <trkpt lat="44.47701" lon="6.88191">
        <ele>2710.57</ele>
        <time>2013-04-10T10:15:30Z</time>
      </trkpt>
      <trkpt lat="44.47701" lon="6.88191">
        <ele>2713.46</ele>
        <time>2013-04-10T10:15:44Z</time>
      </trkpt>
      <trkpt lat="44.47701" lon="6.88191">
        <ele>2711.54</ele>
        <time>2013-04-10T10:15:50Z</time>
      </trkpt>
      <trkpt lat="44.47701" lon="6.88192">
        <ele>2711.54</ele>
        <time>2013-04-10T10:16:02Z</time>
      </trkpt>
      <trkpt lat="44.47701" lon="6.88192">
        <ele>2712.98</ele>
        <time>2013-04-10T10:16:07Z</time>
      </trkpt>
      <trkpt lat="44.477" lon="6.88192">
        <ele>2712.02</ele>
        <time>2013-04-10T10:16:09Z</time>
      </trkpt>
      <trkpt lat="44.47701" lon="6.88192">
        <ele>2712.5</ele>
        <time>2013-04-10T10:16:13Z</time>
      </trkpt>
      <trkpt lat="44.47701" lon="6.88192">
        <ele>2713.46</ele>
        <time>2013-04-10T10:16:25Z</time>
      </trkpt>
      <trkpt lat="44.47701" lon="6.88192">
        <ele>2717.3</ele>
        <time>2013-04-10T10:16:34Z</time>
      </trkpt>
      <trkpt lat="44.47701" lon="6.88192">
        <ele>2716.82</ele>
        <time>2013-04-10T10:16:35Z</time>
      </trkpt>
      <trkpt lat="44.47699" lon="6.88193">
        <ele>2718.75</ele>
        <time>2013-04-10T10:16:46Z</time>
      </trkpt>
      <trkpt lat="44.47699" lon="6.88193">
        <ele>2715.38</ele>
        <time>2013-04-10T10:16:47Z</time>
      </trkpt>
      <trkpt lat="44.47699" lon="6.88193">
        <ele>2714.9</ele>
        <time>2013-04-10T10:16:48Z</time>
      </trkpt>
      <trkpt lat="44.47699" lon="6.88193">
        <ele>2716.82</ele>
        <time>2013-04-10T10:16:52Z</time>
      </trkpt>
      <trkpt lat="44.47699" lon="6.88193">
        <ele>2715.86</ele>
        <time>2013-04-10T10:17:02Z</time>
      </trkpt>
      <trkpt lat="44.477" lon="6.88193">
        <ele>2716.82</ele>
        <time>2013-04-10T10:17:15Z</time>
      </trkpt>
      <trkpt lat="44.47697" lon="6.88192">
        <ele>2716.34</ele>
        <time>2013-04-10T10:17:21Z</time>
      </trkpt>
      <trkpt lat="44.47697" lon="6.88192">
        <ele>2718.75</ele>
        <time>2013-04-10T10:17:29Z</time>
      </trkpt>
      <trkpt lat="44.47697" lon="6.88192">
        <ele>2718.27</ele>
        <time>2013-04-10T10:17:39Z</time>
      </trkpt>
      <trkpt lat="44.47697" lon="6.88192">
        <ele>2719.71</ele>
        <time>2013-04-10T10:17:54Z</time>
      </trkpt>
      <trkpt lat="44.47695" lon="6.88191">
        <ele>2721.15</ele>
        <time>2013-04-10T10:18:01Z</time>
      </trkpt>
      <trkpt lat="44.47695" lon="6.88191">
        <ele>2722.59</ele>
        <time>2013-04-10T10:18:15Z</time>
      </trkpt>
      <trkpt lat="44.47695" lon="6.88191">
        <ele>2722.59</ele>
        <time>2013-04-10T10:18:21Z</time>
      </trkpt>
      <trkpt lat="44.47695" lon="6.88191">
        <ele>2721.15</ele>
        <time>2013-04-10T10:18:25Z</time>
      </trkpt>
      <trkpt lat="44.47695" lon="6.88191">
        <ele>2723.07</ele>
        <time>2013-04-10T10:18:38Z</time>
      </trkpt>
      <trkpt lat="44.47694" lon="6.88192">
        <ele>2725.96</ele>
        <time>2013-04-10T10:18:47Z</time>
      </trkpt>
      <trkpt lat="44.47694" lon="6.88192">
        <ele>2724.03</ele>
        <time>2013-04-10T10:18:54Z</time>
      </trkpt>
      <trkpt lat="44.47694" lon="6.88192">
        <ele>2725.96</ele>
        <time>2013-04-10T10:18:58Z</time>
      </trkpt>
      <trkpt lat="44.47694" lon="6.88192">
        <ele>2726.92</ele>
        <time>2013-04-10T10:19:14Z</time>
      </trkpt>
      <trkpt lat="44.4769" lon="6.88195">
        <ele>2729.8</ele>
        <time>2013-04-10T10:19:21Z</time>
      </trkpt>
      <trkpt lat="44.4769" lon="6.88194">
        <ele>2727.4</ele>
        <time>2013-04-10T10:19:27Z</time>
      </trkpt>
      <trkpt lat="44.4769" lon="6.88194">
        <ele>2730.76</ele>
        <time>2013-04-10T10:19:32Z</time>
      </trkpt>
      <trkpt lat="44.4769" lon="6.88194">
        <ele>2728.36</ele>
        <time>2013-04-10T10:19:45Z</time>
      </trkpt>
      <trkpt lat="44.47678" lon="6.88211">
        <ele>2730.28</ele>
        <time>2013-04-10T10:19:55Z</time>
      </trkpt>
      <trkpt lat="44.47675" lon="6.88215">
        <ele>2732.2</ele>
        <time>2013-04-10T10:20:05Z</time>
      </trkpt>
      <trkpt lat="44.47675" lon="6.88215">
        <ele>2730.76</ele>
        <time>2013-04-10T10:20:08Z</time>
      </trkpt>
      <trkpt lat="44.47675" lon="6.88215">
        <ele>2729.8</ele>
        <time>2013-04-10T10:20:21Z</time>
      </trkpt>
      <trkpt lat="44.47675" lon="6.88215">
        <ele>2728.36</ele>
        <time>2013-04-10T10:20:23Z</time>
      </trkpt>
      <trkpt lat="44.47675" lon="6.88215">
        <ele>2729.32</ele>
        <time>2013-04-10T10:20:26Z</time>
      </trkpt>
      <trkpt lat="44.47675" lon="6.88216">
        <ele>2727.4</ele>
        <time>2013-04-10T10:20:33Z</time>
      </trkpt>
      <trkpt lat="44.47671" lon="6.88215">
        <ele>2729.8</ele>
        <time>2013-04-10T10:20:37Z</time>
      </trkpt>
      <trkpt lat="44.47671" lon="6.88215">
        <ele>2728.36</ele>
        <time>2013-04-10T10:20:39Z</time>
      </trkpt>
      <trkpt lat="44.47671" lon="6.88215">
        <ele>2731.72</ele>
        <time>2013-04-10T10:20:41Z</time>
      </trkpt>
      <trkpt lat="44.47671" lon="6.88215">
        <ele>2730.28</ele>
        <time>2013-04-10T10:20:42Z</time>
      </trkpt>
      <trkpt lat="44.47671" lon="6.88215">
        <ele>2731.24</ele>
        <time>2013-04-10T10:20:56Z</time>
      </trkpt>
      <trkpt lat="44.47671" lon="6.88215">
        <ele>2733.65</ele>
        <time>2013-04-10T10:21:10Z</time>
      </trkpt>
      <trkpt lat="44.47668" lon="6.88218">
        <ele>2734.13</ele>
        <time>2013-04-10T10:21:25Z</time>
      </trkpt>
      <trkpt lat="44.47669" lon="6.88218">
        <ele>2735.57</ele>
        <time>2013-04-10T10:21:38Z</time>
      </trkpt>
      <trkpt lat="44.47669" lon="6.88218">
        <ele>2736.53</ele>
        <time>2013-04-10T10:21:53Z</time>
      </trkpt>
      <trkpt lat="44.47666" lon="6.88217">
        <ele>2737.97</ele>
        <time>2013-04-10T10:22:09Z</time>
      </trkpt>
      <trkpt lat="44.47666" lon="6.88217">
        <ele>2738.93</ele>
        <time>2013-04-10T10:22:25Z</time>
      </trkpt>
      <trkpt lat="44.47666" lon="6.88217">
        <ele>2739.89</ele>
        <time>2013-04-10T10:22:39Z</time>
      </trkpt>
      <trkpt lat="44.47666" lon="6.88217">
        <ele>2741.34</ele>
        <time>2013-04-10T10:22:49Z</time>
      </trkpt>
      <trkpt lat="44.47666" lon="6.88217">
        <ele>2739.89</ele>
        <time>2013-04-10T10:22:52Z</time>
      </trkpt>
      <trkpt lat="44.47666" lon="6.88218">
        <ele>2741.34</ele>
        <time>2013-04-10T10:23:02Z</time>
      </trkpt>
      <trkpt lat="44.47664" lon="6.88216">
        <ele>2743.26</ele>
        <time>2013-04-10T10:23:16Z</time>
      </trkpt>
      <trkpt lat="44.47663" lon="6.88218">
        <ele>2743.26</ele>
        <time>2013-04-10T10:23:29Z</time>
      </trkpt>
      <trkpt lat="44.47662" lon="6.88223">
        <ele>2744.22</ele>
        <time>2013-04-10T10:23:41Z</time>
      </trkpt>
      <trkpt lat="44.47662" lon="6.88223">
        <ele>2745.66</ele>
        <time>2013-04-10T10:23:56Z</time>
      </trkpt>
      <trkpt lat="44.47659" lon="6.88226">
        <ele>2747.1</ele>
        <time>2013-04-10T10:24:10Z</time>
      </trkpt>
      <trkpt lat="44.47659" lon="6.88226">
        <ele>2746.62</ele>
        <time>2013-04-10T10:24:24Z</time>
      </trkpt>
      <trkpt lat="44.47659" lon="6.88226">
        <ele>2747.59</ele>
        <time>2013-04-10T10:24:30Z</time>
      </trkpt>
      <trkpt lat="44.47659" lon="6.88226">
        <ele>2749.51</ele>
        <time>2013-04-10T10:24:43Z</time>
      </trkpt>
      <trkpt lat="44.47657" lon="6.88227">
        <ele>2751.91</ele>
        <time>2013-04-10T10:24:56Z</time>
      </trkpt>
      <trkpt lat="44.47657" lon="6.88227">
        <ele>2749.99</ele>
        <time>2013-04-10T10:25:02Z</time>
      </trkpt>
      <trkpt lat="44.47657" lon="6.88227">
        <ele>2752.39</ele>
        <time>2013-04-10T10:25:17Z</time>
      </trkpt>
      <trkpt lat="44.47657" lon="6.88227">
        <ele>2750.95</ele>
        <time>2013-04-10T10:25:28Z</time>
      </trkpt>
      <trkpt lat="44.47656" lon="6.88228">
        <ele>2752.39</ele>
        <time>2013-04-10T10:25:36Z</time>
      </trkpt>
      <trkpt lat="44.47656" lon="6.88228">
        <ele>2753.35</ele>
        <time>2013-04-10T10:25:49Z</time>
      </trkpt>
      <trkpt lat="44.47656" lon="6.88228">
        <ele>2756.24</ele>
        <time>2013-04-10T10:26:03Z</time>
      </trkpt>
      <trkpt lat="44.47656" lon="6.88228">
        <ele>2758.16</ele>
        <time>2013-04-10T10:26:09Z</time>
      </trkpt>
      <trkpt lat="44.47652" lon="6.88229">
        <ele>2760.08</ele>
        <time>2013-04-10T10:26:21Z</time>
      </trkpt>
      <trkpt lat="44.47643" lon="6.88239">
        <ele>2758.64</ele>
        <time>2013-04-10T10:26:26Z</time>
      </trkpt>
      <trkpt lat="44.47641" lon="6.88242">
        <ele>2759.6</ele>
        <time>2013-04-10T10:26:41Z</time>
      </trkpt>
      <trkpt lat="44.47641" lon="6.88242">
        <ele>2761.04</ele>
        <time>2013-04-10T10:26:44Z</time>
      </trkpt>
      <trkpt lat="44.47641" lon="6.88243">
        <ele>2760.56</ele>
        <time>2013-04-10T10:26:53Z</time>
      </trkpt>
      <trkpt lat="44.47641" lon="6.88243">
        <ele>2759.6</ele>
        <time>2013-04-10T10:27:05Z</time>
      </trkpt>
      <trkpt lat="44.47633" lon="6.88259">
        <ele>2758.64</ele>
        <time>2013-04-10T10:27:19Z</time>
      </trkpt>
      <trkpt lat="44.47628" lon="6.88271">
        <ele>2759.6</ele>
        <time>2013-04-10T10:27:23Z</time>
      </trkpt>
      <trkpt lat="44.47626" lon="6.88278">
        <ele>2760.56</ele>
        <time>2013-04-10T10:27:36Z</time>
      </trkpt>
      <trkpt lat="44.4762" lon="6.88287">
        <ele>2762</ele>
        <time>2013-04-10T10:27:48Z</time>
      </trkpt>
      <trkpt lat="44.4762" lon="6.88287">
        <ele>2762.49</ele>
        <time>2013-04-10T10:28:05Z</time>
      </trkpt>
      <trkpt lat="44.47615" lon="6.88303">
        <ele>2762.49</ele>
        <time>2013-04-10T10:28:22Z</time>
      </trkpt>
      <trkpt lat="44.47612" lon="6.88308">
        <ele>2763.45</ele>
        <time>2013-04-10T10:28:32Z</time>
      </trkpt>
      <trkpt lat="44.47606" lon="6.88327">
        <ele>2765.37</ele>
        <time>2013-04-10T10:28:49Z</time>
      </trkpt>
      <trkpt lat="44.47603" lon="6.88335">
        <ele>2765.37</ele>
        <time>2013-04-10T10:29:08Z</time>
      </trkpt>
      <trkpt lat="44.47603" lon="6.88335">
        <ele>2766.81</ele>
        <time>2013-04-10T10:29:16Z</time>
      </trkpt>
      <trkpt lat="44.47603" lon="6.88335">
        <ele>2768.73</ele>
        <time>2013-04-10T10:29:31Z</time>
      </trkpt>
      <trkpt lat="44.47603" lon="6.88337">
        <ele>2770.18</ele>
        <time>2013-04-10T10:29:45Z</time>
      </trkpt>
      <trkpt lat="44.47603" lon="6.88337">
        <ele>2772.1</ele>
        <time>2013-04-10T10:29:59Z</time>
      </trkpt>
      <trkpt lat="44.47602" lon="6.88339">
        <ele>2773.54</ele>
        <time>2013-04-10T10:30:12Z</time>
      </trkpt>
      <trkpt lat="44.47602" lon="6.88339">
        <ele>2773.06</ele>
        <time>2013-04-10T10:30:24Z</time>
      </trkpt>
      <trkpt lat="44.47602" lon="6.88348">
        <ele>2775.46</ele>
        <time>2013-04-10T10:30:36Z</time>
      </trkpt>
      <trkpt lat="44.47603" lon="6.88348">
        <ele>2776.42</ele>
        <time>2013-04-10T10:30:49Z</time>
      </trkpt>
      <trkpt lat="44.47603" lon="6.88348">
        <ele>2777.39</ele>
        <time>2013-04-10T10:31:03Z</time>
      </trkpt>
      <trkpt lat="44.47603" lon="6.88348">
        <ele>2778.83</ele>
        <time>2013-04-10T10:31:11Z</time>
      </trkpt>
      <trkpt lat="44.47603" lon="6.88353">
        <ele>2779.79</ele>
        <time>2013-04-10T10:31:24Z</time>
      </trkpt>
      <trkpt lat="44.47603" lon="6.88353">
        <ele>2781.23</ele>
        <time>2013-04-10T10:31:35Z</time>
      </trkpt>
      <trkpt lat="44.47603" lon="6.88353">
        <ele>2781.71</ele>
        <time>2013-04-10T10:31:49Z</time>
      </trkpt>
      <trkpt lat="44.47603" lon="6.88356">
        <ele>2783.15</ele>
        <time>2013-04-10T10:32:03Z</time>
      </trkpt>
      <trkpt lat="44.47603" lon="6.88356">
        <ele>2783.63</ele>
        <time>2013-04-10T10:32:17Z</time>
      </trkpt>
      <trkpt lat="44.47603" lon="6.88356">
        <ele>2784.6</ele>
        <time>2013-04-10T10:32:31Z</time>
      </trkpt>
      <trkpt lat="44.47603" lon="6.88356">
        <ele>2784.6</ele>
        <time>2013-04-10T10:32:32Z</time>
      </trkpt>
      <trkpt lat="44.47604" lon="6.88359">
        <ele>2786.04</ele>
        <time>2013-04-10T10:32:38Z</time>
      </trkpt>
      <trkpt lat="44.47604" lon="6.88359">
        <ele>2788.44</ele>
        <time>2013-04-10T10:32:54Z</time>
      </trkpt>
      <trkpt lat="44.47604" lon="6.88359">
        <ele>2787</ele>
        <time>2013-04-10T10:32:56Z</time>
      </trkpt>
      <trkpt lat="44.47604" lon="6.88359">
        <ele>2788.44</ele>
        <time>2013-04-10T10:33:06Z</time>
      </trkpt>
      <trkpt lat="44.47603" lon="6.88368">
        <ele>2789.88</ele>
        <time>2013-04-10T10:33:19Z</time>
      </trkpt>
      <trkpt lat="44.47603" lon="6.88368">
        <ele>2790.84</ele>
        <time>2013-04-10T10:33:33Z</time>
      </trkpt>
      <trkpt lat="44.47603" lon="6.88368">
        <ele>2791.81</ele>
        <time>2013-04-10T10:33:48Z</time>
      </trkpt>
      <trkpt lat="44.476" lon="6.88378">
        <ele>2792.29</ele>
        <time>2013-04-10T10:34:01Z</time>
      </trkpt>
      <trkpt lat="44.476" lon="6.88378">
        <ele>2791.33</ele>
        <time>2013-04-10T10:34:03Z</time>
      </trkpt>
      <trkpt lat="44.476" lon="6.88378">
        <ele>2794.21</ele>
        <time>2013-04-10T10:34:16Z</time>
      </trkpt>
      <trkpt lat="44.476" lon="6.88378">
        <ele>2795.65</ele>
        <time>2013-04-10T10:34:20Z</time>
      </trkpt>
      <trkpt lat="44.47597" lon="6.88384">
        <ele>2796.61</ele>
        <time>2013-04-10T10:34:38Z</time>
      </trkpt>
      <trkpt lat="44.47593" lon="6.88398">
        <ele>2797.09</ele>
        <time>2013-04-10T10:34:51Z</time>
      </trkpt>
      <trkpt lat="44.47594" lon="6.88398">
        <ele>2801.42</ele>
        <time>2013-04-10T10:34:59Z</time>
      </trkpt>
      <trkpt lat="44.47594" lon="6.88398">
        <ele>2798.54</ele>
        <time>2013-04-10T10:35:01Z</time>
      </trkpt>
      <trkpt lat="44.47594" lon="6.88399">
        <ele>2797.57</ele>
        <time>2013-04-10T10:35:03Z</time>
      </trkpt>
      <trkpt lat="44.47594" lon="6.88398">
        <ele>2798.54</ele>
        <time>2013-04-10T10:35:14Z</time>
      </trkpt>
      <trkpt lat="44.47594" lon="6.88398">
        <ele>2799.98</ele>
        <time>2013-04-10T10:35:27Z</time>
      </trkpt>
      <trkpt lat="44.47592" lon="6.88402">
        <ele>2800.94</ele>
        <time>2013-04-10T10:35:41Z</time>
      </trkpt>
      <trkpt lat="44.47592" lon="6.88402">
        <ele>2801.9</ele>
        <time>2013-04-10T10:35:55Z</time>
      </trkpt>
      <trkpt lat="44.47592" lon="6.88402">
        <ele>2801.9</ele>
        <time>2013-04-10T10:35:56Z</time>
      </trkpt>
      <trkpt lat="44.47593" lon="6.88404">
        <ele>2798.54</ele>
        <time>2013-04-10T10:35:57Z</time>
      </trkpt>
      <trkpt lat="44.47593" lon="6.88404">
        <ele>2799.5</ele>
        <time>2013-04-10T10:36:05Z</time>
      </trkpt>
      <trkpt lat="44.47593" lon="6.88404">
        <ele>2802.86</ele>
        <time>2013-04-10T10:36:20Z</time>
      </trkpt>
      <trkpt lat="44.47593" lon="6.88404">
        <ele>2802.86</ele>
        <time>2013-04-10T10:36:21Z</time>
      </trkpt>
      <trkpt lat="44.47593" lon="6.88404">
        <ele>2805.26</ele>
        <time>2013-04-10T10:36:36Z</time>
      </trkpt>
      <trkpt lat="44.47593" lon="6.88407">
        <ele>2807.19</ele>
        <time>2013-04-10T10:36:51Z</time>
      </trkpt>
      <trkpt lat="44.47593" lon="6.88407">
        <ele>2809.11</ele>
        <time>2013-04-10T10:37:02Z</time>
      </trkpt>
      <trkpt lat="44.47593" lon="6.88407">
        <ele>2810.55</ele>
        <time>2013-04-10T10:37:08Z</time>
      </trkpt>
      <trkpt lat="44.47589" lon="6.88421">
        <ele>2811.99</ele>
        <time>2013-04-10T10:37:20Z</time>
      </trkpt>
      <trkpt lat="44.47589" lon="6.88421">
        <ele>2809.11</ele>
        <time>2013-04-10T10:37:40Z</time>
      </trkpt>
      <trkpt lat="44.47589" lon="6.88421">
        <ele>2809.11</ele>
        <time>2013-04-10T10:37:41Z</time>
      </trkpt>
      <trkpt lat="44.47589" lon="6.88421">
        <ele>2811.03</ele>
        <time>2013-04-10T10:37:46Z</time>
      </trkpt>
      <trkpt lat="44.47584" lon="6.88449">
        <ele>2812.96</ele>
        <time>2013-04-10T10:37:57Z</time>
      </trkpt>
      <trkpt lat="44.47584" lon="6.88449">
        <ele>2811.99</ele>
        <time>2013-04-10T10:38:02Z</time>
      </trkpt>
      <trkpt lat="44.47584" lon="6.88449">
        <ele>2814.88</ele>
        <time>2013-04-10T10:38:09Z</time>
      </trkpt>
      <trkpt lat="44.47584" lon="6.88449">
        <ele>2814.4</ele>
        <time>2013-04-10T10:38:13Z</time>
      </trkpt>
      <trkpt lat="44.47584" lon="6.88449">
        <ele>2814.88</ele>
        <time>2013-04-10T10:38:25Z</time>
      </trkpt>
      <trkpt lat="44.47584" lon="6.88449">
        <ele>2814.88</ele>
        <time>2013-04-10T10:38:34Z</time>
      </trkpt>
      <trkpt lat="44.47584" lon="6.88452">
        <ele>2818.72</ele>
        <time>2013-04-10T10:38:44Z</time>
      </trkpt>
      <trkpt lat="44.47584" lon="6.88452">
        <ele>2818.72</ele>
        <time>2013-04-10T10:38:45Z</time>
      </trkpt>
      <trkpt lat="44.47584" lon="6.88452">
        <ele>2817.28</ele>
        <time>2013-04-10T10:38:54Z</time>
      </trkpt>
      <trkpt lat="44.47584" lon="6.88452">
        <ele>2819.68</ele>
        <time>2013-04-10T10:38:57Z</time>
      </trkpt>
      <trkpt lat="44.47584" lon="6.88452">
        <ele>2821.13</ele>
        <time>2013-04-10T10:39:12Z</time>
      </trkpt>
      <trkpt lat="44.47583" lon="6.88457">
        <ele>2820.16</ele>
        <time>2013-04-10T10:39:25Z</time>
      </trkpt>
      <trkpt lat="44.47583" lon="6.88457">
        <ele>2821.13</ele>
        <time>2013-04-10T10:39:39Z</time>
      </trkpt>
      <trkpt lat="44.47583" lon="6.88457">
        <ele>2816.32</ele>
        <time>2013-04-10T10:39:48Z</time>
      </trkpt>
      <trkpt lat="44.47583" lon="6.88457">
        <ele>2818.72</ele>
        <time>2013-04-10T10:39:49Z</time>
      </trkpt>
      <trkpt lat="44.47583" lon="6.88457">
        <ele>2821.13</ele>
        <time>2013-04-10T10:39:51Z</time>
      </trkpt>
      <trkpt lat="44.47583" lon="6.88457">
        <ele>2819.68</ele>
        <time>2013-04-10T10:39:53Z</time>
      </trkpt>
      <trkpt lat="44.47582" lon="6.88462">
        <ele>2817.76</ele>
        <time>2013-04-10T10:39:57Z</time>
      </trkpt>
      <trkpt lat="44.47582" lon="6.88462">
        <ele>2821.61</ele>
        <time>2013-04-10T10:40:00Z</time>
      </trkpt>
      <trkpt lat="44.47582" lon="6.88462">
        <ele>2821.13</ele>
        <time>2013-04-10T10:40:01Z</time>
      </trkpt>
      <trkpt lat="44.47582" lon="6.88462">
        <ele>2821.13</ele>
        <time>2013-04-10T10:40:09Z</time>
      </trkpt>
      <trkpt lat="44.47582" lon="6.88462">
        <ele>2821.13</ele>
        <time>2013-04-10T10:40:27Z</time>
      </trkpt>
      <trkpt lat="44.47582" lon="6.88464">
        <ele>2821.13</ele>
        <time>2013-04-10T10:40:46Z</time>
      </trkpt>
      <trkpt lat="44.47582" lon="6.88464">
        <ele>2821.13</ele>
        <time>2013-04-10T10:41:05Z</time>
      </trkpt>
      <trkpt lat="44.47581" lon="6.88467">
        <ele>2820.65</ele>
        <time>2013-04-10T10:41:22Z</time>
      </trkpt>
      <trkpt lat="44.47581" lon="6.88467">
        <ele>2819.2</ele>
        <time>2013-04-10T10:41:33Z</time>
      </trkpt>
      <trkpt lat="44.47581" lon="6.88467">
        <ele>2817.76</ele>
        <time>2013-04-10T10:41:51Z</time>
      </trkpt>
      <trkpt lat="44.47582" lon="6.88471">
        <ele>2818.24</ele>
        <time>2013-04-10T10:42:08Z</time>
      </trkpt>
      <trkpt lat="44.47582" lon="6.88471">
        <ele>2818.72</ele>
        <time>2013-04-10T10:42:13Z</time>
      </trkpt>
      <trkpt lat="44.47582" lon="6.8848">
        <ele>2821.13</ele>
        <time>2013-04-10T10:42:17Z</time>
      </trkpt>
      <trkpt lat="44.47583" lon="6.88486">
        <ele>2819.68</ele>
        <time>2013-04-10T10:42:19Z</time>
      </trkpt>
      <trkpt lat="44.47582" lon="6.8849">
        <ele>2820.65</ele>
        <time>2013-04-10T10:42:37Z</time>
      </trkpt>
      <trkpt lat="44.47582" lon="6.88495">
        <ele>2819.68</ele>
        <time>2013-04-10T10:43:05Z</time>
      </trkpt>
      <trkpt lat="44.47582" lon="6.88499">
        <ele>2819.68</ele>
        <time>2013-04-10T10:43:23Z</time>
      </trkpt>
      <trkpt lat="44.47582" lon="6.88503">
        <ele>2818.72</ele>
        <time>2013-04-10T10:43:47Z</time>
      </trkpt>
      <trkpt lat="44.47579" lon="6.88516">
        <ele>2820.16</ele>
        <time>2013-04-10T10:44:04Z</time>
      </trkpt>
      <trkpt lat="44.47579" lon="6.88516">
        <ele>2819.68</ele>
        <time>2013-04-10T10:44:12Z</time>
      </trkpt>
      <trkpt lat="44.47578" lon="6.88519">
        <ele>2820.16</ele>
        <time>2013-04-10T10:44:35Z</time>
      </trkpt>
      <trkpt lat="44.47578" lon="6.88519">
        <ele>2816.8</ele>
        <time>2013-04-10T10:44:46Z</time>
      </trkpt>
      <trkpt lat="44.47578" lon="6.88519">
        <ele>2816.8</ele>
        <time>2013-04-10T10:44:47Z</time>
      </trkpt>
      <trkpt lat="44.47578" lon="6.8852">
        <ele>2819.2</ele>
        <time>2013-04-10T10:44:59Z</time>
      </trkpt>
      <trkpt lat="44.47579" lon="6.88526">
        <ele>2815.84</ele>
        <time>2013-04-10T10:45:02Z</time>
      </trkpt>
      <trkpt lat="44.47579" lon="6.88526">
        <ele>2815.84</ele>
        <time>2013-04-10T10:45:03Z</time>
      </trkpt>
      <trkpt lat="44.47579" lon="6.88526">
        <ele>2817.28</ele>
        <time>2013-04-10T10:45:14Z</time>
      </trkpt>
      <trkpt lat="44.47579" lon="6.88526">
        <ele>2815.36</ele>
        <time>2013-04-10T10:45:22Z</time>
      </trkpt>
      <trkpt lat="44.47578" lon="6.88531">
        <ele>2817.76</ele>
        <time>2013-04-10T10:45:51Z</time>
      </trkpt>
      <trkpt lat="44.47575" lon="6.8854">
        <ele>2815.84</ele>
        <time>2013-04-10T10:46:22Z</time>
      </trkpt>
      <trkpt lat="44.47575" lon="6.8854">
        <ele>2816.32</ele>
        <time>2013-04-10T10:46:42Z</time>
      </trkpt>
      <trkpt lat="44.47573" lon="6.88547">
        <ele>2815.84</ele>
        <time>2013-04-10T10:47:02Z</time>
      </trkpt>
      <trkpt lat="44.47573" lon="6.88547">
        <ele>2816.8</ele>
        <time>2013-04-10T10:47:23Z</time>
      </trkpt>
      <trkpt lat="44.47573" lon="6.88547">
        <ele>2815.36</ele>
        <time>2013-04-10T10:47:26Z</time>
      </trkpt>
      <trkpt lat="44.4757" lon="6.88554">
        <ele>2814.88</ele>
        <time>2013-04-10T10:47:50Z</time>
      </trkpt>
      <trkpt lat="44.4757" lon="6.88554">
        <ele>2815.36</ele>
        <time>2013-04-10T10:47:56Z</time>
      </trkpt>
      <trkpt lat="44.47567" lon="6.88562">
        <ele>2818.24</ele>
        <time>2013-04-10T10:48:21Z</time>
      </trkpt>
      <trkpt lat="44.47567" lon="6.88562">
        <ele>2818.24</ele>
        <time>2013-04-10T10:48:22Z</time>
      </trkpt>
      <trkpt lat="44.47567" lon="6.88562">
        <ele>2816.8</ele>
        <time>2013-04-10T10:48:24Z</time>
      </trkpt>
      <trkpt lat="44.47567" lon="6.88562">
        <ele>2816.32</ele>
        <time>2013-04-10T10:48:33Z</time>
      </trkpt>
      <trkpt lat="44.47567" lon="6.88562">
        <ele>2814.4</ele>
        <time>2013-04-10T10:48:38Z</time>
      </trkpt>
      <trkpt lat="44.47567" lon="6.88562">
        <ele>2816.32</ele>
        <time>2013-04-10T10:48:42Z</time>
      </trkpt>
      <trkpt lat="44.4756" lon="6.88577">
        <ele>2815.84</ele>
        <time>2013-04-10T10:49:14Z</time>
      </trkpt>
      <trkpt lat="44.47553" lon="6.88589">
        <ele>2815.84</ele>
        <time>2013-04-10T10:49:41Z</time>
      </trkpt>
      <trkpt lat="44.47553" lon="6.88589">
        <ele>2816.8</ele>
        <time>2013-04-10T10:49:52Z</time>
      </trkpt>
      <trkpt lat="44.47553" lon="6.88589">
        <ele>2817.76</ele>
        <time>2013-04-10T10:50:07Z</time>
      </trkpt>
      <trkpt lat="44.4755" lon="6.88594">
        <ele>2814.4</ele>
        <time>2013-04-10T10:50:24Z</time>
      </trkpt>
      <trkpt lat="44.4755" lon="6.88594">
        <ele>2815.84</ele>
        <time>2013-04-10T10:50:51Z</time>
      </trkpt>
      <trkpt lat="44.4755" lon="6.88594">
        <ele>2818.72</ele>
        <time>2013-04-10T10:50:57Z</time>
      </trkpt>
      <trkpt lat="44.4755" lon="6.88594">
        <ele>2818.72</ele>
        <time>2013-04-10T10:50:58Z</time>
      </trkpt>
      <trkpt lat="44.47549" lon="6.88594">
        <ele>2816.32</ele>
        <time>2013-04-10T10:51:07Z</time>
      </trkpt>
      <trkpt lat="44.47549" lon="6.88594">
        <ele>2817.76</ele>
        <time>2013-04-10T10:51:11Z</time>
      </trkpt>
      <trkpt lat="44.47549" lon="6.88594">
        <ele>2814.4</ele>
        <time>2013-04-10T10:51:20Z</time>
      </trkpt>
      <trkpt lat="44.47549" lon="6.88594">
        <ele>2819.68</ele>
        <time>2013-04-10T10:51:30Z</time>
      </trkpt>
      <trkpt lat="44.47549" lon="6.88594">
        <ele>2818.24</ele>
        <time>2013-04-10T10:51:31Z</time>
      </trkpt>
      <trkpt lat="44.47549" lon="6.88594">
        <ele>2817.28</ele>
        <time>2013-04-10T10:51:33Z</time>
      </trkpt>
      <trkpt lat="44.47549" lon="6.88594">
        <ele>2815.84</ele>
        <time>2013-04-10T10:51:40Z</time>
      </trkpt>
      <trkpt lat="44.47549" lon="6.88595">
        <ele>2817.28</ele>
        <time>2013-04-10T10:51:47Z</time>
      </trkpt>
      <trkpt lat="44.47547" lon="6.88596">
        <ele>2817.28</ele>
        <time>2013-04-10T10:51:57Z</time>
      </trkpt>
      <trkpt lat="44.47547" lon="6.88596">
        <ele>2819.2</ele>
        <time>2013-04-10T10:52:10Z</time>
      </trkpt>
      <trkpt lat="44.47547" lon="6.88596">
        <ele>2819.68</ele>
        <time>2013-04-10T10:52:23Z</time>
      </trkpt>
      <trkpt lat="44.47547" lon="6.88596">
        <ele>2817.76</ele>
        <time>2013-04-10T10:52:26Z</time>
      </trkpt>
      <trkpt lat="44.47547" lon="6.88596">
        <ele>2817.76</ele>
        <time>2013-04-10T10:52:54Z</time>
      </trkpt>
      <trkpt lat="44.47546" lon="6.88597">
        <ele>2817.76</ele>
        <time>2013-04-10T10:53:16Z</time>
      </trkpt>
      <trkpt lat="44.47546" lon="6.88597">
        <ele>2817.76</ele>
        <time>2013-04-10T10:53:40Z</time>
      </trkpt>
      <trkpt lat="44.47545" lon="6.88598">
        <ele>2817.76</ele>
        <time>2013-04-10T10:54:06Z</time>
      </trkpt>
      <trkpt lat="44.47545" lon="6.88598">
        <ele>2819.68</ele>
        <time>2013-04-10T10:54:42Z</time>
      </trkpt>
      <trkpt lat="44.47545" lon="6.88597">
        <ele>2819.2</ele>
        <time>2013-04-10T10:55:21Z</time>
      </trkpt>
      <trkpt lat="44.47544" lon="6.88597">
        <ele>2818.24</ele>
        <time>2013-04-10T10:55:53Z</time>
      </trkpt>
      <trkpt lat="44.47544" lon="6.88597">
        <ele>2818.24</ele>
        <time>2013-04-10T10:56:27Z</time>
      </trkpt>
      <trkpt lat="44.47544" lon="6.88597">
        <ele>2820.16</ele>
        <time>2013-04-10T10:57:04Z</time>
      </trkpt>
      <trkpt lat="44.47544" lon="6.88598">
        <ele>2817.76</ele>
        <time>2013-04-10T10:57:35Z</time>
      </trkpt>
      <trkpt lat="44.47544" lon="6.88598">
        <ele>2817.76</ele>
        <time>2013-04-10T10:58:10Z</time>
      </trkpt>
      <trkpt lat="44.47544" lon="6.88598">
        <ele>2817.76</ele>
        <time>2013-04-10T10:58:44Z</time>
      </trkpt>
      <trkpt lat="44.47544" lon="6.88598">
        <ele>2819.2</ele>
        <time>2013-04-10T10:59:17Z</time>
      </trkpt>
      <trkpt lat="44.47544" lon="6.88598">
        <ele>2817.76</ele>
        <time>2013-04-10T10:59:27Z</time>
      </trkpt>
      <trkpt lat="44.47544" lon="6.88598">
        <ele>2817.76</ele>
        <time>2013-04-10T10:59:35Z</time>
      </trkpt>
      <trkpt lat="44.47542" lon="6.88599">
        <ele>2818.72</ele>
        <time>2013-04-10T10:59:49Z</time>
      </trkpt>
      <trkpt lat="44.47542" lon="6.886">
        <ele>2819.68</ele>
        <time>2013-04-10T11:00:04Z</time>
      </trkpt>
      <trkpt lat="44.47541" lon="6.886">
        <ele>2819.68</ele>
        <time>2013-04-10T11:00:17Z</time>
      </trkpt>
      <trkpt lat="44.47541" lon="6.886">
        <ele>2819.68</ele>
        <time>2013-04-10T11:00:37Z</time>
      </trkpt>
      <trkpt lat="44.47541" lon="6.886">
        <ele>2818.24</ele>
        <time>2013-04-10T11:00:54Z</time>
      </trkpt>
      <trkpt lat="44.47541" lon="6.886">
        <ele>2820.65</ele>
        <time>2013-04-10T11:01:06Z</time>
      </trkpt>
      <trkpt lat="44.47541" lon="6.886">
        <ele>2818.72</ele>
        <time>2013-04-10T11:01:18Z</time>
      </trkpt>
      <trkpt lat="44.47541" lon="6.886">
        <ele>2818.72</ele>
        <time>2013-04-10T11:01:37Z</time>
      </trkpt>
      <trkpt lat="44.47541" lon="6.886">
        <ele>2819.68</ele>
        <time>2013-04-10T11:01:49Z</time>
      </trkpt>
      <trkpt lat="44.47541" lon="6.886">
        <ele>2819.68</ele>
        <time>2013-04-10T11:02:08Z</time>
      </trkpt>
      <trkpt lat="44.47541" lon="6.886">
        <ele>2820.16</ele>
        <time>2013-04-10T11:02:12Z</time>
      </trkpt>
      <trkpt lat="44.47547" lon="6.88595">
        <ele>2818.24</ele>
        <time>2013-04-10T11:02:17Z</time>
      </trkpt>
      <trkpt lat="44.47553" lon="6.88594">
        <ele>2817.28</ele>
        <time>2013-04-10T11:02:31Z</time>
      </trkpt>
      <trkpt lat="44.47553" lon="6.88594">
        <ele>2817.28</ele>
        <time>2013-04-10T11:02:46Z</time>
      </trkpt>
      <trkpt lat="44.47553" lon="6.88593">
        <ele>2817.28</ele>
        <time>2013-04-10T11:02:53Z</time>
      </trkpt>
      <trkpt lat="44.47548" lon="6.88583">
        <ele>2816.32</ele>
        <time>2013-04-10T11:02:59Z</time>
      </trkpt>
      <trkpt lat="44.47552" lon="6.88575">
        <ele>2811.03</ele>
        <time>2013-04-10T11:03:02Z</time>
      </trkpt>
      <trkpt lat="44.47552" lon="6.88572">
        <ele>2811.03</ele>
        <time>2013-04-10T11:03:03Z</time>
      </trkpt>
      <trkpt lat="44.4755" lon="6.88561">
        <ele>2807.67</ele>
        <time>2013-04-10T11:03:07Z</time>
      </trkpt>
      <trkpt lat="44.47551" lon="6.88555">
        <ele>2804.3</ele>
        <time>2013-04-10T11:03:09Z</time>
      </trkpt>
      <trkpt lat="44.4755" lon="6.88555">
        <ele>2802.38</ele>
        <time>2013-04-10T11:03:11Z</time>
      </trkpt>
      <trkpt lat="44.4755" lon="6.88555">
        <ele>2801.9</ele>
        <time>2013-04-10T11:03:25Z</time>
      </trkpt>
      <trkpt lat="44.4755" lon="6.88555">
        <ele>2801.9</ele>
        <time>2013-04-10T11:03:43Z</time>
      </trkpt>
      <trkpt lat="44.47551" lon="6.88556">
        <ele>2801.9</ele>
        <time>2013-04-10T11:03:52Z</time>
      </trkpt>
      <trkpt lat="44.47543" lon="6.88547">
        <ele>2801.9</ele>
        <time>2013-04-10T11:03:58Z</time>
      </trkpt>
      <trkpt lat="44.47546" lon="6.88538">
        <ele>2797.57</ele>
        <time>2013-04-10T11:04:01Z</time>
      </trkpt>
      <trkpt lat="44.47546" lon="6.88534">
        <ele>2797.57</ele>
        <time>2013-04-10T11:04:02Z</time>
      </trkpt>
      <trkpt lat="44.47542" lon="6.8852">
        <ele>2793.25</ele>
        <time>2013-04-10T11:04:06Z</time>
      </trkpt>
      <trkpt lat="44.47547" lon="6.88515">
        <ele>2790.36</ele>
        <time>2013-04-10T11:04:08Z</time>
      </trkpt>
      <trkpt lat="44.47542" lon="6.88511">
        <ele>2787</ele>
        <time>2013-04-10T11:04:11Z</time>
      </trkpt>
      <trkpt lat="44.47542" lon="6.8851">
        <ele>2786.52</ele>
        <time>2013-04-10T11:04:12Z</time>
      </trkpt>
      <trkpt lat="44.47542" lon="6.8851">
        <ele>2787</ele>
        <time>2013-04-10T11:04:25Z</time>
      </trkpt>
      <trkpt lat="44.47542" lon="6.88508">
        <ele>2787</ele>
        <time>2013-04-10T11:04:37Z</time>
      </trkpt>
      <trkpt lat="44.47546" lon="6.88499">
        <ele>2782.67</ele>
        <time>2013-04-10T11:04:41Z</time>
      </trkpt>
      <trkpt lat="44.47546" lon="6.885">
        <ele>2782.67</ele>
        <time>2013-04-10T11:04:42Z</time>
      </trkpt>
      <trkpt lat="44.47546" lon="6.88501">
        <ele>2782.67</ele>
        <time>2013-04-10T11:04:46Z</time>
      </trkpt>
      <trkpt lat="44.47546" lon="6.88501">
        <ele>2782.67</ele>
        <time>2013-04-10T11:04:47Z</time>
      </trkpt>
      <trkpt lat="44.47548" lon="6.88499">
        <ele>2782.67</ele>
        <time>2013-04-10T11:04:59Z</time>
      </trkpt>
      <trkpt lat="44.47551" lon="6.88495">
        <ele>2781.71</ele>
        <time>2013-04-10T11:05:19Z</time>
      </trkpt>
      <trkpt lat="44.4755" lon="6.88489">
        <ele>2779.79</ele>
        <time>2013-04-10T11:05:23Z</time>
      </trkpt>
      <trkpt lat="44.47549" lon="6.88487">
        <ele>2779.79</ele>
        <time>2013-04-10T11:05:24Z</time>
      </trkpt>
      <trkpt lat="44.47553" lon="6.88474">
        <ele>2776.42</ele>
        <time>2013-04-10T11:05:29Z</time>
      </trkpt>
      <trkpt lat="44.47552" lon="6.88469">
        <ele>2775.46</ele>
        <time>2013-04-10T11:05:31Z</time>
      </trkpt>
      <trkpt lat="44.47556" lon="6.88467">
        <ele>2772.1</ele>
        <time>2013-04-10T11:05:33Z</time>
      </trkpt>
      <trkpt lat="44.47557" lon="6.88465">
        <ele>2772.1</ele>
        <time>2013-04-10T11:05:34Z</time>
      </trkpt>
      <trkpt lat="44.47554" lon="6.88459">
        <ele>2770.18</ele>
        <time>2013-04-10T11:05:39Z</time>
      </trkpt>
      <trkpt lat="44.47554" lon="6.88459">
        <ele>2769.7</ele>
        <time>2013-04-10T11:05:58Z</time>
      </trkpt>
      <trkpt lat="44.47554" lon="6.88458">
        <ele>2768.25</ele>
        <time>2013-04-10T11:06:02Z</time>
      </trkpt>
      <trkpt lat="44.47554" lon="6.88458">
        <ele>2768.25</ele>
        <time>2013-04-10T11:06:14Z</time>
      </trkpt>
      <trkpt lat="44.47557" lon="6.8845">
        <ele>2767.29</ele>
        <time>2013-04-10T11:06:18Z</time>
      </trkpt>
      <trkpt lat="44.47561" lon="6.8845">
        <ele>2765.85</ele>
        <time>2013-04-10T11:06:20Z</time>
      </trkpt>
      <trkpt lat="44.4756" lon="6.88449">
        <ele>2765.85</ele>
        <time>2013-04-10T11:06:23Z</time>
      </trkpt>
      <trkpt lat="44.47552" lon="6.88432">
        <ele>2762.49</ele>
        <time>2013-04-10T11:06:29Z</time>
      </trkpt>
      <trkpt lat="44.47551" lon="6.88431">
        <ele>2762.49</ele>
        <time>2013-04-10T11:06:30Z</time>
      </trkpt>
      <trkpt lat="44.47549" lon="6.88429">
        <ele>2761.04</ele>
        <time>2013-04-10T11:06:39Z</time>
      </trkpt>
      <trkpt lat="44.47548" lon="6.88421">
        <ele>2761.04</ele>
        <time>2013-04-10T11:06:42Z</time>
      </trkpt>
      <trkpt lat="44.47556" lon="6.88413">
        <ele>2758.16</ele>
        <time>2013-04-10T11:06:46Z</time>
      </trkpt>
      <trkpt lat="44.47562" lon="6.88416">
        <ele>2757.68</ele>
        <time>2013-04-10T11:06:51Z</time>
      </trkpt>
      <trkpt lat="44.47569" lon="6.88415">
        <ele>2757.2</ele>
        <time>2013-04-10T11:07:03Z</time>
      </trkpt>
      <trkpt lat="44.4757" lon="6.88415">
        <ele>2757.68</ele>
        <time>2013-04-10T11:07:10Z</time>
      </trkpt>
      <trkpt lat="44.47571" lon="6.8839">
        <ele>2753.83</ele>
        <time>2013-04-10T11:07:17Z</time>
      </trkpt>
      <trkpt lat="44.4757" lon="6.88389">
        <ele>2753.83</ele>
        <time>2013-04-10T11:07:18Z</time>
      </trkpt>
      <trkpt lat="44.47569" lon="6.8839">
        <ele>2751.43</ele>
        <time>2013-04-10T11:07:21Z</time>
      </trkpt>
      <trkpt lat="44.47569" lon="6.88391">
        <ele>2752.87</ele>
        <time>2013-04-10T11:07:23Z</time>
      </trkpt>
      <trkpt lat="44.47562" lon="6.88387">
        <ele>2753.83</ele>
        <time>2013-04-10T11:07:37Z</time>
      </trkpt>
      <trkpt lat="44.4756" lon="6.88386">
        <ele>2751.91</ele>
        <time>2013-04-10T11:07:39Z</time>
      </trkpt>
      <trkpt lat="44.47558" lon="6.88384">
        <ele>2750.47</ele>
        <time>2013-04-10T11:07:42Z</time>
      </trkpt>
      <trkpt lat="44.47561" lon="6.88381">
        <ele>2747.59</ele>
        <time>2013-04-10T11:07:46Z</time>
      </trkpt>
      <trkpt lat="44.47561" lon="6.88381">
        <ele>2747.59</ele>
        <time>2013-04-10T11:07:47Z</time>
      </trkpt>
      <trkpt lat="44.4756" lon="6.88368">
        <ele>2745.18</ele>
        <time>2013-04-10T11:07:53Z</time>
      </trkpt>
      <trkpt lat="44.47564" lon="6.88366">
        <ele>2741.82</ele>
        <time>2013-04-10T11:07:55Z</time>
      </trkpt>
      <trkpt lat="44.47564" lon="6.88366">
        <ele>2741.82</ele>
        <time>2013-04-10T11:07:56Z</time>
      </trkpt>
      <trkpt lat="44.47564" lon="6.88366">
        <ele>2742.3</ele>
        <time>2013-04-10T11:08:09Z</time>
      </trkpt>
      <trkpt lat="44.47563" lon="6.88365">
        <ele>2741.82</ele>
        <time>2013-04-10T11:08:26Z</time>
      </trkpt>
      <trkpt lat="44.47563" lon="6.88366">
        <ele>2741.34</ele>
        <time>2013-04-10T11:08:39Z</time>
      </trkpt>
      <trkpt lat="44.47573" lon="6.88353">
        <ele>2738.45</ele>
        <time>2013-04-10T11:08:44Z</time>
      </trkpt>
      <trkpt lat="44.47577" lon="6.88353">
        <ele>2737.97</ele>
        <time>2013-04-10T11:08:51Z</time>
      </trkpt>
      <trkpt lat="44.47577" lon="6.88353">
        <ele>2737.97</ele>
        <time>2013-04-10T11:09:10Z</time>
      </trkpt>
      <trkpt lat="44.47577" lon="6.88353">
        <ele>2737.97</ele>
        <time>2013-04-10T11:09:21Z</time>
      </trkpt>
      <trkpt lat="44.47592" lon="6.88344">
        <ele>2735.09</ele>
        <time>2013-04-10T11:09:30Z</time>
      </trkpt>
      <trkpt lat="44.47591" lon="6.88337">
        <ele>2731.72</ele>
        <time>2013-04-10T11:09:33Z</time>
      </trkpt>
      <trkpt lat="44.47595" lon="6.88334">
        <ele>2730.28</ele>
        <time>2013-04-10T11:09:35Z</time>
      </trkpt>
      <trkpt lat="44.47601" lon="6.88324">
        <ele>2726.92</ele>
        <time>2013-04-10T11:09:38Z</time>
      </trkpt>
      <trkpt lat="44.47603" lon="6.88324">
        <ele>2725.96</ele>
        <time>2013-04-10T11:09:39Z</time>
      </trkpt>
      <trkpt lat="44.47611" lon="6.88315">
        <ele>2723.07</ele>
        <time>2013-04-10T11:09:45Z</time>
      </trkpt>
      <trkpt lat="44.47611" lon="6.88315">
        <ele>2723.07</ele>
        <time>2013-04-10T11:09:48Z</time>
      </trkpt>
      <trkpt lat="44.47616" lon="6.88304">
        <ele>2721.63</ele>
        <time>2013-04-10T11:09:52Z</time>
      </trkpt>
      <trkpt lat="44.47619" lon="6.88302">
        <ele>2720.19</ele>
        <time>2013-04-10T11:09:55Z</time>
      </trkpt>
      <trkpt lat="44.47622" lon="6.88297">
        <ele>2718.75</ele>
        <time>2013-04-10T11:10:03Z</time>
      </trkpt>
      <trkpt lat="44.47622" lon="6.88297">
        <ele>2717.78</ele>
        <time>2013-04-10T11:10:17Z</time>
      </trkpt>
      <trkpt lat="44.47622" lon="6.88297">
        <ele>2718.27</ele>
        <time>2013-04-10T11:10:24Z</time>
      </trkpt>
      <trkpt lat="44.47624" lon="6.88295">
        <ele>2718.27</ele>
        <time>2013-04-10T11:10:27Z</time>
      </trkpt>
      <trkpt lat="44.4763" lon="6.88282">
        <ele>2716.34</ele>
        <time>2013-04-10T11:10:34Z</time>
      </trkpt>
      <trkpt lat="44.47628" lon="6.88282">
        <ele>2714.9</ele>
        <time>2013-04-10T11:10:39Z</time>
      </trkpt>
      <trkpt lat="44.4764" lon="6.88279">
        <ele>2711.06</ele>
        <time>2013-04-10T11:10:46Z</time>
      </trkpt>
      <trkpt lat="44.4764" lon="6.88279">
        <ele>2711.06</ele>
        <time>2013-04-10T11:10:57Z</time>
      </trkpt>
      <trkpt lat="44.47641" lon="6.88278">
        <ele>2711.06</ele>
        <time>2013-04-10T11:11:01Z</time>
      </trkpt>
      <trkpt lat="44.47645" lon="6.88276">
        <ele>2709.13</ele>
        <time>2013-04-10T11:11:05Z</time>
      </trkpt>
      <trkpt lat="44.47645" lon="6.88269">
        <ele>2708.17</ele>
        <time>2013-04-10T11:11:10Z</time>
      </trkpt>
      <trkpt lat="44.47645" lon="6.88269">
        <ele>2706.25</ele>
        <time>2013-04-10T11:11:13Z</time>
      </trkpt>
      <trkpt lat="44.47645" lon="6.88269">
        <ele>2706.73</ele>
        <time>2013-04-10T11:11:15Z</time>
      </trkpt>
      <trkpt lat="44.47652" lon="6.88262">
        <ele>2701.92</ele>
        <time>2013-04-10T11:11:20Z</time>
      </trkpt>
      <trkpt lat="44.47652" lon="6.88262">
        <ele>2701.92</ele>
        <time>2013-04-10T11:11:21Z</time>
      </trkpt>
      <trkpt lat="44.47653" lon="6.88262">
        <ele>2702.4</ele>
        <time>2013-04-10T11:11:35Z</time>
      </trkpt>
      <trkpt lat="44.47653" lon="6.88262">
        <ele>2701.44</ele>
        <time>2013-04-10T11:11:41Z</time>
      </trkpt>
      <trkpt lat="44.47657" lon="6.88259">
        <ele>2701.44</ele>
        <time>2013-04-10T11:11:45Z</time>
      </trkpt>
      <trkpt lat="44.47654" lon="6.88252">
        <ele>2697.6</ele>
        <time>2013-04-10T11:11:50Z</time>
      </trkpt>
      <trkpt lat="44.47654" lon="6.88252">
        <ele>2697.6</ele>
        <time>2013-04-10T11:11:51Z</time>
      </trkpt>
      <trkpt lat="44.47653" lon="6.88253">
        <ele>2697.6</ele>
        <time>2013-04-10T11:11:59Z</time>
      </trkpt>
      <trkpt lat="44.47654" lon="6.8825">
        <ele>2697.6</ele>
        <time>2013-04-10T11:12:01Z</time>
      </trkpt>
      <trkpt lat="44.47665" lon="6.88246">
        <ele>2693.27</ele>
        <time>2013-04-10T11:12:05Z</time>
      </trkpt>
      <trkpt lat="44.47669" lon="6.88245">
        <ele>2693.75</ele>
        <time>2013-04-10T11:12:12Z</time>
      </trkpt>
      <trkpt lat="44.47681" lon="6.88239">
        <ele>2691.83</ele>
        <time>2013-04-10T11:12:18Z</time>
      </trkpt>
      <trkpt lat="44.47683" lon="6.88242">
        <ele>2693.27</ele>
        <time>2013-04-10T11:12:20Z</time>
      </trkpt>
      <trkpt lat="44.47685" lon="6.88244">
        <ele>2693.75</ele>
        <time>2013-04-10T11:12:32Z</time>
      </trkpt>
      <trkpt lat="44.47687" lon="6.88244">
        <ele>2695.19</ele>
        <time>2013-04-10T11:12:41Z</time>
      </trkpt>
      <trkpt lat="44.47693" lon="6.88225">
        <ele>2692.31</ele>
        <time>2013-04-10T11:12:49Z</time>
      </trkpt>
      <trkpt lat="44.47699" lon="6.88218">
        <ele>2689.91</ele>
        <time>2013-04-10T11:12:58Z</time>
      </trkpt>
      <trkpt lat="44.47699" lon="6.88218">
        <ele>2690.39</ele>
        <time>2013-04-10T11:13:03Z</time>
      </trkpt>
      <trkpt lat="44.47705" lon="6.88211">
        <ele>2689.43</ele>
        <time>2013-04-10T11:13:15Z</time>
      </trkpt>
      <trkpt lat="44.4771" lon="6.88209">
        <ele>2689.43</ele>
        <time>2013-04-10T11:13:23Z</time>
      </trkpt>
      <trkpt lat="44.4771" lon="6.88208">
        <ele>2690.87</ele>
        <time>2013-04-10T11:13:34Z</time>
      </trkpt>
      <trkpt lat="44.47711" lon="6.88208">
        <ele>2690.87</ele>
        <time>2013-04-10T11:13:37Z</time>
      </trkpt>
      <trkpt lat="44.47715" lon="6.88205">
        <ele>2689.43</ele>
        <time>2013-04-10T11:13:42Z</time>
      </trkpt>
      <trkpt lat="44.47715" lon="6.88205">
        <ele>2687.02</ele>
        <time>2013-04-10T11:13:46Z</time>
      </trkpt>
      <trkpt lat="44.47714" lon="6.88204">
        <ele>2685.1</ele>
        <time>2013-04-10T11:13:52Z</time>
      </trkpt>
      <trkpt lat="44.47712" lon="6.88202">
        <ele>2685.1</ele>
        <time>2013-04-10T11:13:56Z</time>
      </trkpt>
      <trkpt lat="44.47708" lon="6.88201">
        <ele>2681.73</ele>
        <time>2013-04-10T11:14:01Z</time>
      </trkpt>
      <trkpt lat="44.47708" lon="6.88201">
        <ele>2681.73</ele>
        <time>2013-04-10T11:14:02Z</time>
      </trkpt>
      <trkpt lat="44.47708" lon="6.88202">
        <ele>2683.18</ele>
        <time>2013-04-10T11:14:04Z</time>
      </trkpt>
      <trkpt lat="44.47706" lon="6.88201">
        <ele>2681.73</ele>
        <time>2013-04-10T11:14:17Z</time>
      </trkpt>
      <trkpt lat="44.47707" lon="6.88201">
        <ele>2683.18</ele>
        <time>2013-04-10T11:14:36Z</time>
      </trkpt>
      <trkpt lat="44.47706" lon="6.88201">
        <ele>2681.73</ele>
        <time>2013-04-10T11:14:43Z</time>
      </trkpt>
      <trkpt lat="44.47705" lon="6.88201">
        <ele>2681.25</ele>
        <time>2013-04-10T11:15:04Z</time>
      </trkpt>
      <trkpt lat="44.47705" lon="6.88201">
        <ele>2683.66</ele>
        <time>2013-04-10T11:15:13Z</time>
      </trkpt>
      <trkpt lat="44.47705" lon="6.88201">
        <ele>2680.77</ele>
        <time>2013-04-10T11:15:30Z</time>
      </trkpt>
      <trkpt lat="44.47705" lon="6.88201">
        <ele>2679.33</ele>
        <time>2013-04-10T11:15:46Z</time>
      </trkpt>
      <trkpt lat="44.47706" lon="6.882">
        <ele>2681.25</ele>
        <time>2013-04-10T11:15:50Z</time>
      </trkpt>
      <trkpt lat="44.47707" lon="6.88201">
        <ele>2682.22</ele>
        <time>2013-04-10T11:16:02Z</time>
      </trkpt>
      <trkpt lat="44.47707" lon="6.88201">
        <ele>2681.25</ele>
        <time>2013-04-10T11:16:21Z</time>
      </trkpt>
      <trkpt lat="44.47706" lon="6.88201">
        <ele>2681.25</ele>
        <time>2013-04-10T11:16:50Z</time>
      </trkpt>
      <trkpt lat="44.47706" lon="6.88201">
        <ele>2682.7</ele>
        <time>2013-04-10T11:17:11Z</time>
      </trkpt>
      <trkpt lat="44.47707" lon="6.882">
        <ele>2680.29</ele>
        <time>2013-04-10T11:17:37Z</time>
      </trkpt>
      <trkpt lat="44.47707" lon="6.882">
        <ele>2681.73</ele>
        <time>2013-04-10T11:17:45Z</time>
      </trkpt>
      <trkpt lat="44.47707" lon="6.882">
        <ele>2681.73</ele>
        <time>2013-04-10T11:17:52Z</time>
      </trkpt>
      <trkpt lat="44.47706" lon="6.882">
        <ele>2680.29</ele>
        <time>2013-04-10T11:18:02Z</time>
      </trkpt>
      <trkpt lat="44.47706" lon="6.88201">
        <ele>2680.77</ele>
        <time>2013-04-10T11:18:09Z</time>
      </trkpt>
      <trkpt lat="44.47706" lon="6.88201">
        <ele>2681.73</ele>
        <time>2013-04-10T11:18:33Z</time>
      </trkpt>
      <trkpt lat="44.47706" lon="6.88201">
        <ele>2682.22</ele>
        <time>2013-04-10T11:18:40Z</time>
      </trkpt>
      <trkpt lat="44.47707" lon="6.88201">
        <ele>2680.77</ele>
        <time>2013-04-10T11:18:54Z</time>
      </trkpt>
      <trkpt lat="44.47707" lon="6.88201">
        <ele>2679.81</ele>
        <time>2013-04-10T11:19:12Z</time>
      </trkpt>
      <trkpt lat="44.47707" lon="6.88201">
        <ele>2682.22</ele>
        <time>2013-04-10T11:19:15Z</time>
      </trkpt>
      <trkpt lat="44.47707" lon="6.882">
        <ele>2682.22</ele>
        <time>2013-04-10T11:19:35Z</time>
      </trkpt>
      <trkpt lat="44.47707" lon="6.882">
        <ele>2682.22</ele>
        <time>2013-04-10T11:19:51Z</time>
      </trkpt>
      <trkpt lat="44.47707" lon="6.882">
        <ele>2682.22</ele>
        <time>2013-04-10T11:19:59Z</time>
      </trkpt>
      <trkpt lat="44.47708" lon="6.88191">
        <ele>2676.93</ele>
        <time>2013-04-10T11:20:03Z</time>
      </trkpt>
      <trkpt lat="44.4771" lon="6.88189">
        <ele>2674.52</ele>
        <time>2013-04-10T11:20:13Z</time>
      </trkpt>
      <trkpt lat="44.4771" lon="6.88188">
        <ele>2674.52</ele>
        <time>2013-04-10T11:20:18Z</time>
      </trkpt>
      <trkpt lat="44.47716" lon="6.88177">
        <ele>2671.16</ele>
        <time>2013-04-10T11:20:22Z</time>
      </trkpt>
      <trkpt lat="44.47716" lon="6.88177">
        <ele>2671.16</ele>
        <time>2013-04-10T11:20:23Z</time>
      </trkpt>
      <trkpt lat="44.47716" lon="6.88177">
        <ele>2671.16</ele>
        <time>2013-04-10T11:20:25Z</time>
      </trkpt>
      <trkpt lat="44.47725" lon="6.88169">
        <ele>2667.8</ele>
        <time>2013-04-10T11:20:30Z</time>
      </trkpt>
      <trkpt lat="44.47727" lon="6.88168">
        <ele>2667.8</ele>
        <time>2013-04-10T11:20:31Z</time>
      </trkpt>
      <trkpt lat="44.47741" lon="6.88159">
        <ele>2666.83</ele>
        <time>2013-04-10T11:20:42Z</time>
      </trkpt>
      <trkpt lat="44.47757" lon="6.88154">
        <ele>2665.87</ele>
        <time>2013-04-10T11:20:48Z</time>
      </trkpt>
      <trkpt lat="44.47778" lon="6.88146">
        <ele>2668.28</ele>
        <time>2013-04-10T11:20:59Z</time>
      </trkpt>
      <trkpt lat="44.47782" lon="6.88144">
        <ele>2664.91</ele>
        <time>2013-04-10T11:21:08Z</time>
      </trkpt>
      <trkpt lat="44.47791" lon="6.88141">
        <ele>2662.03</ele>
        <time>2013-04-10T11:21:12Z</time>
      </trkpt>
      <trkpt lat="44.478" lon="6.88138">
        <ele>2662.99</ele>
        <time>2013-04-10T11:21:16Z</time>
      </trkpt>
      <trkpt lat="44.47805" lon="6.88136">
        <ele>2661.55</ele>
        <time>2013-04-10T11:21:21Z</time>
      </trkpt>
      <trkpt lat="44.47809" lon="6.88135">
        <ele>2664.43</ele>
        <time>2013-04-10T11:21:33Z</time>
      </trkpt>
      <trkpt lat="44.47809" lon="6.88135">
        <ele>2662.99</ele>
        <time>2013-04-10T11:21:40Z</time>
      </trkpt>
      <trkpt lat="44.47812" lon="6.88133">
        <ele>2663.47</ele>
        <time>2013-04-10T11:21:55Z</time>
      </trkpt>
      <trkpt lat="44.47814" lon="6.88133">
        <ele>2666.83</ele>
        <time>2013-04-10T11:22:02Z</time>
      </trkpt>
      <trkpt lat="44.47814" lon="6.88133">
        <ele>2666.83</ele>
        <time>2013-04-10T11:22:03Z</time>
      </trkpt>
      <trkpt lat="44.47817" lon="6.88132">
        <ele>2667.31</ele>
        <time>2013-04-10T11:22:10Z</time>
      </trkpt>
      <trkpt lat="44.47818" lon="6.88132">
        <ele>2663.95</ele>
        <time>2013-04-10T11:22:15Z</time>
      </trkpt>
      <trkpt lat="44.4782" lon="6.88132">
        <ele>2664.91</ele>
        <time>2013-04-10T11:22:22Z</time>
      </trkpt>
      <trkpt lat="44.47821" lon="6.88131">
        <ele>2667.8</ele>
        <time>2013-04-10T11:22:31Z</time>
      </trkpt>
      <trkpt lat="44.47822" lon="6.88131">
        <ele>2664.91</ele>
        <time>2013-04-10T11:22:37Z</time>
      </trkpt>
      <trkpt lat="44.47822" lon="6.8813">
        <ele>2664.91</ele>
        <time>2013-04-10T11:22:38Z</time>
      </trkpt>
      <trkpt lat="44.47823" lon="6.8813">
        <ele>2668.76</ele>
        <time>2013-04-10T11:22:48Z</time>
      </trkpt>
      <trkpt lat="44.47823" lon="6.8813">
        <ele>2671.64</ele>
        <time>2013-04-10T11:22:51Z</time>
      </trkpt>
      <trkpt lat="44.47823" lon="6.8813">
        <ele>2668.28</ele>
        <time>2013-04-10T11:22:53Z</time>
      </trkpt>
      <trkpt lat="44.47823" lon="6.8813">
        <ele>2668.28</ele>
        <time>2013-04-10T11:22:54Z</time>
      </trkpt>
      <trkpt lat="44.47823" lon="6.8813">
        <ele>2666.83</ele>
        <time>2013-04-10T11:23:01Z</time>
      </trkpt>
      <trkpt lat="44.47827" lon="6.88129">
        <ele>2665.39</ele>
        <time>2013-04-10T11:23:17Z</time>
      </trkpt>
      <trkpt lat="44.47828" lon="6.88129">
        <ele>2668.28</ele>
        <time>2013-04-10T11:23:22Z</time>
      </trkpt>
      <trkpt lat="44.47828" lon="6.88129">
        <ele>2665.39</ele>
        <time>2013-04-10T11:23:24Z</time>
      </trkpt>
      <trkpt lat="44.4783" lon="6.88129">
        <ele>2666.83</ele>
        <time>2013-04-10T11:23:33Z</time>
      </trkpt>
      <trkpt lat="44.47832" lon="6.88129">
        <ele>2667.8</ele>
        <time>2013-04-10T11:23:44Z</time>
      </trkpt>
      <trkpt lat="44.47834" lon="6.88128">
        <ele>2668.28</ele>
        <time>2013-04-10T11:23:54Z</time>
      </trkpt>
      <trkpt lat="44.47836" lon="6.88129">
        <ele>2669.72</ele>
        <time>2013-04-10T11:24:03Z</time>
      </trkpt>
      <trkpt lat="44.47837" lon="6.8813">
        <ele>2668.28</ele>
        <time>2013-04-10T11:24:20Z</time>
      </trkpt>
      <trkpt lat="44.47839" lon="6.88129">
        <ele>2670.68</ele>
        <time>2013-04-10T11:24:30Z</time>
      </trkpt>
      <trkpt lat="44.47839" lon="6.88129">
        <ele>2672.6</ele>
        <time>2013-04-10T11:24:34Z</time>
      </trkpt>
      <trkpt lat="44.4784" lon="6.88129">
        <ele>2671.16</ele>
        <time>2013-04-10T11:24:39Z</time>
      </trkpt>
      <trkpt lat="44.47842" lon="6.88129">
        <ele>2672.12</ele>
        <time>2013-04-10T11:24:47Z</time>
      </trkpt>
      <trkpt lat="44.47842" lon="6.88129">
        <ele>2676.45</ele>
        <time>2013-04-10T11:24:51Z</time>
      </trkpt>
      <trkpt lat="44.47842" lon="6.88129">
        <ele>2676.45</ele>
        <time>2013-04-10T11:24:52Z</time>
      </trkpt>
      <trkpt lat="44.47842" lon="6.88129">
        <ele>2674.04</ele>
        <time>2013-04-10T11:24:56Z</time>
      </trkpt>
      <trkpt lat="44.47842" lon="6.88129">
        <ele>2670.68</ele>
        <time>2013-04-10T11:25:00Z</time>
      </trkpt>
      <trkpt lat="44.47842" lon="6.88129">
        <ele>2674.04</ele>
        <time>2013-04-10T11:25:06Z</time>
      </trkpt>
      <trkpt lat="44.47845" lon="6.88127">
        <ele>2677.41</ele>
        <time>2013-04-10T11:25:14Z</time>
      </trkpt>
      <trkpt lat="44.47845" lon="6.88128">
        <ele>2681.25</ele>
        <time>2013-04-10T11:25:17Z</time>
      </trkpt>
      <trkpt lat="44.47846" lon="6.88127">
        <ele>2675.97</ele>
        <time>2013-04-10T11:25:19Z</time>
      </trkpt>
      <trkpt lat="44.47846" lon="6.88126">
        <ele>2675.97</ele>
        <time>2013-04-10T11:25:20Z</time>
      </trkpt>
      <trkpt lat="44.47847" lon="6.88126">
        <ele>2674.52</ele>
        <time>2013-04-10T11:25:24Z</time>
      </trkpt>
      <trkpt lat="44.47848" lon="6.88125">
        <ele>2676.45</ele>
        <time>2013-04-10T11:25:28Z</time>
      </trkpt>
      <trkpt lat="44.47848" lon="6.88125">
        <ele>2674.52</ele>
        <time>2013-04-10T11:25:31Z</time>
      </trkpt>
      <trkpt lat="44.47849" lon="6.88126">
        <ele>2675.49</ele>
        <time>2013-04-10T11:25:33Z</time>
      </trkpt>
      <trkpt lat="44.47849" lon="6.88126">
        <ele>2674.04</ele>
        <time>2013-04-10T11:25:35Z</time>
      </trkpt>
      <trkpt lat="44.47849" lon="6.88126">
        <ele>2672.6</ele>
        <time>2013-04-10T11:25:37Z</time>
      </trkpt>
      <trkpt lat="44.47851" lon="6.88129">
        <ele>2673.56</ele>
        <time>2013-04-10T11:25:48Z</time>
      </trkpt>
      <trkpt lat="44.47852" lon="6.88129">
        <ele>2670.2</ele>
        <time>2013-04-10T11:25:55Z</time>
      </trkpt>
      <trkpt lat="44.47852" lon="6.88129">
        <ele>2670.2</ele>
        <time>2013-04-10T11:25:56Z</time>
      </trkpt>
      <trkpt lat="44.47852" lon="6.88129">
        <ele>2672.12</ele>
        <time>2013-04-10T11:25:58Z</time>
      </trkpt>
      <trkpt lat="44.47853" lon="6.8813">
        <ele>2669.24</ele>
        <time>2013-04-10T11:26:08Z</time>
      </trkpt>
      <trkpt lat="44.47853" lon="6.8813">
        <ele>2672.6</ele>
        <time>2013-04-10T11:26:19Z</time>
      </trkpt>
      <trkpt lat="44.47853" lon="6.8813">
        <ele>2672.6</ele>
        <time>2013-04-10T11:26:20Z</time>
      </trkpt>
      <trkpt lat="44.47853" lon="6.8813">
        <ele>2674.52</ele>
        <time>2013-04-10T11:26:27Z</time>
      </trkpt>
      <trkpt lat="44.47853" lon="6.8813">
        <ele>2669.72</ele>
        <time>2013-04-10T11:26:31Z</time>
      </trkpt>
      <trkpt lat="44.47853" lon="6.8813">
        <ele>2674.52</ele>
        <time>2013-04-10T11:26:32Z</time>
      </trkpt>
      <trkpt lat="44.47853" lon="6.8813">
        <ele>2672.6</ele>
        <time>2013-04-10T11:26:35Z</time>
      </trkpt>
      <trkpt lat="44.47853" lon="6.8813">
        <ele>2674.04</ele>
        <time>2013-04-10T11:26:46Z</time>
      </trkpt>
      <trkpt lat="44.47855" lon="6.88132">
        <ele>2672.12</ele>
        <time>2013-04-10T11:26:52Z</time>
      </trkpt>
      <trkpt lat="44.47855" lon="6.88132">
        <ele>2673.56</ele>
        <time>2013-04-10T11:27:00Z</time>
      </trkpt>
      <trkpt lat="44.47855" lon="6.88132">
        <ele>2675.01</ele>
        <time>2013-04-10T11:27:11Z</time>
      </trkpt>
      <trkpt lat="44.47855" lon="6.88132">
        <ele>2674.52</ele>
        <time>2013-04-10T11:27:16Z</time>
      </trkpt>
      <trkpt lat="44.47855" lon="6.88132">
        <ele>2672.12</ele>
        <time>2013-04-10T11:27:22Z</time>
      </trkpt>
      <trkpt lat="44.47855" lon="6.88132">
        <ele>2669.72</ele>
        <time>2013-04-10T11:27:26Z</time>
      </trkpt>
      <trkpt lat="44.47855" lon="6.88132">
        <ele>2670.68</ele>
        <time>2013-04-10T11:27:36Z</time>
      </trkpt>
      <trkpt lat="44.47855" lon="6.88132">
        <ele>2672.6</ele>
        <time>2013-04-10T11:27:58Z</time>
      </trkpt>
      <trkpt lat="44.47855" lon="6.88132">
        <ele>2670.2</ele>
        <time>2013-04-10T11:28:01Z</time>
      </trkpt>
      <trkpt lat="44.47855" lon="6.88132">
        <ele>2673.08</ele>
        <time>2013-04-10T11:28:06Z</time>
      </trkpt>
      <trkpt lat="44.47856" lon="6.88132">
        <ele>2673.56</ele>
        <time>2013-04-10T11:28:15Z</time>
      </trkpt>
      <trkpt lat="44.47856" lon="6.88132">
        <ele>2672.12</ele>
        <time>2013-04-10T11:28:21Z</time>
      </trkpt>
      <trkpt lat="44.47856" lon="6.88132">
        <ele>2669.24</ele>
        <time>2013-04-10T11:28:32Z</time>
      </trkpt>
      <trkpt lat="44.47856" lon="6.88132">
        <ele>2671.16</ele>
        <time>2013-04-10T11:28:37Z</time>
      </trkpt>
      <trkpt lat="44.47856" lon="6.88132">
        <ele>2669.72</ele>
        <time>2013-04-10T11:28:43Z</time>
      </trkpt>
      <trkpt lat="44.47856" lon="6.88132">
        <ele>2672.12</ele>
        <time>2013-04-10T11:28:46Z</time>
      </trkpt>
      <trkpt lat="44.47856" lon="6.88132">
        <ele>2670.68</ele>
        <time>2013-04-10T11:28:50Z</time>
      </trkpt>
      <trkpt lat="44.47856" lon="6.88132">
        <ele>2675.97</ele>
        <time>2013-04-10T11:28:52Z</time>
      </trkpt>
      <trkpt lat="44.47856" lon="6.88132">
        <ele>2675.97</ele>
        <time>2013-04-10T11:28:53Z</time>
      </trkpt>
      <trkpt lat="44.47856" lon="6.88132">
        <ele>2672.6</ele>
        <time>2013-04-10T11:28:56Z</time>
      </trkpt>
      <trkpt lat="44.47856" lon="6.88132">
        <ele>2672.6</ele>
        <time>2013-04-10T11:28:57Z</time>
      </trkpt>
      <trkpt lat="44.47856" lon="6.88133">
        <ele>2668.76</ele>
        <time>2013-04-10T11:29:10Z</time>
      </trkpt>
      <trkpt lat="44.47856" lon="6.88132">
        <ele>2668.76</ele>
        <time>2013-04-10T11:29:11Z</time>
      </trkpt>
      <trkpt lat="44.47857" lon="6.88132">
        <ele>2668.76</ele>
        <time>2013-04-10T11:29:25Z</time>
      </trkpt>
      <trkpt lat="44.47857" lon="6.88132">
        <ele>2670.2</ele>
        <time>2013-04-10T11:29:28Z</time>
      </trkpt>
      <trkpt lat="44.47858" lon="6.88133">
        <ele>2669.72</ele>
        <time>2013-04-10T11:29:35Z</time>
      </trkpt>
      <trkpt lat="44.47859" lon="6.88133">
        <ele>2668.76</ele>
        <time>2013-04-10T11:29:52Z</time>
      </trkpt>
      <trkpt lat="44.47876" lon="6.88142">
        <ele>2665.39</ele>
        <time>2013-04-10T11:30:00Z</time>
      </trkpt>
      <trkpt lat="44.47876" lon="6.88151">
        <ele>2662.03</ele>
        <time>2013-04-10T11:30:03Z</time>
      </trkpt>
      <trkpt lat="44.47873" lon="6.88157">
        <ele>2659.14</ele>
        <time>2013-04-10T11:30:05Z</time>
      </trkpt>
      <trkpt lat="44.47873" lon="6.88164">
        <ele>2654.34</ele>
        <time>2013-04-10T11:30:08Z</time>
      </trkpt>
      <trkpt lat="44.47872" lon="6.88168">
        <ele>2651.93</ele>
        <time>2013-04-10T11:30:09Z</time>
      </trkpt>
      <trkpt lat="44.47873" lon="6.88172">
        <ele>2651.45</ele>
        <time>2013-04-10T11:30:10Z</time>
      </trkpt>
      <trkpt lat="44.47876" lon="6.88175">
        <ele>2649.53</ele>
        <time>2013-04-10T11:30:11Z</time>
      </trkpt>
      <trkpt lat="44.47879" lon="6.88177">
        <ele>2647.61</ele>
        <time>2013-04-10T11:30:12Z</time>
      </trkpt>
      <trkpt lat="44.47882" lon="6.88178">
        <ele>2647.61</ele>
        <time>2013-04-10T11:30:13Z</time>
      </trkpt>
      <trkpt lat="44.47884" lon="6.8818">
        <ele>2647.13</ele>
        <time>2013-04-10T11:30:14Z</time>
      </trkpt>
      <trkpt lat="44.47886" lon="6.88183">
        <ele>2647.13</ele>
        <time>2013-04-10T11:30:15Z</time>
      </trkpt>
      <trkpt lat="44.47884" lon="6.88186">
        <ele>2646.65</ele>
        <time>2013-04-10T11:30:16Z</time>
      </trkpt>
      <trkpt lat="44.47882" lon="6.88188">
        <ele>2643.28</ele>
        <time>2013-04-10T11:30:17Z</time>
      </trkpt>
      <trkpt lat="44.47883" lon="6.88186">
        <ele>2641.84</ele>
        <time>2013-04-10T11:30:19Z</time>
      </trkpt>
      <trkpt lat="44.47883" lon="6.88186">
        <ele>2643.28</ele>
        <time>2013-04-10T11:30:21Z</time>
      </trkpt>
      <trkpt lat="44.47883" lon="6.88186">
        <ele>2643.76</ele>
        <time>2013-04-10T11:30:33Z</time>
      </trkpt>
      <trkpt lat="44.47883" lon="6.88186">
        <ele>2641.84</ele>
        <time>2013-04-10T11:30:48Z</time>
      </trkpt>
      <trkpt lat="44.47883" lon="6.88185">
        <ele>2643.28</ele>
        <time>2013-04-10T11:30:56Z</time>
      </trkpt>
      <trkpt lat="44.47883" lon="6.88185">
        <ele>2643.76</ele>
        <time>2013-04-10T11:31:17Z</time>
      </trkpt>
      <trkpt lat="44.47882" lon="6.88185">
        <ele>2644.72</ele>
        <time>2013-04-10T11:31:37Z</time>
      </trkpt>
      <trkpt lat="44.47882" lon="6.88185">
        <ele>2643.28</ele>
        <time>2013-04-10T11:31:46Z</time>
      </trkpt>
      <trkpt lat="44.47882" lon="6.88184">
        <ele>2643.28</ele>
        <time>2013-04-10T11:32:06Z</time>
      </trkpt>
      <trkpt lat="44.47883" lon="6.88185">
        <ele>2642.8</ele>
        <time>2013-04-10T11:32:21Z</time>
      </trkpt>
      <trkpt lat="44.47883" lon="6.88185">
        <ele>2645.69</ele>
        <time>2013-04-10T11:32:30Z</time>
      </trkpt>
      <trkpt lat="44.47883" lon="6.88185">
        <ele>2644.24</ele>
        <time>2013-04-10T11:32:32Z</time>
      </trkpt>
      <trkpt lat="44.47883" lon="6.88185">
        <ele>2645.69</ele>
        <time>2013-04-10T11:32:36Z</time>
      </trkpt>
      <trkpt lat="44.47883" lon="6.88185">
        <ele>2644.24</ele>
        <time>2013-04-10T11:32:42Z</time>
      </trkpt>
      <trkpt lat="44.47883" lon="6.88184">
        <ele>2643.76</ele>
        <time>2013-04-10T11:33:01Z</time>
      </trkpt>
      <trkpt lat="44.47883" lon="6.88184">
        <ele>2644.24</ele>
        <time>2013-04-10T11:33:21Z</time>
      </trkpt>
      <trkpt lat="44.47881" lon="6.88186">
        <ele>2644.24</ele>
        <time>2013-04-10T11:33:33Z</time>
      </trkpt>
      <trkpt lat="44.47881" lon="6.88193">
        <ele>2641.36</ele>
        <time>2013-04-10T11:33:35Z</time>
      </trkpt>
      <trkpt lat="44.47881" lon="6.88196">
        <ele>2641.36</ele>
        <time>2013-04-10T11:33:36Z</time>
      </trkpt>
      <trkpt lat="44.47878" lon="6.88202">
        <ele>2636.55</ele>
        <time>2013-04-10T11:33:38Z</time>
      </trkpt>
      <trkpt lat="44.47876" lon="6.88209">
        <ele>2633.19</ele>
        <time>2013-04-10T11:33:41Z</time>
      </trkpt>
      <trkpt lat="44.47874" lon="6.88219">
        <ele>2628.86</ele>
        <time>2013-04-10T11:33:44Z</time>
      </trkpt>
      <trkpt lat="44.47874" lon="6.88226">
        <ele>2626.46</ele>
        <time>2013-04-10T11:33:46Z</time>
      </trkpt>
      <trkpt lat="44.47873" lon="6.88234">
        <ele>2621.17</ele>
        <time>2013-04-10T11:33:48Z</time>
      </trkpt>
      <trkpt lat="44.47876" lon="6.88238">
        <ele>2618.77</ele>
        <time>2013-04-10T11:33:49Z</time>
      </trkpt>
      <trkpt lat="44.47877" lon="6.88241">
        <ele>2618.29</ele>
        <time>2013-04-10T11:33:50Z</time>
      </trkpt>
      <trkpt lat="44.47875" lon="6.88244">
        <ele>2617.33</ele>
        <time>2013-04-10T11:33:51Z</time>
      </trkpt>
      <trkpt lat="44.47871" lon="6.88264">
        <ele>2608.67</ele>
        <time>2013-04-10T11:33:57Z</time>
      </trkpt>
      <trkpt lat="44.47873" lon="6.88281">
        <ele>2605.79</ele>
        <time>2013-04-10T11:34:01Z</time>
      </trkpt>
      <trkpt lat="44.47869" lon="6.88288">
        <ele>2602.43</ele>
        <time>2013-04-10T11:34:03Z</time>
      </trkpt>
      <trkpt lat="44.47871" lon="6.88294">
        <ele>2599.54</ele>
        <time>2013-04-10T11:34:04Z</time>
      </trkpt>
      <trkpt lat="44.47874" lon="6.88299">
        <ele>2598.1</ele>
        <time>2013-04-10T11:34:05Z</time>
      </trkpt>
      <trkpt lat="44.47876" lon="6.88305">
        <ele>2597.62</ele>
        <time>2013-04-10T11:34:06Z</time>
      </trkpt>
      <trkpt lat="44.47874" lon="6.88311">
        <ele>2597.62</ele>
        <time>2013-04-10T11:34:07Z</time>
      </trkpt>
      <trkpt lat="44.47872" lon="6.88316">
        <ele>2597.62</ele>
        <time>2013-04-10T11:34:08Z</time>
      </trkpt>
      <trkpt lat="44.4787" lon="6.88323">
        <ele>2597.62</ele>
        <time>2013-04-10T11:34:09Z</time>
      </trkpt>
      <trkpt lat="44.47869" lon="6.8833">
        <ele>2597.62</ele>
        <time>2013-04-10T11:34:10Z</time>
      </trkpt>
      <trkpt lat="44.47869" lon="6.88338">
        <ele>2596.18</ele>
        <time>2013-04-10T11:34:11Z</time>
      </trkpt>
      <trkpt lat="44.4787" lon="6.88346">
        <ele>2592.33</ele>
        <time>2013-04-10T11:34:12Z</time>
      </trkpt>
      <trkpt lat="44.47871" lon="6.88361">
        <ele>2588.49</ele>
        <time>2013-04-10T11:34:14Z</time>
      </trkpt>
      <trkpt lat="44.4787" lon="6.88366">
        <ele>2588.97</ele>
        <time>2013-04-10T11:34:15Z</time>
      </trkpt>
      <trkpt lat="44.4787" lon="6.88371">
        <ele>2590.41</ele>
        <time>2013-04-10T11:34:16Z</time>
      </trkpt>
      <trkpt lat="44.47871" lon="6.88374">
        <ele>2590.41</ele>
        <time>2013-04-10T11:34:17Z</time>
      </trkpt>
      <trkpt lat="44.47871" lon="6.88377">
        <ele>2586.56</ele>
        <time>2013-04-10T11:34:18Z</time>
      </trkpt>
      <trkpt lat="44.47874" lon="6.88379">
        <ele>2585.6</ele>
        <time>2013-04-10T11:34:19Z</time>
      </trkpt>
      <trkpt lat="44.47875" lon="6.88379">
        <ele>2584.64</ele>
        <time>2013-04-10T11:34:20Z</time>
      </trkpt>
      <trkpt lat="44.47883" lon="6.88375">
        <ele>2583.2</ele>
        <time>2013-04-10T11:34:24Z</time>
      </trkpt>
      <trkpt lat="44.47894" lon="6.88372">
        <ele>2581.76</ele>
        <time>2013-04-10T11:34:31Z</time>
      </trkpt>
      <trkpt lat="44.47896" lon="6.88374">
        <ele>2578.87</ele>
        <time>2013-04-10T11:34:40Z</time>
      </trkpt>
      <trkpt lat="44.47896" lon="6.88374">
        <ele>2579.35</ele>
        <time>2013-04-10T11:34:55Z</time>
      </trkpt>
      <trkpt lat="44.47896" lon="6.88374">
        <ele>2579.84</ele>
        <time>2013-04-10T11:35:07Z</time>
      </trkpt>
      <trkpt lat="44.47896" lon="6.88374">
        <ele>2578.39</ele>
        <time>2013-04-10T11:35:14Z</time>
      </trkpt>
      <trkpt lat="44.47896" lon="6.88374">
        <ele>2579.84</ele>
        <time>2013-04-10T11:35:22Z</time>
      </trkpt>
      <trkpt lat="44.47896" lon="6.88374">
        <ele>2578.87</ele>
        <time>2013-04-10T11:35:54Z</time>
      </trkpt>
      <trkpt lat="44.47897" lon="6.88375">
        <ele>2578.87</ele>
        <time>2013-04-10T11:36:22Z</time>
      </trkpt>
      <trkpt lat="44.47897" lon="6.88376">
        <ele>2579.84</ele>
        <time>2013-04-10T11:36:29Z</time>
      </trkpt>
      <trkpt lat="44.47896" lon="6.88376">
        <ele>2578.39</ele>
        <time>2013-04-10T11:36:35Z</time>
      </trkpt>
      <trkpt lat="44.47896" lon="6.88376">
        <ele>2580.32</ele>
        <time>2013-04-10T11:36:50Z</time>
      </trkpt>
      <trkpt lat="44.47896" lon="6.88376">
        <ele>2578.87</ele>
        <time>2013-04-10T11:36:56Z</time>
      </trkpt>
      <trkpt lat="44.47896" lon="6.88376">
        <ele>2578.87</ele>
        <time>2013-04-10T11:37:18Z</time>
      </trkpt>
      <trkpt lat="44.47896" lon="6.88375">
        <ele>2582.72</ele>
        <time>2013-04-10T11:37:22Z</time>
      </trkpt>
      <trkpt lat="44.47896" lon="6.88375">
        <ele>2581.76</ele>
        <time>2013-04-10T11:37:23Z</time>
      </trkpt>
      <trkpt lat="44.47896" lon="6.88375">
        <ele>2579.35</ele>
        <time>2013-04-10T11:37:54Z</time>
      </trkpt>
      <trkpt lat="44.47896" lon="6.88375">
        <ele>2579.35</ele>
        <time>2013-04-10T11:38:03Z</time>
      </trkpt>
      <trkpt lat="44.47896" lon="6.88375">
        <ele>2580.8</ele>
        <time>2013-04-10T11:38:05Z</time>
      </trkpt>
      <trkpt lat="44.47896" lon="6.88375">
        <ele>2582.72</ele>
        <time>2013-04-10T11:38:14Z</time>
      </trkpt>
      <trkpt lat="44.47896" lon="6.88375">
        <ele>2584.16</ele>
        <time>2013-04-10T11:38:18Z</time>
      </trkpt>
      <trkpt lat="44.47896" lon="6.88375">
        <ele>2579.35</ele>
        <time>2013-04-10T11:38:24Z</time>
      </trkpt>
      <trkpt lat="44.47896" lon="6.88375">
        <ele>2579.35</ele>
        <time>2013-04-10T11:38:25Z</time>
      </trkpt>
      <trkpt lat="44.47896" lon="6.88375">
        <ele>2580.32</ele>
        <time>2013-04-10T11:38:38Z</time>
      </trkpt>
      <trkpt lat="44.47896" lon="6.88375">
        <ele>2583.68</ele>
        <time>2013-04-10T11:38:52Z</time>
      </trkpt>
      <trkpt lat="44.47896" lon="6.88375">
        <ele>2583.68</ele>
        <time>2013-04-10T11:38:53Z</time>
      </trkpt>
      <trkpt lat="44.47895" lon="6.88375">
        <ele>2582.24</ele>
        <time>2013-04-10T11:38:57Z</time>
      </trkpt>
      <trkpt lat="44.47895" lon="6.88375">
        <ele>2580.8</ele>
        <time>2013-04-10T11:39:00Z</time>
      </trkpt>
      <trkpt lat="44.47895" lon="6.88375">
        <ele>2582.24</ele>
        <time>2013-04-10T11:39:06Z</time>
      </trkpt>
      <trkpt lat="44.47896" lon="6.88375">
        <ele>2583.2</ele>
        <time>2013-04-10T11:39:18Z</time>
      </trkpt>
      <trkpt lat="44.47896" lon="6.88374">
        <ele>2580.8</ele>
        <time>2013-04-10T11:39:29Z</time>
      </trkpt>
      <trkpt lat="44.47896" lon="6.88374">
        <ele>2580.8</ele>
        <time>2013-04-10T11:39:38Z</time>
      </trkpt>
      <trkpt lat="44.47896" lon="6.88375">
        <ele>2580.8</ele>
        <time>2013-04-10T11:39:45Z</time>
      </trkpt>
      <trkpt lat="44.47895" lon="6.88375">
        <ele>2579.35</ele>
        <time>2013-04-10T11:39:57Z</time>
      </trkpt>
      <trkpt lat="44.47895" lon="6.88375">
        <ele>2581.28</ele>
        <time>2013-04-10T11:39:59Z</time>
      </trkpt>
      <trkpt lat="44.47895" lon="6.88375">
        <ele>2579.84</ele>
        <time>2013-04-10T11:40:09Z</time>
      </trkpt>
      <trkpt lat="44.47895" lon="6.88375">
        <ele>2581.28</ele>
        <time>2013-04-10T11:40:15Z</time>
      </trkpt>
      <trkpt lat="44.47895" lon="6.88375">
        <ele>2582.24</ele>
        <time>2013-04-10T11:40:27Z</time>
      </trkpt>
      <trkpt lat="44.47895" lon="6.88376">
        <ele>2582.24</ele>
        <time>2013-04-10T11:40:44Z</time>
      </trkpt>
      <trkpt lat="44.47895" lon="6.88376">
        <ele>2580.8</ele>
        <time>2013-04-10T11:40:54Z</time>
      </trkpt>
      <trkpt lat="44.47895" lon="6.88375">
        <ele>2580.8</ele>
        <time>2013-04-10T11:41:09Z</time>
      </trkpt>
      <trkpt lat="44.47895" lon="6.88375">
        <ele>2580.8</ele>
        <time>2013-04-10T11:41:33Z</time>
      </trkpt>
      <trkpt lat="44.47897" lon="6.88418">
        <ele>2577.43</ele>
        <time>2013-04-10T11:41:45Z</time>
      </trkpt>
      <trkpt lat="44.47897" lon="6.88437">
        <ele>2574.07</ele>
        <time>2013-04-10T11:41:50Z</time>
      </trkpt>
      <trkpt lat="44.47896" lon="6.88441">
        <ele>2573.59</ele>
        <time>2013-04-10T11:41:51Z</time>
      </trkpt>
      <trkpt lat="44.47892" lon="6.88463">
        <ele>2573.59</ele>
        <time>2013-04-10T11:41:58Z</time>
      </trkpt>
      <trkpt lat="44.4789" lon="6.88477">
        <ele>2571.18</ele>
        <time>2013-04-10T11:42:01Z</time>
      </trkpt>
      <trkpt lat="44.47887" lon="6.88488">
        <ele>2569.74</ele>
        <time>2013-04-10T11:42:03Z</time>
      </trkpt>
      <trkpt lat="44.47882" lon="6.88509">
        <ele>2568.3</ele>
        <time>2013-04-10T11:42:06Z</time>
      </trkpt>
      <trkpt lat="44.47879" lon="6.88524">
        <ele>2566.86</ele>
        <time>2013-04-10T11:42:08Z</time>
      </trkpt>
      <trkpt lat="44.47874" lon="6.88566">
        <ele>2566.38</ele>
        <time>2013-04-10T11:42:18Z</time>
      </trkpt>
      <trkpt lat="44.47873" lon="6.88574">
        <ele>2564.93</ele>
        <time>2013-04-10T11:42:29Z</time>
      </trkpt>
      <trkpt lat="44.47873" lon="6.88574">
        <ele>2566.38</ele>
        <time>2013-04-10T11:42:32Z</time>
      </trkpt>
      <trkpt lat="44.47873" lon="6.88574">
        <ele>2565.42</ele>
        <time>2013-04-10T11:42:40Z</time>
      </trkpt>
      <trkpt lat="44.47873" lon="6.88574">
        <ele>2565.9</ele>
        <time>2013-04-10T11:42:58Z</time>
      </trkpt>
      <trkpt lat="44.47876" lon="6.8858">
        <ele>2565.9</ele>
        <time>2013-04-10T11:43:01Z</time>
      </trkpt>
      <trkpt lat="44.47879" lon="6.8858">
        <ele>2564.45</ele>
        <time>2013-04-10T11:43:02Z</time>
      </trkpt>
      <trkpt lat="44.47884" lon="6.88579">
        <ele>2560.61</ele>
        <time>2013-04-10T11:43:04Z</time>
      </trkpt>
      <trkpt lat="44.47885" lon="6.88585">
        <ele>2558.21</ele>
        <time>2013-04-10T11:43:05Z</time>
      </trkpt>
      <trkpt lat="44.47884" lon="6.8859">
        <ele>2557.73</ele>
        <time>2013-04-10T11:43:06Z</time>
      </trkpt>
      <trkpt lat="44.47884" lon="6.88595">
        <ele>2557.24</ele>
        <time>2013-04-10T11:43:07Z</time>
      </trkpt>
      <trkpt lat="44.47885" lon="6.88597">
        <ele>2556.28</ele>
        <time>2013-04-10T11:43:08Z</time>
      </trkpt>
      <trkpt lat="44.47888" lon="6.88597">
        <ele>2556.28</ele>
        <time>2013-04-10T11:43:09Z</time>
      </trkpt>
      <trkpt lat="44.47891" lon="6.886">
        <ele>2553.4</ele>
        <time>2013-04-10T11:43:10Z</time>
      </trkpt>
      <trkpt lat="44.47892" lon="6.88607">
        <ele>2551</ele>
        <time>2013-04-10T11:43:11Z</time>
      </trkpt>
      <trkpt lat="44.47891" lon="6.88615">
        <ele>2549.55</ele>
        <time>2013-04-10T11:43:12Z</time>
      </trkpt>
      <trkpt lat="44.47889" lon="6.88623">
        <ele>2548.11</ele>
        <time>2013-04-10T11:43:13Z</time>
      </trkpt>
      <trkpt lat="44.47886" lon="6.88647">
        <ele>2545.23</ele>
        <time>2013-04-10T11:43:16Z</time>
      </trkpt>
      <trkpt lat="44.47872" lon="6.88698">
        <ele>2541.86</ele>
        <time>2013-04-10T11:43:24Z</time>
      </trkpt>
      <trkpt lat="44.4787" lon="6.88704">
        <ele>2541.86</ele>
        <time>2013-04-10T11:43:25Z</time>
      </trkpt>
      <trkpt lat="44.47869" lon="6.88711">
        <ele>2538.98</ele>
        <time>2013-04-10T11:43:26Z</time>
      </trkpt>
      <trkpt lat="44.47864" lon="6.88731">
        <ele>2535.13</ele>
        <time>2013-04-10T11:43:29Z</time>
      </trkpt>
      <trkpt lat="44.47863" lon="6.88737">
        <ele>2534.17</ele>
        <time>2013-04-10T11:43:30Z</time>
      </trkpt>
      <trkpt lat="44.47854" lon="6.88764">
        <ele>2530.81</ele>
        <time>2013-04-10T11:43:36Z</time>
      </trkpt>
      <trkpt lat="44.47852" lon="6.88767">
        <ele>2530.81</ele>
        <time>2013-04-10T11:43:37Z</time>
      </trkpt>
      <trkpt lat="44.47848" lon="6.88782">
        <ele>2526.96</ele>
        <time>2013-04-10T11:43:40Z</time>
      </trkpt>
      <trkpt lat="44.47842" lon="6.88801">
        <ele>2524.08</ele>
        <time>2013-04-10T11:43:44Z</time>
      </trkpt>
      <trkpt lat="44.47839" lon="6.88806">
        <ele>2524.56</ele>
        <time>2013-04-10T11:43:52Z</time>
      </trkpt>
      <trkpt lat="44.47839" lon="6.88806">
        <ele>2524.56</ele>
        <time>2013-04-10T11:43:54Z</time>
      </trkpt>
      <trkpt lat="44.47837" lon="6.88821">
        <ele>2521.19</ele>
        <time>2013-04-10T11:43:59Z</time>
      </trkpt>
      <trkpt lat="44.47835" lon="6.8884">
        <ele>2517.83</ele>
        <time>2013-04-10T11:44:02Z</time>
      </trkpt>
      <trkpt lat="44.47831" lon="6.88855">
        <ele>2513.98</ele>
        <time>2013-04-10T11:44:05Z</time>
      </trkpt>
      <trkpt lat="44.47827" lon="6.88872">
        <ele>2509.66</ele>
        <time>2013-04-10T11:44:08Z</time>
      </trkpt>
      <trkpt lat="44.47824" lon="6.88882">
        <ele>2507.26</ele>
        <time>2013-04-10T11:44:10Z</time>
      </trkpt>
      <trkpt lat="44.4782" lon="6.8889">
        <ele>2506.77</ele>
        <time>2013-04-10T11:44:12Z</time>
      </trkpt>
      <trkpt lat="44.47807" lon="6.88918">
        <ele>2503.41</ele>
        <time>2013-04-10T11:44:18Z</time>
      </trkpt>
      <trkpt lat="44.47796" lon="6.88937">
        <ele>2500.53</ele>
        <time>2013-04-10T11:44:23Z</time>
      </trkpt>
      <trkpt lat="44.47797" lon="6.88943">
        <ele>2498.6</ele>
        <time>2013-04-10T11:44:27Z</time>
      </trkpt>
      <trkpt lat="44.47796" lon="6.88942">
        <ele>2499.08</ele>
        <time>2013-04-10T11:44:47Z</time>
      </trkpt>
      <trkpt lat="44.47796" lon="6.88942">
        <ele>2498.6</ele>
        <time>2013-04-10T11:45:04Z</time>
      </trkpt>
      <trkpt lat="44.47796" lon="6.88942">
        <ele>2499.08</ele>
        <time>2013-04-10T11:45:30Z</time>
      </trkpt>
      <trkpt lat="44.47795" lon="6.88941">
        <ele>2498.6</ele>
        <time>2013-04-10T11:45:57Z</time>
      </trkpt>
      <trkpt lat="44.47795" lon="6.88941">
        <ele>2498.12</ele>
        <time>2013-04-10T11:46:03Z</time>
      </trkpt>
      <trkpt lat="44.47789" lon="6.88961">
        <ele>2495.72</ele>
        <time>2013-04-10T11:46:08Z</time>
      </trkpt>
      <trkpt lat="44.47785" lon="6.88979">
        <ele>2492.84</ele>
        <time>2013-04-10T11:46:12Z</time>
      </trkpt>
      <trkpt lat="44.47786" lon="6.88989">
        <ele>2488.51</ele>
        <time>2013-04-10T11:46:14Z</time>
      </trkpt>
      <trkpt lat="44.47786" lon="6.88995">
        <ele>2485.15</ele>
        <time>2013-04-10T11:46:15Z</time>
      </trkpt>
      <trkpt lat="44.47785" lon="6.89006">
        <ele>2481.78</ele>
        <time>2013-04-10T11:46:17Z</time>
      </trkpt>
      <trkpt lat="44.47785" lon="6.89012">
        <ele>2478.42</ele>
        <time>2013-04-10T11:46:19Z</time>
      </trkpt>
      <trkpt lat="44.47784" lon="6.89011">
        <ele>2478.42</ele>
        <time>2013-04-10T11:46:20Z</time>
      </trkpt>
      <trkpt lat="44.47785" lon="6.89012">
        <ele>2479.86</ele>
        <time>2013-04-10T11:46:30Z</time>
      </trkpt>
      <trkpt lat="44.47786" lon="6.89017">
        <ele>2478.9</ele>
        <time>2013-04-10T11:46:37Z</time>
      </trkpt>
      <trkpt lat="44.47785" lon="6.89016">
        <ele>2477.94</ele>
        <time>2013-04-10T11:46:52Z</time>
      </trkpt>
      <trkpt lat="44.47786" lon="6.89017">
        <ele>2477.94</ele>
        <time>2013-04-10T11:47:09Z</time>
      </trkpt>
      <trkpt lat="44.47786" lon="6.89017">
        <ele>2477.94</ele>
        <time>2013-04-10T11:47:18Z</time>
      </trkpt>
      <trkpt lat="44.47781" lon="6.89023">
        <ele>2475.53</ele>
        <time>2013-04-10T11:47:23Z</time>
      </trkpt>
      <trkpt lat="44.47781" lon="6.89023">
        <ele>2475.53</ele>
        <time>2013-04-10T11:47:40Z</time>
      </trkpt>
      <trkpt lat="44.4778" lon="6.89023">
        <ele>2474.57</ele>
        <time>2013-04-10T11:47:54Z</time>
      </trkpt>
      <trkpt lat="44.47781" lon="6.89023">
        <ele>2474.09</ele>
        <time>2013-04-10T11:48:16Z</time>
      </trkpt>
      <trkpt lat="44.47781" lon="6.89023">
        <ele>2475.05</ele>
        <time>2013-04-10T11:48:24Z</time>
      </trkpt>
      <trkpt lat="44.47781" lon="6.89023">
        <ele>2475.05</ele>
        <time>2013-04-10T11:48:38Z</time>
      </trkpt>
      <trkpt lat="44.47781" lon="6.89023">
        <ele>2475.05</ele>
        <time>2013-04-10T11:48:59Z</time>
      </trkpt>
      <trkpt lat="44.4778" lon="6.89023">
        <ele>2475.05</ele>
        <time>2013-04-10T11:49:22Z</time>
      </trkpt>
      <trkpt lat="44.47778" lon="6.89025">
        <ele>2475.53</ele>
        <time>2013-04-10T11:49:28Z</time>
      </trkpt>
      <trkpt lat="44.47772" lon="6.89037">
        <ele>2470.73</ele>
        <time>2013-04-10T11:49:34Z</time>
      </trkpt>
      <trkpt lat="44.47773" lon="6.89045">
        <ele>2466.88</ele>
        <time>2013-04-10T11:49:36Z</time>
      </trkpt>
      <trkpt lat="44.47771" lon="6.89052">
        <ele>2464</ele>
        <time>2013-04-10T11:49:38Z</time>
      </trkpt>
      <trkpt lat="44.4777" lon="6.8906">
        <ele>2460.63</ele>
        <time>2013-04-10T11:49:39Z</time>
      </trkpt>
      <trkpt lat="44.47767" lon="6.89072">
        <ele>2453.9</ele>
        <time>2013-04-10T11:49:42Z</time>
      </trkpt>
      <trkpt lat="44.47765" lon="6.89085">
        <ele>2445.73</ele>
        <time>2013-04-10T11:49:45Z</time>
      </trkpt>
      <trkpt lat="44.47764" lon="6.89094">
        <ele>2442.37</ele>
        <time>2013-04-10T11:49:47Z</time>
      </trkpt>
      <trkpt lat="44.47763" lon="6.89104">
        <ele>2437.56</ele>
        <time>2013-04-10T11:49:49Z</time>
      </trkpt>
      <trkpt lat="44.47761" lon="6.89114">
        <ele>2433.71</ele>
        <time>2013-04-10T11:49:51Z</time>
      </trkpt>
      <trkpt lat="44.47758" lon="6.89125">
        <ele>2428.91</ele>
        <time>2013-04-10T11:49:53Z</time>
      </trkpt>
      <trkpt lat="44.47755" lon="6.89135">
        <ele>2424.58</ele>
        <time>2013-04-10T11:49:55Z</time>
      </trkpt>
      <trkpt lat="44.47753" lon="6.89147">
        <ele>2420.26</ele>
        <time>2013-04-10T11:49:57Z</time>
      </trkpt>
      <trkpt lat="44.47755" lon="6.89155">
        <ele>2417.37</ele>
        <time>2013-04-10T11:49:59Z</time>
      </trkpt>
      <trkpt lat="44.47755" lon="6.89165">
        <ele>2414.01</ele>
        <time>2013-04-10T11:50:01Z</time>
      </trkpt>
      <trkpt lat="44.47757" lon="6.89171">
        <ele>2409.68</ele>
        <time>2013-04-10T11:50:03Z</time>
      </trkpt>
      <trkpt lat="44.47757" lon="6.89171">
        <ele>2409.68</ele>
        <time>2013-04-10T11:50:04Z</time>
      </trkpt>
      <trkpt lat="44.47757" lon="6.89171">
        <ele>2411.6</ele>
        <time>2013-04-10T11:50:09Z</time>
      </trkpt>
      <trkpt lat="44.47758" lon="6.89171">
        <ele>2410.16</ele>
        <time>2013-04-10T11:50:11Z</time>
      </trkpt>
      <trkpt lat="44.47758" lon="6.89171">
        <ele>2411.6</ele>
        <time>2013-04-10T11:50:13Z</time>
      </trkpt>
      <trkpt lat="44.47758" lon="6.89172">
        <ele>2410.64</ele>
        <time>2013-04-10T11:50:29Z</time>
      </trkpt>
      <trkpt lat="44.47758" lon="6.89172">
        <ele>2410.64</ele>
        <time>2013-04-10T11:50:45Z</time>
      </trkpt>
      <trkpt lat="44.47757" lon="6.89172">
        <ele>2410.64</ele>
        <time>2013-04-10T11:51:02Z</time>
      </trkpt>
      <trkpt lat="44.47758" lon="6.89172">
        <ele>2410.64</ele>
        <time>2013-04-10T11:51:15Z</time>
      </trkpt>
      <trkpt lat="44.47758" lon="6.89172">
        <ele>2410.64</ele>
        <time>2013-04-10T11:51:35Z</time>
      </trkpt>
      <trkpt lat="44.47758" lon="6.89172">
        <ele>2410.64</ele>
        <time>2013-04-10T11:51:54Z</time>
      </trkpt>
      <trkpt lat="44.47761" lon="6.89174">
        <ele>2410.16</ele>
        <time>2013-04-10T11:52:10Z</time>
      </trkpt>
      <trkpt lat="44.47767" lon="6.89185">
        <ele>2408.72</ele>
        <time>2013-04-10T11:52:14Z</time>
      </trkpt>
      <trkpt lat="44.47765" lon="6.89195">
        <ele>2403.91</ele>
        <time>2013-04-10T11:52:17Z</time>
      </trkpt>
      <trkpt lat="44.4776" lon="6.89208">
        <ele>2398.15</ele>
        <time>2013-04-10T11:52:20Z</time>
      </trkpt>
      <trkpt lat="44.47758" lon="6.89219">
        <ele>2393.82</ele>
        <time>2013-04-10T11:52:22Z</time>
      </trkpt>
      <trkpt lat="44.47757" lon="6.8923">
        <ele>2389.49</ele>
        <time>2013-04-10T11:52:24Z</time>
      </trkpt>
      <trkpt lat="44.47757" lon="6.89236">
        <ele>2385.65</ele>
        <time>2013-04-10T11:52:25Z</time>
      </trkpt>
      <trkpt lat="44.47756" lon="6.89247">
        <ele>2380.84</ele>
        <time>2013-04-10T11:52:27Z</time>
      </trkpt>
      <trkpt lat="44.47757" lon="6.89259">
        <ele>2377</ele>
        <time>2013-04-10T11:52:29Z</time>
      </trkpt>
      <trkpt lat="44.47758" lon="6.89272">
        <ele>2372.67</ele>
        <time>2013-04-10T11:52:31Z</time>
      </trkpt>
      <trkpt lat="44.4776" lon="6.89278">
        <ele>2369.79</ele>
        <time>2013-04-10T11:52:32Z</time>
      </trkpt>
      <trkpt lat="44.47762" lon="6.89291">
        <ele>2365.94</ele>
        <time>2013-04-10T11:52:34Z</time>
      </trkpt>
      <trkpt lat="44.47763" lon="6.89304">
        <ele>2362.58</ele>
        <time>2013-04-10T11:52:36Z</time>
      </trkpt>
      <trkpt lat="44.47762" lon="6.89314">
        <ele>2360.65</ele>
        <time>2013-04-10T11:52:38Z</time>
      </trkpt>
      <trkpt lat="44.4776" lon="6.89329">
        <ele>2356.33</ele>
        <time>2013-04-10T11:52:41Z</time>
      </trkpt>
      <trkpt lat="44.47752" lon="6.89358">
        <ele>2349.12</ele>
        <time>2013-04-10T11:52:46Z</time>
      </trkpt>
      <trkpt lat="44.4775" lon="6.89377">
        <ele>2343.83</ele>
        <time>2013-04-10T11:52:49Z</time>
      </trkpt>
      <trkpt lat="44.47749" lon="6.8939">
        <ele>2340.95</ele>
        <time>2013-04-10T11:52:51Z</time>
      </trkpt>
      <trkpt lat="44.47747" lon="6.89401">
        <ele>2337.1</ele>
        <time>2013-04-10T11:52:53Z</time>
      </trkpt>
      <trkpt lat="44.4775" lon="6.89402">
        <ele>2336.14</ele>
        <time>2013-04-10T11:52:55Z</time>
      </trkpt>
      <trkpt lat="44.47753" lon="6.89402">
        <ele>2337.1</ele>
        <time>2013-04-10T11:53:06Z</time>
      </trkpt>
      <trkpt lat="44.47754" lon="6.89401">
        <ele>2337.1</ele>
        <time>2013-04-10T11:53:22Z</time>
      </trkpt>
      <trkpt lat="44.47754" lon="6.89401">
        <ele>2337.1</ele>
        <time>2013-04-10T11:53:42Z</time>
      </trkpt>
      <trkpt lat="44.47754" lon="6.89401">
        <ele>2337.1</ele>
        <time>2013-04-10T11:53:58Z</time>
      </trkpt>
      <trkpt lat="44.47753" lon="6.89401">
        <ele>2337.1</ele>
        <time>2013-04-10T11:54:25Z</time>
      </trkpt>
      <trkpt lat="44.47754" lon="6.89401">
        <ele>2338.54</ele>
        <time>2013-04-10T11:54:27Z</time>
      </trkpt>
      <trkpt lat="44.47754" lon="6.894">
        <ele>2340.47</ele>
        <time>2013-04-10T11:54:38Z</time>
      </trkpt>
      <trkpt lat="44.47754" lon="6.894">
        <ele>2339.02</ele>
        <time>2013-04-10T11:54:40Z</time>
      </trkpt>
      <trkpt lat="44.47755" lon="6.894">
        <ele>2337.58</ele>
        <time>2013-04-10T11:54:52Z</time>
      </trkpt>
      <trkpt lat="44.47754" lon="6.89399">
        <ele>2336.14</ele>
        <time>2013-04-10T11:54:56Z</time>
      </trkpt>
      <trkpt lat="44.47754" lon="6.89399">
        <ele>2337.58</ele>
        <time>2013-04-10T11:55:24Z</time>
      </trkpt>
      <trkpt lat="44.47754" lon="6.89398">
        <ele>2336.62</ele>
        <time>2013-04-10T11:55:49Z</time>
      </trkpt>
      <trkpt lat="44.47754" lon="6.89398">
        <ele>2336.14</ele>
        <time>2013-04-10T11:56:15Z</time>
      </trkpt>
      <trkpt lat="44.47754" lon="6.89398">
        <ele>2337.58</ele>
        <time>2013-04-10T11:56:31Z</time>
      </trkpt>
      <trkpt lat="44.47754" lon="6.89399">
        <ele>2338.06</ele>
        <time>2013-04-10T11:56:44Z</time>
      </trkpt>
      <trkpt lat="44.47754" lon="6.89399">
        <ele>2338.06</ele>
        <time>2013-04-10T11:57:06Z</time>
      </trkpt>
      <trkpt lat="44.47754" lon="6.89399">
        <ele>2338.06</ele>
        <time>2013-04-10T11:57:21Z</time>
      </trkpt>
      <trkpt lat="44.47754" lon="6.89408">
        <ele>2334.7</ele>
        <time>2013-04-10T11:57:25Z</time>
      </trkpt>
      <trkpt lat="44.47753" lon="6.89415">
        <ele>2333.74</ele>
        <time>2013-04-10T11:57:27Z</time>
      </trkpt>
      <trkpt lat="44.47755" lon="6.89415">
        <ele>2332.78</ele>
        <time>2013-04-10T11:57:36Z</time>
      </trkpt>
      <trkpt lat="44.47755" lon="6.89415">
        <ele>2332.78</ele>
        <time>2013-04-10T11:57:52Z</time>
      </trkpt>
      <trkpt lat="44.47755" lon="6.89415">
        <ele>2332.78</ele>
        <time>2013-04-10T11:58:18Z</time>
      </trkpt>
      <trkpt lat="44.47754" lon="6.89415">
        <ele>2332.78</ele>
        <time>2013-04-10T11:58:44Z</time>
      </trkpt>
      <trkpt lat="44.47754" lon="6.89415">
        <ele>2332.78</ele>
        <time>2013-04-10T11:59:04Z</time>
      </trkpt>
      <trkpt lat="44.47754" lon="6.89416">
        <ele>2334.22</ele>
        <time>2013-04-10T11:59:08Z</time>
      </trkpt>
      <trkpt lat="44.47754" lon="6.89416">
        <ele>2334.22</ele>
        <time>2013-04-10T11:59:15Z</time>
      </trkpt>
      <trkpt lat="44.47754" lon="6.89416">
        <ele>2334.22</ele>
        <time>2013-04-10T11:59:41Z</time>
      </trkpt>
      <trkpt lat="44.47754" lon="6.89416">
        <ele>2333.74</ele>
        <time>2013-04-10T11:59:54Z</time>
      </trkpt>
      <trkpt lat="44.47753" lon="6.89421">
        <ele>2331.81</ele>
        <time>2013-04-10T11:59:58Z</time>
      </trkpt>
      <trkpt lat="44.47753" lon="6.89422">
        <ele>2332.78</ele>
        <time>2013-04-10T12:00:12Z</time>
      </trkpt>
      <trkpt lat="44.47753" lon="6.89422">
        <ele>2332.78</ele>
        <time>2013-04-10T12:00:13Z</time>
      </trkpt>
      <trkpt lat="44.47753" lon="6.89422">
        <ele>2332.78</ele>
        <time>2013-04-10T12:00:33Z</time>
      </trkpt>
      <trkpt lat="44.47753" lon="6.89422">
        <ele>2332.78</ele>
        <time>2013-04-10T12:00:51Z</time>
      </trkpt>
      <trkpt lat="44.47753" lon="6.89421">
        <ele>2332.78</ele>
        <time>2013-04-10T12:01:04Z</time>
      </trkpt>
      <trkpt lat="44.47753" lon="6.89421">
        <ele>2332.78</ele>
        <time>2013-04-10T12:01:18Z</time>
      </trkpt>
      <trkpt lat="44.47753" lon="6.89421">
        <ele>2332.78</ele>
        <time>2013-04-10T12:01:40Z</time>
      </trkpt>
      <trkpt lat="44.47753" lon="6.89422">
        <ele>2331.33</ele>
        <time>2013-04-10T12:02:09Z</time>
      </trkpt>
      <trkpt lat="44.47753" lon="6.89422">
        <ele>2331.33</ele>
        <time>2013-04-10T12:02:13Z</time>
      </trkpt>
      <trkpt lat="44.47747" lon="6.89436">
        <ele>2329.89</ele>
        <time>2013-04-10T12:02:17Z</time>
      </trkpt>
      <trkpt lat="44.47744" lon="6.89461">
        <ele>2324.12</ele>
        <time>2013-04-10T12:02:21Z</time>
      </trkpt>
      <trkpt lat="44.47744" lon="6.89474">
        <ele>2321.24</ele>
        <time>2013-04-10T12:02:23Z</time>
      </trkpt>
      <trkpt lat="44.47748" lon="6.89491">
        <ele>2317.88</ele>
        <time>2013-04-10T12:02:26Z</time>
      </trkpt>
      <trkpt lat="44.47748" lon="6.89503">
        <ele>2314.03</ele>
        <time>2013-04-10T12:02:28Z</time>
      </trkpt>
      <trkpt lat="44.47746" lon="6.89535">
        <ele>2308.26</ele>
        <time>2013-04-10T12:02:32Z</time>
      </trkpt>
      <trkpt lat="44.47744" lon="6.89553">
        <ele>2303.46</ele>
        <time>2013-04-10T12:02:34Z</time>
      </trkpt>
      <trkpt lat="44.47741" lon="6.8957">
        <ele>2300.09</ele>
        <time>2013-04-10T12:02:36Z</time>
      </trkpt>
      <trkpt lat="44.4774" lon="6.8958">
        <ele>2298.17</ele>
        <time>2013-04-10T12:02:37Z</time>
      </trkpt>
      <trkpt lat="44.4773" lon="6.89607">
        <ele>2290</ele>
        <time>2013-04-10T12:02:41Z</time>
      </trkpt>
      <trkpt lat="44.47724" lon="6.89604">
        <ele>2289.04</ele>
        <time>2013-04-10T12:02:43Z</time>
      </trkpt>
      <trkpt lat="44.47723" lon="6.89603">
        <ele>2290.96</ele>
        <time>2013-04-10T12:02:48Z</time>
      </trkpt>
      <trkpt lat="44.47723" lon="6.89603">
        <ele>2290.96</ele>
        <time>2013-04-10T12:03:06Z</time>
      </trkpt>
      <trkpt lat="44.47723" lon="6.89603">
        <ele>2290.96</ele>
        <time>2013-04-10T12:03:25Z</time>
      </trkpt>
      <trkpt lat="44.47722" lon="6.89603">
        <ele>2290.96</ele>
        <time>2013-04-10T12:03:34Z</time>
      </trkpt>
      <trkpt lat="44.47729" lon="6.89631">
        <ele>2288.56</ele>
        <time>2013-04-10T12:03:41Z</time>
      </trkpt>
      <trkpt lat="44.47734" lon="6.89657">
        <ele>2284.71</ele>
        <time>2013-04-10T12:03:46Z</time>
      </trkpt>
      <trkpt lat="44.47734" lon="6.89664">
        <ele>2283.75</ele>
        <time>2013-04-10T12:03:47Z</time>
      </trkpt>
      <trkpt lat="44.4773" lon="6.89687">
        <ele>2280.87</ele>
        <time>2013-04-10T12:03:50Z</time>
      </trkpt>
      <trkpt lat="44.47725" lon="6.89725">
        <ele>2274.14</ele>
        <time>2013-04-10T12:03:55Z</time>
      </trkpt>
      <trkpt lat="44.47723" lon="6.89741">
        <ele>2271.73</ele>
        <time>2013-04-10T12:03:57Z</time>
      </trkpt>
      <trkpt lat="44.47726" lon="6.89783">
        <ele>2267.41</ele>
        <time>2013-04-10T12:04:02Z</time>
      </trkpt>
      <trkpt lat="44.47722" lon="6.89825">
        <ele>2262.6</ele>
        <time>2013-04-10T12:04:08Z</time>
      </trkpt>
      <trkpt lat="44.47718" lon="6.8984">
        <ele>2261.64</ele>
        <time>2013-04-10T12:04:11Z</time>
      </trkpt>
      <trkpt lat="44.47711" lon="6.8987">
        <ele>2258.27</ele>
        <time>2013-04-10T12:04:15Z</time>
      </trkpt>
      <trkpt lat="44.47707" lon="6.89884">
        <ele>2256.83</ele>
        <time>2013-04-10T12:04:17Z</time>
      </trkpt>
      <trkpt lat="44.47703" lon="6.89896">
        <ele>2255.87</ele>
        <time>2013-04-10T12:04:19Z</time>
      </trkpt>
      <trkpt lat="44.47701" lon="6.8991">
        <ele>2256.35</ele>
        <time>2013-04-10T12:04:26Z</time>
      </trkpt>
      <trkpt lat="44.47702" lon="6.89914">
        <ele>2256.35</ele>
        <time>2013-04-10T12:04:31Z</time>
      </trkpt>
      <trkpt lat="44.47701" lon="6.89922">
        <ele>2256.35</ele>
        <time>2013-04-10T12:04:35Z</time>
      </trkpt>
      <trkpt lat="44.47699" lon="6.89938">
        <ele>2256.35</ele>
        <time>2013-04-10T12:04:48Z</time>
      </trkpt>
      <trkpt lat="44.47699" lon="6.89938">
        <ele>2256.35</ele>
        <time>2013-04-10T12:05:08Z</time>
      </trkpt>
      <trkpt lat="44.47699" lon="6.89938">
        <ele>2255.87</ele>
        <time>2013-04-10T12:05:28Z</time>
      </trkpt>
      <trkpt lat="44.47699" lon="6.89938">
        <ele>2255.87</ele>
        <time>2013-04-10T12:05:46Z</time>
      </trkpt>
      <trkpt lat="44.47698" lon="6.89938">
        <ele>2255.87</ele>
        <time>2013-04-10T12:06:01Z</time>
      </trkpt>
      <trkpt lat="44.47698" lon="6.89938">
        <ele>2255.87</ele>
        <time>2013-04-10T12:06:22Z</time>
      </trkpt>
      <trkpt lat="44.47699" lon="6.89945">
        <ele>2255.87</ele>
        <time>2013-04-10T12:06:37Z</time>
      </trkpt>
      <trkpt lat="44.47705" lon="6.89974">
        <ele>2253.95</ele>
        <time>2013-04-10T12:06:48Z</time>
      </trkpt>
      <trkpt lat="44.47705" lon="6.89974">
        <ele>2253.95</ele>
        <time>2013-04-10T12:07:06Z</time>
      </trkpt>
      <trkpt lat="44.47705" lon="6.89975">
        <ele>2253.95</ele>
        <time>2013-04-10T12:07:25Z</time>
      </trkpt>
      <trkpt lat="44.47705" lon="6.89975">
        <ele>2253.95</ele>
        <time>2013-04-10T12:07:34Z</time>
      </trkpt>
      <trkpt lat="44.47705" lon="6.89975">
        <ele>2253.95</ele>
        <time>2013-04-10T12:07:40Z</time>
      </trkpt>
      <trkpt lat="44.47708" lon="6.89991">
        <ele>2251.54</ele>
        <time>2013-04-10T12:07:48Z</time>
      </trkpt>
      <trkpt lat="44.47702" lon="6.89997">
        <ele>2247.22</ele>
        <time>2013-04-10T12:07:52Z</time>
      </trkpt>
      <trkpt lat="44.47703" lon="6.90007">
        <ele>2243.85</ele>
        <time>2013-04-10T12:07:54Z</time>
      </trkpt>
      <trkpt lat="44.47702" lon="6.90025">
        <ele>2240.49</ele>
        <time>2013-04-10T12:07:57Z</time>
      </trkpt>
      <trkpt lat="44.47712" lon="6.90045">
        <ele>2236.64</ele>
        <time>2013-04-10T12:08:00Z</time>
      </trkpt>
      <trkpt lat="44.47717" lon="6.9006">
        <ele>2233.28</ele>
        <time>2013-04-10T12:08:02Z</time>
      </trkpt>
      <trkpt lat="44.47721" lon="6.90075">
        <ele>2232.8</ele>
        <time>2013-04-10T12:08:04Z</time>
      </trkpt>
      <trkpt lat="44.47732" lon="6.90102">
        <ele>2228.95</ele>
        <time>2013-04-10T12:08:09Z</time>
      </trkpt>
      <trkpt lat="44.47733" lon="6.90107">
        <ele>2229.43</ele>
        <time>2013-04-10T12:08:10Z</time>
      </trkpt>
      <trkpt lat="44.47729" lon="6.90119">
        <ele>2227.03</ele>
        <time>2013-04-10T12:08:12Z</time>
      </trkpt>
      <trkpt lat="44.47724" lon="6.90141">
        <ele>2220.78</ele>
        <time>2013-04-10T12:08:15Z</time>
      </trkpt>
      <trkpt lat="44.47724" lon="6.90149">
        <ele>2220.3</ele>
        <time>2013-04-10T12:08:16Z</time>
      </trkpt>
      <trkpt lat="44.47723" lon="6.90158">
        <ele>2218.38</ele>
        <time>2013-04-10T12:08:17Z</time>
      </trkpt>
      <trkpt lat="44.47728" lon="6.90175">
        <ele>2214.53</ele>
        <time>2013-04-10T12:08:19Z</time>
      </trkpt>
      <trkpt lat="44.47734" lon="6.90194">
        <ele>2212.13</ele>
        <time>2013-04-10T12:08:22Z</time>
      </trkpt>
      <trkpt lat="44.4773" lon="6.90201">
        <ele>2211.17</ele>
        <time>2013-04-10T12:08:23Z</time>
      </trkpt>
      <trkpt lat="44.47729" lon="6.90209">
        <ele>2209.25</ele>
        <time>2013-04-10T12:08:24Z</time>
      </trkpt>
      <trkpt lat="44.47729" lon="6.90216">
        <ele>2208.29</ele>
        <time>2013-04-10T12:08:25Z</time>
      </trkpt>
      <trkpt lat="44.47728" lon="6.90222">
        <ele>2207.81</ele>
        <time>2013-04-10T12:08:26Z</time>
      </trkpt>
      <trkpt lat="44.47731" lon="6.90227">
        <ele>2207.32</ele>
        <time>2013-04-10T12:08:34Z</time>
      </trkpt>
      <trkpt lat="44.47731" lon="6.90227">
        <ele>2208.77</ele>
        <time>2013-04-10T12:08:39Z</time>
      </trkpt>
      <trkpt lat="44.47731" lon="6.90227">
        <ele>2206.84</ele>
        <time>2013-04-10T12:08:59Z</time>
      </trkpt>
      <trkpt lat="44.47731" lon="6.90227">
        <ele>2207.81</ele>
        <time>2013-04-10T12:09:10Z</time>
      </trkpt>
      <trkpt lat="44.4773" lon="6.90228">
        <ele>2206.84</ele>
        <time>2013-04-10T12:09:20Z</time>
      </trkpt>
      <trkpt lat="44.4773" lon="6.90228">
        <ele>2208.77</ele>
        <time>2013-04-10T12:09:34Z</time>
      </trkpt>
      <trkpt lat="44.4773" lon="6.90228">
        <ele>2207.32</ele>
        <time>2013-04-10T12:09:59Z</time>
      </trkpt>
      <trkpt lat="44.4773" lon="6.90228">
        <ele>2207.32</ele>
        <time>2013-04-10T12:10:00Z</time>
      </trkpt>
      <trkpt lat="44.4773" lon="6.90229">
        <ele>2206.84</ele>
        <time>2013-04-10T12:10:20Z</time>
      </trkpt>
      <trkpt lat="44.47729" lon="6.90229">
        <ele>2206.36</ele>
        <time>2013-04-10T12:10:38Z</time>
      </trkpt>
      <trkpt lat="44.47729" lon="6.90228">
        <ele>2206.36</ele>
        <time>2013-04-10T12:10:53Z</time>
      </trkpt>
      <trkpt lat="44.47729" lon="6.90228">
        <ele>2207.81</ele>
        <time>2013-04-10T12:11:04Z</time>
      </trkpt>
      <trkpt lat="44.4773" lon="6.90228">
        <ele>2207.81</ele>
        <time>2013-04-10T12:11:25Z</time>
      </trkpt>
      <trkpt lat="44.4773" lon="6.90228">
        <ele>2205.88</ele>
        <time>2013-04-10T12:11:32Z</time>
      </trkpt>
      <trkpt lat="44.47729" lon="6.90228">
        <ele>2206.36</ele>
        <time>2013-04-10T12:11:53Z</time>
      </trkpt>
      <trkpt lat="44.47729" lon="6.90228">
        <ele>2206.36</ele>
        <time>2013-04-10T12:12:11Z</time>
      </trkpt>
      <trkpt lat="44.47729" lon="6.90228">
        <ele>2205.88</ele>
        <time>2013-04-10T12:12:33Z</time>
      </trkpt>
      <trkpt lat="44.4773" lon="6.9023">
        <ele>2205.88</ele>
        <time>2013-04-10T12:12:56Z</time>
      </trkpt>
      <trkpt lat="44.47729" lon="6.90241">
        <ele>2205.88</ele>
        <time>2013-04-10T12:12:59Z</time>
      </trkpt>
      <trkpt lat="44.47727" lon="6.90247">
        <ele>2205.88</ele>
        <time>2013-04-10T12:13:00Z</time>
      </trkpt>
      <trkpt lat="44.47728" lon="6.90253">
        <ele>2203</ele>
        <time>2013-04-10T12:13:01Z</time>
      </trkpt>
      <trkpt lat="44.47728" lon="6.90259">
        <ele>2201.08</ele>
        <time>2013-04-10T12:13:02Z</time>
      </trkpt>
      <trkpt lat="44.47726" lon="6.90265">
        <ele>2200.11</ele>
        <time>2013-04-10T12:13:03Z</time>
      </trkpt>
      <trkpt lat="44.47724" lon="6.90269">
        <ele>2199.15</ele>
        <time>2013-04-10T12:13:04Z</time>
      </trkpt>
      <trkpt lat="44.47723" lon="6.90275">
        <ele>2198.19</ele>
        <time>2013-04-10T12:13:05Z</time>
      </trkpt>
      <trkpt lat="44.47724" lon="6.90279">
        <ele>2198.19</ele>
        <time>2013-04-10T12:13:06Z</time>
      </trkpt>
      <trkpt lat="44.47725" lon="6.90283">
        <ele>2197.23</ele>
        <time>2013-04-10T12:13:07Z</time>
      </trkpt>
      <trkpt lat="44.4773" lon="6.90281">
        <ele>2194.35</ele>
        <time>2013-04-10T12:13:10Z</time>
      </trkpt>
      <trkpt lat="44.4773" lon="6.90284">
        <ele>2194.83</ele>
        <time>2013-04-10T12:13:24Z</time>
      </trkpt>
      <trkpt lat="44.4773" lon="6.90284">
        <ele>2194.35</ele>
        <time>2013-04-10T12:13:43Z</time>
      </trkpt>
      <trkpt lat="44.47731" lon="6.90283">
        <ele>2194.35</ele>
        <time>2013-04-10T12:13:56Z</time>
      </trkpt>
      <trkpt lat="44.47732" lon="6.90283">
        <ele>2194.35</ele>
        <time>2013-04-10T12:14:11Z</time>
      </trkpt>
      <trkpt lat="44.47732" lon="6.90282">
        <ele>2194.35</ele>
        <time>2013-04-10T12:14:24Z</time>
      </trkpt>
      <trkpt lat="44.47732" lon="6.90282">
        <ele>2194.35</ele>
        <time>2013-04-10T12:14:50Z</time>
      </trkpt>
      <trkpt lat="44.47731" lon="6.90287">
        <ele>2193.39</ele>
        <time>2013-04-10T12:15:03Z</time>
      </trkpt>
      <trkpt lat="44.4773" lon="6.903">
        <ele>2191.94</ele>
        <time>2013-04-10T12:15:14Z</time>
      </trkpt>
      <trkpt lat="44.4773" lon="6.903">
        <ele>2191.94</ele>
        <time>2013-04-10T12:15:36Z</time>
      </trkpt>
      <trkpt lat="44.4773" lon="6.903">
        <ele>2190.02</ele>
        <time>2013-04-10T12:15:40Z</time>
      </trkpt>
      <trkpt lat="44.4773" lon="6.903">
        <ele>2191.46</ele>
        <time>2013-04-10T12:15:46Z</time>
      </trkpt>
      <trkpt lat="44.4773" lon="6.903">
        <ele>2189.54</ele>
        <time>2013-04-10T12:16:02Z</time>
      </trkpt>
      <trkpt lat="44.4773" lon="6.903">
        <ele>2190.98</ele>
        <time>2013-04-10T12:16:05Z</time>
      </trkpt>
      <trkpt lat="44.4773" lon="6.903">
        <ele>2191.46</ele>
        <time>2013-04-10T12:16:19Z</time>
      </trkpt>
      <trkpt lat="44.4773" lon="6.903">
        <ele>2192.42</ele>
        <time>2013-04-10T12:16:50Z</time>
      </trkpt>
      <trkpt lat="44.4773" lon="6.90301">
        <ele>2190.98</ele>
        <time>2013-04-10T12:17:17Z</time>
      </trkpt>
      <trkpt lat="44.4773" lon="6.90301">
        <ele>2191.46</ele>
        <time>2013-04-10T12:17:50Z</time>
      </trkpt>
      <trkpt lat="44.4773" lon="6.90301">
        <ele>2190.98</ele>
        <time>2013-04-10T12:18:25Z</time>
      </trkpt>
      <trkpt lat="44.47731" lon="6.90301">
        <ele>2190.5</ele>
        <time>2013-04-10T12:18:58Z</time>
      </trkpt>
      <trkpt lat="44.47731" lon="6.90301">
        <ele>2191.46</ele>
        <time>2013-04-10T12:19:26Z</time>
      </trkpt>
      <trkpt lat="44.47737" lon="6.90314">
        <ele>2188.1</ele>
        <time>2013-04-10T12:19:30Z</time>
      </trkpt>
      <trkpt lat="44.47745" lon="6.90337">
        <ele>2185.69</ele>
        <time>2013-04-10T12:19:34Z</time>
      </trkpt>
      <trkpt lat="44.47749" lon="6.90343">
        <ele>2184.73</ele>
        <time>2013-04-10T12:19:35Z</time>
      </trkpt>
      <trkpt lat="44.47753" lon="6.9035">
        <ele>2184.73</ele>
        <time>2013-04-10T12:19:36Z</time>
      </trkpt>
      <trkpt lat="44.47768" lon="6.9037">
        <ele>2182.81</ele>
        <time>2013-04-10T12:19:39Z</time>
      </trkpt>
      <trkpt lat="44.4778" lon="6.90383">
        <ele>2179.93</ele>
        <time>2013-04-10T12:19:41Z</time>
      </trkpt>
      <trkpt lat="44.47787" lon="6.90393">
        <ele>2177.52</ele>
        <time>2013-04-10T12:19:43Z</time>
      </trkpt>
      <trkpt lat="44.47789" lon="6.90398">
        <ele>2177.52</ele>
        <time>2013-04-10T12:19:44Z</time>
      </trkpt>
      <trkpt lat="44.47787" lon="6.90414">
        <ele>2177.52</ele>
        <time>2013-04-10T12:19:52Z</time>
      </trkpt>
      <trkpt lat="44.47787" lon="6.90414">
        <ele>2177.04</ele>
        <time>2013-04-10T12:20:06Z</time>
      </trkpt>
      <trkpt lat="44.47787" lon="6.90413">
        <ele>2179.93</ele>
        <time>2013-04-10T12:20:17Z</time>
      </trkpt>
      <trkpt lat="44.47787" lon="6.90413">
        <ele>2179.93</ele>
        <time>2013-04-10T12:20:22Z</time>
      </trkpt>
      <trkpt lat="44.47789" lon="6.90425">
        <ele>2177.52</ele>
        <time>2013-04-10T12:20:26Z</time>
      </trkpt>
      <trkpt lat="44.47791" lon="6.90432">
        <ele>2176.56</ele>
        <time>2013-04-10T12:20:27Z</time>
      </trkpt>
      <trkpt lat="44.47793" lon="6.90441">
        <ele>2174.64</ele>
        <time>2013-04-10T12:20:28Z</time>
      </trkpt>
      <trkpt lat="44.47795" lon="6.9045">
        <ele>2172.72</ele>
        <time>2013-04-10T12:20:29Z</time>
      </trkpt>
      <trkpt lat="44.47796" lon="6.90458">
        <ele>2171.76</ele>
        <time>2013-04-10T12:20:30Z</time>
      </trkpt>
      <trkpt lat="44.478" lon="6.90461">
        <ele>2171.27</ele>
        <time>2013-04-10T12:20:31Z</time>
      </trkpt>
      <trkpt lat="44.47808" lon="6.90464">
        <ele>2168.39</ele>
        <time>2013-04-10T12:20:33Z</time>
      </trkpt>
      <trkpt lat="44.47817" lon="6.90464">
        <ele>2166.47</ele>
        <time>2013-04-10T12:20:35Z</time>
      </trkpt>
      <trkpt lat="44.47821" lon="6.90467">
        <ele>2163.58</ele>
        <time>2013-04-10T12:20:36Z</time>
      </trkpt>
      <trkpt lat="44.47825" lon="6.90471">
        <ele>2161.18</ele>
        <time>2013-04-10T12:20:37Z</time>
      </trkpt>
      <trkpt lat="44.4783" lon="6.90472">
        <ele>2159.26</ele>
        <time>2013-04-10T12:20:38Z</time>
      </trkpt>
      <trkpt lat="44.47834" lon="6.90468">
        <ele>2159.26</ele>
        <time>2013-04-10T12:20:39Z</time>
      </trkpt>
      <trkpt lat="44.47835" lon="6.90464">
        <ele>2157.82</ele>
        <time>2013-04-10T12:20:40Z</time>
      </trkpt>
      <trkpt lat="44.47836" lon="6.90462">
        <ele>2158.78</ele>
        <time>2013-04-10T12:20:54Z</time>
      </trkpt>
      <trkpt lat="44.47837" lon="6.90462">
        <ele>2158.78</ele>
        <time>2013-04-10T12:20:56Z</time>
      </trkpt>
      <trkpt lat="44.47838" lon="6.90465">
        <ele>2157.82</ele>
        <time>2013-04-10T12:21:06Z</time>
      </trkpt>
      <trkpt lat="44.47838" lon="6.90465">
        <ele>2157.82</ele>
        <time>2013-04-10T12:21:29Z</time>
      </trkpt>
      <trkpt lat="44.47838" lon="6.90466">
        <ele>2158.78</ele>
        <time>2013-04-10T12:21:52Z</time>
      </trkpt>
      <trkpt lat="44.47837" lon="6.90481">
        <ele>2157.34</ele>
        <time>2013-04-10T12:22:03Z</time>
      </trkpt>
      <trkpt lat="44.47837" lon="6.90481">
        <ele>2157.34</ele>
        <time>2013-04-10T12:22:11Z</time>
      </trkpt>
      <trkpt lat="44.47851" lon="6.90512">
        <ele>2153.97</ele>
        <time>2013-04-10T12:22:18Z</time>
      </trkpt>
      <trkpt lat="44.47856" lon="6.90523">
        <ele>2153.49</ele>
        <time>2013-04-10T12:22:20Z</time>
      </trkpt>
      <trkpt lat="44.47857" lon="6.90528">
        <ele>2153.49</ele>
        <time>2013-04-10T12:22:21Z</time>
      </trkpt>
      <trkpt lat="44.47858" lon="6.90533">
        <ele>2153.49</ele>
        <time>2013-04-10T12:22:22Z</time>
      </trkpt>
      <trkpt lat="44.47858" lon="6.90537">
        <ele>2153.01</ele>
        <time>2013-04-10T12:22:23Z</time>
      </trkpt>
      <trkpt lat="44.47859" lon="6.90541">
        <ele>2152.05</ele>
        <time>2013-04-10T12:22:24Z</time>
      </trkpt>
      <trkpt lat="44.47859" lon="6.90544">
        <ele>2152.05</ele>
        <time>2013-04-10T12:22:25Z</time>
      </trkpt>
      <trkpt lat="44.47858" lon="6.90551">
        <ele>2151.57</ele>
        <time>2013-04-10T12:22:33Z</time>
      </trkpt>
      <trkpt lat="44.47858" lon="6.90551">
        <ele>2150.61</ele>
        <time>2013-04-10T12:22:36Z</time>
      </trkpt>
      <trkpt lat="44.47858" lon="6.90551">
        <ele>2150.61</ele>
        <time>2013-04-10T12:22:57Z</time>
      </trkpt>
      <trkpt lat="44.47857" lon="6.90551">
        <ele>2150.61</ele>
        <time>2013-04-10T12:23:20Z</time>
      </trkpt>
      <trkpt lat="44.47858" lon="6.90551">
        <ele>2151.57</ele>
        <time>2013-04-10T12:23:42Z</time>
      </trkpt>
      <trkpt lat="44.47858" lon="6.90552">
        <ele>2153.49</ele>
        <time>2013-04-10T12:24:01Z</time>
      </trkpt>
      <trkpt lat="44.47858" lon="6.90551">
        <ele>2151.09</ele>
        <time>2013-04-10T12:24:03Z</time>
      </trkpt>
      <trkpt lat="44.47858" lon="6.90551">
        <ele>2152.53</ele>
        <time>2013-04-10T12:24:05Z</time>
      </trkpt>
      <trkpt lat="44.47858" lon="6.90551">
        <ele>2151.57</ele>
        <time>2013-04-10T12:24:35Z</time>
      </trkpt>
      <trkpt lat="44.47858" lon="6.90551">
        <ele>2151.57</ele>
        <time>2013-04-10T12:25:03Z</time>
      </trkpt>
      <trkpt lat="44.47858" lon="6.90551">
        <ele>2151.57</ele>
        <time>2013-04-10T12:25:22Z</time>
      </trkpt>
      <trkpt lat="44.4786" lon="6.90569">
        <ele>2147.72</ele>
        <time>2013-04-10T12:25:27Z</time>
      </trkpt>
      <trkpt lat="44.4786" lon="6.90571">
        <ele>2146.76</ele>
        <time>2013-04-10T12:25:41Z</time>
      </trkpt>
      <trkpt lat="44.4786" lon="6.90571">
        <ele>2147.24</ele>
        <time>2013-04-10T12:25:43Z</time>
      </trkpt>
      <trkpt lat="44.47861" lon="6.90582">
        <ele>2145.8</ele>
        <time>2013-04-10T12:25:48Z</time>
      </trkpt>
      <trkpt lat="44.47864" lon="6.90589">
        <ele>2144.36</ele>
        <time>2013-04-10T12:25:50Z</time>
      </trkpt>
      <trkpt lat="44.4787" lon="6.90602">
        <ele>2142.44</ele>
        <time>2013-04-10T12:25:52Z</time>
      </trkpt>
      <trkpt lat="44.47876" lon="6.90616">
        <ele>2139.55</ele>
        <time>2013-04-10T12:25:54Z</time>
      </trkpt>
      <trkpt lat="44.47883" lon="6.90633">
        <ele>2136.19</ele>
        <time>2013-04-10T12:25:57Z</time>
      </trkpt>
      <trkpt lat="44.47884" lon="6.90637">
        <ele>2135.23</ele>
        <time>2013-04-10T12:25:58Z</time>
      </trkpt>
      <trkpt lat="44.47895" lon="6.90637">
        <ele>2132.34</ele>
        <time>2013-04-10T12:26:02Z</time>
      </trkpt>
      <trkpt lat="44.47901" lon="6.90645">
        <ele>2128.5</ele>
        <time>2013-04-10T12:26:04Z</time>
      </trkpt>
      <trkpt lat="44.47911" lon="6.90655">
        <ele>2126.57</ele>
        <time>2013-04-10T12:26:07Z</time>
      </trkpt>
      <trkpt lat="44.47927" lon="6.90682">
        <ele>2122.73</ele>
        <time>2013-04-10T12:26:12Z</time>
      </trkpt>
      <trkpt lat="44.47929" lon="6.90688">
        <ele>2122.25</ele>
        <time>2013-04-10T12:26:13Z</time>
      </trkpt>
      <trkpt lat="44.47938" lon="6.90722">
        <ele>2119.36</ele>
        <time>2013-04-10T12:26:23Z</time>
      </trkpt>
      <trkpt lat="44.47944" lon="6.90721">
        <ele>2116.96</ele>
        <time>2013-04-10T12:26:27Z</time>
      </trkpt>
      <trkpt lat="44.47945" lon="6.9072">
        <ele>2116.48</ele>
        <time>2013-04-10T12:26:40Z</time>
      </trkpt>
      <trkpt lat="44.47946" lon="6.9072">
        <ele>2116.48</ele>
        <time>2013-04-10T12:26:56Z</time>
      </trkpt>
      <trkpt lat="44.47946" lon="6.9072">
        <ele>2116.48</ele>
        <time>2013-04-10T12:27:17Z</time>
      </trkpt>
      <trkpt lat="44.47946" lon="6.90719">
        <ele>2116.48</ele>
        <time>2013-04-10T12:27:37Z</time>
      </trkpt>
      <trkpt lat="44.47946" lon="6.90719">
        <ele>2117.44</ele>
        <time>2013-04-10T12:27:56Z</time>
      </trkpt>
      <trkpt lat="44.47954" lon="6.90725">
        <ele>2113.12</ele>
        <time>2013-04-10T12:28:00Z</time>
      </trkpt>
      <trkpt lat="44.4796" lon="6.90724">
        <ele>2108.79</ele>
        <time>2013-04-10T12:28:04Z</time>
      </trkpt>
      <trkpt lat="44.4796" lon="6.90724">
        <ele>2108.79</ele>
        <time>2013-04-10T12:28:05Z</time>
      </trkpt>
      <trkpt lat="44.4796" lon="6.90724">
        <ele>2108.31</ele>
        <time>2013-04-10T12:28:25Z</time>
      </trkpt>
      <trkpt lat="44.4796" lon="6.90725">
        <ele>2108.79</ele>
        <time>2013-04-10T12:28:52Z</time>
      </trkpt>
      <trkpt lat="44.47961" lon="6.90724">
        <ele>2108.31</ele>
        <time>2013-04-10T12:29:09Z</time>
      </trkpt>
      <trkpt lat="44.4797" lon="6.90725">
        <ele>2103.98</ele>
        <time>2013-04-10T12:29:14Z</time>
      </trkpt>
      <trkpt lat="44.47971" lon="6.90732">
        <ele>2102.06</ele>
        <time>2013-04-10T12:29:15Z</time>
      </trkpt>
      <trkpt lat="44.47978" lon="6.90758">
        <ele>2099.66</ele>
        <time>2013-04-10T12:29:19Z</time>
      </trkpt>
      <trkpt lat="44.47987" lon="6.90783">
        <ele>2096.29</ele>
        <time>2013-04-10T12:29:26Z</time>
      </trkpt>
      <trkpt lat="44.47991" lon="6.90798">
        <ele>2092.93</ele>
        <time>2013-04-10T12:29:30Z</time>
      </trkpt>
      <trkpt lat="44.47992" lon="6.90801">
        <ele>2092.93</ele>
        <time>2013-04-10T12:29:31Z</time>
      </trkpt>
      <trkpt lat="44.48002" lon="6.90802">
        <ele>2090.04</ele>
        <time>2013-04-10T12:29:34Z</time>
      </trkpt>
      <trkpt lat="44.48009" lon="6.90803">
        <ele>2086.2</ele>
        <time>2013-04-10T12:29:36Z</time>
      </trkpt>
      <trkpt lat="44.48011" lon="6.90798">
        <ele>2086.2</ele>
        <time>2013-04-10T12:29:37Z</time>
      </trkpt>
      <trkpt lat="44.4802" lon="6.90802">
        <ele>2083.79</ele>
        <time>2013-04-10T12:29:41Z</time>
      </trkpt>
      <trkpt lat="44.48024" lon="6.9081">
        <ele>2084.76</ele>
        <time>2013-04-10T12:29:46Z</time>
      </trkpt>
      <trkpt lat="44.48024" lon="6.9081">
        <ele>2084.76</ele>
        <time>2013-04-10T12:30:05Z</time>
      </trkpt>
      <trkpt lat="44.48024" lon="6.9081">
        <ele>2083.31</ele>
        <time>2013-04-10T12:30:14Z</time>
      </trkpt>
      <trkpt lat="44.48024" lon="6.9081">
        <ele>2084.28</ele>
        <time>2013-04-10T12:30:23Z</time>
      </trkpt>
      <trkpt lat="44.48025" lon="6.90812">
        <ele>2083.79</ele>
        <time>2013-04-10T12:30:51Z</time>
      </trkpt>
      <trkpt lat="44.48032" lon="6.90827">
        <ele>2080.43</ele>
        <time>2013-04-10T12:30:57Z</time>
      </trkpt>
      <trkpt lat="44.48034" lon="6.90836">
        <ele>2079.47</ele>
        <time>2013-04-10T12:30:59Z</time>
      </trkpt>
      <trkpt lat="44.48036" lon="6.90854">
        <ele>2077.07</ele>
        <time>2013-04-10T12:31:03Z</time>
      </trkpt>
      <trkpt lat="44.48036" lon="6.90856">
        <ele>2076.59</ele>
        <time>2013-04-10T12:31:15Z</time>
      </trkpt>
      <trkpt lat="44.48036" lon="6.90855">
        <ele>2078.51</ele>
        <time>2013-04-10T12:31:24Z</time>
      </trkpt>
      <trkpt lat="44.48037" lon="6.90856">
        <ele>2078.99</ele>
        <time>2013-04-10T12:31:40Z</time>
      </trkpt>
      <trkpt lat="44.48036" lon="6.90856">
        <ele>2078.03</ele>
        <time>2013-04-10T12:32:06Z</time>
      </trkpt>
      <trkpt lat="44.48036" lon="6.90856">
        <ele>2078.03</ele>
        <time>2013-04-10T12:32:24Z</time>
      </trkpt>
      <trkpt lat="44.48036" lon="6.90856">
        <ele>2077.55</ele>
        <time>2013-04-10T12:32:37Z</time>
      </trkpt>
      <trkpt lat="44.48039" lon="6.90864">
        <ele>2075.62</ele>
        <time>2013-04-10T12:32:40Z</time>
      </trkpt>
      <trkpt lat="44.48046" lon="6.90865">
        <ele>2072.74</ele>
        <time>2013-04-10T12:32:43Z</time>
      </trkpt>
      <trkpt lat="44.48051" lon="6.90869">
        <ele>2067.93</ele>
        <time>2013-04-10T12:32:45Z</time>
      </trkpt>
      <trkpt lat="44.48057" lon="6.90873">
        <ele>2064.09</ele>
        <time>2013-04-10T12:32:47Z</time>
      </trkpt>
      <trkpt lat="44.48059" lon="6.9087">
        <ele>2064.09</ele>
        <time>2013-04-10T12:32:48Z</time>
      </trkpt>
      <trkpt lat="44.48065" lon="6.90874">
        <ele>2059.28</ele>
        <time>2013-04-10T12:32:50Z</time>
      </trkpt>
      <trkpt lat="44.48072" lon="6.90899">
        <ele>2054.96</ele>
        <time>2013-04-10T12:32:54Z</time>
      </trkpt>
      <trkpt lat="44.48082" lon="6.90909">
        <ele>2052.07</ele>
        <time>2013-04-10T12:32:58Z</time>
      </trkpt>
      <trkpt lat="44.48087" lon="6.90908">
        <ele>2049.19</ele>
        <time>2013-04-10T12:32:59Z</time>
      </trkpt>
      <trkpt lat="44.48095" lon="6.90914">
        <ele>2045.34</ele>
        <time>2013-04-10T12:33:00Z</time>
      </trkpt>
      <trkpt lat="44.48099" lon="6.90921">
        <ele>2043.42</ele>
        <time>2013-04-10T12:33:01Z</time>
      </trkpt>
      <trkpt lat="44.48102" lon="6.90929">
        <ele>2043.42</ele>
        <time>2013-04-10T12:33:02Z</time>
      </trkpt>
      <trkpt lat="44.48105" lon="6.90935">
        <ele>2043.42</ele>
        <time>2013-04-10T12:33:03Z</time>
      </trkpt>
      <trkpt lat="44.48109" lon="6.90941">
        <ele>2043.42</ele>
        <time>2013-04-10T12:33:04Z</time>
      </trkpt>
      <trkpt lat="44.48112" lon="6.90944">
        <ele>2043.42</ele>
        <time>2013-04-10T12:33:05Z</time>
      </trkpt>
      <trkpt lat="44.48115" lon="6.90946">
        <ele>2043.42</ele>
        <time>2013-04-10T12:33:06Z</time>
      </trkpt>
      <trkpt lat="44.48116" lon="6.90944">
        <ele>2044.86</ele>
        <time>2013-04-10T12:33:08Z</time>
      </trkpt>
      <trkpt lat="44.48115" lon="6.90944">
        <ele>2045.82</ele>
        <time>2013-04-10T12:33:24Z</time>
      </trkpt>
      <trkpt lat="44.48115" lon="6.90944">
        <ele>2044.38</ele>
        <time>2013-04-10T12:33:29Z</time>
      </trkpt>
      <trkpt lat="44.48115" lon="6.90945">
        <ele>2043.42</ele>
        <time>2013-04-10T12:33:49Z</time>
      </trkpt>
      <trkpt lat="44.48115" lon="6.90944">
        <ele>2043.9</ele>
        <time>2013-04-10T12:34:11Z</time>
      </trkpt>
      <trkpt lat="44.48116" lon="6.90943">
        <ele>2044.86</ele>
        <time>2013-04-10T12:34:34Z</time>
      </trkpt>
      <trkpt lat="44.48116" lon="6.90943">
        <ele>2043.9</ele>
        <time>2013-04-10T12:34:54Z</time>
      </trkpt>
      <trkpt lat="44.48117" lon="6.90944">
        <ele>2044.86</ele>
        <time>2013-04-10T12:35:01Z</time>
      </trkpt>
      <trkpt lat="44.48118" lon="6.90946">
        <ele>2044.86</ele>
        <time>2013-04-10T12:35:02Z</time>
      </trkpt>
      <trkpt lat="44.4812" lon="6.90965">
        <ele>2042.94</ele>
        <time>2013-04-10T12:35:05Z</time>
      </trkpt>
      <trkpt lat="44.48123" lon="6.90993">
        <ele>2039.57</ele>
        <time>2013-04-10T12:35:08Z</time>
      </trkpt>
      <trkpt lat="44.48126" lon="6.91022">
        <ele>2036.69</ele>
        <time>2013-04-10T12:35:11Z</time>
      </trkpt>
      <trkpt lat="44.48129" lon="6.91046">
        <ele>2033.33</ele>
        <time>2013-04-10T12:35:14Z</time>
      </trkpt>
      <trkpt lat="44.48137" lon="6.91098">
        <ele>2029.96</ele>
        <time>2013-04-10T12:35:22Z</time>
      </trkpt>
      <trkpt lat="44.4814" lon="6.91123">
        <ele>2028.52</ele>
        <time>2013-04-10T12:35:27Z</time>
      </trkpt>
      <trkpt lat="44.48142" lon="6.91124">
        <ele>2027.56</ele>
        <time>2013-04-10T12:35:28Z</time>
      </trkpt>
      <trkpt lat="44.48145" lon="6.9112">
        <ele>2027.56</ele>
        <time>2013-04-10T12:35:29Z</time>
      </trkpt>
      <trkpt lat="44.48149" lon="6.91117">
        <ele>2025.15</ele>
        <time>2013-04-10T12:35:31Z</time>
      </trkpt>
      <trkpt lat="44.48152" lon="6.91123">
        <ele>2020.83</ele>
        <time>2013-04-10T12:35:32Z</time>
      </trkpt>
      <trkpt lat="44.48154" lon="6.9113">
        <ele>2018.43</ele>
        <time>2013-04-10T12:35:33Z</time>
      </trkpt>
      <trkpt lat="44.48157" lon="6.91137">
        <ele>2016.98</ele>
        <time>2013-04-10T12:35:34Z</time>
      </trkpt>
      <trkpt lat="44.48162" lon="6.91138">
        <ele>2016.98</ele>
        <time>2013-04-10T12:35:35Z</time>
      </trkpt>
      <trkpt lat="44.48169" lon="6.91136">
        <ele>2016.02</ele>
        <time>2013-04-10T12:35:36Z</time>
      </trkpt>
      <trkpt lat="44.48175" lon="6.91137">
        <ele>2013.62</ele>
        <time>2013-04-10T12:35:37Z</time>
      </trkpt>
      <trkpt lat="44.48178" lon="6.91139">
        <ele>2012.18</ele>
        <time>2013-04-10T12:35:38Z</time>
      </trkpt>
      <trkpt lat="44.4818" lon="6.9114">
        <ele>2012.18</ele>
        <time>2013-04-10T12:35:39Z</time>
      </trkpt>
      <trkpt lat="44.48181" lon="6.9114">
        <ele>2014.1</ele>
        <time>2013-04-10T12:35:52Z</time>
      </trkpt>
      <trkpt lat="44.48181" lon="6.9114">
        <ele>2014.1</ele>
        <time>2013-04-10T12:36:09Z</time>
      </trkpt>
      <trkpt lat="44.48181" lon="6.91139">
        <ele>2014.1</ele>
        <time>2013-04-10T12:36:39Z</time>
      </trkpt>
      <trkpt lat="44.48181" lon="6.91139">
        <ele>2014.1</ele>
        <time>2013-04-10T12:36:48Z</time>
      </trkpt>
      <trkpt lat="44.48184" lon="6.91149">
        <ele>2012.18</ele>
        <time>2013-04-10T12:36:51Z</time>
      </trkpt>
      <trkpt lat="44.48185" lon="6.91157">
        <ele>2010.73</ele>
        <time>2013-04-10T12:36:52Z</time>
      </trkpt>
      <trkpt lat="44.48185" lon="6.91165">
        <ele>2009.77</ele>
        <time>2013-04-10T12:36:53Z</time>
      </trkpt>
      <trkpt lat="44.48185" lon="6.91174">
        <ele>2008.33</ele>
        <time>2013-04-10T12:36:54Z</time>
      </trkpt>
      <trkpt lat="44.48184" lon="6.91184">
        <ele>2007.37</ele>
        <time>2013-04-10T12:36:55Z</time>
      </trkpt>
      <trkpt lat="44.48182" lon="6.91211">
        <ele>2004.97</ele>
        <time>2013-04-10T12:36:58Z</time>
      </trkpt>
      <trkpt lat="44.4818" lon="6.91233">
        <ele>2005.45</ele>
        <time>2013-04-10T12:37:06Z</time>
      </trkpt>
      <trkpt lat="44.48178" lon="6.91235">
        <ele>2004.01</ele>
        <time>2013-04-10T12:37:07Z</time>
      </trkpt>
      <trkpt lat="44.48173" lon="6.91238">
        <ele>2002.56</ele>
        <time>2013-04-10T12:37:08Z</time>
      </trkpt>
      <trkpt lat="44.48167" lon="6.91243">
        <ele>2000.64</ele>
        <time>2013-04-10T12:37:09Z</time>
      </trkpt>
      <trkpt lat="44.48161" lon="6.91249">
        <ele>1999.68</ele>
        <time>2013-04-10T12:37:10Z</time>
      </trkpt>
      <trkpt lat="44.48157" lon="6.91254">
        <ele>1999.2</ele>
        <time>2013-04-10T12:37:11Z</time>
      </trkpt>
      <trkpt lat="44.48153" lon="6.9126">
        <ele>1999.2</ele>
        <time>2013-04-10T12:37:12Z</time>
      </trkpt>
      <trkpt lat="44.48137" lon="6.91288">
        <ele>1995.83</ele>
        <time>2013-04-10T12:37:19Z</time>
      </trkpt>
      <trkpt lat="44.48134" lon="6.91292">
        <ele>1995.83</ele>
        <time>2013-04-10T12:37:20Z</time>
      </trkpt>
      <trkpt lat="44.48121" lon="6.91317">
        <ele>1992.47</ele>
        <time>2013-04-10T12:37:26Z</time>
      </trkpt>
      <trkpt lat="44.48117" lon="6.91325">
        <ele>1991.99</ele>
        <time>2013-04-10T12:37:28Z</time>
      </trkpt>
      <trkpt lat="44.48106" lon="6.9134">
        <ele>1990.07</ele>
        <time>2013-04-10T12:37:39Z</time>
      </trkpt>
      <trkpt lat="44.48106" lon="6.9134">
        <ele>1991.99</ele>
        <time>2013-04-10T12:37:46Z</time>
      </trkpt>
      <trkpt lat="44.48106" lon="6.9134">
        <ele>1990.07</ele>
        <time>2013-04-10T12:37:50Z</time>
      </trkpt>
      <trkpt lat="44.48106" lon="6.9134">
        <ele>1990.55</ele>
        <time>2013-04-10T12:38:06Z</time>
      </trkpt>
      <trkpt lat="44.48106" lon="6.9134">
        <ele>1990.55</ele>
        <time>2013-04-10T12:38:24Z</time>
      </trkpt>
      <trkpt lat="44.48106" lon="6.9134">
        <ele>1991.51</ele>
        <time>2013-04-10T12:38:30Z</time>
      </trkpt>
      <trkpt lat="44.48106" lon="6.91341">
        <ele>1993.43</ele>
        <time>2013-04-10T12:38:41Z</time>
      </trkpt>
      <trkpt lat="44.48104" lon="6.91342">
        <ele>1993.43</ele>
        <time>2013-04-10T12:38:49Z</time>
      </trkpt>
      <trkpt lat="44.48104" lon="6.91342">
        <ele>1994.39</ele>
        <time>2013-04-10T12:38:56Z</time>
      </trkpt>
      <trkpt lat="44.48104" lon="6.91342">
        <ele>1990.55</ele>
        <time>2013-04-10T12:39:03Z</time>
      </trkpt>
      <trkpt lat="44.48104" lon="6.91342">
        <ele>1990.55</ele>
        <time>2013-04-10T12:39:04Z</time>
      </trkpt>
      <trkpt lat="44.48104" lon="6.91342">
        <ele>1991.99</ele>
        <time>2013-04-10T12:39:07Z</time>
      </trkpt>
      <trkpt lat="44.48104" lon="6.91342">
        <ele>1990.55</ele>
        <time>2013-04-10T12:39:10Z</time>
      </trkpt>
      <trkpt lat="44.48104" lon="6.91342">
        <ele>1993.91</ele>
        <time>2013-04-10T12:39:15Z</time>
      </trkpt>
      <trkpt lat="44.48104" lon="6.91342">
        <ele>1993.91</ele>
        <time>2013-04-10T12:39:16Z</time>
      </trkpt>
      <trkpt lat="44.48103" lon="6.91342">
        <ele>1992.95</ele>
        <time>2013-04-10T12:39:28Z</time>
      </trkpt>
      <trkpt lat="44.48103" lon="6.91342">
        <ele>1992.95</ele>
        <time>2013-04-10T12:39:35Z</time>
      </trkpt>
      <trkpt lat="44.48101" lon="6.91343">
        <ele>1991.03</ele>
        <time>2013-04-10T12:39:36Z</time>
      </trkpt>
      <trkpt lat="44.48096" lon="6.91344">
        <ele>1989.1</ele>
        <time>2013-04-10T12:39:37Z</time>
      </trkpt>
      <trkpt lat="44.48091" lon="6.91344">
        <ele>1987.66</ele>
        <time>2013-04-10T12:39:38Z</time>
      </trkpt>
      <trkpt lat="44.48088" lon="6.91344">
        <ele>1987.66</ele>
        <time>2013-04-10T12:39:39Z</time>
      </trkpt>
      <trkpt lat="44.48083" lon="6.91346">
        <ele>1985.74</ele>
        <time>2013-04-10T12:39:41Z</time>
      </trkpt>
      <trkpt lat="44.48087" lon="6.91353">
        <ele>1982.38</ele>
        <time>2013-04-10T12:39:44Z</time>
      </trkpt>
      <trkpt lat="44.48088" lon="6.91353">
        <ele>1983.34</ele>
        <time>2013-04-10T12:39:57Z</time>
      </trkpt>
      <trkpt lat="44.48087" lon="6.91352">
        <ele>1983.34</ele>
        <time>2013-04-10T12:40:19Z</time>
      </trkpt>
      <trkpt lat="44.48087" lon="6.91352">
        <ele>1982.86</ele>
        <time>2013-04-10T12:40:24Z</time>
      </trkpt>
      <trkpt lat="44.48088" lon="6.91362">
        <ele>1979.97</ele>
        <time>2013-04-10T12:40:28Z</time>
      </trkpt>
      <trkpt lat="44.48085" lon="6.91363">
        <ele>1978.53</ele>
        <time>2013-04-10T12:40:29Z</time>
      </trkpt>
      <trkpt lat="44.48082" lon="6.91364">
        <ele>1977.57</ele>
        <time>2013-04-10T12:40:30Z</time>
      </trkpt>
      <trkpt lat="44.48081" lon="6.91367">
        <ele>1976.61</ele>
        <time>2013-04-10T12:40:31Z</time>
      </trkpt>
      <trkpt lat="44.48085" lon="6.91374">
        <ele>1973.72</ele>
        <time>2013-04-10T12:40:33Z</time>
      </trkpt>
      <trkpt lat="44.48081" lon="6.91386">
        <ele>1969.4</ele>
        <time>2013-04-10T12:40:36Z</time>
      </trkpt>
      <trkpt lat="44.48077" lon="6.91387">
        <ele>1967.96</ele>
        <time>2013-04-10T12:40:37Z</time>
      </trkpt>
      <trkpt lat="44.48069" lon="6.9139">
        <ele>1964.59</ele>
        <time>2013-04-10T12:40:40Z</time>
      </trkpt>
      <trkpt lat="44.48067" lon="6.9139">
        <ele>1964.59</ele>
        <time>2013-04-10T12:40:41Z</time>
      </trkpt>
      <trkpt lat="44.48067" lon="6.9139">
        <ele>1964.59</ele>
        <time>2013-04-10T12:40:52Z</time>
      </trkpt>
      <trkpt lat="44.48067" lon="6.9139">
        <ele>1964.59</ele>
        <time>2013-04-10T12:41:15Z</time>
      </trkpt>
      <trkpt lat="44.48066" lon="6.91391">
        <ele>1964.59</ele>
        <time>2013-04-10T12:41:36Z</time>
      </trkpt>
      <trkpt lat="44.48059" lon="6.91396">
        <ele>1965.07</ele>
        <time>2013-04-10T12:41:45Z</time>
      </trkpt>
      <trkpt lat="44.48064" lon="6.91406">
        <ele>1960.75</ele>
        <time>2013-04-10T12:41:48Z</time>
      </trkpt>
      <trkpt lat="44.4806" lon="6.91414">
        <ele>1956.42</ele>
        <time>2013-04-10T12:41:50Z</time>
      </trkpt>
      <trkpt lat="44.48055" lon="6.91417">
        <ele>1954.98</ele>
        <time>2013-04-10T12:41:52Z</time>
      </trkpt>
      <trkpt lat="44.48058" lon="6.91425">
        <ele>1951.61</ele>
        <time>2013-04-10T12:41:54Z</time>
      </trkpt>
      <trkpt lat="44.48055" lon="6.91431">
        <ele>1948.25</ele>
        <time>2013-04-10T12:41:56Z</time>
      </trkpt>
      <trkpt lat="44.48051" lon="6.91433">
        <ele>1946.33</ele>
        <time>2013-04-10T12:41:58Z</time>
      </trkpt>
      <trkpt lat="44.48049" lon="6.91433">
        <ele>1945.36</ele>
        <time>2013-04-10T12:41:59Z</time>
      </trkpt>
      <trkpt lat="44.4805" lon="6.9144">
        <ele>1942.96</ele>
        <time>2013-04-10T12:42:03Z</time>
      </trkpt>
      <trkpt lat="44.4805" lon="6.91439">
        <ele>1944.4</ele>
        <time>2013-04-10T12:42:18Z</time>
      </trkpt>
      <trkpt lat="44.48051" lon="6.9144">
        <ele>1944.4</ele>
        <time>2013-04-10T12:42:34Z</time>
      </trkpt>
      <trkpt lat="44.48051" lon="6.91441">
        <ele>1944.4</ele>
        <time>2013-04-10T12:42:52Z</time>
      </trkpt>
      <trkpt lat="44.48051" lon="6.91441">
        <ele>1944.4</ele>
        <time>2013-04-10T12:43:11Z</time>
      </trkpt>
      <trkpt lat="44.4805" lon="6.91441">
        <ele>1944.4</ele>
        <time>2013-04-10T12:43:34Z</time>
      </trkpt>
      <trkpt lat="44.4805" lon="6.91441">
        <ele>1946.33</ele>
        <time>2013-04-10T12:43:48Z</time>
      </trkpt>
      <trkpt lat="44.4805" lon="6.91441">
        <ele>1944.88</ele>
        <time>2013-04-10T12:43:50Z</time>
      </trkpt>
      <trkpt lat="44.4805" lon="6.9144">
        <ele>1946.33</ele>
        <time>2013-04-10T12:44:00Z</time>
      </trkpt>
      <trkpt lat="44.4805" lon="6.9144">
        <ele>1944.88</ele>
        <time>2013-04-10T12:44:01Z</time>
      </trkpt>
      <trkpt lat="44.48032" lon="6.91461">
        <ele>1941.52</ele>
        <time>2013-04-10T12:44:08Z</time>
      </trkpt>
      <trkpt lat="44.4803" lon="6.91464">
        <ele>1941.52</ele>
        <time>2013-04-10T12:44:09Z</time>
      </trkpt>
      <trkpt lat="44.48028" lon="6.91466">
        <ele>1941.52</ele>
        <time>2013-04-10T12:44:17Z</time>
      </trkpt>
      <trkpt lat="44.48028" lon="6.91466">
        <ele>1941.52</ele>
        <time>2013-04-10T12:44:33Z</time>
      </trkpt>
      <trkpt lat="44.48028" lon="6.91466">
        <ele>1941.52</ele>
        <time>2013-04-10T12:44:54Z</time>
      </trkpt>
      <trkpt lat="44.48027" lon="6.91466">
        <ele>1941.52</ele>
        <time>2013-04-10T12:45:15Z</time>
      </trkpt>
      <trkpt lat="44.48027" lon="6.91465">
        <ele>1941.52</ele>
        <time>2013-04-10T12:45:47Z</time>
      </trkpt>
      <trkpt lat="44.48026" lon="6.91466">
        <ele>1942.96</ele>
        <time>2013-04-10T12:45:49Z</time>
      </trkpt>
      <trkpt lat="44.48026" lon="6.91466">
        <ele>1941.52</ele>
        <time>2013-04-10T12:45:50Z</time>
      </trkpt>
      <trkpt lat="44.48025" lon="6.91468">
        <ele>1941.04</ele>
        <time>2013-04-10T12:45:51Z</time>
      </trkpt>
      <trkpt lat="44.48019" lon="6.91481">
        <ele>1937.67</ele>
        <time>2013-04-10T12:45:55Z</time>
      </trkpt>
      <trkpt lat="44.48019" lon="6.91484">
        <ele>1936.71</ele>
        <time>2013-04-10T12:45:56Z</time>
      </trkpt>
      <trkpt lat="44.48028" lon="6.91486">
        <ele>1933.83</ele>
        <time>2013-04-10T12:45:59Z</time>
      </trkpt>
      <trkpt lat="44.4803" lon="6.91486">
        <ele>1932.87</ele>
        <time>2013-04-10T12:46:00Z</time>
      </trkpt>
      <trkpt lat="44.4803" lon="6.91499">
        <ele>1928.54</ele>
        <time>2013-04-10T12:46:05Z</time>
      </trkpt>
      <trkpt lat="44.48039" lon="6.915">
        <ele>1925.66</ele>
        <time>2013-04-10T12:46:09Z</time>
      </trkpt>
      <trkpt lat="44.48039" lon="6.915">
        <ele>1925.66</ele>
        <time>2013-04-10T12:46:23Z</time>
      </trkpt>
      <trkpt lat="44.48039" lon="6.915">
        <ele>1925.66</ele>
        <time>2013-04-10T12:46:47Z</time>
      </trkpt>
      <trkpt lat="44.48039" lon="6.915">
        <ele>1925.66</ele>
        <time>2013-04-10T12:47:09Z</time>
      </trkpt>
      <trkpt lat="44.48039" lon="6.915">
        <ele>1925.66</ele>
        <time>2013-04-10T12:47:36Z</time>
      </trkpt>
      <trkpt lat="44.48039" lon="6.915">
        <ele>1927.58</ele>
        <time>2013-04-10T12:47:50Z</time>
      </trkpt>
      <trkpt lat="44.48041" lon="6.915">
        <ele>1926.14</ele>
        <time>2013-04-10T12:47:52Z</time>
      </trkpt>
      <trkpt lat="44.4805" lon="6.91503">
        <ele>1923.74</ele>
        <time>2013-04-10T12:47:56Z</time>
      </trkpt>
      <trkpt lat="44.48048" lon="6.91513">
        <ele>1919.41</ele>
        <time>2013-04-10T12:47:58Z</time>
      </trkpt>
      <trkpt lat="44.48052" lon="6.91519">
        <ele>1917.01</ele>
        <time>2013-04-10T12:48:00Z</time>
      </trkpt>
      <trkpt lat="44.48057" lon="6.91518">
        <ele>1915.56</ele>
        <time>2013-04-10T12:48:01Z</time>
      </trkpt>
      <trkpt lat="44.48061" lon="6.91516">
        <ele>1914.6</ele>
        <time>2013-04-10T12:48:02Z</time>
      </trkpt>
      <trkpt lat="44.48063" lon="6.91518">
        <ele>1913.16</ele>
        <time>2013-04-10T12:48:03Z</time>
      </trkpt>
      <trkpt lat="44.48061" lon="6.91525">
        <ele>1909.8</ele>
        <time>2013-04-10T12:48:05Z</time>
      </trkpt>
      <trkpt lat="44.48064" lon="6.91532">
        <ele>1908.35</ele>
        <time>2013-04-10T12:48:07Z</time>
      </trkpt>
      <trkpt lat="44.48067" lon="6.91531">
        <ele>1908.35</ele>
        <time>2013-04-10T12:48:08Z</time>
      </trkpt>
      <trkpt lat="44.48069" lon="6.9153">
        <ele>1907.39</ele>
        <time>2013-04-10T12:48:09Z</time>
      </trkpt>
      <trkpt lat="44.4807" lon="6.9153">
        <ele>1906.91</ele>
        <time>2013-04-10T12:48:10Z</time>
      </trkpt>
      <trkpt lat="44.48072" lon="6.9153">
        <ele>1906.43</ele>
        <time>2013-04-10T12:48:11Z</time>
      </trkpt>
      <trkpt lat="44.48073" lon="6.91533">
        <ele>1906.43</ele>
        <time>2013-04-10T12:48:12Z</time>
      </trkpt>
      <trkpt lat="44.48067" lon="6.91542">
        <ele>1902.11</ele>
        <time>2013-04-10T12:48:15Z</time>
      </trkpt>
      <trkpt lat="44.48064" lon="6.91544">
        <ele>1902.11</ele>
        <time>2013-04-10T12:48:16Z</time>
      </trkpt>
      <trkpt lat="44.48063" lon="6.91555">
        <ele>1899.22</ele>
        <time>2013-04-10T12:48:19Z</time>
      </trkpt>
      <trkpt lat="44.48067" lon="6.91557">
        <ele>1897.78</ele>
        <time>2013-04-10T12:48:20Z</time>
      </trkpt>
      <trkpt lat="44.48066" lon="6.91566">
        <ele>1893.93</ele>
        <time>2013-04-10T12:48:22Z</time>
      </trkpt>
      <trkpt lat="44.48063" lon="6.91571">
        <ele>1892.49</ele>
        <time>2013-04-10T12:48:23Z</time>
      </trkpt>
      <trkpt lat="44.48065" lon="6.91576">
        <ele>1890.57</ele>
        <time>2013-04-10T12:48:24Z</time>
      </trkpt>
      <trkpt lat="44.48068" lon="6.9158">
        <ele>1889.61</ele>
        <time>2013-04-10T12:48:25Z</time>
      </trkpt>
      <trkpt lat="44.4807" lon="6.91584">
        <ele>1888.17</ele>
        <time>2013-04-10T12:48:26Z</time>
      </trkpt>
      <trkpt lat="44.48068" lon="6.91588">
        <ele>1886.24</ele>
        <time>2013-04-10T12:48:27Z</time>
      </trkpt>
      <trkpt lat="44.48064" lon="6.9159">
        <ele>1885.28</ele>
        <time>2013-04-10T12:48:28Z</time>
      </trkpt>
      <trkpt lat="44.48059" lon="6.91589">
        <ele>1884.32</ele>
        <time>2013-04-10T12:48:30Z</time>
      </trkpt>
      <trkpt lat="44.48059" lon="6.91589">
        <ele>1883.84</ele>
        <time>2013-04-10T12:48:40Z</time>
      </trkpt>
      <trkpt lat="44.48059" lon="6.91589">
        <ele>1883.84</ele>
        <time>2013-04-10T12:49:01Z</time>
      </trkpt>
      <trkpt lat="44.48059" lon="6.91589">
        <ele>1885.28</ele>
        <time>2013-04-10T12:49:22Z</time>
      </trkpt>
      <trkpt lat="44.48059" lon="6.91589">
        <ele>1883.36</ele>
        <time>2013-04-10T12:49:39Z</time>
      </trkpt>
      <trkpt lat="44.48059" lon="6.91589">
        <ele>1883.36</ele>
        <time>2013-04-10T12:49:40Z</time>
      </trkpt>
      <trkpt lat="44.48059" lon="6.91589">
        <ele>1884.8</ele>
        <time>2013-04-10T12:49:51Z</time>
      </trkpt>
      <trkpt lat="44.48058" lon="6.91589">
        <ele>1884.32</ele>
        <time>2013-04-10T12:50:07Z</time>
      </trkpt>
      <trkpt lat="44.48057" lon="6.9159">
        <ele>1884.32</ele>
        <time>2013-04-10T12:50:08Z</time>
      </trkpt>
      <trkpt lat="44.48055" lon="6.91592">
        <ele>1883.84</ele>
        <time>2013-04-10T12:50:09Z</time>
      </trkpt>
      <trkpt lat="44.48051" lon="6.91594">
        <ele>1883.84</ele>
        <time>2013-04-10T12:50:10Z</time>
      </trkpt>
      <trkpt lat="44.48047" lon="6.91596">
        <ele>1882.88</ele>
        <time>2013-04-10T12:50:11Z</time>
      </trkpt>
      <trkpt lat="44.48044" lon="6.91598">
        <ele>1882.4</ele>
        <time>2013-04-10T12:50:12Z</time>
      </trkpt>
      <trkpt lat="44.48039" lon="6.916">
        <ele>1880.96</ele>
        <time>2013-04-10T12:50:15Z</time>
      </trkpt>
      <trkpt lat="44.48039" lon="6.916">
        <ele>1879.51</ele>
        <time>2013-04-10T12:50:35Z</time>
      </trkpt>
      <trkpt lat="44.48039" lon="6.916">
        <ele>1882.4</ele>
        <time>2013-04-10T12:51:01Z</time>
      </trkpt>
      <trkpt lat="44.48038" lon="6.91601">
        <ele>1882.4</ele>
        <time>2013-04-10T12:51:09Z</time>
      </trkpt>
      <trkpt lat="44.48037" lon="6.91604">
        <ele>1881.92</ele>
        <time>2013-04-10T12:51:10Z</time>
      </trkpt>
      <trkpt lat="44.48036" lon="6.91608">
        <ele>1880.48</ele>
        <time>2013-04-10T12:51:11Z</time>
      </trkpt>
      <trkpt lat="44.48045" lon="6.91616">
        <ele>1877.59</ele>
        <time>2013-04-10T12:51:14Z</time>
      </trkpt>
      <trkpt lat="44.48043" lon="6.91624">
        <ele>1873.27</ele>
        <time>2013-04-10T12:51:16Z</time>
      </trkpt>
      <trkpt lat="44.4804" lon="6.91626">
        <ele>1872.79</ele>
        <time>2013-04-10T12:51:17Z</time>
      </trkpt>
      <trkpt lat="44.4803" lon="6.91634">
        <ele>1869.9</ele>
        <time>2013-04-10T12:51:20Z</time>
      </trkpt>
      <trkpt lat="44.4803" lon="6.91638">
        <ele>1868.46</ele>
        <time>2013-04-10T12:51:21Z</time>
      </trkpt>
      <trkpt lat="44.48041" lon="6.91644">
        <ele>1865.58</ele>
        <time>2013-04-10T12:51:25Z</time>
      </trkpt>
      <trkpt lat="44.48039" lon="6.91648">
        <ele>1864.13</ele>
        <time>2013-04-10T12:51:26Z</time>
      </trkpt>
      <trkpt lat="44.48035" lon="6.91652">
        <ele>1862.69</ele>
        <time>2013-04-10T12:51:27Z</time>
      </trkpt>
      <trkpt lat="44.4803" lon="6.91655">
        <ele>1860.77</ele>
        <time>2013-04-10T12:51:28Z</time>
      </trkpt>
      <trkpt lat="44.48024" lon="6.91659">
        <ele>1859.33</ele>
        <time>2013-04-10T12:51:30Z</time>
      </trkpt>
      <trkpt lat="44.48024" lon="6.91663">
        <ele>1858.85</ele>
        <time>2013-04-10T12:51:31Z</time>
      </trkpt>
      <trkpt lat="44.4803" lon="6.91666">
        <ele>1855.48</ele>
        <time>2013-04-10T12:51:34Z</time>
      </trkpt>
      <trkpt lat="44.4803" lon="6.91666">
        <ele>1855.48</ele>
        <time>2013-04-10T12:51:35Z</time>
      </trkpt>
      <trkpt lat="44.4803" lon="6.91666">
        <ele>1856.92</ele>
        <time>2013-04-10T12:51:39Z</time>
      </trkpt>
      <trkpt lat="44.48031" lon="6.91665">
        <ele>1857.89</ele>
        <time>2013-04-10T12:51:52Z</time>
      </trkpt>
      <trkpt lat="44.48031" lon="6.91665">
        <ele>1856.92</ele>
        <time>2013-04-10T12:51:54Z</time>
      </trkpt>
      <trkpt lat="44.48031" lon="6.91665">
        <ele>1856.92</ele>
        <time>2013-04-10T12:52:13Z</time>
      </trkpt>
      <trkpt lat="44.48031" lon="6.91665">
        <ele>1856.92</ele>
        <time>2013-04-10T12:52:40Z</time>
      </trkpt>
      <trkpt lat="44.48031" lon="6.91665">
        <ele>1856.92</ele>
        <time>2013-04-10T12:52:41Z</time>
      </trkpt>
      <trkpt lat="44.48036" lon="6.91676">
        <ele>1854.52</ele>
        <time>2013-04-10T12:52:46Z</time>
      </trkpt>
      <trkpt lat="44.48033" lon="6.91679">
        <ele>1852.6</ele>
        <time>2013-04-10T12:52:47Z</time>
      </trkpt>
      <trkpt lat="44.48035" lon="6.9169">
        <ele>1847.31</ele>
        <time>2013-04-10T12:52:50Z</time>
      </trkpt>
      <trkpt lat="44.48039" lon="6.91693">
        <ele>1845.87</ele>
        <time>2013-04-10T12:52:51Z</time>
      </trkpt>
      <trkpt lat="44.4804" lon="6.91696">
        <ele>1844.43</ele>
        <time>2013-04-10T12:52:52Z</time>
      </trkpt>
      <trkpt lat="44.48038" lon="6.917">
        <ele>1842.02</ele>
        <time>2013-04-10T12:52:53Z</time>
      </trkpt>
      <trkpt lat="44.48034" lon="6.91703">
        <ele>1840.1</ele>
        <time>2013-04-10T12:52:54Z</time>
      </trkpt>
      <trkpt lat="44.4803" lon="6.91707">
        <ele>1838.18</ele>
        <time>2013-04-10T12:52:55Z</time>
      </trkpt>
      <trkpt lat="44.48037" lon="6.91713">
        <ele>1835.29</ele>
        <time>2013-04-10T12:52:58Z</time>
      </trkpt>
      <trkpt lat="44.48039" lon="6.91713">
        <ele>1834.33</ele>
        <time>2013-04-10T12:53:08Z</time>
      </trkpt>
      <trkpt lat="44.48039" lon="6.91722">
        <ele>1830.97</ele>
        <time>2013-04-10T12:53:13Z</time>
      </trkpt>
      <trkpt lat="44.48037" lon="6.91721">
        <ele>1830.49</ele>
        <time>2013-04-10T12:53:22Z</time>
      </trkpt>
      <trkpt lat="44.48037" lon="6.91721">
        <ele>1830.01</ele>
        <time>2013-04-10T12:53:41Z</time>
      </trkpt>
      <trkpt lat="44.48037" lon="6.91721">
        <ele>1831.45</ele>
        <time>2013-04-10T12:53:53Z</time>
      </trkpt>
      <trkpt lat="44.48038" lon="6.91722">
        <ele>1830.49</ele>
        <time>2013-04-10T12:53:58Z</time>
      </trkpt>
      <trkpt lat="44.48038" lon="6.91722">
        <ele>1830.49</ele>
        <time>2013-04-10T12:54:19Z</time>
      </trkpt>
      <trkpt lat="44.48038" lon="6.91722">
        <ele>1830.49</ele>
        <time>2013-04-10T12:54:38Z</time>
      </trkpt>
      <trkpt lat="44.48038" lon="6.91722">
        <ele>1830.49</ele>
        <time>2013-04-10T12:54:55Z</time>
      </trkpt>
      <trkpt lat="44.48038" lon="6.91722">
        <ele>1830.49</ele>
        <time>2013-04-10T12:55:11Z</time>
      </trkpt>
      <trkpt lat="44.48038" lon="6.91723">
        <ele>1830.97</ele>
        <time>2013-04-10T12:55:30Z</time>
      </trkpt>
      <trkpt lat="44.48038" lon="6.91723">
        <ele>1830.49</ele>
        <time>2013-04-10T12:56:00Z</time>
      </trkpt>
      <trkpt lat="44.48038" lon="6.91723">
        <ele>1830.49</ele>
        <time>2013-04-10T12:56:23Z</time>
      </trkpt>
      <trkpt lat="44.48038" lon="6.91723">
        <ele>1830.01</ele>
        <time>2013-04-10T12:56:36Z</time>
      </trkpt>
      <trkpt lat="44.48038" lon="6.91723">
        <ele>1829.53</ele>
        <time>2013-04-10T12:56:55Z</time>
      </trkpt>
      <trkpt lat="44.48038" lon="6.91723">
        <ele>1829.53</ele>
        <time>2013-04-10T12:57:28Z</time>
      </trkpt>
      <trkpt lat="44.48038" lon="6.91723">
        <ele>1830.01</ele>
        <time>2013-04-10T12:58:04Z</time>
      </trkpt>
      <trkpt lat="44.48038" lon="6.91724">
        <ele>1830.49</ele>
        <time>2013-04-10T12:58:19Z</time>
      </trkpt>
      <trkpt lat="44.48039" lon="6.91725">
        <ele>1831.93</ele>
        <time>2013-04-10T12:58:22Z</time>
      </trkpt>
      <trkpt lat="44.48039" lon="6.91725">
        <ele>1830.49</ele>
        <time>2013-04-10T12:58:36Z</time>
      </trkpt>
      <trkpt lat="44.48039" lon="6.91725">
        <ele>1830.49</ele>
        <time>2013-04-10T12:59:04Z</time>
      </trkpt>
      <trkpt lat="44.48039" lon="6.91725">
        <ele>1830.97</ele>
        <time>2013-04-10T12:59:10Z</time>
      </trkpt>
      <trkpt lat="44.48031" lon="6.91734">
        <ele>1828.08</ele>
        <time>2013-04-10T12:59:14Z</time>
      </trkpt>
      <trkpt lat="44.48033" lon="6.91738">
        <ele>1826.64</ele>
        <time>2013-04-10T12:59:15Z</time>
      </trkpt>
      <trkpt lat="44.48036" lon="6.9174">
        <ele>1826.16</ele>
        <time>2013-04-10T12:59:16Z</time>
      </trkpt>
      <trkpt lat="44.48038" lon="6.91744">
        <ele>1825.2</ele>
        <time>2013-04-10T12:59:17Z</time>
      </trkpt>
      <trkpt lat="44.48035" lon="6.91752">
        <ele>1820.87</ele>
        <time>2013-04-10T12:59:19Z</time>
      </trkpt>
      <trkpt lat="44.48031" lon="6.91755">
        <ele>1819.91</ele>
        <time>2013-04-10T12:59:20Z</time>
      </trkpt>
      <trkpt lat="44.48027" lon="6.91756">
        <ele>1817.99</ele>
        <time>2013-04-10T12:59:21Z</time>
      </trkpt>
      <trkpt lat="44.48014" lon="6.91765">
        <ele>1815.59</ele>
        <time>2013-04-10T12:59:25Z</time>
      </trkpt>
      <trkpt lat="44.48006" lon="6.91775">
        <ele>1812.22</ele>
        <time>2013-04-10T12:59:27Z</time>
      </trkpt>
      <trkpt lat="44.48003" lon="6.91779">
        <ele>1810.3</ele>
        <time>2013-04-10T12:59:28Z</time>
      </trkpt>
      <trkpt lat="44.47994" lon="6.91788">
        <ele>1808.86</ele>
        <time>2013-04-10T12:59:30Z</time>
      </trkpt>
      <trkpt lat="44.47986" lon="6.91799">
        <ele>1805.49</ele>
        <time>2013-04-10T12:59:32Z</time>
      </trkpt>
      <trkpt lat="44.47973" lon="6.91816">
        <ele>1802.61</ele>
        <time>2013-04-10T12:59:35Z</time>
      </trkpt>
      <trkpt lat="44.4797" lon="6.91821">
        <ele>1801.65</ele>
        <time>2013-04-10T12:59:36Z</time>
      </trkpt>
      <trkpt lat="44.47966" lon="6.91828">
        <ele>1800.69</ele>
        <time>2013-04-10T12:59:37Z</time>
      </trkpt>
      <trkpt lat="44.47963" lon="6.91835">
        <ele>1799.24</ele>
        <time>2013-04-10T12:59:38Z</time>
      </trkpt>
      <trkpt lat="44.47961" lon="6.91843">
        <ele>1797.8</ele>
        <time>2013-04-10T12:59:39Z</time>
      </trkpt>
      <trkpt lat="44.47959" lon="6.91851">
        <ele>1796.84</ele>
        <time>2013-04-10T12:59:40Z</time>
      </trkpt>
      <trkpt lat="44.47956" lon="6.91857">
        <ele>1794.92</ele>
        <time>2013-04-10T12:59:41Z</time>
      </trkpt>
      <trkpt lat="44.47954" lon="6.91863">
        <ele>1794.44</ele>
        <time>2013-04-10T12:59:42Z</time>
      </trkpt>
      <trkpt lat="44.47952" lon="6.91868">
        <ele>1793.48</ele>
        <time>2013-04-10T12:59:43Z</time>
      </trkpt>
      <trkpt lat="44.47944" lon="6.91902">
        <ele>1790.11</ele>
        <time>2013-04-10T12:59:50Z</time>
      </trkpt>
      <trkpt lat="44.47948" lon="6.91906">
        <ele>1788.67</ele>
        <time>2013-04-10T12:59:51Z</time>
      </trkpt>
      <trkpt lat="44.47953" lon="6.91905">
        <ele>1787.71</ele>
        <time>2013-04-10T12:59:52Z</time>
      </trkpt>
      <trkpt lat="44.47961" lon="6.91903">
        <ele>1785.79</ele>
        <time>2013-04-10T12:59:54Z</time>
      </trkpt>
      <trkpt lat="44.47964" lon="6.91906">
        <ele>1783.38</ele>
        <time>2013-04-10T12:59:55Z</time>
      </trkpt>
      <trkpt lat="44.47965" lon="6.91914">
        <ele>1780.5</ele>
        <time>2013-04-10T12:59:56Z</time>
      </trkpt>
      <trkpt lat="44.47964" lon="6.91922">
        <ele>1778.58</ele>
        <time>2013-04-10T12:59:57Z</time>
      </trkpt>
      <trkpt lat="44.47962" lon="6.91929">
        <ele>1777.13</ele>
        <time>2013-04-10T12:59:58Z</time>
      </trkpt>
      <trkpt lat="44.47961" lon="6.91934">
        <ele>1777.13</ele>
        <time>2013-04-10T12:59:59Z</time>
      </trkpt>
      <trkpt lat="44.47963" lon="6.91936">
        <ele>1776.17</ele>
        <time>2013-04-10T13:00:00Z</time>
      </trkpt>
      <trkpt lat="44.47965" lon="6.91937">
        <ele>1775.21</ele>
        <time>2013-04-10T13:00:07Z</time>
      </trkpt>
      <trkpt lat="44.47965" lon="6.91937">
        <ele>1776.17</ele>
        <time>2013-04-10T13:00:24Z</time>
      </trkpt>
      <trkpt lat="44.47966" lon="6.91938">
        <ele>1776.17</ele>
        <time>2013-04-10T13:00:42Z</time>
      </trkpt>
      <trkpt lat="44.47966" lon="6.91938">
        <ele>1776.17</ele>
        <time>2013-04-10T13:00:59Z</time>
      </trkpt>
      <trkpt lat="44.47966" lon="6.91938">
        <ele>1775.69</ele>
        <time>2013-04-10T13:01:21Z</time>
      </trkpt>
      <trkpt lat="44.47966" lon="6.91938">
        <ele>1777.13</ele>
        <time>2013-04-10T13:01:33Z</time>
      </trkpt>
      <trkpt lat="44.47966" lon="6.91937">
        <ele>1775.69</ele>
        <time>2013-04-10T13:01:35Z</time>
      </trkpt>
      <trkpt lat="44.47966" lon="6.91937">
        <ele>1775.69</ele>
        <time>2013-04-10T13:02:03Z</time>
      </trkpt>
      <trkpt lat="44.47966" lon="6.91937">
        <ele>1775.21</ele>
        <time>2013-04-10T13:02:24Z</time>
      </trkpt>
      <trkpt lat="44.47966" lon="6.91937">
        <ele>1775.21</ele>
        <time>2013-04-10T13:02:44Z</time>
      </trkpt>
      <trkpt lat="44.47966" lon="6.91938">
        <ele>1775.21</ele>
        <time>2013-04-10T13:03:12Z</time>
      </trkpt>
      <trkpt lat="44.47971" lon="6.91936">
        <ele>1774.73</ele>
        <time>2013-04-10T13:03:31Z</time>
      </trkpt>
      <trkpt lat="44.47971" lon="6.91936">
        <ele>1774.73</ele>
        <time>2013-04-10T13:03:59Z</time>
      </trkpt>
      <trkpt lat="44.47971" lon="6.91935">
        <ele>1774.73</ele>
        <time>2013-04-10T13:04:06Z</time>
      </trkpt>
      <trkpt lat="44.47973" lon="6.91935">
        <ele>1774.73</ele>
        <time>2013-04-10T13:04:07Z</time>
      </trkpt>
      <trkpt lat="44.47975" lon="6.91937">
        <ele>1773.29</ele>
        <time>2013-04-10T13:04:08Z</time>
      </trkpt>
      <trkpt lat="44.47977" lon="6.91941">
        <ele>1771.85</ele>
        <time>2013-04-10T13:04:09Z</time>
      </trkpt>
      <trkpt lat="44.47976" lon="6.91946">
        <ele>1770.89</ele>
        <time>2013-04-10T13:04:10Z</time>
      </trkpt>
      <trkpt lat="44.47975" lon="6.91952">
        <ele>1769.92</ele>
        <time>2013-04-10T13:04:11Z</time>
      </trkpt>
      <trkpt lat="44.47974" lon="6.91957">
        <ele>1768.96</ele>
        <time>2013-04-10T13:04:12Z</time>
      </trkpt>
      <trkpt lat="44.47974" lon="6.91961">
        <ele>1768.96</ele>
        <time>2013-04-10T13:04:13Z</time>
      </trkpt>
      <trkpt lat="44.47978" lon="6.91968">
        <ele>1766.08</ele>
        <time>2013-04-10T13:04:15Z</time>
      </trkpt>
      <trkpt lat="44.47982" lon="6.91968">
        <ele>1765.6</ele>
        <time>2013-04-10T13:04:16Z</time>
      </trkpt>
      <trkpt lat="44.47986" lon="6.91965">
        <ele>1764.16</ele>
        <time>2013-04-10T13:04:17Z</time>
      </trkpt>
      <trkpt lat="44.47989" lon="6.91966">
        <ele>1763.2</ele>
        <time>2013-04-10T13:04:18Z</time>
      </trkpt>
      <trkpt lat="44.47988" lon="6.91981">
        <ele>1758.87</ele>
        <time>2013-04-10T13:04:21Z</time>
      </trkpt>
      <trkpt lat="44.47986" lon="6.91995">
        <ele>1755.99</ele>
        <time>2013-04-10T13:04:25Z</time>
      </trkpt>
      <trkpt lat="44.47996" lon="6.91996">
        <ele>1753.1</ele>
        <time>2013-04-10T13:04:27Z</time>
      </trkpt>
      <trkpt lat="44.48" lon="6.91994">
        <ele>1751.66</ele>
        <time>2013-04-10T13:04:28Z</time>
      </trkpt>
      <trkpt lat="44.48004" lon="6.92002">
        <ele>1749.26</ele>
        <time>2013-04-10T13:04:30Z</time>
      </trkpt>
      <trkpt lat="44.48002" lon="6.92008">
        <ele>1747.81</ele>
        <time>2013-04-10T13:04:31Z</time>
      </trkpt>
      <trkpt lat="44.48001" lon="6.92013">
        <ele>1747.81</ele>
        <time>2013-04-10T13:04:32Z</time>
      </trkpt>
      <trkpt lat="44.47991" lon="6.92035">
        <ele>1744.45</ele>
        <time>2013-04-10T13:04:41Z</time>
      </trkpt>
      <trkpt lat="44.47991" lon="6.92035">
        <ele>1744.93</ele>
        <time>2013-04-10T13:04:57Z</time>
      </trkpt>
      <trkpt lat="44.47991" lon="6.92035">
        <ele>1744.45</ele>
        <time>2013-04-10T13:05:25Z</time>
      </trkpt>
      <trkpt lat="44.47991" lon="6.92035">
        <ele>1744.45</ele>
        <time>2013-04-10T13:05:52Z</time>
      </trkpt>
      <trkpt lat="44.47991" lon="6.92034">
        <ele>1744.45</ele>
        <time>2013-04-10T13:06:07Z</time>
      </trkpt>
      <trkpt lat="44.47991" lon="6.92036">
        <ele>1744.45</ele>
        <time>2013-04-10T13:06:08Z</time>
      </trkpt>
      <trkpt lat="44.47991" lon="6.9204">
        <ele>1744.45</ele>
        <time>2013-04-10T13:06:09Z</time>
      </trkpt>
      <trkpt lat="44.47997" lon="6.92044">
        <ele>1741.08</ele>
        <time>2013-04-10T13:06:11Z</time>
      </trkpt>
      <trkpt lat="44.48002" lon="6.92043">
        <ele>1740.12</ele>
        <time>2013-04-10T13:06:12Z</time>
      </trkpt>
      <trkpt lat="44.48005" lon="6.92046">
        <ele>1738.2</ele>
        <time>2013-04-10T13:06:13Z</time>
      </trkpt>
      <trkpt lat="44.48005" lon="6.92051">
        <ele>1736.76</ele>
        <time>2013-04-10T13:06:14Z</time>
      </trkpt>
      <trkpt lat="44.48003" lon="6.92056">
        <ele>1736.28</ele>
        <time>2013-04-10T13:06:15Z</time>
      </trkpt>
      <trkpt lat="44.48005" lon="6.92065">
        <ele>1733.39</ele>
        <time>2013-04-10T13:06:17Z</time>
      </trkpt>
      <trkpt lat="44.48009" lon="6.92065">
        <ele>1732.43</ele>
        <time>2013-04-10T13:06:18Z</time>
      </trkpt>
      <trkpt lat="44.48014" lon="6.92065">
        <ele>1731.47</ele>
        <time>2013-04-10T13:06:19Z</time>
      </trkpt>
      <trkpt lat="44.4802" lon="6.92067">
        <ele>1729.55</ele>
        <time>2013-04-10T13:06:21Z</time>
      </trkpt>
      <trkpt lat="44.4802" lon="6.92072">
        <ele>1727.63</ele>
        <time>2013-04-10T13:06:22Z</time>
      </trkpt>
      <trkpt lat="44.48019" lon="6.92078">
        <ele>1726.67</ele>
        <time>2013-04-10T13:06:23Z</time>
      </trkpt>
      <trkpt lat="44.48023" lon="6.92086">
        <ele>1724.26</ele>
        <time>2013-04-10T13:06:25Z</time>
      </trkpt>
      <trkpt lat="44.48027" lon="6.92087">
        <ele>1722.34</ele>
        <time>2013-04-10T13:06:26Z</time>
      </trkpt>
      <trkpt lat="44.48031" lon="6.92089">
        <ele>1721.38</ele>
        <time>2013-04-10T13:06:27Z</time>
      </trkpt>
      <trkpt lat="44.48032" lon="6.92101">
        <ele>1718.01</ele>
        <time>2013-04-10T13:06:29Z</time>
      </trkpt>
      <trkpt lat="44.4803" lon="6.92105">
        <ele>1717.05</ele>
        <time>2013-04-10T13:06:30Z</time>
      </trkpt>
      <trkpt lat="44.48028" lon="6.92109">
        <ele>1716.09</ele>
        <time>2013-04-10T13:06:31Z</time>
      </trkpt>
      <trkpt lat="44.48026" lon="6.92111">
        <ele>1716.57</ele>
        <time>2013-04-10T13:06:41Z</time>
      </trkpt>
      <trkpt lat="44.48026" lon="6.92111">
        <ele>1716.57</ele>
        <time>2013-04-10T13:07:07Z</time>
      </trkpt>
      <trkpt lat="44.48026" lon="6.92114">
        <ele>1716.57</ele>
        <time>2013-04-10T13:07:21Z</time>
      </trkpt>
      <trkpt lat="44.48026" lon="6.92118">
        <ele>1716.57</ele>
        <time>2013-04-10T13:07:22Z</time>
      </trkpt>
      <trkpt lat="44.48032" lon="6.92124">
        <ele>1714.17</ele>
        <time>2013-04-10T13:07:24Z</time>
      </trkpt>
      <trkpt lat="44.48042" lon="6.9213">
        <ele>1709.84</ele>
        <time>2013-04-10T13:07:27Z</time>
      </trkpt>
      <trkpt lat="44.48039" lon="6.92147">
        <ele>1707.44</ele>
        <time>2013-04-10T13:07:30Z</time>
      </trkpt>
      <trkpt lat="44.48033" lon="6.92158">
        <ele>1705.04</ele>
        <time>2013-04-10T13:07:38Z</time>
      </trkpt>
      <trkpt lat="44.48033" lon="6.92158">
        <ele>1705.52</ele>
        <time>2013-04-10T13:07:55Z</time>
      </trkpt>
      <trkpt lat="44.48033" lon="6.92157">
        <ele>1705.04</ele>
        <time>2013-04-10T13:08:21Z</time>
      </trkpt>
      <trkpt lat="44.48033" lon="6.92158">
        <ele>1705.04</ele>
        <time>2013-04-10T13:08:28Z</time>
      </trkpt>
      <trkpt lat="44.48043" lon="6.92172">
        <ele>1702.15</ele>
        <time>2013-04-10T13:08:33Z</time>
      </trkpt>
      <trkpt lat="44.48054" lon="6.92178">
        <ele>1698.79</ele>
        <time>2013-04-10T13:08:36Z</time>
      </trkpt>
      <trkpt lat="44.48054" lon="6.92191">
        <ele>1695.9</ele>
        <time>2013-04-10T13:08:38Z</time>
      </trkpt>
      <trkpt lat="44.48042" lon="6.92214">
        <ele>1692.54</ele>
        <time>2013-04-10T13:08:43Z</time>
      </trkpt>
      <trkpt lat="44.48049" lon="6.92229">
        <ele>1688.21</ele>
        <time>2013-04-10T13:08:48Z</time>
      </trkpt>
      <trkpt lat="44.48047" lon="6.92232">
        <ele>1687.25</ele>
        <time>2013-04-10T13:08:50Z</time>
      </trkpt>
      <trkpt lat="44.48047" lon="6.92233">
        <ele>1687.25</ele>
        <time>2013-04-10T13:09:03Z</time>
      </trkpt>
      <trkpt lat="44.48047" lon="6.92234">
        <ele>1687.25</ele>
        <time>2013-04-10T13:09:08Z</time>
      </trkpt>
      <trkpt lat="44.48054" lon="6.92249">
        <ele>1684.37</ele>
        <time>2013-04-10T13:09:13Z</time>
      </trkpt>
      <trkpt lat="44.48054" lon="6.92254">
        <ele>1682.93</ele>
        <time>2013-04-10T13:09:14Z</time>
      </trkpt>
      <trkpt lat="44.48055" lon="6.9226">
        <ele>1681.48</ele>
        <time>2013-04-10T13:09:15Z</time>
      </trkpt>
      <trkpt lat="44.48058" lon="6.92271">
        <ele>1677.64</ele>
        <time>2013-04-10T13:09:18Z</time>
      </trkpt>
      <trkpt lat="44.48056" lon="6.92272">
        <ele>1676.2</ele>
        <time>2013-04-10T13:09:27Z</time>
      </trkpt>
      <trkpt lat="44.48056" lon="6.92272">
        <ele>1676.2</ele>
        <time>2013-04-10T13:09:45Z</time>
      </trkpt>
      <trkpt lat="44.48056" lon="6.92273">
        <ele>1676.2</ele>
        <time>2013-04-10T13:10:12Z</time>
      </trkpt>
      <trkpt lat="44.48056" lon="6.92273">
        <ele>1676.2</ele>
        <time>2013-04-10T13:10:14Z</time>
      </trkpt>
      <trkpt lat="44.48064" lon="6.92287">
        <ele>1674.27</ele>
        <time>2013-04-10T13:10:19Z</time>
      </trkpt>
      <trkpt lat="44.48068" lon="6.92289">
        <ele>1672.83</ele>
        <time>2013-04-10T13:10:20Z</time>
      </trkpt>
      <trkpt lat="44.48072" lon="6.92299">
        <ele>1669.47</ele>
        <time>2013-04-10T13:10:22Z</time>
      </trkpt>
      <trkpt lat="44.48072" lon="6.92304">
        <ele>1669.47</ele>
        <time>2013-04-10T13:10:23Z</time>
      </trkpt>
      <trkpt lat="44.48071" lon="6.9231">
        <ele>1668.51</ele>
        <time>2013-04-10T13:10:24Z</time>
      </trkpt>
      <trkpt lat="44.48076" lon="6.92317">
        <ele>1666.58</ele>
        <time>2013-04-10T13:10:26Z</time>
      </trkpt>
      <trkpt lat="44.4808" lon="6.9232">
        <ele>1666.1</ele>
        <time>2013-04-10T13:10:27Z</time>
      </trkpt>
      <trkpt lat="44.48085" lon="6.92321">
        <ele>1665.14</ele>
        <time>2013-04-10T13:10:28Z</time>
      </trkpt>
      <trkpt lat="44.48089" lon="6.92321">
        <ele>1664.18</ele>
        <time>2013-04-10T13:10:29Z</time>
      </trkpt>
      <trkpt lat="44.48093" lon="6.9232">
        <ele>1664.18</ele>
        <time>2013-04-10T13:10:30Z</time>
      </trkpt>
      <trkpt lat="44.48109" lon="6.92315">
        <ele>1662.26</ele>
        <time>2013-04-10T13:10:40Z</time>
      </trkpt>
      <trkpt lat="44.48108" lon="6.92315">
        <ele>1662.74</ele>
        <time>2013-04-10T13:11:00Z</time>
      </trkpt>
      <trkpt lat="44.4811" lon="6.92315">
        <ele>1662.26</ele>
        <time>2013-04-10T13:11:05Z</time>
      </trkpt>
      <trkpt lat="44.48112" lon="6.92316">
        <ele>1662.26</ele>
        <time>2013-04-10T13:11:06Z</time>
      </trkpt>
      <trkpt lat="44.48125" lon="6.92322">
        <ele>1658.89</ele>
        <time>2013-04-10T13:11:09Z</time>
      </trkpt>
      <trkpt lat="44.48129" lon="6.92324">
        <ele>1657.93</ele>
        <time>2013-04-10T13:11:10Z</time>
      </trkpt>
      <trkpt lat="44.48135" lon="6.92338">
        <ele>1654.57</ele>
        <time>2013-04-10T13:11:13Z</time>
      </trkpt>
      <trkpt lat="44.48136" lon="6.92345">
        <ele>1653.12</ele>
        <time>2013-04-10T13:11:15Z</time>
      </trkpt>
      <trkpt lat="44.48138" lon="6.92345">
        <ele>1653.12</ele>
        <time>2013-04-10T13:11:24Z</time>
      </trkpt>
      <trkpt lat="44.48137" lon="6.92345">
        <ele>1653.12</ele>
        <time>2013-04-10T13:11:38Z</time>
      </trkpt>
      <trkpt lat="44.48137" lon="6.92345">
        <ele>1653.12</ele>
        <time>2013-04-10T13:11:57Z</time>
      </trkpt>
      <trkpt lat="44.48137" lon="6.92346">
        <ele>1651.2</ele>
        <time>2013-04-10T13:12:11Z</time>
      </trkpt>
      <trkpt lat="44.48138" lon="6.92346">
        <ele>1651.2</ele>
        <time>2013-04-10T13:12:27Z</time>
      </trkpt>
      <trkpt lat="44.48131" lon="6.92354">
        <ele>1649.76</ele>
        <time>2013-04-10T13:12:31Z</time>
      </trkpt>
      <trkpt lat="44.48117" lon="6.92371">
        <ele>1645.43</ele>
        <time>2013-04-10T13:12:35Z</time>
      </trkpt>
      <trkpt lat="44.48115" lon="6.92387">
        <ele>1642.07</ele>
        <time>2013-04-10T13:12:40Z</time>
      </trkpt>
      <trkpt lat="44.48115" lon="6.92389">
        <ele>1642.07</ele>
        <time>2013-04-10T13:12:41Z</time>
      </trkpt>
      <trkpt lat="44.48115" lon="6.92398">
        <ele>1639.67</ele>
        <time>2013-04-10T13:12:44Z</time>
      </trkpt>
      <trkpt lat="44.4812" lon="6.92396">
        <ele>1636.3</ele>
        <time>2013-04-10T13:12:51Z</time>
      </trkpt>
      <trkpt lat="44.4812" lon="6.92397">
        <ele>1636.3</ele>
        <time>2013-04-10T13:13:13Z</time>
      </trkpt>
      <trkpt lat="44.4812" lon="6.92397">
        <ele>1636.3</ele>
        <time>2013-04-10T13:13:41Z</time>
      </trkpt>
      <trkpt lat="44.48126" lon="6.92392">
        <ele>1635.34</ele>
        <time>2013-04-10T13:13:51Z</time>
      </trkpt>
      <trkpt lat="44.4813" lon="6.92401">
        <ele>1629.57</ele>
        <time>2013-04-10T13:13:55Z</time>
      </trkpt>
      <trkpt lat="44.48135" lon="6.92408">
        <ele>1625.73</ele>
        <time>2013-04-10T13:13:58Z</time>
      </trkpt>
      <trkpt lat="44.48138" lon="6.92407">
        <ele>1624.77</ele>
        <time>2013-04-10T13:13:59Z</time>
      </trkpt>
      <trkpt lat="44.4814" lon="6.92406">
        <ele>1624.28</ele>
        <time>2013-04-10T13:14:01Z</time>
      </trkpt>
      <trkpt lat="44.4814" lon="6.92406">
        <ele>1624.77</ele>
        <time>2013-04-10T13:14:21Z</time>
      </trkpt>
      <trkpt lat="44.4814" lon="6.92406">
        <ele>1624.77</ele>
        <time>2013-04-10T13:14:40Z</time>
      </trkpt>
      <trkpt lat="44.4814" lon="6.92406">
        <ele>1624.77</ele>
        <time>2013-04-10T13:14:54Z</time>
      </trkpt>
      <trkpt lat="44.48144" lon="6.92411">
        <ele>1623.32</ele>
        <time>2013-04-10T13:14:58Z</time>
      </trkpt>
      <trkpt lat="44.48138" lon="6.92423">
        <ele>1619.48</ele>
        <time>2013-04-10T13:15:01Z</time>
      </trkpt>
      <trkpt lat="44.48143" lon="6.92428">
        <ele>1616.11</ele>
        <time>2013-04-10T13:15:04Z</time>
      </trkpt>
      <trkpt lat="44.48146" lon="6.92427">
        <ele>1615.15</ele>
        <time>2013-04-10T13:15:15Z</time>
      </trkpt>
      <trkpt lat="44.48146" lon="6.92427">
        <ele>1615.15</ele>
        <time>2013-04-10T13:15:35Z</time>
      </trkpt>
      <trkpt lat="44.48146" lon="6.92427">
        <ele>1615.15</ele>
        <time>2013-04-10T13:15:59Z</time>
      </trkpt>
      <trkpt lat="44.48146" lon="6.92427">
        <ele>1615.15</ele>
        <time>2013-04-10T13:16:26Z</time>
      </trkpt>
      <trkpt lat="44.48147" lon="6.92428">
        <ele>1615.15</ele>
        <time>2013-04-10T13:16:47Z</time>
      </trkpt>
      <trkpt lat="44.48148" lon="6.92428">
        <ele>1615.15</ele>
        <time>2013-04-10T13:16:58Z</time>
      </trkpt>
      <trkpt lat="44.4815" lon="6.92437">
        <ele>1611.31</ele>
        <time>2013-04-10T13:17:02Z</time>
      </trkpt>
      <trkpt lat="44.48157" lon="6.92448">
        <ele>1606.5</ele>
        <time>2013-04-10T13:17:07Z</time>
      </trkpt>
      <trkpt lat="44.48167" lon="6.92447">
        <ele>1603.14</ele>
        <time>2013-04-10T13:17:10Z</time>
      </trkpt>
      <trkpt lat="44.48172" lon="6.92448">
        <ele>1602.66</ele>
        <time>2013-04-10T13:17:12Z</time>
      </trkpt>
      <trkpt lat="44.48173" lon="6.92448">
        <ele>1600.73</ele>
        <time>2013-04-10T13:17:15Z</time>
      </trkpt>
      <trkpt lat="44.48174" lon="6.92448">
        <ele>1601.69</ele>
        <time>2013-04-10T13:17:21Z</time>
      </trkpt>
      <trkpt lat="44.48174" lon="6.92448">
        <ele>1601.69</ele>
        <time>2013-04-10T13:17:30Z</time>
      </trkpt>
      <trkpt lat="44.48177" lon="6.92449">
        <ele>1600.73</ele>
        <time>2013-04-10T13:17:45Z</time>
      </trkpt>
      <trkpt lat="44.48184" lon="6.9245">
        <ele>1600.25</ele>
        <time>2013-04-10T13:18:00Z</time>
      </trkpt>
      <trkpt lat="44.48203" lon="6.92459">
        <ele>1595.45</ele>
        <time>2013-04-10T13:18:04Z</time>
      </trkpt>
      <trkpt lat="44.48216" lon="6.92466">
        <ele>1591.6</ele>
        <time>2013-04-10T13:18:07Z</time>
      </trkpt>
      <trkpt lat="44.48219" lon="6.92468">
        <ele>1591.12</ele>
        <time>2013-04-10T13:18:09Z</time>
      </trkpt>
      <trkpt lat="44.48234" lon="6.92476">
        <ele>1589.2</ele>
        <time>2013-04-10T13:18:22Z</time>
      </trkpt>
      <trkpt lat="44.48233" lon="6.92476">
        <ele>1589.2</ele>
        <time>2013-04-10T13:18:38Z</time>
      </trkpt>
      <trkpt lat="44.48233" lon="6.92476">
        <ele>1589.2</ele>
        <time>2013-04-10T13:18:45Z</time>
      </trkpt>
      <trkpt lat="44.48231" lon="6.92494">
        <ele>1585.83</ele>
        <time>2013-04-10T13:18:50Z</time>
      </trkpt>
      <trkpt lat="44.4824" lon="6.92505">
        <ele>1581.99</ele>
        <time>2013-04-10T13:18:54Z</time>
      </trkpt>
      <trkpt lat="44.48257" lon="6.92504">
        <ele>1578.14</ele>
        <time>2013-04-10T13:18:59Z</time>
      </trkpt>
      <trkpt lat="44.48262" lon="6.92505">
        <ele>1578.62</ele>
        <time>2013-04-10T13:19:03Z</time>
      </trkpt>
      <trkpt lat="44.48265" lon="6.92505">
        <ele>1577.18</ele>
        <time>2013-04-10T13:19:06Z</time>
      </trkpt>
      <trkpt lat="44.48267" lon="6.92506">
        <ele>1577.18</ele>
        <time>2013-04-10T13:19:09Z</time>
      </trkpt>
      <trkpt lat="44.48269" lon="6.92507">
        <ele>1576.7</ele>
        <time>2013-04-10T13:19:11Z</time>
      </trkpt>
      <trkpt lat="44.48277" lon="6.9251">
        <ele>1575.26</ele>
        <time>2013-04-10T13:19:17Z</time>
      </trkpt>
      <trkpt lat="44.48285" lon="6.92509">
        <ele>1574.3</ele>
        <time>2013-04-10T13:19:26Z</time>
      </trkpt>
      <trkpt lat="44.48287" lon="6.92509">
        <ele>1574.3</ele>
        <time>2013-04-10T13:19:37Z</time>
      </trkpt>
      <trkpt lat="44.48293" lon="6.92506">
        <ele>1574.3</ele>
        <time>2013-04-10T13:19:51Z</time>
      </trkpt>
      <trkpt lat="44.48308" lon="6.92497">
        <ele>1572.37</ele>
        <time>2013-04-10T13:19:55Z</time>
      </trkpt>
      <trkpt lat="44.48319" lon="6.92491">
        <ele>1571.41</ele>
        <time>2013-04-10T13:19:58Z</time>
      </trkpt>
      <trkpt lat="44.48321" lon="6.92495">
        <ele>1569.49</ele>
        <time>2013-04-10T13:20:02Z</time>
      </trkpt>
      <trkpt lat="44.48315" lon="6.92498">
        <ele>1567.57</ele>
        <time>2013-04-10T13:20:08Z</time>
      </trkpt>
      <trkpt lat="44.48321" lon="6.92499">
        <ele>1567.09</ele>
        <time>2013-04-10T13:20:17Z</time>
      </trkpt>
      <trkpt lat="44.48321" lon="6.92498">
        <ele>1567.09</ele>
        <time>2013-04-10T13:20:28Z</time>
      </trkpt>
      <trkpt lat="44.4834" lon="6.92501">
        <ele>1563.72</ele>
        <time>2013-04-10T13:20:35Z</time>
      </trkpt>
      <trkpt lat="44.48346" lon="6.925">
        <ele>1563.24</ele>
        <time>2013-04-10T13:20:37Z</time>
      </trkpt>
      <trkpt lat="44.48354" lon="6.92497">
        <ele>1561.8</ele>
        <time>2013-04-10T13:20:47Z</time>
      </trkpt>
      <trkpt lat="44.48353" lon="6.92497">
        <ele>1561.8</ele>
        <time>2013-04-10T13:21:06Z</time>
      </trkpt>
      <trkpt lat="44.48384" lon="6.92487">
        <ele>1559.4</ele>
        <time>2013-04-10T13:21:16Z</time>
      </trkpt>
      <trkpt lat="44.48403" lon="6.92486">
        <ele>1556.03</ele>
        <time>2013-04-10T13:21:25Z</time>
      </trkpt>
      <trkpt lat="44.48405" lon="6.92486">
        <ele>1556.03</ele>
        <time>2013-04-10T13:21:34Z</time>
      </trkpt>
      <trkpt lat="44.48406" lon="6.92486">
        <ele>1556.03</ele>
        <time>2013-04-10T13:21:51Z</time>
      </trkpt>
      <trkpt lat="44.48406" lon="6.92486">
        <ele>1556.03</ele>
        <time>2013-04-10T13:21:53Z</time>
      </trkpt>
      <trkpt lat="44.48427" lon="6.92483">
        <ele>1553.15</ele>
        <time>2013-04-10T13:22:00Z</time>
      </trkpt>
      <trkpt lat="44.48441" lon="6.92478">
        <ele>1550.26</ele>
        <time>2013-04-10T13:22:03Z</time>
      </trkpt>
      <trkpt lat="44.48457" lon="6.92476">
        <ele>1548.34</ele>
        <time>2013-04-10T13:22:07Z</time>
      </trkpt>
      <trkpt lat="44.48459" lon="6.92476">
        <ele>1547.86</ele>
        <time>2013-04-10T13:22:19Z</time>
      </trkpt>
      <trkpt lat="44.48459" lon="6.92476">
        <ele>1547.86</ele>
        <time>2013-04-10T13:22:29Z</time>
      </trkpt>
      <trkpt lat="44.48463" lon="6.92477">
        <ele>1546.42</ele>
        <time>2013-04-10T13:22:43Z</time>
      </trkpt>
      <trkpt lat="44.48463" lon="6.92477">
        <ele>1546.42</ele>
        <time>2013-04-10T13:22:45Z</time>
      </trkpt>
      <trkpt lat="44.48472" lon="6.92475">
        <ele>1544.5</ele>
        <time>2013-04-10T13:22:50Z</time>
      </trkpt>
      <trkpt lat="44.48478" lon="6.92478">
        <ele>1543.05</ele>
        <time>2013-04-10T13:22:53Z</time>
      </trkpt>
      <trkpt lat="44.48494" lon="6.92487">
        <ele>1540.17</ele>
        <time>2013-04-10T13:23:06Z</time>
      </trkpt>
      <trkpt lat="44.48495" lon="6.92487">
        <ele>1540.17</ele>
        <time>2013-04-10T13:23:21Z</time>
      </trkpt>
      <trkpt lat="44.48496" lon="6.92486">
        <ele>1541.61</ele>
        <time>2013-04-10T13:23:36Z</time>
      </trkpt>
      <trkpt lat="44.48496" lon="6.92486">
        <ele>1540.17</ele>
        <time>2013-04-10T13:23:38Z</time>
      </trkpt>
      <trkpt lat="44.48496" lon="6.92487">
        <ele>1540.17</ele>
        <time>2013-04-10T13:23:59Z</time>
      </trkpt>
      <trkpt lat="44.48496" lon="6.92487">
        <ele>1540.17</ele>
        <time>2013-04-10T13:24:10Z</time>
      </trkpt>
      <trkpt lat="44.48498" lon="6.92508">
        <ele>1537.29</ele>
        <time>2013-04-10T13:24:16Z</time>
      </trkpt>
      <trkpt lat="44.48504" lon="6.92521">
        <ele>1533.92</ele>
        <time>2013-04-10T13:24:21Z</time>
      </trkpt>
      <trkpt lat="44.48512" lon="6.9253">
        <ele>1533.44</ele>
        <time>2013-04-10T13:24:32Z</time>
      </trkpt>
    </trkseg>
  </trk>
</gpx>